<?xml version="1.0" encoding="UTF-8" standalone="no" ?>
<gpx xmlns="http://www.topografix.com/GPX/1/1" xmlns:xsi="http://www.w3.org/2001/XMLSchema-instance" xsi:schemaLocation="http://www.topografix.com/GPX/1/1 http://www.topografix.com/GPX/1/1/gpx.xsd" version="1.1" creator="VisuGPX - https://www.visugpx.com">
  <metadata>
    <name>GTMG etape 1</name>
    <desc><![CDATA[trace à partir de la GTMC avec départ de VOLVIC]]></desc>
  </metadata>
  <trk>
    <name><![CDATA[Etape1]]></name>
    <trkseg>
      <trkpt lat="45.778" lon="3.08545">
        <ele>401</ele>
        <time>2009-05-22T09:40:34Z</time>
      </trkpt>
      <trkpt lat="45.778" lon="3.08545">
        <ele>401</ele>
        <time>2009-05-22T09:40:35Z</time>
      </trkpt>
      <trkpt lat="45.778" lon="3.08545">
        <ele>401</ele>
        <time>2009-05-22T09:40:36Z</time>
      </trkpt>
      <trkpt lat="45.778" lon="3.08545">
        <ele>401</ele>
        <time>2009-05-22T09:40:37Z</time>
      </trkpt>
      <trkpt lat="45.77803" lon="3.08534">
        <ele>401</ele>
        <time>2009-05-22T09:40:43Z</time>
      </trkpt>
      <trkpt lat="45.77804" lon="3.08534">
        <ele>401</ele>
        <time>2009-05-22T09:40:49Z</time>
      </trkpt>
      <trkpt lat="45.77805" lon="3.08537">
        <ele>401</ele>
        <time>2009-05-22T09:40:58Z</time>
      </trkpt>
      <trkpt lat="45.77805" lon="3.08542">
        <ele>401</ele>
        <time>2009-05-22T09:41:11Z</time>
      </trkpt>
      <trkpt lat="45.77805" lon="3.0854">
        <ele>401</ele>
        <time>2009-05-22T09:41:18Z</time>
      </trkpt>
      <trkpt lat="45.77811" lon="3.08544">
        <ele>401</ele>
        <time>2009-05-22T09:41:24Z</time>
      </trkpt>
      <trkpt lat="45.7783" lon="3.08547">
        <ele>401</ele>
        <time>2009-05-22T09:41:30Z</time>
      </trkpt>
      <trkpt lat="45.77839" lon="3.08548">
        <ele>401</ele>
        <time>2009-05-22T09:41:32Z</time>
      </trkpt>
      <trkpt lat="45.77847" lon="3.08534">
        <ele>401</ele>
        <time>2009-05-22T09:41:36Z</time>
      </trkpt>
      <trkpt lat="45.77852" lon="3.08507">
        <ele>401</ele>
        <time>2009-05-22T09:41:42Z</time>
      </trkpt>
      <trkpt lat="45.77856" lon="3.08499">
        <ele>401</ele>
        <time>2009-05-22T09:41:45Z</time>
      </trkpt>
      <trkpt lat="45.77869" lon="3.08493">
        <ele>400</ele>
        <time>2009-05-22T09:41:49Z</time>
      </trkpt>
      <trkpt lat="45.77876" lon="3.08478">
        <ele>400</ele>
        <time>2009-05-22T09:41:52Z</time>
      </trkpt>
      <trkpt lat="45.77878" lon="3.08469">
        <ele>399</ele>
        <time>2009-05-22T09:41:54Z</time>
      </trkpt>
      <trkpt lat="45.77878" lon="3.08437">
        <ele>398</ele>
        <time>2009-05-22T09:42:01Z</time>
      </trkpt>
      <trkpt lat="45.77878" lon="3.08431">
        <ele>398</ele>
        <time>2009-05-22T09:42:02Z</time>
      </trkpt>
      <trkpt lat="45.77876" lon="3.08401">
        <ele>397</ele>
        <time>2009-05-22T09:42:06Z</time>
      </trkpt>
      <trkpt lat="45.77876" lon="3.08357">
        <ele>396</ele>
        <time>2009-05-22T09:42:11Z</time>
      </trkpt>
      <trkpt lat="45.77875" lon="3.0834">
        <ele>396</ele>
        <time>2009-05-22T09:42:13Z</time>
      </trkpt>
      <trkpt lat="45.77875" lon="3.08322">
        <ele>395</ele>
        <time>2009-05-22T09:42:15Z</time>
      </trkpt>
      <trkpt lat="45.77878" lon="3.08276">
        <ele>393</ele>
        <time>2009-05-22T09:42:21Z</time>
      </trkpt>
      <trkpt lat="45.77873" lon="3.08249">
        <ele>392</ele>
        <time>2009-05-22T09:42:25Z</time>
      </trkpt>
      <trkpt lat="45.77872" lon="3.08223">
        <ele>391</ele>
        <time>2009-05-22T09:42:31Z</time>
      </trkpt>
      <trkpt lat="45.77874" lon="3.08191">
        <ele>390</ele>
        <time>2009-05-22T09:42:38Z</time>
      </trkpt>
      <trkpt lat="45.77873" lon="3.08172">
        <ele>389</ele>
        <time>2009-05-22T09:42:43Z</time>
      </trkpt>
      <trkpt lat="45.77869" lon="3.08153">
        <ele>389</ele>
        <time>2009-05-22T09:42:50Z</time>
      </trkpt>
      <trkpt lat="45.77867" lon="3.08146">
        <ele>388</ele>
        <time>2009-05-22T09:42:55Z</time>
      </trkpt>
      <trkpt lat="45.77863" lon="3.0815">
        <ele>389</ele>
        <time>2009-05-22T09:43:13Z</time>
      </trkpt>
      <trkpt lat="45.77862" lon="3.08153">
        <ele>389</ele>
        <time>2009-05-22T09:43:16Z</time>
      </trkpt>
      <trkpt lat="45.77851" lon="3.08161">
        <ele>389</ele>
        <time>2009-05-22T09:43:23Z</time>
      </trkpt>
      <trkpt lat="45.77831" lon="3.08169">
        <ele>389</ele>
        <time>2009-05-22T09:43:30Z</time>
      </trkpt>
      <trkpt lat="45.77811" lon="3.08175">
        <ele>389</ele>
        <time>2009-05-22T09:43:36Z</time>
      </trkpt>
      <trkpt lat="45.77788" lon="3.08179">
        <ele>389</ele>
        <time>2009-05-22T09:43:42Z</time>
      </trkpt>
      <trkpt lat="45.77765" lon="3.08183">
        <ele>390</ele>
        <time>2009-05-22T09:43:48Z</time>
      </trkpt>
      <trkpt lat="45.77743" lon="3.08175">
        <ele>389</ele>
        <time>2009-05-22T09:43:55Z</time>
      </trkpt>
      <trkpt lat="45.7771" lon="3.08155">
        <ele>388</ele>
        <time>2009-05-22T09:44:04Z</time>
      </trkpt>
      <trkpt lat="45.77704" lon="3.08141">
        <ele>387</ele>
        <time>2009-05-22T09:44:08Z</time>
      </trkpt>
      <trkpt lat="45.777" lon="3.08107">
        <ele>387</ele>
        <time>2009-05-22T09:44:15Z</time>
      </trkpt>
      <trkpt lat="45.777" lon="3.08063">
        <ele>386</ele>
        <time>2009-05-22T09:44:23Z</time>
      </trkpt>
      <trkpt lat="45.77699" lon="3.08014">
        <ele>385</ele>
        <time>2009-05-22T09:44:32Z</time>
      </trkpt>
      <trkpt lat="45.77695" lon="3.07956">
        <ele>384</ele>
        <time>2009-05-22T09:44:42Z</time>
      </trkpt>
      <trkpt lat="45.77694" lon="3.07936">
        <ele>384</ele>
        <time>2009-05-22T09:44:45Z</time>
      </trkpt>
      <trkpt lat="45.7769" lon="3.0789">
        <ele>383</ele>
        <time>2009-05-22T09:44:53Z</time>
      </trkpt>
      <trkpt lat="45.77689" lon="3.07874">
        <ele>383</ele>
        <time>2009-05-22T09:44:56Z</time>
      </trkpt>
      <trkpt lat="45.77695" lon="3.07868">
        <ele>383</ele>
        <time>2009-05-22T09:45:00Z</time>
      </trkpt>
      <trkpt lat="45.77701" lon="3.07868">
        <ele>383</ele>
        <time>2009-05-22T09:45:02Z</time>
      </trkpt>
      <trkpt lat="45.77718" lon="3.07857">
        <ele>383</ele>
        <time>2009-05-22T09:45:08Z</time>
      </trkpt>
      <trkpt lat="45.77734" lon="3.07846">
        <ele>383</ele>
        <time>2009-05-22T09:45:13Z</time>
      </trkpt>
      <trkpt lat="45.77759" lon="3.07837">
        <ele>383</ele>
        <time>2009-05-22T09:45:20Z</time>
      </trkpt>
      <trkpt lat="45.77796" lon="3.07823">
        <ele>383</ele>
        <time>2009-05-22T09:45:30Z</time>
      </trkpt>
      <trkpt lat="45.77835" lon="3.07809">
        <ele>383</ele>
        <time>2009-05-22T09:45:39Z</time>
      </trkpt>
      <trkpt lat="45.77874" lon="3.07797">
        <ele>383</ele>
        <time>2009-05-22T09:45:48Z</time>
      </trkpt>
      <trkpt lat="45.77902" lon="3.07787">
        <ele>382</ele>
        <time>2009-05-22T09:45:55Z</time>
      </trkpt>
      <trkpt lat="45.77925" lon="3.07773">
        <ele>382</ele>
        <time>2009-05-22T09:46:02Z</time>
      </trkpt>
      <trkpt lat="45.77937" lon="3.07766">
        <ele>382</ele>
        <time>2009-05-22T09:46:08Z</time>
      </trkpt>
      <trkpt lat="45.77951" lon="3.0776">
        <ele>382</ele>
        <time>2009-05-22T09:46:14Z</time>
      </trkpt>
      <trkpt lat="45.77978" lon="3.07749">
        <ele>381</ele>
        <time>2009-05-22T09:46:21Z</time>
      </trkpt>
      <trkpt lat="45.78006" lon="3.07738">
        <ele>380</ele>
        <time>2009-05-22T09:46:28Z</time>
      </trkpt>
      <trkpt lat="45.78029" lon="3.07713">
        <ele>380</ele>
        <time>2009-05-22T09:46:34Z</time>
      </trkpt>
      <trkpt lat="45.78055" lon="3.07682">
        <ele>379</ele>
        <time>2009-05-22T09:46:41Z</time>
      </trkpt>
      <trkpt lat="45.78059" lon="3.07678">
        <ele>379</ele>
        <time>2009-05-22T09:46:44Z</time>
      </trkpt>
      <trkpt lat="45.78059" lon="3.07678">
        <ele>379</ele>
        <time>2009-05-22T09:46:58Z</time>
      </trkpt>
      <trkpt lat="45.78057" lon="3.07675">
        <ele>379</ele>
        <time>2009-05-22T09:47:10Z</time>
      </trkpt>
      <trkpt lat="45.78058" lon="3.07672">
        <ele>379</ele>
        <time>2009-05-22T09:47:27Z</time>
      </trkpt>
      <trkpt lat="45.7807" lon="3.07662">
        <ele>379</ele>
        <time>2009-05-22T09:47:32Z</time>
      </trkpt>
      <trkpt lat="45.7808" lon="3.07647">
        <ele>379</ele>
        <time>2009-05-22T09:47:36Z</time>
      </trkpt>
      <trkpt lat="45.78082" lon="3.07642">
        <ele>379</ele>
        <time>2009-05-22T09:47:37Z</time>
      </trkpt>
      <trkpt lat="45.78088" lon="3.07613">
        <ele>378</ele>
        <time>2009-05-22T09:47:43Z</time>
      </trkpt>
      <trkpt lat="45.78091" lon="3.07602">
        <ele>378</ele>
        <time>2009-05-22T09:47:48Z</time>
      </trkpt>
      <trkpt lat="45.78092" lon="3.07598">
        <ele>378</ele>
        <time>2009-05-22T09:47:53Z</time>
      </trkpt>
      <trkpt lat="45.78094" lon="3.07578">
        <ele>378</ele>
        <time>2009-05-22T09:47:59Z</time>
      </trkpt>
      <trkpt lat="45.781" lon="3.07555">
        <ele>378</ele>
        <time>2009-05-22T09:48:05Z</time>
      </trkpt>
      <trkpt lat="45.7811" lon="3.07531">
        <ele>378</ele>
        <time>2009-05-22T09:48:11Z</time>
      </trkpt>
      <trkpt lat="45.7812" lon="3.07508">
        <ele>379</ele>
        <time>2009-05-22T09:48:16Z</time>
      </trkpt>
      <trkpt lat="45.78132" lon="3.07481">
        <ele>379</ele>
        <time>2009-05-22T09:48:22Z</time>
      </trkpt>
      <trkpt lat="45.78153" lon="3.07439">
        <ele>379</ele>
        <time>2009-05-22T09:48:31Z</time>
      </trkpt>
      <trkpt lat="45.78176" lon="3.07388">
        <ele>380</ele>
        <time>2009-05-22T09:48:42Z</time>
      </trkpt>
      <trkpt lat="45.78194" lon="3.07348">
        <ele>381</ele>
        <time>2009-05-22T09:48:51Z</time>
      </trkpt>
      <trkpt lat="45.78203" lon="3.07326">
        <ele>381</ele>
        <time>2009-05-22T09:48:58Z</time>
      </trkpt>
      <trkpt lat="45.78207" lon="3.07314">
        <ele>382</ele>
        <time>2009-05-22T09:49:03Z</time>
      </trkpt>
      <trkpt lat="45.78212" lon="3.07302">
        <ele>382</ele>
        <time>2009-05-22T09:49:10Z</time>
      </trkpt>
      <trkpt lat="45.78223" lon="3.07283">
        <ele>383</ele>
        <time>2009-05-22T09:49:16Z</time>
      </trkpt>
      <trkpt lat="45.78234" lon="3.07262">
        <ele>383</ele>
        <time>2009-05-22T09:49:21Z</time>
      </trkpt>
      <trkpt lat="45.78249" lon="3.07231">
        <ele>384</ele>
        <time>2009-05-22T09:49:28Z</time>
      </trkpt>
      <trkpt lat="45.78266" lon="3.07189">
        <ele>386</ele>
        <time>2009-05-22T09:49:37Z</time>
      </trkpt>
      <trkpt lat="45.78283" lon="3.0715">
        <ele>388</ele>
        <time>2009-05-22T09:49:46Z</time>
      </trkpt>
      <trkpt lat="45.78296" lon="3.07121">
        <ele>390</ele>
        <time>2009-05-22T09:49:54Z</time>
      </trkpt>
      <trkpt lat="45.7831" lon="3.07091">
        <ele>391</ele>
        <time>2009-05-22T09:50:03Z</time>
      </trkpt>
      <trkpt lat="45.78327" lon="3.07058">
        <ele>393</ele>
        <time>2009-05-22T09:50:13Z</time>
      </trkpt>
      <trkpt lat="45.78344" lon="3.0702">
        <ele>396</ele>
        <time>2009-05-22T09:50:24Z</time>
      </trkpt>
      <trkpt lat="45.78358" lon="3.06988">
        <ele>398</ele>
        <time>2009-05-22T09:50:34Z</time>
      </trkpt>
      <trkpt lat="45.78367" lon="3.06966">
        <ele>400</ele>
        <time>2009-05-22T09:50:41Z</time>
      </trkpt>
      <trkpt lat="45.78383" lon="3.06929">
        <ele>402</ele>
        <time>2009-05-22T09:50:53Z</time>
      </trkpt>
      <trkpt lat="45.78399" lon="3.06894">
        <ele>402</ele>
        <time>2009-05-22T09:51:04Z</time>
      </trkpt>
      <trkpt lat="45.78408" lon="3.06867">
        <ele>402</ele>
        <time>2009-05-22T09:51:12Z</time>
      </trkpt>
      <trkpt lat="45.78421" lon="3.06833">
        <ele>403</ele>
        <time>2009-05-22T09:51:22Z</time>
      </trkpt>
      <trkpt lat="45.7843" lon="3.06797">
        <ele>404</ele>
        <time>2009-05-22T09:51:32Z</time>
      </trkpt>
      <trkpt lat="45.78435" lon="3.06772">
        <ele>405</ele>
        <time>2009-05-22T09:51:39Z</time>
      </trkpt>
      <trkpt lat="45.78441" lon="3.06745">
        <ele>406</ele>
        <time>2009-05-22T09:51:47Z</time>
      </trkpt>
      <trkpt lat="45.78449" lon="3.06705">
        <ele>409</ele>
        <time>2009-05-22T09:51:58Z</time>
      </trkpt>
      <trkpt lat="45.78456" lon="3.06664">
        <ele>411</ele>
        <time>2009-05-22T09:52:09Z</time>
      </trkpt>
      <trkpt lat="45.78462" lon="3.06639">
        <ele>412</ele>
        <time>2009-05-22T09:52:16Z</time>
      </trkpt>
      <trkpt lat="45.78468" lon="3.06612">
        <ele>414</ele>
        <time>2009-05-22T09:52:24Z</time>
      </trkpt>
      <trkpt lat="45.78476" lon="3.06569">
        <ele>417</ele>
        <time>2009-05-22T09:52:36Z</time>
      </trkpt>
      <trkpt lat="45.78483" lon="3.06545">
        <ele>419</ele>
        <time>2009-05-22T09:52:43Z</time>
      </trkpt>
      <trkpt lat="45.78492" lon="3.06521">
        <ele>421</ele>
        <time>2009-05-22T09:52:51Z</time>
      </trkpt>
      <trkpt lat="45.78501" lon="3.06509">
        <ele>422</ele>
        <time>2009-05-22T09:52:56Z</time>
      </trkpt>
      <trkpt lat="45.78512" lon="3.06499">
        <ele>423</ele>
        <time>2009-05-22T09:53:02Z</time>
      </trkpt>
      <trkpt lat="45.78528" lon="3.06486">
        <ele>425</ele>
        <time>2009-05-22T09:53:10Z</time>
      </trkpt>
      <trkpt lat="45.78541" lon="3.0647">
        <ele>426</ele>
        <time>2009-05-22T09:53:18Z</time>
      </trkpt>
      <trkpt lat="45.78551" lon="3.06473">
        <ele>427</ele>
        <time>2009-05-22T09:53:22Z</time>
      </trkpt>
      <trkpt lat="45.78573" lon="3.06495">
        <ele>427</ele>
        <time>2009-05-22T09:53:31Z</time>
      </trkpt>
      <trkpt lat="45.78591" lon="3.0651">
        <ele>428</ele>
        <time>2009-05-22T09:53:37Z</time>
      </trkpt>
      <trkpt lat="45.78608" lon="3.06524">
        <ele>428</ele>
        <time>2009-05-22T09:53:44Z</time>
      </trkpt>
      <trkpt lat="45.78627" lon="3.06549">
        <ele>429</ele>
        <time>2009-05-22T09:53:53Z</time>
      </trkpt>
      <trkpt lat="45.78639" lon="3.06576">
        <ele>428</ele>
        <time>2009-05-22T09:54:01Z</time>
      </trkpt>
      <trkpt lat="45.78652" lon="3.06603">
        <ele>428</ele>
        <time>2009-05-22T09:54:09Z</time>
      </trkpt>
      <trkpt lat="45.78675" lon="3.06615">
        <ele>430</ele>
        <time>2009-05-22T09:54:17Z</time>
      </trkpt>
      <trkpt lat="45.78702" lon="3.06609">
        <ele>432</ele>
        <time>2009-05-22T09:54:26Z</time>
      </trkpt>
      <trkpt lat="45.78722" lon="3.0659">
        <ele>433</ele>
        <time>2009-05-22T09:54:34Z</time>
      </trkpt>
      <trkpt lat="45.78737" lon="3.06556">
        <ele>436</ele>
        <time>2009-05-22T09:54:43Z</time>
      </trkpt>
      <trkpt lat="45.78749" lon="3.06519">
        <ele>438</ele>
        <time>2009-05-22T09:54:52Z</time>
      </trkpt>
      <trkpt lat="45.78764" lon="3.06474">
        <ele>439</ele>
        <time>2009-05-22T09:55:03Z</time>
      </trkpt>
      <trkpt lat="45.7878" lon="3.06444">
        <ele>441</ele>
        <time>2009-05-22T09:55:11Z</time>
      </trkpt>
      <trkpt lat="45.78801" lon="3.06426">
        <ele>442</ele>
        <time>2009-05-22T09:55:19Z</time>
      </trkpt>
      <trkpt lat="45.78825" lon="3.06419">
        <ele>443</ele>
        <time>2009-05-22T09:55:27Z</time>
      </trkpt>
      <trkpt lat="45.78846" lon="3.06415">
        <ele>444</ele>
        <time>2009-05-22T09:55:34Z</time>
      </trkpt>
      <trkpt lat="45.78874" lon="3.0641">
        <ele>444</ele>
        <time>2009-05-22T09:55:43Z</time>
      </trkpt>
      <trkpt lat="45.78896" lon="3.06392">
        <ele>445</ele>
        <time>2009-05-22T09:55:51Z</time>
      </trkpt>
      <trkpt lat="45.78909" lon="3.06366">
        <ele>445</ele>
        <time>2009-05-22T09:55:58Z</time>
      </trkpt>
      <trkpt lat="45.78919" lon="3.06328">
        <ele>446</ele>
        <time>2009-05-22T09:56:07Z</time>
      </trkpt>
      <trkpt lat="45.78931" lon="3.06279">
        <ele>447</ele>
        <time>2009-05-22T09:56:18Z</time>
      </trkpt>
      <trkpt lat="45.78937" lon="3.06247">
        <ele>448</ele>
        <time>2009-05-22T09:56:25Z</time>
      </trkpt>
      <trkpt lat="45.78944" lon="3.06195">
        <ele>450</ele>
        <time>2009-05-22T09:56:36Z</time>
      </trkpt>
      <trkpt lat="45.78948" lon="3.06168">
        <ele>451</ele>
        <time>2009-05-22T09:56:42Z</time>
      </trkpt>
      <trkpt lat="45.78961" lon="3.0612">
        <ele>454</ele>
        <time>2009-05-22T09:56:53Z</time>
      </trkpt>
      <trkpt lat="45.78976" lon="3.06072">
        <ele>457</ele>
        <time>2009-05-22T09:57:04Z</time>
      </trkpt>
      <trkpt lat="45.78986" lon="3.06038">
        <ele>459</ele>
        <time>2009-05-22T09:57:12Z</time>
      </trkpt>
      <trkpt lat="45.79001" lon="3.05987">
        <ele>461</ele>
        <time>2009-05-22T09:57:24Z</time>
      </trkpt>
      <trkpt lat="45.79017" lon="3.05943">
        <ele>461</ele>
        <time>2009-05-22T09:57:35Z</time>
      </trkpt>
      <trkpt lat="45.79037" lon="3.05927">
        <ele>461</ele>
        <time>2009-05-22T09:57:42Z</time>
      </trkpt>
      <trkpt lat="45.79059" lon="3.05926">
        <ele>462</ele>
        <time>2009-05-22T09:57:49Z</time>
      </trkpt>
      <trkpt lat="45.79088" lon="3.05929">
        <ele>466</ele>
        <time>2009-05-22T09:57:58Z</time>
      </trkpt>
      <trkpt lat="45.79122" lon="3.05935">
        <ele>473</ele>
        <time>2009-05-22T09:58:09Z</time>
      </trkpt>
      <trkpt lat="45.79134" lon="3.05951">
        <ele>476</ele>
        <time>2009-05-22T09:58:14Z</time>
      </trkpt>
      <trkpt lat="45.79139" lon="3.05977">
        <ele>477</ele>
        <time>2009-05-22T09:58:20Z</time>
      </trkpt>
      <trkpt lat="45.79141" lon="3.0601">
        <ele>476</ele>
        <time>2009-05-22T09:58:27Z</time>
      </trkpt>
      <trkpt lat="45.79146" lon="3.06058">
        <ele>474</ele>
        <time>2009-05-22T09:58:37Z</time>
      </trkpt>
      <trkpt lat="45.79154" lon="3.06083">
        <ele>472</ele>
        <time>2009-05-22T09:58:43Z</time>
      </trkpt>
      <trkpt lat="45.79172" lon="3.06104">
        <ele>472</ele>
        <time>2009-05-22T09:58:50Z</time>
      </trkpt>
      <trkpt lat="45.79194" lon="3.06116">
        <ele>473</ele>
        <time>2009-05-22T09:58:57Z</time>
      </trkpt>
      <trkpt lat="45.79216" lon="3.06127">
        <ele>477</ele>
        <time>2009-05-22T09:59:04Z</time>
      </trkpt>
      <trkpt lat="45.79236" lon="3.0614">
        <ele>480</ele>
        <time>2009-05-22T09:59:11Z</time>
      </trkpt>
      <trkpt lat="45.79243" lon="3.0615">
        <ele>482</ele>
        <time>2009-05-22T09:59:14Z</time>
      </trkpt>
      <trkpt lat="45.7925" lon="3.06172">
        <ele>483</ele>
        <time>2009-05-22T09:59:19Z</time>
      </trkpt>
      <trkpt lat="45.79253" lon="3.06222">
        <ele>482</ele>
        <time>2009-05-22T09:59:30Z</time>
      </trkpt>
      <trkpt lat="45.79258" lon="3.06256">
        <ele>479</ele>
        <time>2009-05-22T09:59:38Z</time>
      </trkpt>
      <trkpt lat="45.79272" lon="3.06274">
        <ele>477</ele>
        <time>2009-05-22T09:59:44Z</time>
      </trkpt>
      <trkpt lat="45.79295" lon="3.06282">
        <ele>475</ele>
        <time>2009-05-22T09:59:51Z</time>
      </trkpt>
      <trkpt lat="45.79318" lon="3.06273">
        <ele>475</ele>
        <time>2009-05-22T09:59:58Z</time>
      </trkpt>
      <trkpt lat="45.79354" lon="3.06253">
        <ele>477</ele>
        <time>2009-05-22T10:00:10Z</time>
      </trkpt>
      <trkpt lat="45.79384" lon="3.06235">
        <ele>478</ele>
        <time>2009-05-22T10:00:20Z</time>
      </trkpt>
      <trkpt lat="45.79418" lon="3.0622">
        <ele>483</ele>
        <time>2009-05-22T10:00:31Z</time>
      </trkpt>
      <trkpt lat="45.79449" lon="3.0621">
        <ele>484</ele>
        <time>2009-05-22T10:00:41Z</time>
      </trkpt>
      <trkpt lat="45.79481" lon="3.062">
        <ele>484</ele>
        <time>2009-05-22T10:00:51Z</time>
      </trkpt>
      <trkpt lat="45.79513" lon="3.0619">
        <ele>486</ele>
        <time>2009-05-22T10:01:01Z</time>
      </trkpt>
      <trkpt lat="45.79541" lon="3.0618">
        <ele>488</ele>
        <time>2009-05-22T10:01:10Z</time>
      </trkpt>
      <trkpt lat="45.79565" lon="3.06165">
        <ele>490</ele>
        <time>2009-05-22T10:01:18Z</time>
      </trkpt>
      <trkpt lat="45.79584" lon="3.0615">
        <ele>496</ele>
        <time>2009-05-22T10:01:26Z</time>
      </trkpt>
      <trkpt lat="45.79603" lon="3.06133">
        <ele>499</ele>
        <time>2009-05-22T10:01:33Z</time>
      </trkpt>
      <trkpt lat="45.79621" lon="3.06116">
        <ele>503</ele>
        <time>2009-05-22T10:01:40Z</time>
      </trkpt>
      <trkpt lat="45.79641" lon="3.06091">
        <ele>507</ele>
        <time>2009-05-22T10:01:49Z</time>
      </trkpt>
      <trkpt lat="45.79658" lon="3.06059">
        <ele>508</ele>
        <time>2009-05-22T10:01:58Z</time>
      </trkpt>
      <trkpt lat="45.79672" lon="3.06017">
        <ele>508</ele>
        <time>2009-05-22T10:02:08Z</time>
      </trkpt>
      <trkpt lat="45.79683" lon="3.05977">
        <ele>505</ele>
        <time>2009-05-22T10:02:18Z</time>
      </trkpt>
      <trkpt lat="45.7969" lon="3.05953">
        <ele>505</ele>
        <time>2009-05-22T10:02:24Z</time>
      </trkpt>
      <trkpt lat="45.79696" lon="3.05952">
        <ele>505</ele>
        <time>2009-05-22T10:02:28Z</time>
      </trkpt>
      <trkpt lat="45.79696" lon="3.05956">
        <ele>505</ele>
        <time>2009-05-22T10:02:30Z</time>
      </trkpt>
      <trkpt lat="45.79692" lon="3.05976">
        <ele>506</ele>
        <time>2009-05-22T10:02:38Z</time>
      </trkpt>
      <trkpt lat="45.79685" lon="3.06012">
        <ele>509</ele>
        <time>2009-05-22T10:02:50Z</time>
      </trkpt>
      <trkpt lat="45.79683" lon="3.06036">
        <ele>512</ele>
        <time>2009-05-22T10:02:58Z</time>
      </trkpt>
      <trkpt lat="45.79682" lon="3.06063">
        <ele>514</ele>
        <time>2009-05-22T10:03:07Z</time>
      </trkpt>
      <trkpt lat="45.79683" lon="3.06083">
        <ele>516</ele>
        <time>2009-05-22T10:03:14Z</time>
      </trkpt>
      <trkpt lat="45.79687" lon="3.06116">
        <ele>521</ele>
        <time>2009-05-22T10:03:26Z</time>
      </trkpt>
      <trkpt lat="45.79698" lon="3.06132">
        <ele>527</ele>
        <time>2009-05-22T10:03:34Z</time>
      </trkpt>
      <trkpt lat="45.79713" lon="3.06134">
        <ele>531</ele>
        <time>2009-05-22T10:03:42Z</time>
      </trkpt>
      <trkpt lat="45.7973" lon="3.06127">
        <ele>536</ele>
        <time>2009-05-22T10:03:51Z</time>
      </trkpt>
      <trkpt lat="45.79746" lon="3.06115">
        <ele>538</ele>
        <time>2009-05-22T10:04:00Z</time>
      </trkpt>
      <trkpt lat="45.79766" lon="3.06097">
        <ele>540</ele>
        <time>2009-05-22T10:04:11Z</time>
      </trkpt>
      <trkpt lat="45.79785" lon="3.06077">
        <ele>541</ele>
        <time>2009-05-22T10:04:22Z</time>
      </trkpt>
      <trkpt lat="45.79811" lon="3.06052">
        <ele>540</ele>
        <time>2009-05-22T10:04:36Z</time>
      </trkpt>
      <trkpt lat="45.79826" lon="3.06044">
        <ele>541</ele>
        <time>2009-05-22T10:04:44Z</time>
      </trkpt>
      <trkpt lat="45.79845" lon="3.06042">
        <ele>543</ele>
        <time>2009-05-22T10:04:53Z</time>
      </trkpt>
      <trkpt lat="45.79866" lon="3.06046">
        <ele>546</ele>
        <time>2009-05-22T10:05:03Z</time>
      </trkpt>
      <trkpt lat="45.79886" lon="3.06051">
        <ele>548</ele>
        <time>2009-05-22T10:05:13Z</time>
      </trkpt>
      <trkpt lat="45.79901" lon="3.06053">
        <ele>550</ele>
        <time>2009-05-22T10:05:21Z</time>
      </trkpt>
      <trkpt lat="45.79913" lon="3.06056">
        <ele>551</ele>
        <time>2009-05-22T10:05:28Z</time>
      </trkpt>
      <trkpt lat="45.79926" lon="3.06058">
        <ele>552</ele>
        <time>2009-05-22T10:05:36Z</time>
      </trkpt>
      <trkpt lat="45.79938" lon="3.0606">
        <ele>554</ele>
        <time>2009-05-22T10:05:43Z</time>
      </trkpt>
      <trkpt lat="45.79953" lon="3.06062">
        <ele>555</ele>
        <time>2009-05-22T10:05:52Z</time>
      </trkpt>
      <trkpt lat="45.7997" lon="3.06067">
        <ele>556</ele>
        <time>2009-05-22T10:06:02Z</time>
      </trkpt>
      <trkpt lat="45.79976" lon="3.06071">
        <ele>557</ele>
        <time>2009-05-22T10:06:06Z</time>
      </trkpt>
      <trkpt lat="45.79987" lon="3.06082">
        <ele>558</ele>
        <time>2009-05-22T10:06:14Z</time>
      </trkpt>
      <trkpt lat="45.79992" lon="3.06092">
        <ele>560</ele>
        <time>2009-05-22T10:06:20Z</time>
      </trkpt>
      <trkpt lat="45.79987" lon="3.06095">
        <ele>560</ele>
        <time>2009-05-22T10:06:25Z</time>
      </trkpt>
      <trkpt lat="45.79976" lon="3.06099">
        <ele>561</ele>
        <time>2009-05-22T10:06:29Z</time>
      </trkpt>
      <trkpt lat="45.79951" lon="3.06114">
        <ele>565</ele>
        <time>2009-05-22T10:06:39Z</time>
      </trkpt>
      <trkpt lat="45.79925" lon="3.0613">
        <ele>570</ele>
        <time>2009-05-22T10:06:49Z</time>
      </trkpt>
      <trkpt lat="45.799" lon="3.06143">
        <ele>572</ele>
        <time>2009-05-22T10:06:58Z</time>
      </trkpt>
      <trkpt lat="45.79879" lon="3.06156">
        <ele>574</ele>
        <time>2009-05-22T10:07:06Z</time>
      </trkpt>
      <trkpt lat="45.7986" lon="3.06176">
        <ele>576</ele>
        <time>2009-05-22T10:07:15Z</time>
      </trkpt>
      <trkpt lat="45.79848" lon="3.06195">
        <ele>576</ele>
        <time>2009-05-22T10:07:22Z</time>
      </trkpt>
      <trkpt lat="45.79836" lon="3.06214">
        <ele>578</ele>
        <time>2009-05-22T10:07:29Z</time>
      </trkpt>
      <trkpt lat="45.79828" lon="3.06235">
        <ele>579</ele>
        <time>2009-05-22T10:07:36Z</time>
      </trkpt>
      <trkpt lat="45.7982" lon="3.06263">
        <ele>579</ele>
        <time>2009-05-22T10:07:45Z</time>
      </trkpt>
      <trkpt lat="45.79817" lon="3.06287">
        <ele>581</ele>
        <time>2009-05-22T10:07:53Z</time>
      </trkpt>
      <trkpt lat="45.79816" lon="3.0631">
        <ele>583</ele>
        <time>2009-05-22T10:08:01Z</time>
      </trkpt>
      <trkpt lat="45.79817" lon="3.0633">
        <ele>585</ele>
        <time>2009-05-22T10:08:09Z</time>
      </trkpt>
      <trkpt lat="45.79817" lon="3.06356">
        <ele>587</ele>
        <time>2009-05-22T10:08:19Z</time>
      </trkpt>
      <trkpt lat="45.79817" lon="3.06378">
        <ele>589</ele>
        <time>2009-05-22T10:08:28Z</time>
      </trkpt>
      <trkpt lat="45.79817" lon="3.06387">
        <ele>589</ele>
        <time>2009-05-22T10:08:32Z</time>
      </trkpt>
      <trkpt lat="45.79816" lon="3.06407">
        <ele>591</ele>
        <time>2009-05-22T10:08:40Z</time>
      </trkpt>
      <trkpt lat="45.79816" lon="3.06424">
        <ele>592</ele>
        <time>2009-05-22T10:08:47Z</time>
      </trkpt>
      <trkpt lat="45.79817" lon="3.0644">
        <ele>592</ele>
        <time>2009-05-22T10:08:54Z</time>
      </trkpt>
      <trkpt lat="45.79819" lon="3.06458">
        <ele>592</ele>
        <time>2009-05-22T10:09:02Z</time>
      </trkpt>
      <trkpt lat="45.79822" lon="3.06476">
        <ele>593</ele>
        <time>2009-05-22T10:09:10Z</time>
      </trkpt>
      <trkpt lat="45.79827" lon="3.06493">
        <ele>593</ele>
        <time>2009-05-22T10:09:18Z</time>
      </trkpt>
      <trkpt lat="45.79836" lon="3.06511">
        <ele>594</ele>
        <time>2009-05-22T10:09:27Z</time>
      </trkpt>
      <trkpt lat="45.79847" lon="3.06534">
        <ele>595</ele>
        <time>2009-05-22T10:09:38Z</time>
      </trkpt>
      <trkpt lat="45.79857" lon="3.06551">
        <ele>597</ele>
        <time>2009-05-22T10:09:46Z</time>
      </trkpt>
      <trkpt lat="45.79868" lon="3.06571">
        <ele>598</ele>
        <time>2009-05-22T10:09:54Z</time>
      </trkpt>
      <trkpt lat="45.79873" lon="3.06584">
        <ele>599</ele>
        <time>2009-05-22T10:09:59Z</time>
      </trkpt>
      <trkpt lat="45.79883" lon="3.06602">
        <ele>600</ele>
        <time>2009-05-22T10:10:06Z</time>
      </trkpt>
      <trkpt lat="45.79891" lon="3.0662">
        <ele>600</ele>
        <time>2009-05-22T10:10:13Z</time>
      </trkpt>
      <trkpt lat="45.79905" lon="3.06645">
        <ele>601</ele>
        <time>2009-05-22T10:10:23Z</time>
      </trkpt>
      <trkpt lat="45.79915" lon="3.06666">
        <ele>602</ele>
        <time>2009-05-22T10:10:31Z</time>
      </trkpt>
      <trkpt lat="45.7993" lon="3.06692">
        <ele>603</ele>
        <time>2009-05-22T10:10:41Z</time>
      </trkpt>
      <trkpt lat="45.7994" lon="3.06712">
        <ele>603</ele>
        <time>2009-05-22T10:10:49Z</time>
      </trkpt>
      <trkpt lat="45.79954" lon="3.06736">
        <ele>604</ele>
        <time>2009-05-22T10:10:58Z</time>
      </trkpt>
      <trkpt lat="45.7996" lon="3.06751">
        <ele>604</ele>
        <time>2009-05-22T10:11:04Z</time>
      </trkpt>
      <trkpt lat="45.79965" lon="3.06767">
        <ele>603</ele>
        <time>2009-05-22T10:11:11Z</time>
      </trkpt>
      <trkpt lat="45.7997" lon="3.06783">
        <ele>602</ele>
        <time>2009-05-22T10:11:18Z</time>
      </trkpt>
      <trkpt lat="45.79969" lon="3.06784">
        <ele>601</ele>
        <time>2009-05-22T10:11:23Z</time>
      </trkpt>
      <trkpt lat="45.79969" lon="3.06785">
        <ele>601</ele>
        <time>2009-05-22T10:11:29Z</time>
      </trkpt>
      <trkpt lat="45.79969" lon="3.06787">
        <ele>601</ele>
        <time>2009-05-22T10:11:42Z</time>
      </trkpt>
      <trkpt lat="45.79974" lon="3.06795">
        <ele>601</ele>
        <time>2009-05-22T10:11:46Z</time>
      </trkpt>
      <trkpt lat="45.7999" lon="3.0683">
        <ele>600</ele>
        <time>2009-05-22T10:11:54Z</time>
      </trkpt>
      <trkpt lat="45.8" lon="3.06855">
        <ele>600</ele>
        <time>2009-05-22T10:11:59Z</time>
      </trkpt>
      <trkpt lat="45.8002" lon="3.06896">
        <ele>599</ele>
        <time>2009-05-22T10:12:07Z</time>
      </trkpt>
      <trkpt lat="45.80031" lon="3.06917">
        <ele>599</ele>
        <time>2009-05-22T10:12:13Z</time>
      </trkpt>
      <trkpt lat="45.80032" lon="3.06918">
        <ele>599</ele>
        <time>2009-05-22T10:12:18Z</time>
      </trkpt>
      <trkpt lat="45.80032" lon="3.06918">
        <ele>599</ele>
        <time>2009-05-22T10:12:26Z</time>
      </trkpt>
      <trkpt lat="45.80031" lon="3.06917">
        <ele>599</ele>
        <time>2009-05-22T10:12:55Z</time>
      </trkpt>
      <trkpt lat="45.80032" lon="3.06921">
        <ele>599</ele>
        <time>2009-05-22T10:13:09Z</time>
      </trkpt>
      <trkpt lat="45.80034" lon="3.06925">
        <ele>599</ele>
        <time>2009-05-22T10:13:15Z</time>
      </trkpt>
      <trkpt lat="45.80034" lon="3.06925">
        <ele>599</ele>
        <time>2009-05-22T10:13:21Z</time>
      </trkpt>
      <trkpt lat="45.80034" lon="3.06923">
        <ele>599</ele>
        <time>2009-05-22T10:13:43Z</time>
      </trkpt>
      <trkpt lat="45.80032" lon="3.06923">
        <ele>598</ele>
        <time>2009-05-22T10:13:53Z</time>
      </trkpt>
      <trkpt lat="45.80032" lon="3.06922">
        <ele>598</ele>
        <time>2009-05-22T10:14:09Z</time>
      </trkpt>
      <trkpt lat="45.80034" lon="3.0692">
        <ele>599</ele>
        <time>2009-05-22T10:14:20Z</time>
      </trkpt>
      <trkpt lat="45.80037" lon="3.06924">
        <ele>599</ele>
        <time>2009-05-22T10:14:28Z</time>
      </trkpt>
      <trkpt lat="45.80038" lon="3.06927">
        <ele>599</ele>
        <time>2009-05-22T10:14:29Z</time>
      </trkpt>
      <trkpt lat="45.80051" lon="3.06952">
        <ele>600</ele>
        <time>2009-05-22T10:14:36Z</time>
      </trkpt>
      <trkpt lat="45.80065" lon="3.0698">
        <ele>601</ele>
        <time>2009-05-22T10:14:43Z</time>
      </trkpt>
      <trkpt lat="45.80067" lon="3.06985">
        <ele>601</ele>
        <time>2009-05-22T10:14:44Z</time>
      </trkpt>
      <trkpt lat="45.80081" lon="3.07023">
        <ele>601</ele>
        <time>2009-05-22T10:14:51Z</time>
      </trkpt>
      <trkpt lat="45.80095" lon="3.07061">
        <ele>602</ele>
        <time>2009-05-22T10:14:58Z</time>
      </trkpt>
      <trkpt lat="45.80115" lon="3.07114">
        <ele>603</ele>
        <time>2009-05-22T10:15:08Z</time>
      </trkpt>
      <trkpt lat="45.80135" lon="3.07148">
        <ele>603</ele>
        <time>2009-05-22T10:15:15Z</time>
      </trkpt>
      <trkpt lat="45.80156" lon="3.07181">
        <ele>603</ele>
        <time>2009-05-22T10:15:22Z</time>
      </trkpt>
      <trkpt lat="45.80186" lon="3.07225">
        <ele>603</ele>
        <time>2009-05-22T10:15:31Z</time>
      </trkpt>
      <trkpt lat="45.80222" lon="3.07263">
        <ele>603</ele>
        <time>2009-05-22T10:15:40Z</time>
      </trkpt>
      <trkpt lat="45.80247" lon="3.07312">
        <ele>602</ele>
        <time>2009-05-22T10:15:48Z</time>
      </trkpt>
      <trkpt lat="45.80261" lon="3.07337">
        <ele>602</ele>
        <time>2009-05-22T10:15:52Z</time>
      </trkpt>
      <trkpt lat="45.8028" lon="3.07361">
        <ele>602</ele>
        <time>2009-05-22T10:15:57Z</time>
      </trkpt>
      <trkpt lat="45.80305" lon="3.07407">
        <ele>602</ele>
        <time>2009-05-22T10:16:05Z</time>
      </trkpt>
      <trkpt lat="45.80331" lon="3.07459">
        <ele>601</ele>
        <time>2009-05-22T10:16:14Z</time>
      </trkpt>
      <trkpt lat="45.8036" lon="3.07496">
        <ele>600</ele>
        <time>2009-05-22T10:16:21Z</time>
      </trkpt>
      <trkpt lat="45.80391" lon="3.07519">
        <ele>600</ele>
        <time>2009-05-22T10:16:27Z</time>
      </trkpt>
      <trkpt lat="45.8043" lon="3.07551">
        <ele>599</ele>
        <time>2009-05-22T10:16:35Z</time>
      </trkpt>
      <trkpt lat="45.80439" lon="3.07562">
        <ele>598</ele>
        <time>2009-05-22T10:16:38Z</time>
      </trkpt>
      <trkpt lat="45.80452" lon="3.07562">
        <ele>598</ele>
        <time>2009-05-22T10:16:42Z</time>
      </trkpt>
      <trkpt lat="45.80472" lon="3.07555">
        <ele>598</ele>
        <time>2009-05-22T10:16:46Z</time>
      </trkpt>
      <trkpt lat="45.80498" lon="3.07549">
        <ele>598</ele>
        <time>2009-05-22T10:16:51Z</time>
      </trkpt>
      <trkpt lat="45.80515" lon="3.07553">
        <ele>598</ele>
        <time>2009-05-22T10:16:54Z</time>
      </trkpt>
      <trkpt lat="45.80537" lon="3.0756">
        <ele>599</ele>
        <time>2009-05-22T10:16:58Z</time>
      </trkpt>
      <trkpt lat="45.80549" lon="3.07563">
        <ele>599</ele>
        <time>2009-05-22T10:17:00Z</time>
      </trkpt>
      <trkpt lat="45.80559" lon="3.0757">
        <ele>599</ele>
        <time>2009-05-22T10:17:02Z</time>
      </trkpt>
      <trkpt lat="45.80577" lon="3.07589">
        <ele>599</ele>
        <time>2009-05-22T10:17:07Z</time>
      </trkpt>
      <trkpt lat="45.80582" lon="3.07595">
        <ele>599</ele>
        <time>2009-05-22T10:17:11Z</time>
      </trkpt>
      <trkpt lat="45.80591" lon="3.07607">
        <ele>599</ele>
        <time>2009-05-22T10:17:19Z</time>
      </trkpt>
      <trkpt lat="45.80597" lon="3.07615">
        <ele>599</ele>
        <time>2009-05-22T10:17:24Z</time>
      </trkpt>
      <trkpt lat="45.80605" lon="3.07624">
        <ele>599</ele>
        <time>2009-05-22T10:17:27Z</time>
      </trkpt>
      <trkpt lat="45.8061" lon="3.07631">
        <ele>599</ele>
        <time>2009-05-22T10:17:29Z</time>
      </trkpt>
      <trkpt lat="45.80614" lon="3.07641">
        <ele>599</ele>
        <time>2009-05-22T10:17:31Z</time>
      </trkpt>
      <trkpt lat="45.80623" lon="3.07668">
        <ele>599</ele>
        <time>2009-05-22T10:17:36Z</time>
      </trkpt>
      <trkpt lat="45.80625" lon="3.07673">
        <ele>599</ele>
        <time>2009-05-22T10:17:37Z</time>
      </trkpt>
      <trkpt lat="45.80633" lon="3.07698">
        <ele>600</ele>
        <time>2009-05-22T10:17:42Z</time>
      </trkpt>
      <trkpt lat="45.80648" lon="3.07698">
        <ele>599</ele>
        <time>2009-05-22T10:17:46Z</time>
      </trkpt>
      <trkpt lat="45.80659" lon="3.07689">
        <ele>599</ele>
        <time>2009-05-22T10:17:49Z</time>
      </trkpt>
      <trkpt lat="45.80672" lon="3.07682">
        <ele>599</ele>
        <time>2009-05-22T10:17:52Z</time>
      </trkpt>
      <trkpt lat="45.80693" lon="3.07681">
        <ele>599</ele>
        <time>2009-05-22T10:17:57Z</time>
      </trkpt>
      <trkpt lat="45.80702" lon="3.07701">
        <ele>599</ele>
        <time>2009-05-22T10:18:01Z</time>
      </trkpt>
      <trkpt lat="45.80712" lon="3.0772">
        <ele>599</ele>
        <time>2009-05-22T10:18:05Z</time>
      </trkpt>
      <trkpt lat="45.80716" lon="3.07731">
        <ele>599</ele>
        <time>2009-05-22T10:18:07Z</time>
      </trkpt>
      <trkpt lat="45.80729" lon="3.07745">
        <ele>599</ele>
        <time>2009-05-22T10:18:11Z</time>
      </trkpt>
      <trkpt lat="45.80737" lon="3.0775">
        <ele>599</ele>
        <time>2009-05-22T10:18:13Z</time>
      </trkpt>
      <trkpt lat="45.80749" lon="3.07768">
        <ele>599</ele>
        <time>2009-05-22T10:18:17Z</time>
      </trkpt>
      <trkpt lat="45.8075" lon="3.07773">
        <ele>599</ele>
        <time>2009-05-22T10:18:18Z</time>
      </trkpt>
      <trkpt lat="45.80752" lon="3.07822">
        <ele>599</ele>
        <time>2009-05-22T10:18:27Z</time>
      </trkpt>
      <trkpt lat="45.80753" lon="3.07827">
        <ele>599</ele>
        <time>2009-05-22T10:18:28Z</time>
      </trkpt>
      <trkpt lat="45.80753" lon="3.07839">
        <ele>599</ele>
        <time>2009-05-22T10:18:30Z</time>
      </trkpt>
      <trkpt lat="45.80751" lon="3.07874">
        <ele>599</ele>
        <time>2009-05-22T10:18:36Z</time>
      </trkpt>
      <trkpt lat="45.8075" lon="3.07886">
        <ele>599</ele>
        <time>2009-05-22T10:18:38Z</time>
      </trkpt>
      <trkpt lat="45.8075" lon="3.07909">
        <ele>599</ele>
        <time>2009-05-22T10:18:42Z</time>
      </trkpt>
      <trkpt lat="45.80757" lon="3.07953">
        <ele>597</ele>
        <time>2009-05-22T10:18:50Z</time>
      </trkpt>
      <trkpt lat="45.80759" lon="3.07964">
        <ele>596</ele>
        <time>2009-05-22T10:18:52Z</time>
      </trkpt>
      <trkpt lat="45.80772" lon="3.07976">
        <ele>597</ele>
        <time>2009-05-22T10:18:56Z</time>
      </trkpt>
      <trkpt lat="45.80789" lon="3.07986">
        <ele>597</ele>
        <time>2009-05-22T10:19:00Z</time>
      </trkpt>
      <trkpt lat="45.80793" lon="3.07991">
        <ele>597</ele>
        <time>2009-05-22T10:19:01Z</time>
      </trkpt>
      <trkpt lat="45.808" lon="3.08001">
        <ele>597</ele>
        <time>2009-05-22T10:19:03Z</time>
      </trkpt>
      <trkpt lat="45.80806" lon="3.08013">
        <ele>597</ele>
        <time>2009-05-22T10:19:05Z</time>
      </trkpt>
      <trkpt lat="45.80821" lon="3.08037">
        <ele>597</ele>
        <time>2009-05-22T10:19:10Z</time>
      </trkpt>
      <trkpt lat="45.80829" lon="3.08052">
        <ele>596</ele>
        <time>2009-05-22T10:19:13Z</time>
      </trkpt>
      <trkpt lat="45.80853" lon="3.0808">
        <ele>593</ele>
        <time>2009-05-22T10:19:21Z</time>
      </trkpt>
      <trkpt lat="45.80865" lon="3.08083">
        <ele>593</ele>
        <time>2009-05-22T10:19:25Z</time>
      </trkpt>
      <trkpt lat="45.80871" lon="3.08078">
        <ele>594</ele>
        <time>2009-05-22T10:19:30Z</time>
      </trkpt>
      <trkpt lat="45.80873" lon="3.08076">
        <ele>594</ele>
        <time>2009-05-22T10:19:36Z</time>
      </trkpt>
      <trkpt lat="45.80876" lon="3.08074">
        <ele>594</ele>
        <time>2009-05-22T10:19:42Z</time>
      </trkpt>
      <trkpt lat="45.80886" lon="3.0807">
        <ele>594</ele>
        <time>2009-05-22T10:19:48Z</time>
      </trkpt>
      <trkpt lat="45.80894" lon="3.08061">
        <ele>594</ele>
        <time>2009-05-22T10:19:52Z</time>
      </trkpt>
      <trkpt lat="45.80901" lon="3.0805">
        <ele>593</ele>
        <time>2009-05-22T10:19:55Z</time>
      </trkpt>
      <trkpt lat="45.80913" lon="3.0804">
        <ele>591</ele>
        <time>2009-05-22T10:19:58Z</time>
      </trkpt>
      <trkpt lat="45.80927" lon="3.08026">
        <ele>588</ele>
        <time>2009-05-22T10:20:01Z</time>
      </trkpt>
      <trkpt lat="45.80941" lon="3.08018">
        <ele>586</ele>
        <time>2009-05-22T10:20:03Z</time>
      </trkpt>
      <trkpt lat="45.80954" lon="3.07996">
        <ele>584</ele>
        <time>2009-05-22T10:20:06Z</time>
      </trkpt>
      <trkpt lat="45.80955" lon="3.07987">
        <ele>583</ele>
        <time>2009-05-22T10:20:07Z</time>
      </trkpt>
      <trkpt lat="45.8096" lon="3.07948">
        <ele>581</ele>
        <time>2009-05-22T10:20:11Z</time>
      </trkpt>
      <trkpt lat="45.80974" lon="3.07927">
        <ele>579</ele>
        <time>2009-05-22T10:20:15Z</time>
      </trkpt>
      <trkpt lat="45.8098" lon="3.07927">
        <ele>579</ele>
        <time>2009-05-22T10:20:16Z</time>
      </trkpt>
      <trkpt lat="45.80985" lon="3.07929">
        <ele>578</ele>
        <time>2009-05-22T10:20:17Z</time>
      </trkpt>
      <trkpt lat="45.81018" lon="3.07941">
        <ele>577</ele>
        <time>2009-05-22T10:20:22Z</time>
      </trkpt>
      <trkpt lat="45.81032" lon="3.07947">
        <ele>576</ele>
        <time>2009-05-22T10:20:24Z</time>
      </trkpt>
      <trkpt lat="45.81043" lon="3.07954">
        <ele>575</ele>
        <time>2009-05-22T10:20:26Z</time>
      </trkpt>
      <trkpt lat="45.81072" lon="3.07969">
        <ele>573</ele>
        <time>2009-05-22T10:20:31Z</time>
      </trkpt>
      <trkpt lat="45.81092" lon="3.07978">
        <ele>571</ele>
        <time>2009-05-22T10:20:35Z</time>
      </trkpt>
      <trkpt lat="45.81105" lon="3.0799">
        <ele>569</ele>
        <time>2009-05-22T10:20:38Z</time>
      </trkpt>
      <trkpt lat="45.81124" lon="3.08004">
        <ele>568</ele>
        <time>2009-05-22T10:20:42Z</time>
      </trkpt>
      <trkpt lat="45.8114" lon="3.08019">
        <ele>566</ele>
        <time>2009-05-22T10:20:45Z</time>
      </trkpt>
      <trkpt lat="45.81154" lon="3.08028">
        <ele>565</ele>
        <time>2009-05-22T10:20:48Z</time>
      </trkpt>
      <trkpt lat="45.81161" lon="3.08029">
        <ele>564</ele>
        <time>2009-05-22T10:20:50Z</time>
      </trkpt>
      <trkpt lat="45.81175" lon="3.08027">
        <ele>563</ele>
        <time>2009-05-22T10:20:55Z</time>
      </trkpt>
      <trkpt lat="45.81186" lon="3.08022">
        <ele>561</ele>
        <time>2009-05-22T10:21:00Z</time>
      </trkpt>
      <trkpt lat="45.81195" lon="3.08014">
        <ele>559</ele>
        <time>2009-05-22T10:21:04Z</time>
      </trkpt>
      <trkpt lat="45.81206" lon="3.08011">
        <ele>558</ele>
        <time>2009-05-22T10:21:08Z</time>
      </trkpt>
      <trkpt lat="45.8122" lon="3.08008">
        <ele>555</ele>
        <time>2009-05-22T10:21:12Z</time>
      </trkpt>
      <trkpt lat="45.81243" lon="3.08006">
        <ele>551</ele>
        <time>2009-05-22T10:21:15Z</time>
      </trkpt>
      <trkpt lat="45.81257" lon="3.08005">
        <ele>549</ele>
        <time>2009-05-22T10:21:17Z</time>
      </trkpt>
      <trkpt lat="45.81292" lon="3.08015">
        <ele>545</ele>
        <time>2009-05-22T10:21:22Z</time>
      </trkpt>
      <trkpt lat="45.8132" lon="3.0802">
        <ele>541</ele>
        <time>2009-05-22T10:21:27Z</time>
      </trkpt>
      <trkpt lat="45.81332" lon="3.08024">
        <ele>540</ele>
        <time>2009-05-22T10:21:30Z</time>
      </trkpt>
      <trkpt lat="45.8135" lon="3.08039">
        <ele>538</ele>
        <time>2009-05-22T10:21:34Z</time>
      </trkpt>
      <trkpt lat="45.81357" lon="3.08063">
        <ele>538</ele>
        <time>2009-05-22T10:21:38Z</time>
      </trkpt>
      <trkpt lat="45.81359" lon="3.08087">
        <ele>539</ele>
        <time>2009-05-22T10:21:43Z</time>
      </trkpt>
      <trkpt lat="45.81361" lon="3.08091">
        <ele>539</ele>
        <time>2009-05-22T10:21:44Z</time>
      </trkpt>
      <trkpt lat="45.81365" lon="3.08116">
        <ele>539</ele>
        <time>2009-05-22T10:21:49Z</time>
      </trkpt>
      <trkpt lat="45.81368" lon="3.08138">
        <ele>539</ele>
        <time>2009-05-22T10:21:53Z</time>
      </trkpt>
      <trkpt lat="45.8137" lon="3.08156">
        <ele>540</ele>
        <time>2009-05-22T10:21:56Z</time>
      </trkpt>
      <trkpt lat="45.81369" lon="3.08174">
        <ele>540</ele>
        <time>2009-05-22T10:21:59Z</time>
      </trkpt>
      <trkpt lat="45.81361" lon="3.08223">
        <ele>542</ele>
        <time>2009-05-22T10:22:08Z</time>
      </trkpt>
      <trkpt lat="45.81356" lon="3.08253">
        <ele>543</ele>
        <time>2009-05-22T10:22:14Z</time>
      </trkpt>
      <trkpt lat="45.81356" lon="3.08285">
        <ele>543</ele>
        <time>2009-05-22T10:22:21Z</time>
      </trkpt>
      <trkpt lat="45.81359" lon="3.08325">
        <ele>543</ele>
        <time>2009-05-22T10:22:29Z</time>
      </trkpt>
      <trkpt lat="45.81356" lon="3.08365">
        <ele>543</ele>
        <time>2009-05-22T10:22:37Z</time>
      </trkpt>
      <trkpt lat="45.81352" lon="3.08394">
        <ele>543</ele>
        <time>2009-05-22T10:22:43Z</time>
      </trkpt>
      <trkpt lat="45.81344" lon="3.08434">
        <ele>542</ele>
        <time>2009-05-22T10:22:51Z</time>
      </trkpt>
      <trkpt lat="45.8133" lon="3.08467">
        <ele>542</ele>
        <time>2009-05-22T10:22:58Z</time>
      </trkpt>
      <trkpt lat="45.81314" lon="3.08494">
        <ele>543</ele>
        <time>2009-05-22T10:23:04Z</time>
      </trkpt>
      <trkpt lat="45.81298" lon="3.08524">
        <ele>544</ele>
        <time>2009-05-22T10:23:10Z</time>
      </trkpt>
      <trkpt lat="45.81273" lon="3.08564">
        <ele>546</ele>
        <time>2009-05-22T10:23:18Z</time>
      </trkpt>
      <trkpt lat="45.81254" lon="3.08607">
        <ele>547</ele>
        <time>2009-05-22T10:23:26Z</time>
      </trkpt>
      <trkpt lat="45.81234" lon="3.08647">
        <ele>548</ele>
        <time>2009-05-22T10:23:34Z</time>
      </trkpt>
      <trkpt lat="45.81219" lon="3.08673">
        <ele>548</ele>
        <time>2009-05-22T10:23:40Z</time>
      </trkpt>
      <trkpt lat="45.81216" lon="3.08677">
        <ele>549</ele>
        <time>2009-05-22T10:23:41Z</time>
      </trkpt>
      <trkpt lat="45.81219" lon="3.08686">
        <ele>548</ele>
        <time>2009-05-22T10:23:45Z</time>
      </trkpt>
      <trkpt lat="45.81226" lon="3.08684">
        <ele>547</ele>
        <time>2009-05-22T10:23:47Z</time>
      </trkpt>
      <trkpt lat="45.81247" lon="3.08672">
        <ele>545</ele>
        <time>2009-05-22T10:23:52Z</time>
      </trkpt>
      <trkpt lat="45.81263" lon="3.08662">
        <ele>543</ele>
        <time>2009-05-22T10:23:55Z</time>
      </trkpt>
      <trkpt lat="45.81269" lon="3.08658">
        <ele>542</ele>
        <time>2009-05-22T10:23:56Z</time>
      </trkpt>
      <trkpt lat="45.81294" lon="3.08641">
        <ele>539</ele>
        <time>2009-05-22T10:24:00Z</time>
      </trkpt>
      <trkpt lat="45.8132" lon="3.08623">
        <ele>537</ele>
        <time>2009-05-22T10:24:04Z</time>
      </trkpt>
      <trkpt lat="45.8134" lon="3.0861">
        <ele>534</ele>
        <time>2009-05-22T10:24:07Z</time>
      </trkpt>
      <trkpt lat="45.81363" lon="3.08594">
        <ele>531</ele>
        <time>2009-05-22T10:24:10Z</time>
      </trkpt>
      <trkpt lat="45.81387" lon="3.08576">
        <ele>527</ele>
        <time>2009-05-22T10:24:13Z</time>
      </trkpt>
      <trkpt lat="45.81409" lon="3.08559">
        <ele>522</ele>
        <time>2009-05-22T10:24:16Z</time>
      </trkpt>
      <trkpt lat="45.81422" lon="3.08548">
        <ele>519</ele>
        <time>2009-05-22T10:24:18Z</time>
      </trkpt>
      <trkpt lat="45.81463" lon="3.08533">
        <ele>512</ele>
        <time>2009-05-22T10:24:23Z</time>
      </trkpt>
      <trkpt lat="45.81494" lon="3.08511">
        <ele>506</ele>
        <time>2009-05-22T10:24:27Z</time>
      </trkpt>
      <trkpt lat="45.81523" lon="3.08473">
        <ele>502</ele>
        <time>2009-05-22T10:24:31Z</time>
      </trkpt>
      <trkpt lat="45.8153" lon="3.08464">
        <ele>500</ele>
        <time>2009-05-22T10:24:32Z</time>
      </trkpt>
      <trkpt lat="45.81553" lon="3.08421">
        <ele>494</ele>
        <time>2009-05-22T10:24:36Z</time>
      </trkpt>
      <trkpt lat="45.81563" lon="3.08396">
        <ele>492</ele>
        <time>2009-05-22T10:24:38Z</time>
      </trkpt>
      <trkpt lat="45.81573" lon="3.08374">
        <ele>489</ele>
        <time>2009-05-22T10:24:40Z</time>
      </trkpt>
      <trkpt lat="45.81592" lon="3.08346">
        <ele>485</ele>
        <time>2009-05-22T10:24:43Z</time>
      </trkpt>
      <trkpt lat="45.81606" lon="3.0833">
        <ele>481</ele>
        <time>2009-05-22T10:24:45Z</time>
      </trkpt>
      <trkpt lat="45.8162" lon="3.08314">
        <ele>477</ele>
        <time>2009-05-22T10:24:47Z</time>
      </trkpt>
      <trkpt lat="45.81638" lon="3.08292">
        <ele>473</ele>
        <time>2009-05-22T10:24:50Z</time>
      </trkpt>
      <trkpt lat="45.81654" lon="3.0827">
        <ele>468</ele>
        <time>2009-05-22T10:24:53Z</time>
      </trkpt>
      <trkpt lat="45.81669" lon="3.08244">
        <ele>464</ele>
        <time>2009-05-22T10:24:56Z</time>
      </trkpt>
      <trkpt lat="45.81683" lon="3.08213">
        <ele>461</ele>
        <time>2009-05-22T10:24:59Z</time>
      </trkpt>
      <trkpt lat="45.81691" lon="3.08196">
        <ele>458</ele>
        <time>2009-05-22T10:25:01Z</time>
      </trkpt>
      <trkpt lat="45.81712" lon="3.08171">
        <ele>452</ele>
        <time>2009-05-22T10:25:05Z</time>
      </trkpt>
      <trkpt lat="45.81724" lon="3.08161">
        <ele>447</ele>
        <time>2009-05-22T10:25:07Z</time>
      </trkpt>
      <trkpt lat="45.81741" lon="3.08128">
        <ele>439</ele>
        <time>2009-05-22T10:25:11Z</time>
      </trkpt>
      <trkpt lat="45.8175" lon="3.08085">
        <ele>434</ele>
        <time>2009-05-22T10:25:15Z</time>
      </trkpt>
      <trkpt lat="45.81748" lon="3.08037">
        <ele>434</ele>
        <time>2009-05-22T10:25:19Z</time>
      </trkpt>
      <trkpt lat="45.81745" lon="3.08024">
        <ele>435</ele>
        <time>2009-05-22T10:25:20Z</time>
      </trkpt>
      <trkpt lat="45.81742" lon="3.07988">
        <ele>435</ele>
        <time>2009-05-22T10:25:23Z</time>
      </trkpt>
      <trkpt lat="45.81749" lon="3.07965">
        <ele>432</ele>
        <time>2009-05-22T10:25:25Z</time>
      </trkpt>
      <trkpt lat="45.81758" lon="3.07938">
        <ele>428</ele>
        <time>2009-05-22T10:25:27Z</time>
      </trkpt>
      <trkpt lat="45.81759" lon="3.07898">
        <ele>428</ele>
        <time>2009-05-22T10:25:30Z</time>
      </trkpt>
      <trkpt lat="45.81758" lon="3.0788">
        <ele>428</ele>
        <time>2009-05-22T10:25:32Z</time>
      </trkpt>
      <trkpt lat="45.81767" lon="3.07871">
        <ele>426</ele>
        <time>2009-05-22T10:25:35Z</time>
      </trkpt>
      <trkpt lat="45.81776" lon="3.07882">
        <ele>424</ele>
        <time>2009-05-22T10:25:37Z</time>
      </trkpt>
      <trkpt lat="45.8178" lon="3.07903">
        <ele>423</ele>
        <time>2009-05-22T10:25:39Z</time>
      </trkpt>
      <trkpt lat="45.81791" lon="3.07936">
        <ele>420</ele>
        <time>2009-05-22T10:25:42Z</time>
      </trkpt>
      <trkpt lat="45.81808" lon="3.07963">
        <ele>416</ele>
        <time>2009-05-22T10:25:45Z</time>
      </trkpt>
      <trkpt lat="45.81828" lon="3.07973">
        <ele>413</ele>
        <time>2009-05-22T10:25:48Z</time>
      </trkpt>
      <trkpt lat="45.81844" lon="3.07962">
        <ele>410</ele>
        <time>2009-05-22T10:25:50Z</time>
      </trkpt>
      <trkpt lat="45.81885" lon="3.07936">
        <ele>403</ele>
        <time>2009-05-22T10:25:54Z</time>
      </trkpt>
      <trkpt lat="45.81917" lon="3.07924">
        <ele>400</ele>
        <time>2009-05-22T10:25:57Z</time>
      </trkpt>
      <trkpt lat="45.8197" lon="3.07914">
        <ele>396</ele>
        <time>2009-05-22T10:26:02Z</time>
      </trkpt>
      <trkpt lat="45.81981" lon="3.07912">
        <ele>395</ele>
        <time>2009-05-22T10:26:03Z</time>
      </trkpt>
      <trkpt lat="45.82007" lon="3.07908">
        <ele>393</ele>
        <time>2009-05-22T10:26:06Z</time>
      </trkpt>
      <trkpt lat="45.82028" lon="3.07905">
        <ele>392</ele>
        <time>2009-05-22T10:26:09Z</time>
      </trkpt>
      <trkpt lat="45.82041" lon="3.07902">
        <ele>391</ele>
        <time>2009-05-22T10:26:11Z</time>
      </trkpt>
      <trkpt lat="45.82052" lon="3.07897">
        <ele>390</ele>
        <time>2009-05-22T10:26:13Z</time>
      </trkpt>
      <trkpt lat="45.82062" lon="3.07879">
        <ele>389</ele>
        <time>2009-05-22T10:26:16Z</time>
      </trkpt>
      <trkpt lat="45.82061" lon="3.07869">
        <ele>389</ele>
        <time>2009-05-22T10:26:17Z</time>
      </trkpt>
      <trkpt lat="45.82055" lon="3.07828">
        <ele>389</ele>
        <time>2009-05-22T10:26:21Z</time>
      </trkpt>
      <trkpt lat="45.8205" lon="3.07763">
        <ele>388</ele>
        <time>2009-05-22T10:26:27Z</time>
      </trkpt>
      <trkpt lat="45.82048" lon="3.07704">
        <ele>387</ele>
        <time>2009-05-22T10:26:33Z</time>
      </trkpt>
      <trkpt lat="45.82047" lon="3.07695">
        <ele>386</ele>
        <time>2009-05-22T10:26:34Z</time>
      </trkpt>
      <trkpt lat="45.82044" lon="3.07671">
        <ele>386</ele>
        <time>2009-05-22T10:26:37Z</time>
      </trkpt>
      <trkpt lat="45.82042" lon="3.07639">
        <ele>387</ele>
        <time>2009-05-22T10:26:41Z</time>
      </trkpt>
      <trkpt lat="45.8204" lon="3.07619">
        <ele>387</ele>
        <time>2009-05-22T10:26:44Z</time>
      </trkpt>
      <trkpt lat="45.82047" lon="3.07598">
        <ele>387</ele>
        <time>2009-05-22T10:26:48Z</time>
      </trkpt>
      <trkpt lat="45.82064" lon="3.0759">
        <ele>386</ele>
        <time>2009-05-22T10:26:52Z</time>
      </trkpt>
      <trkpt lat="45.82069" lon="3.07589">
        <ele>386</ele>
        <time>2009-05-22T10:26:53Z</time>
      </trkpt>
      <trkpt lat="45.82112" lon="3.07588">
        <ele>383</ele>
        <time>2009-05-22T10:27:00Z</time>
      </trkpt>
      <trkpt lat="45.8217" lon="3.07586">
        <ele>381</ele>
        <time>2009-05-22T10:27:08Z</time>
      </trkpt>
      <trkpt lat="45.82192" lon="3.07586">
        <ele>381</ele>
        <time>2009-05-22T10:27:11Z</time>
      </trkpt>
      <trkpt lat="45.82212" lon="3.076">
        <ele>380</ele>
        <time>2009-05-22T10:27:15Z</time>
      </trkpt>
      <trkpt lat="45.82213" lon="3.07617">
        <ele>380</ele>
        <time>2009-05-22T10:27:17Z</time>
      </trkpt>
      <trkpt lat="45.82208" lon="3.07665">
        <ele>380</ele>
        <time>2009-05-22T10:27:24Z</time>
      </trkpt>
      <trkpt lat="45.82207" lon="3.07702">
        <ele>380</ele>
        <time>2009-05-22T10:27:31Z</time>
      </trkpt>
      <trkpt lat="45.82208" lon="3.07744">
        <ele>380</ele>
        <time>2009-05-22T10:27:40Z</time>
      </trkpt>
      <trkpt lat="45.82211" lon="3.07768">
        <ele>380</ele>
        <time>2009-05-22T10:27:45Z</time>
      </trkpt>
      <trkpt lat="45.82217" lon="3.07805">
        <ele>380</ele>
        <time>2009-05-22T10:27:52Z</time>
      </trkpt>
      <trkpt lat="45.82225" lon="3.07815">
        <ele>380</ele>
        <time>2009-05-22T10:27:55Z</time>
      </trkpt>
      <trkpt lat="45.82247" lon="3.07815">
        <ele>379</ele>
        <time>2009-05-22T10:28:00Z</time>
      </trkpt>
      <trkpt lat="45.82252" lon="3.07813">
        <ele>379</ele>
        <time>2009-05-22T10:28:01Z</time>
      </trkpt>
      <trkpt lat="45.823" lon="3.07795">
        <ele>378</ele>
        <time>2009-05-22T10:28:10Z</time>
      </trkpt>
      <trkpt lat="45.82347" lon="3.07777">
        <ele>378</ele>
        <time>2009-05-22T10:28:18Z</time>
      </trkpt>
      <trkpt lat="45.82379" lon="3.07757">
        <ele>379</ele>
        <time>2009-05-22T10:28:25Z</time>
      </trkpt>
      <trkpt lat="45.82407" lon="3.07743">
        <ele>380</ele>
        <time>2009-05-22T10:28:32Z</time>
      </trkpt>
      <trkpt lat="45.82424" lon="3.07737">
        <ele>380</ele>
        <time>2009-05-22T10:28:37Z</time>
      </trkpt>
      <trkpt lat="45.82428" lon="3.07735">
        <ele>380</ele>
        <time>2009-05-22T10:28:40Z</time>
      </trkpt>
      <trkpt lat="45.82433" lon="3.07734">
        <ele>380</ele>
        <time>2009-05-22T10:28:44Z</time>
      </trkpt>
      <trkpt lat="45.82443" lon="3.07734">
        <ele>380</ele>
        <time>2009-05-22T10:28:49Z</time>
      </trkpt>
      <trkpt lat="45.82449" lon="3.07734">
        <ele>380</ele>
        <time>2009-05-22T10:28:52Z</time>
      </trkpt>
      <trkpt lat="45.8246" lon="3.07736">
        <ele>380</ele>
        <time>2009-05-22T10:28:57Z</time>
      </trkpt>
      <trkpt lat="45.82466" lon="3.07738">
        <ele>380</ele>
        <time>2009-05-22T10:29:00Z</time>
      </trkpt>
      <trkpt lat="45.82474" lon="3.07741">
        <ele>380</ele>
        <time>2009-05-22T10:29:04Z</time>
      </trkpt>
      <trkpt lat="45.82475" lon="3.07741">
        <ele>380</ele>
        <time>2009-05-22T10:29:05Z</time>
      </trkpt>
      <trkpt lat="45.82483" lon="3.07743">
        <ele>380</ele>
        <time>2009-05-22T10:29:13Z</time>
      </trkpt>
      <trkpt lat="45.82483" lon="3.07743">
        <ele>380</ele>
        <time>2009-05-22T10:29:26Z</time>
      </trkpt>
      <trkpt lat="45.82482" lon="3.07743">
        <ele>380</ele>
        <time>2009-05-22T10:29:36Z</time>
      </trkpt>
      <trkpt lat="45.82482" lon="3.07743">
        <ele>380</ele>
        <time>2009-05-22T10:29:49Z</time>
      </trkpt>
      <trkpt lat="45.82482" lon="3.07744">
        <ele>380</ele>
        <time>2009-05-22T10:30:00Z</time>
      </trkpt>
      <trkpt lat="45.82482" lon="3.07744">
        <ele>380</ele>
        <time>2009-05-22T10:30:11Z</time>
      </trkpt>
      <trkpt lat="45.82483" lon="3.07744">
        <ele>380</ele>
        <time>2009-05-22T10:30:25Z</time>
      </trkpt>
      <trkpt lat="45.82484" lon="3.07743">
        <ele>380</ele>
        <time>2009-05-22T10:30:50Z</time>
      </trkpt>
      <trkpt lat="45.82484" lon="3.07743">
        <ele>380</ele>
        <time>2009-05-22T10:30:54Z</time>
      </trkpt>
      <trkpt lat="45.82487" lon="3.0774">
        <ele>380</ele>
        <time>2009-05-22T10:31:15Z</time>
      </trkpt>
      <trkpt lat="45.82484" lon="3.07743">
        <ele>380</ele>
        <time>2009-05-22T10:31:51Z</time>
      </trkpt>
      <trkpt lat="45.82482" lon="3.07744">
        <ele>380</ele>
        <time>2009-05-22T10:32:46Z</time>
      </trkpt>
      <trkpt lat="45.82479" lon="3.07746">
        <ele>380</ele>
        <time>2009-05-22T10:32:51Z</time>
      </trkpt>
      <trkpt lat="45.82479" lon="3.07745">
        <ele>380</ele>
        <time>2009-05-22T10:32:52Z</time>
      </trkpt>
      <trkpt lat="45.82468" lon="3.07739">
        <ele>380</ele>
        <time>2009-05-22T10:32:58Z</time>
      </trkpt>
      <trkpt lat="45.82462" lon="3.07737">
        <ele>380</ele>
        <time>2009-05-22T10:33:00Z</time>
      </trkpt>
      <trkpt lat="45.82435" lon="3.07735">
        <ele>380</ele>
        <time>2009-05-22T10:33:05Z</time>
      </trkpt>
      <trkpt lat="45.82409" lon="3.07742">
        <ele>380</ele>
        <time>2009-05-22T10:33:09Z</time>
      </trkpt>
      <trkpt lat="45.82392" lon="3.07749">
        <ele>379</ele>
        <time>2009-05-22T10:33:13Z</time>
      </trkpt>
      <trkpt lat="45.8238" lon="3.07753">
        <ele>379</ele>
        <time>2009-05-22T10:33:18Z</time>
      </trkpt>
      <trkpt lat="45.82375" lon="3.07756">
        <ele>379</ele>
        <time>2009-05-22T10:33:22Z</time>
      </trkpt>
      <trkpt lat="45.82372" lon="3.0776">
        <ele>379</ele>
        <time>2009-05-22T10:33:25Z</time>
      </trkpt>
      <trkpt lat="45.82361" lon="3.07767">
        <ele>378</ele>
        <time>2009-05-22T10:33:32Z</time>
      </trkpt>
      <trkpt lat="45.82354" lon="3.07769">
        <ele>378</ele>
        <time>2009-05-22T10:33:37Z</time>
      </trkpt>
      <trkpt lat="45.82354" lon="3.07769">
        <ele>378</ele>
        <time>2009-05-22T10:33:47Z</time>
      </trkpt>
      <trkpt lat="45.82354" lon="3.07769">
        <ele>378</ele>
        <time>2009-05-22T10:33:59Z</time>
      </trkpt>
      <trkpt lat="45.82355" lon="3.07769">
        <ele>378</ele>
        <time>2009-05-22T10:34:16Z</time>
      </trkpt>
      <trkpt lat="45.82355" lon="3.07769">
        <ele>378</ele>
        <time>2009-05-22T10:34:28Z</time>
      </trkpt>
      <trkpt lat="45.82359" lon="3.0777">
        <ele>378</ele>
        <time>2009-05-22T10:34:33Z</time>
      </trkpt>
      <trkpt lat="45.82361" lon="3.07768">
        <ele>378</ele>
        <time>2009-05-22T10:34:34Z</time>
      </trkpt>
      <trkpt lat="45.82376" lon="3.07756">
        <ele>379</ele>
        <time>2009-05-22T10:34:40Z</time>
      </trkpt>
      <trkpt lat="45.82392" lon="3.07747">
        <ele>379</ele>
        <time>2009-05-22T10:34:46Z</time>
      </trkpt>
      <trkpt lat="45.82411" lon="3.07741">
        <ele>380</ele>
        <time>2009-05-22T10:34:52Z</time>
      </trkpt>
      <trkpt lat="45.82425" lon="3.07744">
        <ele>380</ele>
        <time>2009-05-22T10:34:58Z</time>
      </trkpt>
      <trkpt lat="45.82428" lon="3.07745">
        <ele>380</ele>
        <time>2009-05-22T10:35:02Z</time>
      </trkpt>
      <trkpt lat="45.82427" lon="3.07745">
        <ele>380</ele>
        <time>2009-05-22T10:35:14Z</time>
      </trkpt>
      <trkpt lat="45.82429" lon="3.07744">
        <ele>380</ele>
        <time>2009-05-22T10:35:37Z</time>
      </trkpt>
      <trkpt lat="45.82429" lon="3.07744">
        <ele>380</ele>
        <time>2009-05-22T10:35:40Z</time>
      </trkpt>
      <trkpt lat="45.82428" lon="3.07744">
        <ele>380</ele>
        <time>2009-05-22T10:36:07Z</time>
      </trkpt>
      <trkpt lat="45.82426" lon="3.07747">
        <ele>380</ele>
        <time>2009-05-22T10:36:37Z</time>
      </trkpt>
      <trkpt lat="45.82424" lon="3.07747">
        <ele>380</ele>
        <time>2009-05-22T10:36:44Z</time>
      </trkpt>
      <trkpt lat="45.82422" lon="3.0775">
        <ele>380</ele>
        <time>2009-05-22T10:37:42Z</time>
      </trkpt>
      <trkpt lat="45.82422" lon="3.07749">
        <ele>380</ele>
        <time>2009-05-22T10:37:46Z</time>
      </trkpt>
      <trkpt lat="45.82423" lon="3.07747">
        <ele>380</ele>
        <time>2009-05-22T10:38:18Z</time>
      </trkpt>
      <trkpt lat="45.82426" lon="3.07745">
        <ele>380</ele>
        <time>2009-05-22T10:38:44Z</time>
      </trkpt>
      <trkpt lat="45.82429" lon="3.07743">
        <ele>380</ele>
        <time>2009-05-22T10:38:55Z</time>
      </trkpt>
      <trkpt lat="45.82433" lon="3.07742">
        <ele>380</ele>
        <time>2009-05-22T10:39:02Z</time>
      </trkpt>
      <trkpt lat="45.82432" lon="3.07741">
        <ele>380</ele>
        <time>2009-05-22T10:39:11Z</time>
      </trkpt>
      <trkpt lat="45.82432" lon="3.07741">
        <ele>380</ele>
        <time>2009-05-22T10:39:12Z</time>
      </trkpt>
      <trkpt lat="45.8243" lon="3.07741">
        <ele>380</ele>
        <time>2009-05-22T10:40:05Z</time>
      </trkpt>
      <trkpt lat="45.8243" lon="3.07741">
        <ele>380</ele>
        <time>2009-05-22T10:40:06Z</time>
      </trkpt>
      <trkpt lat="45.82429" lon="3.0774">
        <ele>380</ele>
        <time>2009-05-22T10:43:24Z</time>
      </trkpt>
      <trkpt lat="45.82429" lon="3.0774">
        <ele>380</ele>
        <time>2009-05-22T10:43:25Z</time>
      </trkpt>
      <trkpt lat="45.82429" lon="3.0774">
        <ele>380</ele>
        <time>2009-05-22T10:45:04Z</time>
      </trkpt>
      <trkpt lat="45.82429" lon="3.0774">
        <ele>380</ele>
        <time>2009-05-22T10:45:08Z</time>
      </trkpt>
      <trkpt lat="45.82429" lon="3.0774">
        <ele>380</ele>
        <time>2009-05-22T10:45:22Z</time>
      </trkpt>
      <trkpt lat="45.82429" lon="3.0774">
        <ele>380</ele>
        <time>2009-05-22T10:45:34Z</time>
      </trkpt>
      <trkpt lat="45.82429" lon="3.07739">
        <ele>380</ele>
        <time>2009-05-22T10:45:51Z</time>
      </trkpt>
      <trkpt lat="45.82428" lon="3.07739">
        <ele>380</ele>
        <time>2009-05-22T10:45:56Z</time>
      </trkpt>
      <trkpt lat="45.82428" lon="3.07739">
        <ele>380</ele>
        <time>2009-05-22T10:45:57Z</time>
      </trkpt>
      <trkpt lat="45.82429" lon="3.07742">
        <ele>380</ele>
        <time>2009-05-22T10:47:28Z</time>
      </trkpt>
      <trkpt lat="45.82429" lon="3.07742">
        <ele>380</ele>
        <time>2009-05-22T10:47:31Z</time>
      </trkpt>
      <trkpt lat="45.82429" lon="3.07742">
        <ele>380</ele>
        <time>2009-05-22T10:47:36Z</time>
      </trkpt>
      <trkpt lat="45.8243" lon="3.07742">
        <ele>380</ele>
        <time>2009-05-22T10:47:47Z</time>
      </trkpt>
      <trkpt lat="45.8243" lon="3.07743">
        <ele>380</ele>
        <time>2009-05-22T10:47:53Z</time>
      </trkpt>
      <trkpt lat="45.82431" lon="3.07744">
        <ele>380</ele>
        <time>2009-05-22T10:48:06Z</time>
      </trkpt>
      <trkpt lat="45.8244" lon="3.07749">
        <ele>380</ele>
        <time>2009-05-22T10:48:13Z</time>
      </trkpt>
      <trkpt lat="45.82446" lon="3.07752">
        <ele>380</ele>
        <time>2009-05-22T10:48:17Z</time>
      </trkpt>
      <trkpt lat="45.82449" lon="3.07754">
        <ele>380</ele>
        <time>2009-05-22T10:48:19Z</time>
      </trkpt>
      <trkpt lat="45.82466" lon="3.07765">
        <ele>380</ele>
        <time>2009-05-22T10:48:28Z</time>
      </trkpt>
      <trkpt lat="45.82477" lon="3.07773">
        <ele>380</ele>
        <time>2009-05-22T10:48:34Z</time>
      </trkpt>
      <trkpt lat="45.82484" lon="3.07773">
        <ele>381</ele>
        <time>2009-05-22T10:48:38Z</time>
      </trkpt>
      <trkpt lat="45.82498" lon="3.0777">
        <ele>381</ele>
        <time>2009-05-22T10:48:46Z</time>
      </trkpt>
      <trkpt lat="45.82515" lon="3.07771">
        <ele>381</ele>
        <time>2009-05-22T10:48:51Z</time>
      </trkpt>
      <trkpt lat="45.82532" lon="3.07765">
        <ele>382</ele>
        <time>2009-05-22T10:48:58Z</time>
      </trkpt>
      <trkpt lat="45.82542" lon="3.07758">
        <ele>382</ele>
        <time>2009-05-22T10:49:03Z</time>
      </trkpt>
      <trkpt lat="45.82553" lon="3.07755">
        <ele>382</ele>
        <time>2009-05-22T10:49:08Z</time>
      </trkpt>
      <trkpt lat="45.82565" lon="3.07757">
        <ele>383</ele>
        <time>2009-05-22T10:49:12Z</time>
      </trkpt>
      <trkpt lat="45.8259" lon="3.07756">
        <ele>384</ele>
        <time>2009-05-22T10:49:20Z</time>
      </trkpt>
      <trkpt lat="45.82614" lon="3.07749">
        <ele>384</ele>
        <time>2009-05-22T10:49:28Z</time>
      </trkpt>
      <trkpt lat="45.82643" lon="3.0774">
        <ele>385</ele>
        <time>2009-05-22T10:49:37Z</time>
      </trkpt>
      <trkpt lat="45.82658" lon="3.07734">
        <ele>385</ele>
        <time>2009-05-22T10:49:43Z</time>
      </trkpt>
      <trkpt lat="45.82678" lon="3.07729">
        <ele>386</ele>
        <time>2009-05-22T10:49:50Z</time>
      </trkpt>
      <trkpt lat="45.82705" lon="3.07716">
        <ele>387</ele>
        <time>2009-05-22T10:49:58Z</time>
      </trkpt>
      <trkpt lat="45.82736" lon="3.07696">
        <ele>389</ele>
        <time>2009-05-22T10:50:08Z</time>
      </trkpt>
      <trkpt lat="45.82759" lon="3.07682">
        <ele>390</ele>
        <time>2009-05-22T10:50:16Z</time>
      </trkpt>
      <trkpt lat="45.8277" lon="3.07685">
        <ele>391</ele>
        <time>2009-05-22T10:50:20Z</time>
      </trkpt>
      <trkpt lat="45.8278" lon="3.07684">
        <ele>392</ele>
        <time>2009-05-22T10:50:24Z</time>
      </trkpt>
      <trkpt lat="45.82788" lon="3.07675">
        <ele>393</ele>
        <time>2009-05-22T10:50:28Z</time>
      </trkpt>
      <trkpt lat="45.82799" lon="3.07665">
        <ele>395</ele>
        <time>2009-05-22T10:50:34Z</time>
      </trkpt>
      <trkpt lat="45.82811" lon="3.07664">
        <ele>396</ele>
        <time>2009-05-22T10:50:39Z</time>
      </trkpt>
      <trkpt lat="45.82821" lon="3.07671">
        <ele>396</ele>
        <time>2009-05-22T10:50:44Z</time>
      </trkpt>
      <trkpt lat="45.82826" lon="3.07676">
        <ele>396</ele>
        <time>2009-05-22T10:50:47Z</time>
      </trkpt>
      <trkpt lat="45.82834" lon="3.07669">
        <ele>397</ele>
        <time>2009-05-22T10:50:52Z</time>
      </trkpt>
      <trkpt lat="45.82845" lon="3.07649">
        <ele>399</ele>
        <time>2009-05-22T10:51:00Z</time>
      </trkpt>
      <trkpt lat="45.82849" lon="3.07632">
        <ele>401</ele>
        <time>2009-05-22T10:51:05Z</time>
      </trkpt>
      <trkpt lat="45.82852" lon="3.07617">
        <ele>402</ele>
        <time>2009-05-22T10:51:10Z</time>
      </trkpt>
      <trkpt lat="45.82859" lon="3.0761">
        <ele>402</ele>
        <time>2009-05-22T10:51:13Z</time>
      </trkpt>
      <trkpt lat="45.8287" lon="3.07597">
        <ele>403</ele>
        <time>2009-05-22T10:51:19Z</time>
      </trkpt>
      <trkpt lat="45.82872" lon="3.07571">
        <ele>404</ele>
        <time>2009-05-22T10:51:25Z</time>
      </trkpt>
      <trkpt lat="45.82872" lon="3.07533">
        <ele>405</ele>
        <time>2009-05-22T10:51:33Z</time>
      </trkpt>
      <trkpt lat="45.82873" lon="3.07494">
        <ele>406</ele>
        <time>2009-05-22T10:51:41Z</time>
      </trkpt>
      <trkpt lat="45.82874" lon="3.07457">
        <ele>407</ele>
        <time>2009-05-22T10:51:49Z</time>
      </trkpt>
      <trkpt lat="45.82873" lon="3.07407">
        <ele>408</ele>
        <time>2009-05-22T10:52:00Z</time>
      </trkpt>
      <trkpt lat="45.8287" lon="3.07361">
        <ele>409</ele>
        <time>2009-05-22T10:52:10Z</time>
      </trkpt>
      <trkpt lat="45.82868" lon="3.07313">
        <ele>411</ele>
        <time>2009-05-22T10:52:21Z</time>
      </trkpt>
      <trkpt lat="45.82866" lon="3.0728">
        <ele>412</ele>
        <time>2009-05-22T10:52:28Z</time>
      </trkpt>
      <trkpt lat="45.82866" lon="3.0724">
        <ele>413</ele>
        <time>2009-05-22T10:52:37Z</time>
      </trkpt>
      <trkpt lat="45.82864" lon="3.07199">
        <ele>415</ele>
        <time>2009-05-22T10:52:46Z</time>
      </trkpt>
      <trkpt lat="45.82863" lon="3.07157">
        <ele>416</ele>
        <time>2009-05-22T10:52:56Z</time>
      </trkpt>
      <trkpt lat="45.82863" lon="3.07124">
        <ele>417</ele>
        <time>2009-05-22T10:53:04Z</time>
      </trkpt>
      <trkpt lat="45.82865" lon="3.07087">
        <ele>419</ele>
        <time>2009-05-22T10:53:12Z</time>
      </trkpt>
      <trkpt lat="45.82872" lon="3.07047">
        <ele>422</ele>
        <time>2009-05-22T10:53:21Z</time>
      </trkpt>
      <trkpt lat="45.82879" lon="3.07007">
        <ele>423</ele>
        <time>2009-05-22T10:53:30Z</time>
      </trkpt>
      <trkpt lat="45.82884" lon="3.06958">
        <ele>426</ele>
        <time>2009-05-22T10:53:41Z</time>
      </trkpt>
      <trkpt lat="45.82883" lon="3.06925">
        <ele>427</ele>
        <time>2009-05-22T10:53:49Z</time>
      </trkpt>
      <trkpt lat="45.82881" lon="3.06879">
        <ele>429</ele>
        <time>2009-05-22T10:54:00Z</time>
      </trkpt>
      <trkpt lat="45.82881" lon="3.06841">
        <ele>431</ele>
        <time>2009-05-22T10:54:09Z</time>
      </trkpt>
      <trkpt lat="45.82884" lon="3.06794">
        <ele>431</ele>
        <time>2009-05-22T10:54:20Z</time>
      </trkpt>
      <trkpt lat="45.82889" lon="3.06756">
        <ele>432</ele>
        <time>2009-05-22T10:54:29Z</time>
      </trkpt>
      <trkpt lat="45.82894" lon="3.06717">
        <ele>433</ele>
        <time>2009-05-22T10:54:39Z</time>
      </trkpt>
      <trkpt lat="45.82884" lon="3.06702">
        <ele>431</ele>
        <time>2009-05-22T10:54:44Z</time>
      </trkpt>
      <trkpt lat="45.82881" lon="3.06699">
        <ele>431</ele>
        <time>2009-05-22T10:54:45Z</time>
      </trkpt>
      <trkpt lat="45.82861" lon="3.06686">
        <ele>431</ele>
        <time>2009-05-22T10:54:52Z</time>
      </trkpt>
      <trkpt lat="45.82851" lon="3.06663">
        <ele>431</ele>
        <time>2009-05-22T10:54:58Z</time>
      </trkpt>
      <trkpt lat="45.82858" lon="3.06636">
        <ele>433</ele>
        <time>2009-05-22T10:55:05Z</time>
      </trkpt>
      <trkpt lat="45.82868" lon="3.0661">
        <ele>436</ele>
        <time>2009-05-22T10:55:14Z</time>
      </trkpt>
      <trkpt lat="45.82871" lon="3.06605">
        <ele>437</ele>
        <time>2009-05-22T10:55:16Z</time>
      </trkpt>
      <trkpt lat="45.82883" lon="3.06579">
        <ele>440</ele>
        <time>2009-05-22T10:55:27Z</time>
      </trkpt>
      <trkpt lat="45.82893" lon="3.06566">
        <ele>441</ele>
        <time>2009-05-22T10:55:35Z</time>
      </trkpt>
      <trkpt lat="45.82903" lon="3.06561">
        <ele>442</ele>
        <time>2009-05-22T10:55:41Z</time>
      </trkpt>
      <trkpt lat="45.82914" lon="3.06553">
        <ele>443</ele>
        <time>2009-05-22T10:55:47Z</time>
      </trkpt>
      <trkpt lat="45.82926" lon="3.06548">
        <ele>443</ele>
        <time>2009-05-22T10:55:53Z</time>
      </trkpt>
      <trkpt lat="45.82945" lon="3.0654">
        <ele>445</ele>
        <time>2009-05-22T10:56:02Z</time>
      </trkpt>
      <trkpt lat="45.82967" lon="3.06539">
        <ele>446</ele>
        <time>2009-05-22T10:56:11Z</time>
      </trkpt>
      <trkpt lat="45.82988" lon="3.06548">
        <ele>447</ele>
        <time>2009-05-22T10:56:19Z</time>
      </trkpt>
      <trkpt lat="45.83012" lon="3.06564">
        <ele>448</ele>
        <time>2009-05-22T10:56:27Z</time>
      </trkpt>
      <trkpt lat="45.83033" lon="3.06567">
        <ele>449</ele>
        <time>2009-05-22T10:56:34Z</time>
      </trkpt>
      <trkpt lat="45.83054" lon="3.06563">
        <ele>451</ele>
        <time>2009-05-22T10:56:41Z</time>
      </trkpt>
      <trkpt lat="45.8308" lon="3.06553">
        <ele>453</ele>
        <time>2009-05-22T10:56:50Z</time>
      </trkpt>
      <trkpt lat="45.831" lon="3.0655">
        <ele>454</ele>
        <time>2009-05-22T10:56:58Z</time>
      </trkpt>
      <trkpt lat="45.8312" lon="3.0655">
        <ele>456</ele>
        <time>2009-05-22T10:57:06Z</time>
      </trkpt>
      <trkpt lat="45.83134" lon="3.0654">
        <ele>457</ele>
        <time>2009-05-22T10:57:11Z</time>
      </trkpt>
      <trkpt lat="45.83153" lon="3.06535">
        <ele>458</ele>
        <time>2009-05-22T10:57:17Z</time>
      </trkpt>
      <trkpt lat="45.83172" lon="3.06542">
        <ele>460</ele>
        <time>2009-05-22T10:57:23Z</time>
      </trkpt>
      <trkpt lat="45.83193" lon="3.06559">
        <ele>463</ele>
        <time>2009-05-22T10:57:30Z</time>
      </trkpt>
      <trkpt lat="45.83209" lon="3.06562">
        <ele>464</ele>
        <time>2009-05-22T10:57:35Z</time>
      </trkpt>
      <trkpt lat="45.83223" lon="3.06556">
        <ele>465</ele>
        <time>2009-05-22T10:57:41Z</time>
      </trkpt>
      <trkpt lat="45.83239" lon="3.06549">
        <ele>466</ele>
        <time>2009-05-22T10:57:48Z</time>
      </trkpt>
      <trkpt lat="45.83244" lon="3.06546">
        <ele>466</ele>
        <time>2009-05-22T10:57:50Z</time>
      </trkpt>
      <trkpt lat="45.83267" lon="3.06536">
        <ele>468</ele>
        <time>2009-05-22T10:57:59Z</time>
      </trkpt>
      <trkpt lat="45.83288" lon="3.06533">
        <ele>470</ele>
        <time>2009-05-22T10:58:06Z</time>
      </trkpt>
      <trkpt lat="45.83316" lon="3.06536">
        <ele>472</ele>
        <time>2009-05-22T10:58:16Z</time>
      </trkpt>
      <trkpt lat="45.83342" lon="3.06539">
        <ele>474</ele>
        <time>2009-05-22T10:58:25Z</time>
      </trkpt>
      <trkpt lat="45.83361" lon="3.06537">
        <ele>475</ele>
        <time>2009-05-22T10:58:32Z</time>
      </trkpt>
      <trkpt lat="45.83382" lon="3.06527">
        <ele>477</ele>
        <time>2009-05-22T10:58:41Z</time>
      </trkpt>
      <trkpt lat="45.83403" lon="3.06516">
        <ele>479</ele>
        <time>2009-05-22T10:58:50Z</time>
      </trkpt>
      <trkpt lat="45.83415" lon="3.0651">
        <ele>480</ele>
        <time>2009-05-22T10:58:56Z</time>
      </trkpt>
      <trkpt lat="45.83424" lon="3.06505">
        <ele>481</ele>
        <time>2009-05-22T10:59:00Z</time>
      </trkpt>
      <trkpt lat="45.83443" lon="3.06492">
        <ele>483</ele>
        <time>2009-05-22T10:59:10Z</time>
      </trkpt>
      <trkpt lat="45.83458" lon="3.06479">
        <ele>484</ele>
        <time>2009-05-22T10:59:18Z</time>
      </trkpt>
      <trkpt lat="45.83472" lon="3.06466">
        <ele>485</ele>
        <time>2009-05-22T10:59:25Z</time>
      </trkpt>
      <trkpt lat="45.83486" lon="3.06448">
        <ele>487</ele>
        <time>2009-05-22T10:59:33Z</time>
      </trkpt>
      <trkpt lat="45.83501" lon="3.06431">
        <ele>489</ele>
        <time>2009-05-22T10:59:41Z</time>
      </trkpt>
      <trkpt lat="45.83515" lon="3.06409">
        <ele>491</ele>
        <time>2009-05-22T10:59:49Z</time>
      </trkpt>
      <trkpt lat="45.83527" lon="3.06394">
        <ele>491</ele>
        <time>2009-05-22T10:59:55Z</time>
      </trkpt>
      <trkpt lat="45.83539" lon="3.06371">
        <ele>492</ele>
        <time>2009-05-22T11:00:03Z</time>
      </trkpt>
      <trkpt lat="45.8355" lon="3.06355">
        <ele>493</ele>
        <time>2009-05-22T11:00:09Z</time>
      </trkpt>
      <trkpt lat="45.83562" lon="3.06338">
        <ele>494</ele>
        <time>2009-05-22T11:00:15Z</time>
      </trkpt>
      <trkpt lat="45.83575" lon="3.06315">
        <ele>496</ele>
        <time>2009-05-22T11:00:23Z</time>
      </trkpt>
      <trkpt lat="45.83582" lon="3.0629">
        <ele>498</ele>
        <time>2009-05-22T11:00:31Z</time>
      </trkpt>
      <trkpt lat="45.83588" lon="3.0627">
        <ele>498</ele>
        <time>2009-05-22T11:00:38Z</time>
      </trkpt>
      <trkpt lat="45.83589" lon="3.06254">
        <ele>499</ele>
        <time>2009-05-22T11:00:44Z</time>
      </trkpt>
      <trkpt lat="45.83588" lon="3.0622">
        <ele>500</ele>
        <time>2009-05-22T11:00:52Z</time>
      </trkpt>
      <trkpt lat="45.83589" lon="3.06191">
        <ele>500</ele>
        <time>2009-05-22T11:00:58Z</time>
      </trkpt>
      <trkpt lat="45.8359" lon="3.06179">
        <ele>500</ele>
        <time>2009-05-22T11:01:02Z</time>
      </trkpt>
      <trkpt lat="45.83597" lon="3.06167">
        <ele>501</ele>
        <time>2009-05-22T11:01:08Z</time>
      </trkpt>
      <trkpt lat="45.83608" lon="3.06162">
        <ele>501</ele>
        <time>2009-05-22T11:01:14Z</time>
      </trkpt>
      <trkpt lat="45.83622" lon="3.06157">
        <ele>501</ele>
        <time>2009-05-22T11:01:21Z</time>
      </trkpt>
      <trkpt lat="45.83643" lon="3.06147">
        <ele>502</ele>
        <time>2009-05-22T11:01:28Z</time>
      </trkpt>
      <trkpt lat="45.83661" lon="3.06142">
        <ele>503</ele>
        <time>2009-05-22T11:01:33Z</time>
      </trkpt>
      <trkpt lat="45.83683" lon="3.06132">
        <ele>504</ele>
        <time>2009-05-22T11:01:38Z</time>
      </trkpt>
      <trkpt lat="45.83704" lon="3.06115">
        <ele>505</ele>
        <time>2009-05-22T11:01:44Z</time>
      </trkpt>
      <trkpt lat="45.83729" lon="3.06086">
        <ele>506</ele>
        <time>2009-05-22T11:01:52Z</time>
      </trkpt>
      <trkpt lat="45.83741" lon="3.06069">
        <ele>507</ele>
        <time>2009-05-22T11:01:58Z</time>
      </trkpt>
      <trkpt lat="45.83758" lon="3.06049">
        <ele>507</ele>
        <time>2009-05-22T11:02:05Z</time>
      </trkpt>
      <trkpt lat="45.83779" lon="3.06029">
        <ele>508</ele>
        <time>2009-05-22T11:02:12Z</time>
      </trkpt>
      <trkpt lat="45.83794" lon="3.06008">
        <ele>509</ele>
        <time>2009-05-22T11:02:18Z</time>
      </trkpt>
      <trkpt lat="45.83808" lon="3.05986">
        <ele>510</ele>
        <time>2009-05-22T11:02:24Z</time>
      </trkpt>
      <trkpt lat="45.83817" lon="3.0597">
        <ele>510</ele>
        <time>2009-05-22T11:02:29Z</time>
      </trkpt>
      <trkpt lat="45.83824" lon="3.05948">
        <ele>511</ele>
        <time>2009-05-22T11:02:34Z</time>
      </trkpt>
      <trkpt lat="45.8384" lon="3.05919">
        <ele>512</ele>
        <time>2009-05-22T11:02:41Z</time>
      </trkpt>
      <trkpt lat="45.83861" lon="3.05905">
        <ele>513</ele>
        <time>2009-05-22T11:02:47Z</time>
      </trkpt>
      <trkpt lat="45.83873" lon="3.05899">
        <ele>513</ele>
        <time>2009-05-22T11:02:50Z</time>
      </trkpt>
      <trkpt lat="45.83912" lon="3.05895">
        <ele>514</ele>
        <time>2009-05-22T11:03:00Z</time>
      </trkpt>
      <trkpt lat="45.8392" lon="3.05897">
        <ele>514</ele>
        <time>2009-05-22T11:03:02Z</time>
      </trkpt>
      <trkpt lat="45.83958" lon="3.05903">
        <ele>515</ele>
        <time>2009-05-22T11:03:11Z</time>
      </trkpt>
      <trkpt lat="45.83992" lon="3.05914">
        <ele>516</ele>
        <time>2009-05-22T11:03:19Z</time>
      </trkpt>
      <trkpt lat="45.84021" lon="3.05916">
        <ele>517</ele>
        <time>2009-05-22T11:03:26Z</time>
      </trkpt>
      <trkpt lat="45.84025" lon="3.05915">
        <ele>517</ele>
        <time>2009-05-22T11:03:27Z</time>
      </trkpt>
      <trkpt lat="45.84038" lon="3.05912">
        <ele>517</ele>
        <time>2009-05-22T11:03:30Z</time>
      </trkpt>
      <trkpt lat="45.84055" lon="3.05907">
        <ele>518</ele>
        <time>2009-05-22T11:03:34Z</time>
      </trkpt>
      <trkpt lat="45.84062" lon="3.05903">
        <ele>518</ele>
        <time>2009-05-22T11:03:36Z</time>
      </trkpt>
      <trkpt lat="45.84086" lon="3.05883">
        <ele>518</ele>
        <time>2009-05-22T11:03:43Z</time>
      </trkpt>
      <trkpt lat="45.8412" lon="3.05855">
        <ele>518</ele>
        <time>2009-05-22T11:03:52Z</time>
      </trkpt>
      <trkpt lat="45.84155" lon="3.05823">
        <ele>518</ele>
        <time>2009-05-22T11:04:02Z</time>
      </trkpt>
      <trkpt lat="45.84186" lon="3.05793">
        <ele>519</ele>
        <time>2009-05-22T11:04:11Z</time>
      </trkpt>
      <trkpt lat="45.84214" lon="3.0577">
        <ele>519</ele>
        <time>2009-05-22T11:04:19Z</time>
      </trkpt>
      <trkpt lat="45.84241" lon="3.05744">
        <ele>520</ele>
        <time>2009-05-22T11:04:27Z</time>
      </trkpt>
      <trkpt lat="45.84269" lon="3.05715">
        <ele>521</ele>
        <time>2009-05-22T11:04:35Z</time>
      </trkpt>
      <trkpt lat="45.84287" lon="3.05699">
        <ele>521</ele>
        <time>2009-05-22T11:04:40Z</time>
      </trkpt>
      <trkpt lat="45.84322" lon="3.05663">
        <ele>522</ele>
        <time>2009-05-22T11:04:50Z</time>
      </trkpt>
      <trkpt lat="45.84325" lon="3.0566">
        <ele>522</ele>
        <time>2009-05-22T11:04:51Z</time>
      </trkpt>
      <trkpt lat="45.84352" lon="3.05633">
        <ele>522</ele>
        <time>2009-05-22T11:04:59Z</time>
      </trkpt>
      <trkpt lat="45.84385" lon="3.05595">
        <ele>521</ele>
        <time>2009-05-22T11:05:09Z</time>
      </trkpt>
      <trkpt lat="45.84421" lon="3.05549">
        <ele>521</ele>
        <time>2009-05-22T11:05:20Z</time>
      </trkpt>
      <trkpt lat="45.84436" lon="3.05532">
        <ele>520</ele>
        <time>2009-05-22T11:05:24Z</time>
      </trkpt>
      <trkpt lat="45.84453" lon="3.05513">
        <ele>520</ele>
        <time>2009-05-22T11:05:29Z</time>
      </trkpt>
      <trkpt lat="45.84483" lon="3.05481">
        <ele>520</ele>
        <time>2009-05-22T11:05:37Z</time>
      </trkpt>
      <trkpt lat="45.84498" lon="3.05465">
        <ele>520</ele>
        <time>2009-05-22T11:05:41Z</time>
      </trkpt>
      <trkpt lat="45.84501" lon="3.05461">
        <ele>520</ele>
        <time>2009-05-22T11:05:42Z</time>
      </trkpt>
      <trkpt lat="45.84522" lon="3.0544">
        <ele>519</ele>
        <time>2009-05-22T11:05:48Z</time>
      </trkpt>
      <trkpt lat="45.84549" lon="3.05412">
        <ele>519</ele>
        <time>2009-05-22T11:05:56Z</time>
      </trkpt>
      <trkpt lat="45.8458" lon="3.05377">
        <ele>518</ele>
        <time>2009-05-22T11:06:05Z</time>
      </trkpt>
      <trkpt lat="45.84597" lon="3.05357">
        <ele>518</ele>
        <time>2009-05-22T11:06:10Z</time>
      </trkpt>
      <trkpt lat="45.84624" lon="3.05317">
        <ele>518</ele>
        <time>2009-05-22T11:06:19Z</time>
      </trkpt>
      <trkpt lat="45.84653" lon="3.05287">
        <ele>517</ele>
        <time>2009-05-22T11:06:26Z</time>
      </trkpt>
      <trkpt lat="45.84666" lon="3.05274">
        <ele>516</ele>
        <time>2009-05-22T11:06:29Z</time>
      </trkpt>
      <trkpt lat="45.84685" lon="3.05259">
        <ele>516</ele>
        <time>2009-05-22T11:06:33Z</time>
      </trkpt>
      <trkpt lat="45.84711" lon="3.05253">
        <ele>516</ele>
        <time>2009-05-22T11:06:38Z</time>
      </trkpt>
      <trkpt lat="45.84716" lon="3.05256">
        <ele>515</ele>
        <time>2009-05-22T11:06:39Z</time>
      </trkpt>
      <trkpt lat="45.84728" lon="3.05263">
        <ele>515</ele>
        <time>2009-05-22T11:06:41Z</time>
      </trkpt>
      <trkpt lat="45.8474" lon="3.05268">
        <ele>515</ele>
        <time>2009-05-22T11:06:43Z</time>
      </trkpt>
      <trkpt lat="45.8476" lon="3.05264">
        <ele>513</ele>
        <time>2009-05-22T11:06:46Z</time>
      </trkpt>
      <trkpt lat="45.84784" lon="3.0524">
        <ele>508</ele>
        <time>2009-05-22T11:06:50Z</time>
      </trkpt>
      <trkpt lat="45.84787" lon="3.05217">
        <ele>506</ele>
        <time>2009-05-22T11:06:52Z</time>
      </trkpt>
      <trkpt lat="45.84777" lon="3.05185">
        <ele>504</ele>
        <time>2009-05-22T11:06:55Z</time>
      </trkpt>
      <trkpt lat="45.84759" lon="3.05161">
        <ele>504</ele>
        <time>2009-05-22T11:06:58Z</time>
      </trkpt>
      <trkpt lat="45.8474" lon="3.05135">
        <ele>505</ele>
        <time>2009-05-22T11:07:01Z</time>
      </trkpt>
      <trkpt lat="45.84727" lon="3.05083">
        <ele>500</ele>
        <time>2009-05-22T11:07:05Z</time>
      </trkpt>
      <trkpt lat="45.84734" lon="3.05054">
        <ele>497</ele>
        <time>2009-05-22T11:07:07Z</time>
      </trkpt>
      <trkpt lat="45.8474" lon="3.05041">
        <ele>496</ele>
        <time>2009-05-22T11:07:08Z</time>
      </trkpt>
      <trkpt lat="45.84773" lon="3.04983">
        <ele>496</ele>
        <time>2009-05-22T11:07:13Z</time>
      </trkpt>
      <trkpt lat="45.84805" lon="3.04956">
        <ele>497</ele>
        <time>2009-05-22T11:07:17Z</time>
      </trkpt>
      <trkpt lat="45.84814" lon="3.04954">
        <ele>497</ele>
        <time>2009-05-22T11:07:18Z</time>
      </trkpt>
      <trkpt lat="45.84876" lon="3.04946">
        <ele>498</ele>
        <time>2009-05-22T11:07:26Z</time>
      </trkpt>
      <trkpt lat="45.84912" lon="3.04946">
        <ele>499</ele>
        <time>2009-05-22T11:07:32Z</time>
      </trkpt>
      <trkpt lat="45.84938" lon="3.04949">
        <ele>498</ele>
        <time>2009-05-22T11:07:38Z</time>
      </trkpt>
      <trkpt lat="45.84966" lon="3.04948">
        <ele>497</ele>
        <time>2009-05-22T11:07:44Z</time>
      </trkpt>
      <trkpt lat="45.84971" lon="3.04947">
        <ele>496</ele>
        <time>2009-05-22T11:07:45Z</time>
      </trkpt>
      <trkpt lat="45.84991" lon="3.04932">
        <ele>495</ele>
        <time>2009-05-22T11:07:49Z</time>
      </trkpt>
      <trkpt lat="45.84999" lon="3.04907">
        <ele>494</ele>
        <time>2009-05-22T11:07:52Z</time>
      </trkpt>
      <trkpt lat="45.85003" lon="3.0489">
        <ele>494</ele>
        <time>2009-05-22T11:07:54Z</time>
      </trkpt>
      <trkpt lat="45.85021" lon="3.04878">
        <ele>492</ele>
        <time>2009-05-22T11:07:57Z</time>
      </trkpt>
      <trkpt lat="45.85029" lon="3.04878">
        <ele>491</ele>
        <time>2009-05-22T11:07:58Z</time>
      </trkpt>
      <trkpt lat="45.85066" lon="3.04878">
        <ele>488</ele>
        <time>2009-05-22T11:08:02Z</time>
      </trkpt>
      <trkpt lat="45.85076" lon="3.04877">
        <ele>487</ele>
        <time>2009-05-22T11:08:03Z</time>
      </trkpt>
      <trkpt lat="45.85097" lon="3.0488">
        <ele>484</ele>
        <time>2009-05-22T11:08:05Z</time>
      </trkpt>
      <trkpt lat="45.85127" lon="3.04893">
        <ele>483</ele>
        <time>2009-05-22T11:08:08Z</time>
      </trkpt>
      <trkpt lat="45.85148" lon="3.04902">
        <ele>482</ele>
        <time>2009-05-22T11:08:10Z</time>
      </trkpt>
      <trkpt lat="45.85208" lon="3.04922">
        <ele>481</ele>
        <time>2009-05-22T11:08:16Z</time>
      </trkpt>
      <trkpt lat="45.85253" lon="3.04934">
        <ele>481</ele>
        <time>2009-05-22T11:08:21Z</time>
      </trkpt>
      <trkpt lat="45.85279" lon="3.04959">
        <ele>481</ele>
        <time>2009-05-22T11:08:25Z</time>
      </trkpt>
      <trkpt lat="45.85308" lon="3.04989">
        <ele>480</ele>
        <time>2009-05-22T11:08:30Z</time>
      </trkpt>
      <trkpt lat="45.85346" lon="3.05013">
        <ele>479</ele>
        <time>2009-05-22T11:08:36Z</time>
      </trkpt>
      <trkpt lat="45.85388" lon="3.0503">
        <ele>477</ele>
        <time>2009-05-22T11:08:42Z</time>
      </trkpt>
      <trkpt lat="45.85412" lon="3.05039">
        <ele>475</ele>
        <time>2009-05-22T11:08:45Z</time>
      </trkpt>
      <trkpt lat="45.85437" lon="3.05043">
        <ele>474</ele>
        <time>2009-05-22T11:08:48Z</time>
      </trkpt>
      <trkpt lat="45.85455" lon="3.05039">
        <ele>473</ele>
        <time>2009-05-22T11:08:50Z</time>
      </trkpt>
      <trkpt lat="45.85532" lon="3.05007">
        <ele>469</ele>
        <time>2009-05-22T11:08:58Z</time>
      </trkpt>
      <trkpt lat="45.85595" lon="3.04974">
        <ele>465</ele>
        <time>2009-05-22T11:09:05Z</time>
      </trkpt>
      <trkpt lat="45.85644" lon="3.04946">
        <ele>463</ele>
        <time>2009-05-22T11:09:11Z</time>
      </trkpt>
      <trkpt lat="45.85677" lon="3.04925">
        <ele>461</ele>
        <time>2009-05-22T11:09:15Z</time>
      </trkpt>
      <trkpt lat="45.8572" lon="3.04882">
        <ele>461</ele>
        <time>2009-05-22T11:09:21Z</time>
      </trkpt>
      <trkpt lat="45.85744" lon="3.04856">
        <ele>461</ele>
        <time>2009-05-22T11:09:25Z</time>
      </trkpt>
      <trkpt lat="45.8578" lon="3.04823">
        <ele>461</ele>
        <time>2009-05-22T11:09:31Z</time>
      </trkpt>
      <trkpt lat="45.85824" lon="3.04809">
        <ele>460</ele>
        <time>2009-05-22T11:09:38Z</time>
      </trkpt>
      <trkpt lat="45.85875" lon="3.04791">
        <ele>459</ele>
        <time>2009-05-22T11:09:46Z</time>
      </trkpt>
      <trkpt lat="45.85905" lon="3.04781">
        <ele>458</ele>
        <time>2009-05-22T11:09:51Z</time>
      </trkpt>
      <trkpt lat="45.85934" lon="3.0477">
        <ele>458</ele>
        <time>2009-05-22T11:09:56Z</time>
      </trkpt>
      <trkpt lat="45.85951" lon="3.04759">
        <ele>458</ele>
        <time>2009-05-22T11:09:59Z</time>
      </trkpt>
      <trkpt lat="45.85985" lon="3.04728">
        <ele>459</ele>
        <time>2009-05-22T11:10:05Z</time>
      </trkpt>
      <trkpt lat="45.86004" lon="3.04689">
        <ele>459</ele>
        <time>2009-05-22T11:10:10Z</time>
      </trkpt>
      <trkpt lat="45.86013" lon="3.04648">
        <ele>459</ele>
        <time>2009-05-22T11:10:15Z</time>
      </trkpt>
      <trkpt lat="45.86034" lon="3.04582">
        <ele>460</ele>
        <time>2009-05-22T11:10:24Z</time>
      </trkpt>
      <trkpt lat="45.86056" lon="3.04529">
        <ele>461</ele>
        <time>2009-05-22T11:10:32Z</time>
      </trkpt>
      <trkpt lat="45.8608" lon="3.0447">
        <ele>463</ele>
        <time>2009-05-22T11:10:41Z</time>
      </trkpt>
      <trkpt lat="45.86094" lon="3.04439">
        <ele>464</ele>
        <time>2009-05-22T11:10:46Z</time>
      </trkpt>
      <trkpt lat="45.86121" lon="3.04409">
        <ele>465</ele>
        <time>2009-05-22T11:10:53Z</time>
      </trkpt>
      <trkpt lat="45.86149" lon="3.04387">
        <ele>467</ele>
        <time>2009-05-22T11:11:00Z</time>
      </trkpt>
      <trkpt lat="45.86153" lon="3.04384">
        <ele>467</ele>
        <time>2009-05-22T11:11:01Z</time>
      </trkpt>
      <trkpt lat="45.86187" lon="3.04372">
        <ele>469</ele>
        <time>2009-05-22T11:11:09Z</time>
      </trkpt>
      <trkpt lat="45.86191" lon="3.04371">
        <ele>469</ele>
        <time>2009-05-22T11:11:10Z</time>
      </trkpt>
      <trkpt lat="45.86203" lon="3.04367">
        <ele>469</ele>
        <time>2009-05-22T11:11:13Z</time>
      </trkpt>
      <trkpt lat="45.86227" lon="3.04345">
        <ele>471</ele>
        <time>2009-05-22T11:11:20Z</time>
      </trkpt>
      <trkpt lat="45.86259" lon="3.04318">
        <ele>472</ele>
        <time>2009-05-22T11:11:29Z</time>
      </trkpt>
      <trkpt lat="45.86281" lon="3.04295">
        <ele>473</ele>
        <time>2009-05-22T11:11:36Z</time>
      </trkpt>
      <trkpt lat="45.86298" lon="3.0428">
        <ele>474</ele>
        <time>2009-05-22T11:11:41Z</time>
      </trkpt>
      <trkpt lat="45.86321" lon="3.04261">
        <ele>475</ele>
        <time>2009-05-22T11:11:48Z</time>
      </trkpt>
      <trkpt lat="45.86338" lon="3.04237">
        <ele>476</ele>
        <time>2009-05-22T11:11:54Z</time>
      </trkpt>
      <trkpt lat="45.86359" lon="3.04206">
        <ele>477</ele>
        <time>2009-05-22T11:12:02Z</time>
      </trkpt>
      <trkpt lat="45.8637" lon="3.04181">
        <ele>478</ele>
        <time>2009-05-22T11:12:08Z</time>
      </trkpt>
      <trkpt lat="45.86369" lon="3.04164">
        <ele>479</ele>
        <time>2009-05-22T11:12:13Z</time>
      </trkpt>
      <trkpt lat="45.8636" lon="3.04144">
        <ele>479</ele>
        <time>2009-05-22T11:12:18Z</time>
      </trkpt>
      <trkpt lat="45.86361" lon="3.04125">
        <ele>479</ele>
        <time>2009-05-22T11:12:22Z</time>
      </trkpt>
      <trkpt lat="45.86375" lon="3.04111">
        <ele>479</ele>
        <time>2009-05-22T11:12:27Z</time>
      </trkpt>
      <trkpt lat="45.86383" lon="3.04092">
        <ele>480</ele>
        <time>2009-05-22T11:12:32Z</time>
      </trkpt>
      <trkpt lat="45.86386" lon="3.04072">
        <ele>480</ele>
        <time>2009-05-22T11:12:36Z</time>
      </trkpt>
      <trkpt lat="45.86403" lon="3.04048">
        <ele>481</ele>
        <time>2009-05-22T11:12:42Z</time>
      </trkpt>
      <trkpt lat="45.86422" lon="3.04035">
        <ele>482</ele>
        <time>2009-05-22T11:12:47Z</time>
      </trkpt>
      <trkpt lat="45.86451" lon="3.04025">
        <ele>483</ele>
        <time>2009-05-22T11:12:55Z</time>
      </trkpt>
      <trkpt lat="45.86455" lon="3.04024">
        <ele>483</ele>
        <time>2009-05-22T11:12:56Z</time>
      </trkpt>
      <trkpt lat="45.86469" lon="3.04027">
        <ele>484</ele>
        <time>2009-05-22T11:12:59Z</time>
      </trkpt>
      <trkpt lat="45.86493" lon="3.04023">
        <ele>485</ele>
        <time>2009-05-22T11:13:06Z</time>
      </trkpt>
      <trkpt lat="45.86511" lon="3.04017">
        <ele>486</ele>
        <time>2009-05-22T11:13:11Z</time>
      </trkpt>
      <trkpt lat="45.86541" lon="3.04">
        <ele>489</ele>
        <time>2009-05-22T11:13:19Z</time>
      </trkpt>
      <trkpt lat="45.86574" lon="3.03987">
        <ele>490</ele>
        <time>2009-05-22T11:13:27Z</time>
      </trkpt>
      <trkpt lat="45.86622" lon="3.03963">
        <ele>491</ele>
        <time>2009-05-22T11:13:39Z</time>
      </trkpt>
      <trkpt lat="45.8667" lon="3.03936">
        <ele>492</ele>
        <time>2009-05-22T11:13:51Z</time>
      </trkpt>
      <trkpt lat="45.86702" lon="3.03918">
        <ele>493</ele>
        <time>2009-05-22T11:13:59Z</time>
      </trkpt>
      <trkpt lat="45.86745" lon="3.03892">
        <ele>494</ele>
        <time>2009-05-22T11:14:10Z</time>
      </trkpt>
      <trkpt lat="45.86779" lon="3.0387">
        <ele>494</ele>
        <time>2009-05-22T11:14:19Z</time>
      </trkpt>
      <trkpt lat="45.86808" lon="3.03851">
        <ele>496</ele>
        <time>2009-05-22T11:14:27Z</time>
      </trkpt>
      <trkpt lat="45.86836" lon="3.03828">
        <ele>497</ele>
        <time>2009-05-22T11:14:36Z</time>
      </trkpt>
      <trkpt lat="45.86855" lon="3.03805">
        <ele>498</ele>
        <time>2009-05-22T11:14:43Z</time>
      </trkpt>
      <trkpt lat="45.8688" lon="3.03778">
        <ele>502</ele>
        <time>2009-05-22T11:14:52Z</time>
      </trkpt>
      <trkpt lat="45.86905" lon="3.03757">
        <ele>505</ele>
        <time>2009-05-22T11:15:01Z</time>
      </trkpt>
      <trkpt lat="45.86919" lon="3.03753">
        <ele>507</ele>
        <time>2009-05-22T11:15:06Z</time>
      </trkpt>
      <trkpt lat="45.86927" lon="3.03756">
        <ele>508</ele>
        <time>2009-05-22T11:15:12Z</time>
      </trkpt>
      <trkpt lat="45.86938" lon="3.03762">
        <ele>508</ele>
        <time>2009-05-22T11:15:17Z</time>
      </trkpt>
      <trkpt lat="45.86954" lon="3.03771">
        <ele>509</ele>
        <time>2009-05-22T11:15:24Z</time>
      </trkpt>
      <trkpt lat="45.86969" lon="3.03777">
        <ele>507</ele>
        <time>2009-05-22T11:15:30Z</time>
      </trkpt>
      <trkpt lat="45.86981" lon="3.03773">
        <ele>507</ele>
        <time>2009-05-22T11:15:35Z</time>
      </trkpt>
      <trkpt lat="45.8699" lon="3.03757">
        <ele>508</ele>
        <time>2009-05-22T11:15:41Z</time>
      </trkpt>
      <trkpt lat="45.87" lon="3.03734">
        <ele>510</ele>
        <time>2009-05-22T11:15:49Z</time>
      </trkpt>
      <trkpt lat="45.87006" lon="3.03717">
        <ele>512</ele>
        <time>2009-05-22T11:15:56Z</time>
      </trkpt>
      <trkpt lat="45.87013" lon="3.037">
        <ele>513</ele>
        <time>2009-05-22T11:16:02Z</time>
      </trkpt>
      <trkpt lat="45.87031" lon="3.03678">
        <ele>515</ele>
        <time>2009-05-22T11:16:09Z</time>
      </trkpt>
      <trkpt lat="45.87045" lon="3.03677">
        <ele>515</ele>
        <time>2009-05-22T11:16:12Z</time>
      </trkpt>
      <trkpt lat="45.87071" lon="3.03683">
        <ele>515</ele>
        <time>2009-05-22T11:16:18Z</time>
      </trkpt>
      <trkpt lat="45.87093" lon="3.03685">
        <ele>515</ele>
        <time>2009-05-22T11:16:24Z</time>
      </trkpt>
      <trkpt lat="45.87105" lon="3.03688">
        <ele>515</ele>
        <time>2009-05-22T11:16:29Z</time>
      </trkpt>
      <trkpt lat="45.87117" lon="3.03688">
        <ele>515</ele>
        <time>2009-05-22T11:16:34Z</time>
      </trkpt>
      <trkpt lat="45.87125" lon="3.03689">
        <ele>515</ele>
        <time>2009-05-22T11:16:37Z</time>
      </trkpt>
      <trkpt lat="45.87136" lon="3.03687">
        <ele>515</ele>
        <time>2009-05-22T11:16:41Z</time>
      </trkpt>
      <trkpt lat="45.87152" lon="3.03687">
        <ele>515</ele>
        <time>2009-05-22T11:16:46Z</time>
      </trkpt>
      <trkpt lat="45.87177" lon="3.03691">
        <ele>515</ele>
        <time>2009-05-22T11:16:52Z</time>
      </trkpt>
      <trkpt lat="45.87181" lon="3.03693">
        <ele>515</ele>
        <time>2009-05-22T11:16:53Z</time>
      </trkpt>
      <trkpt lat="45.87202" lon="3.03706">
        <ele>515</ele>
        <time>2009-05-22T11:16:58Z</time>
      </trkpt>
      <trkpt lat="45.87224" lon="3.03727">
        <ele>515</ele>
        <time>2009-05-22T11:17:03Z</time>
      </trkpt>
      <trkpt lat="45.87233" lon="3.03734">
        <ele>515</ele>
        <time>2009-05-22T11:17:05Z</time>
      </trkpt>
      <trkpt lat="45.87254" lon="3.03743">
        <ele>515</ele>
        <time>2009-05-22T11:17:12Z</time>
      </trkpt>
      <trkpt lat="45.87265" lon="3.03739">
        <ele>516</ele>
        <time>2009-05-22T11:17:17Z</time>
      </trkpt>
      <trkpt lat="45.87274" lon="3.03721">
        <ele>518</ele>
        <time>2009-05-22T11:17:24Z</time>
      </trkpt>
      <trkpt lat="45.87282" lon="3.03708">
        <ele>519</ele>
        <time>2009-05-22T11:17:29Z</time>
      </trkpt>
      <trkpt lat="45.87291" lon="3.03693">
        <ele>521</ele>
        <time>2009-05-22T11:17:34Z</time>
      </trkpt>
      <trkpt lat="45.87302" lon="3.03673">
        <ele>525</ele>
        <time>2009-05-22T11:17:41Z</time>
      </trkpt>
      <trkpt lat="45.87308" lon="3.03658">
        <ele>527</ele>
        <time>2009-05-22T11:17:47Z</time>
      </trkpt>
      <trkpt lat="45.87312" lon="3.03652">
        <ele>528</ele>
        <time>2009-05-22T11:17:50Z</time>
      </trkpt>
      <trkpt lat="45.87306" lon="3.03636">
        <ele>529</ele>
        <time>2009-05-22T11:17:55Z</time>
      </trkpt>
      <trkpt lat="45.87303" lon="3.03633">
        <ele>529</ele>
        <time>2009-05-22T11:17:56Z</time>
      </trkpt>
      <trkpt lat="45.8729" lon="3.03616">
        <ele>530</ele>
        <time>2009-05-22T11:18:03Z</time>
      </trkpt>
      <trkpt lat="45.87286" lon="3.03612">
        <ele>530</ele>
        <time>2009-05-22T11:18:05Z</time>
      </trkpt>
      <trkpt lat="45.87276" lon="3.036">
        <ele>530</ele>
        <time>2009-05-22T11:18:11Z</time>
      </trkpt>
      <trkpt lat="45.87269" lon="3.03591">
        <ele>530</ele>
        <time>2009-05-22T11:18:16Z</time>
      </trkpt>
      <trkpt lat="45.87255" lon="3.03572">
        <ele>531</ele>
        <time>2009-05-22T11:18:25Z</time>
      </trkpt>
      <trkpt lat="45.87244" lon="3.03558">
        <ele>532</ele>
        <time>2009-05-22T11:18:32Z</time>
      </trkpt>
      <trkpt lat="45.87227" lon="3.03548">
        <ele>532</ele>
        <time>2009-05-22T11:18:41Z</time>
      </trkpt>
      <trkpt lat="45.87219" lon="3.03544">
        <ele>533</ele>
        <time>2009-05-22T11:18:45Z</time>
      </trkpt>
      <trkpt lat="45.87206" lon="3.03536">
        <ele>534</ele>
        <time>2009-05-22T11:18:53Z</time>
      </trkpt>
      <trkpt lat="45.87197" lon="3.03529">
        <ele>535</ele>
        <time>2009-05-22T11:19:00Z</time>
      </trkpt>
      <trkpt lat="45.87194" lon="3.03516">
        <ele>537</ele>
        <time>2009-05-22T11:19:08Z</time>
      </trkpt>
      <trkpt lat="45.87196" lon="3.03501">
        <ele>540</ele>
        <time>2009-05-22T11:19:16Z</time>
      </trkpt>
      <trkpt lat="45.87197" lon="3.03493">
        <ele>542</ele>
        <time>2009-05-22T11:19:20Z</time>
      </trkpt>
      <trkpt lat="45.87199" lon="3.03484">
        <ele>543</ele>
        <time>2009-05-22T11:19:25Z</time>
      </trkpt>
      <trkpt lat="45.87201" lon="3.03478">
        <ele>545</ele>
        <time>2009-05-22T11:19:29Z</time>
      </trkpt>
      <trkpt lat="45.87204" lon="3.03462">
        <ele>549</ele>
        <time>2009-05-22T11:19:38Z</time>
      </trkpt>
      <trkpt lat="45.87207" lon="3.0345">
        <ele>552</ele>
        <time>2009-05-22T11:19:46Z</time>
      </trkpt>
      <trkpt lat="45.87212" lon="3.03438">
        <ele>556</ele>
        <time>2009-05-22T11:19:55Z</time>
      </trkpt>
      <trkpt lat="45.87214" lon="3.03428">
        <ele>558</ele>
        <time>2009-05-22T11:20:02Z</time>
      </trkpt>
      <trkpt lat="45.87215" lon="3.03415">
        <ele>559</ele>
        <time>2009-05-22T11:20:11Z</time>
      </trkpt>
      <trkpt lat="45.87215" lon="3.03409">
        <ele>559</ele>
        <time>2009-05-22T11:20:14Z</time>
      </trkpt>
      <trkpt lat="45.87218" lon="3.03399">
        <ele>560</ele>
        <time>2009-05-22T11:20:21Z</time>
      </trkpt>
      <trkpt lat="45.87224" lon="3.0339">
        <ele>562</ele>
        <time>2009-05-22T11:20:29Z</time>
      </trkpt>
      <trkpt lat="45.87228" lon="3.03388">
        <ele>563</ele>
        <time>2009-05-22T11:20:35Z</time>
      </trkpt>
      <trkpt lat="45.87231" lon="3.03386">
        <ele>564</ele>
        <time>2009-05-22T11:20:40Z</time>
      </trkpt>
      <trkpt lat="45.87236" lon="3.03384">
        <ele>566</ele>
        <time>2009-05-22T11:20:47Z</time>
      </trkpt>
      <trkpt lat="45.87246" lon="3.03379">
        <ele>568</ele>
        <time>2009-05-22T11:20:58Z</time>
      </trkpt>
      <trkpt lat="45.87253" lon="3.03375">
        <ele>570</ele>
        <time>2009-05-22T11:21:06Z</time>
      </trkpt>
      <trkpt lat="45.87262" lon="3.03366">
        <ele>573</ele>
        <time>2009-05-22T11:21:13Z</time>
      </trkpt>
      <trkpt lat="45.8727" lon="3.03359">
        <ele>575</ele>
        <time>2009-05-22T11:21:20Z</time>
      </trkpt>
      <trkpt lat="45.87276" lon="3.03356">
        <ele>577</ele>
        <time>2009-05-22T11:21:28Z</time>
      </trkpt>
      <trkpt lat="45.87282" lon="3.03351">
        <ele>579</ele>
        <time>2009-05-22T11:21:35Z</time>
      </trkpt>
      <trkpt lat="45.87292" lon="3.03342">
        <ele>581</ele>
        <time>2009-05-22T11:21:42Z</time>
      </trkpt>
      <trkpt lat="45.87303" lon="3.03331">
        <ele>584</ele>
        <time>2009-05-22T11:21:50Z</time>
      </trkpt>
      <trkpt lat="45.87312" lon="3.03316">
        <ele>586</ele>
        <time>2009-05-22T11:21:59Z</time>
      </trkpt>
      <trkpt lat="45.87322" lon="3.03302">
        <ele>587</ele>
        <time>2009-05-22T11:22:07Z</time>
      </trkpt>
      <trkpt lat="45.8733" lon="3.03283">
        <ele>586</ele>
        <time>2009-05-22T11:22:14Z</time>
      </trkpt>
      <trkpt lat="45.87345" lon="3.03265">
        <ele>586</ele>
        <time>2009-05-22T11:22:20Z</time>
      </trkpt>
      <trkpt lat="45.87352" lon="3.03258">
        <ele>586</ele>
        <time>2009-05-22T11:22:23Z</time>
      </trkpt>
      <trkpt lat="45.87354" lon="3.03256">
        <ele>586</ele>
        <time>2009-05-22T11:22:24Z</time>
      </trkpt>
      <trkpt lat="45.87368" lon="3.03244">
        <ele>587</ele>
        <time>2009-05-22T11:22:30Z</time>
      </trkpt>
      <trkpt lat="45.87389" lon="3.03228">
        <ele>589</ele>
        <time>2009-05-22T11:22:38Z</time>
      </trkpt>
      <trkpt lat="45.87402" lon="3.03219">
        <ele>589</ele>
        <time>2009-05-22T11:22:45Z</time>
      </trkpt>
      <trkpt lat="45.87413" lon="3.03208">
        <ele>589</ele>
        <time>2009-05-22T11:22:52Z</time>
      </trkpt>
      <trkpt lat="45.87424" lon="3.03199">
        <ele>588</ele>
        <time>2009-05-22T11:23:00Z</time>
      </trkpt>
      <trkpt lat="45.87432" lon="3.03192">
        <ele>588</ele>
        <time>2009-05-22T11:23:05Z</time>
      </trkpt>
      <trkpt lat="45.87434" lon="3.0319">
        <ele>587</ele>
        <time>2009-05-22T11:23:06Z</time>
      </trkpt>
      <trkpt lat="45.87448" lon="3.03178">
        <ele>586</ele>
        <time>2009-05-22T11:23:13Z</time>
      </trkpt>
      <trkpt lat="45.87465" lon="3.03166">
        <ele>587</ele>
        <time>2009-05-22T11:23:19Z</time>
      </trkpt>
      <trkpt lat="45.87477" lon="3.03158">
        <ele>588</ele>
        <time>2009-05-22T11:23:23Z</time>
      </trkpt>
      <trkpt lat="45.87497" lon="3.0314">
        <ele>588</ele>
        <time>2009-05-22T11:23:30Z</time>
      </trkpt>
      <trkpt lat="45.87506" lon="3.03129">
        <ele>587</ele>
        <time>2009-05-22T11:23:34Z</time>
      </trkpt>
      <trkpt lat="45.87517" lon="3.03105">
        <ele>586</ele>
        <time>2009-05-22T11:23:41Z</time>
      </trkpt>
      <trkpt lat="45.87522" lon="3.03087">
        <ele>587</ele>
        <time>2009-05-22T11:23:46Z</time>
      </trkpt>
      <trkpt lat="45.87525" lon="3.03057">
        <ele>586</ele>
        <time>2009-05-22T11:23:53Z</time>
      </trkpt>
      <trkpt lat="45.87525" lon="3.03033">
        <ele>586</ele>
        <time>2009-05-22T11:23:57Z</time>
      </trkpt>
      <trkpt lat="45.87519" lon="3.02993">
        <ele>585</ele>
        <time>2009-05-22T11:24:04Z</time>
      </trkpt>
      <trkpt lat="45.87514" lon="3.02968">
        <ele>585</ele>
        <time>2009-05-22T11:24:09Z</time>
      </trkpt>
      <trkpt lat="45.8751" lon="3.02942">
        <ele>585</ele>
        <time>2009-05-22T11:24:14Z</time>
      </trkpt>
      <trkpt lat="45.87502" lon="3.02906">
        <ele>584</ele>
        <time>2009-05-22T11:24:20Z</time>
      </trkpt>
      <trkpt lat="45.8749" lon="3.02879">
        <ele>585</ele>
        <time>2009-05-22T11:24:26Z</time>
      </trkpt>
      <trkpt lat="45.87478" lon="3.02849">
        <ele>586</ele>
        <time>2009-05-22T11:24:33Z</time>
      </trkpt>
      <trkpt lat="45.87471" lon="3.02829">
        <ele>588</ele>
        <time>2009-05-22T11:24:39Z</time>
      </trkpt>
      <trkpt lat="45.87466" lon="3.02811">
        <ele>589</ele>
        <time>2009-05-22T11:24:46Z</time>
      </trkpt>
      <trkpt lat="45.8746" lon="3.02794">
        <ele>589</ele>
        <time>2009-05-22T11:24:53Z</time>
      </trkpt>
      <trkpt lat="45.87451" lon="3.02776">
        <ele>589</ele>
        <time>2009-05-22T11:25:01Z</time>
      </trkpt>
      <trkpt lat="45.87447" lon="3.02756">
        <ele>592</ele>
        <time>2009-05-22T11:25:08Z</time>
      </trkpt>
      <trkpt lat="45.87447" lon="3.02741">
        <ele>594</ele>
        <time>2009-05-22T11:25:14Z</time>
      </trkpt>
      <trkpt lat="45.87449" lon="3.02726">
        <ele>597</ele>
        <time>2009-05-22T11:25:20Z</time>
      </trkpt>
      <trkpt lat="45.87456" lon="3.02712">
        <ele>599</ele>
        <time>2009-05-22T11:25:27Z</time>
      </trkpt>
      <trkpt lat="45.87467" lon="3.027">
        <ele>600</ele>
        <time>2009-05-22T11:25:34Z</time>
      </trkpt>
      <trkpt lat="45.87478" lon="3.02699">
        <ele>601</ele>
        <time>2009-05-22T11:25:39Z</time>
      </trkpt>
      <trkpt lat="45.87488" lon="3.02702">
        <ele>602</ele>
        <time>2009-05-22T11:25:45Z</time>
      </trkpt>
      <trkpt lat="45.87496" lon="3.02706">
        <ele>604</ele>
        <time>2009-05-22T11:25:50Z</time>
      </trkpt>
      <trkpt lat="45.87506" lon="3.02715">
        <ele>606</ele>
        <time>2009-05-22T11:25:58Z</time>
      </trkpt>
      <trkpt lat="45.87515" lon="3.02725">
        <ele>608</ele>
        <time>2009-05-22T11:26:06Z</time>
      </trkpt>
      <trkpt lat="45.87529" lon="3.02732">
        <ele>610</ele>
        <time>2009-05-22T11:26:15Z</time>
      </trkpt>
      <trkpt lat="45.87544" lon="3.02736">
        <ele>612</ele>
        <time>2009-05-22T11:26:23Z</time>
      </trkpt>
      <trkpt lat="45.87558" lon="3.02738">
        <ele>614</ele>
        <time>2009-05-22T11:26:30Z</time>
      </trkpt>
      <trkpt lat="45.87573" lon="3.02742">
        <ele>616</ele>
        <time>2009-05-22T11:26:38Z</time>
      </trkpt>
      <trkpt lat="45.87583" lon="3.02746">
        <ele>618</ele>
        <time>2009-05-22T11:26:45Z</time>
      </trkpt>
      <trkpt lat="45.8759" lon="3.02751">
        <ele>620</ele>
        <time>2009-05-22T11:26:51Z</time>
      </trkpt>
      <trkpt lat="45.87604" lon="3.02755">
        <ele>622</ele>
        <time>2009-05-22T11:26:59Z</time>
      </trkpt>
      <trkpt lat="45.87612" lon="3.02754">
        <ele>622</ele>
        <time>2009-05-22T11:27:04Z</time>
      </trkpt>
      <trkpt lat="45.87623" lon="3.02754">
        <ele>624</ele>
        <time>2009-05-22T11:27:11Z</time>
      </trkpt>
      <trkpt lat="45.87638" lon="3.02752">
        <ele>624</ele>
        <time>2009-05-22T11:27:19Z</time>
      </trkpt>
      <trkpt lat="45.87648" lon="3.02752">
        <ele>625</ele>
        <time>2009-05-22T11:27:25Z</time>
      </trkpt>
      <trkpt lat="45.87668" lon="3.02751">
        <ele>627</ele>
        <time>2009-05-22T11:27:34Z</time>
      </trkpt>
      <trkpt lat="45.87682" lon="3.02751">
        <ele>628</ele>
        <time>2009-05-22T11:27:41Z</time>
      </trkpt>
      <trkpt lat="45.87697" lon="3.02753">
        <ele>629</ele>
        <time>2009-05-22T11:27:49Z</time>
      </trkpt>
      <trkpt lat="45.877" lon="3.02754">
        <ele>630</ele>
        <time>2009-05-22T11:27:51Z</time>
      </trkpt>
      <trkpt lat="45.87707" lon="3.02755">
        <ele>631</ele>
        <time>2009-05-22T11:27:55Z</time>
      </trkpt>
      <trkpt lat="45.87723" lon="3.02754">
        <ele>632</ele>
        <time>2009-05-22T11:28:04Z</time>
      </trkpt>
      <trkpt lat="45.87735" lon="3.02755">
        <ele>633</ele>
        <time>2009-05-22T11:28:12Z</time>
      </trkpt>
      <trkpt lat="45.87739" lon="3.02756">
        <ele>634</ele>
        <time>2009-05-22T11:28:15Z</time>
      </trkpt>
      <trkpt lat="45.87748" lon="3.02757">
        <ele>635</ele>
        <time>2009-05-22T11:28:22Z</time>
      </trkpt>
      <trkpt lat="45.87757" lon="3.02757">
        <ele>637</ele>
        <time>2009-05-22T11:28:29Z</time>
      </trkpt>
      <trkpt lat="45.87764" lon="3.02757">
        <ele>638</ele>
        <time>2009-05-22T11:28:35Z</time>
      </trkpt>
      <trkpt lat="45.87776" lon="3.0276">
        <ele>640</ele>
        <time>2009-05-22T11:28:44Z</time>
      </trkpt>
      <trkpt lat="45.87787" lon="3.02761">
        <ele>642</ele>
        <time>2009-05-22T11:28:52Z</time>
      </trkpt>
      <trkpt lat="45.87799" lon="3.02763">
        <ele>644</ele>
        <time>2009-05-22T11:29:00Z</time>
      </trkpt>
      <trkpt lat="45.87811" lon="3.02765">
        <ele>646</ele>
        <time>2009-05-22T11:29:09Z</time>
      </trkpt>
      <trkpt lat="45.8782" lon="3.02765">
        <ele>647</ele>
        <time>2009-05-22T11:29:17Z</time>
      </trkpt>
      <trkpt lat="45.87821" lon="3.02765">
        <ele>648</ele>
        <time>2009-05-22T11:29:18Z</time>
      </trkpt>
      <trkpt lat="45.87831" lon="3.02767">
        <ele>650</ele>
        <time>2009-05-22T11:29:26Z</time>
      </trkpt>
      <trkpt lat="45.87839" lon="3.0277">
        <ele>651</ele>
        <time>2009-05-22T11:29:33Z</time>
      </trkpt>
      <trkpt lat="45.87849" lon="3.02771">
        <ele>653</ele>
        <time>2009-05-22T11:29:41Z</time>
      </trkpt>
      <trkpt lat="45.87857" lon="3.02774">
        <ele>655</ele>
        <time>2009-05-22T11:29:48Z</time>
      </trkpt>
      <trkpt lat="45.87869" lon="3.02774">
        <ele>656</ele>
        <time>2009-05-22T11:29:57Z</time>
      </trkpt>
      <trkpt lat="45.87877" lon="3.02775">
        <ele>657</ele>
        <time>2009-05-22T11:30:04Z</time>
      </trkpt>
      <trkpt lat="45.87885" lon="3.02776">
        <ele>659</ele>
        <time>2009-05-22T11:30:12Z</time>
      </trkpt>
      <trkpt lat="45.87893" lon="3.02776">
        <ele>659</ele>
        <time>2009-05-22T11:30:19Z</time>
      </trkpt>
      <trkpt lat="45.87899" lon="3.02777">
        <ele>660</ele>
        <time>2009-05-22T11:30:25Z</time>
      </trkpt>
      <trkpt lat="45.87908" lon="3.02776">
        <ele>661</ele>
        <time>2009-05-22T11:30:33Z</time>
      </trkpt>
      <trkpt lat="45.87914" lon="3.02775">
        <ele>662</ele>
        <time>2009-05-22T11:30:40Z</time>
      </trkpt>
      <trkpt lat="45.87921" lon="3.02778">
        <ele>663</ele>
        <time>2009-05-22T11:30:47Z</time>
      </trkpt>
      <trkpt lat="45.87928" lon="3.0278">
        <ele>664</ele>
        <time>2009-05-22T11:30:53Z</time>
      </trkpt>
      <trkpt lat="45.87932" lon="3.02781">
        <ele>664</ele>
        <time>2009-05-22T11:30:56Z</time>
      </trkpt>
      <trkpt lat="45.87942" lon="3.02781">
        <ele>665</ele>
        <time>2009-05-22T11:31:04Z</time>
      </trkpt>
      <trkpt lat="45.87949" lon="3.02783">
        <ele>666</ele>
        <time>2009-05-22T11:31:12Z</time>
      </trkpt>
      <trkpt lat="45.87956" lon="3.02784">
        <ele>666</ele>
        <time>2009-05-22T11:31:18Z</time>
      </trkpt>
      <trkpt lat="45.87964" lon="3.02784">
        <ele>667</ele>
        <time>2009-05-22T11:31:24Z</time>
      </trkpt>
      <trkpt lat="45.87972" lon="3.02785">
        <ele>668</ele>
        <time>2009-05-22T11:31:31Z</time>
      </trkpt>
      <trkpt lat="45.87979" lon="3.0279">
        <ele>669</ele>
        <time>2009-05-22T11:31:38Z</time>
      </trkpt>
      <trkpt lat="45.87987" lon="3.02797">
        <ele>670</ele>
        <time>2009-05-22T11:31:46Z</time>
      </trkpt>
      <trkpt lat="45.87995" lon="3.02801">
        <ele>670</ele>
        <time>2009-05-22T11:31:53Z</time>
      </trkpt>
      <trkpt lat="45.88002" lon="3.02806">
        <ele>671</ele>
        <time>2009-05-22T11:31:58Z</time>
      </trkpt>
      <trkpt lat="45.8801" lon="3.02812">
        <ele>672</ele>
        <time>2009-05-22T11:32:06Z</time>
      </trkpt>
      <trkpt lat="45.88018" lon="3.02822">
        <ele>672</ele>
        <time>2009-05-22T11:32:14Z</time>
      </trkpt>
      <trkpt lat="45.88028" lon="3.02834">
        <ele>672</ele>
        <time>2009-05-22T11:32:24Z</time>
      </trkpt>
      <trkpt lat="45.88039" lon="3.02848">
        <ele>672</ele>
        <time>2009-05-22T11:32:34Z</time>
      </trkpt>
      <trkpt lat="45.88048" lon="3.02858">
        <ele>672</ele>
        <time>2009-05-22T11:32:42Z</time>
      </trkpt>
      <trkpt lat="45.88059" lon="3.02873">
        <ele>672</ele>
        <time>2009-05-22T11:32:49Z</time>
      </trkpt>
      <trkpt lat="45.88072" lon="3.02887">
        <ele>671</ele>
        <time>2009-05-22T11:32:55Z</time>
      </trkpt>
      <trkpt lat="45.88086" lon="3.02903">
        <ele>669</ele>
        <time>2009-05-22T11:33:00Z</time>
      </trkpt>
      <trkpt lat="45.88096" lon="3.02914">
        <ele>668</ele>
        <time>2009-05-22T11:33:03Z</time>
      </trkpt>
      <trkpt lat="45.8811" lon="3.02929">
        <ele>666</ele>
        <time>2009-05-22T11:33:08Z</time>
      </trkpt>
      <trkpt lat="45.88113" lon="3.02932">
        <ele>666</ele>
        <time>2009-05-22T11:33:09Z</time>
      </trkpt>
      <trkpt lat="45.88129" lon="3.02947">
        <ele>664</ele>
        <time>2009-05-22T11:33:15Z</time>
      </trkpt>
      <trkpt lat="45.88137" lon="3.02951">
        <ele>662</ele>
        <time>2009-05-22T11:33:20Z</time>
      </trkpt>
      <trkpt lat="45.88136" lon="3.02951">
        <ele>663</ele>
        <time>2009-05-22T11:33:29Z</time>
      </trkpt>
      <trkpt lat="45.88137" lon="3.0295">
        <ele>662</ele>
        <time>2009-05-22T11:34:11Z</time>
      </trkpt>
      <trkpt lat="45.8814" lon="3.02944">
        <ele>662</ele>
        <time>2009-05-22T11:34:18Z</time>
      </trkpt>
      <trkpt lat="45.88139" lon="3.02942">
        <ele>663</ele>
        <time>2009-05-22T11:34:20Z</time>
      </trkpt>
      <trkpt lat="45.88138" lon="3.02926">
        <ele>664</ele>
        <time>2009-05-22T11:34:29Z</time>
      </trkpt>
      <trkpt lat="45.88136" lon="3.02915">
        <ele>665</ele>
        <time>2009-05-22T11:34:35Z</time>
      </trkpt>
      <trkpt lat="45.88134" lon="3.029">
        <ele>667</ele>
        <time>2009-05-22T11:34:42Z</time>
      </trkpt>
      <trkpt lat="45.88131" lon="3.0288">
        <ele>669</ele>
        <time>2009-05-22T11:34:52Z</time>
      </trkpt>
      <trkpt lat="45.88128" lon="3.02861">
        <ele>671</ele>
        <time>2009-05-22T11:35:02Z</time>
      </trkpt>
      <trkpt lat="45.88125" lon="3.02844">
        <ele>674</ele>
        <time>2009-05-22T11:35:11Z</time>
      </trkpt>
      <trkpt lat="45.88123" lon="3.02829">
        <ele>675</ele>
        <time>2009-05-22T11:35:19Z</time>
      </trkpt>
      <trkpt lat="45.88121" lon="3.02814">
        <ele>677</ele>
        <time>2009-05-22T11:35:27Z</time>
      </trkpt>
      <trkpt lat="45.88122" lon="3.02798">
        <ele>680</ele>
        <time>2009-05-22T11:35:36Z</time>
      </trkpt>
      <trkpt lat="45.88123" lon="3.02795">
        <ele>680</ele>
        <time>2009-05-22T11:35:38Z</time>
      </trkpt>
      <trkpt lat="45.88129" lon="3.02784">
        <ele>683</ele>
        <time>2009-05-22T11:35:45Z</time>
      </trkpt>
      <trkpt lat="45.88131" lon="3.02781">
        <ele>683</ele>
        <time>2009-05-22T11:35:47Z</time>
      </trkpt>
      <trkpt lat="45.88137" lon="3.02777">
        <ele>685</ele>
        <time>2009-05-22T11:35:51Z</time>
      </trkpt>
      <trkpt lat="45.88142" lon="3.02775">
        <ele>686</ele>
        <time>2009-05-22T11:35:54Z</time>
      </trkpt>
      <trkpt lat="45.88152" lon="3.02777">
        <ele>686</ele>
        <time>2009-05-22T11:36:01Z</time>
      </trkpt>
      <trkpt lat="45.88167" lon="3.02776">
        <ele>688</ele>
        <time>2009-05-22T11:36:11Z</time>
      </trkpt>
      <trkpt lat="45.88176" lon="3.02773">
        <ele>690</ele>
        <time>2009-05-22T11:36:18Z</time>
      </trkpt>
      <trkpt lat="45.88191" lon="3.02768">
        <ele>692</ele>
        <time>2009-05-22T11:36:29Z</time>
      </trkpt>
      <trkpt lat="45.88201" lon="3.02765">
        <ele>694</ele>
        <time>2009-05-22T11:36:37Z</time>
      </trkpt>
      <trkpt lat="45.88212" lon="3.02764">
        <ele>695</ele>
        <time>2009-05-22T11:36:45Z</time>
      </trkpt>
      <trkpt lat="45.88225" lon="3.02762">
        <ele>697</ele>
        <time>2009-05-22T11:36:54Z</time>
      </trkpt>
      <trkpt lat="45.88235" lon="3.02764">
        <ele>697</ele>
        <time>2009-05-22T11:37:01Z</time>
      </trkpt>
      <trkpt lat="45.8824" lon="3.02764">
        <ele>698</ele>
        <time>2009-05-22T11:37:05Z</time>
      </trkpt>
      <trkpt lat="45.88249" lon="3.02764">
        <ele>699</ele>
        <time>2009-05-22T11:37:12Z</time>
      </trkpt>
      <trkpt lat="45.88263" lon="3.02763">
        <ele>700</ele>
        <time>2009-05-22T11:37:22Z</time>
      </trkpt>
      <trkpt lat="45.88274" lon="3.02761">
        <ele>699</ele>
        <time>2009-05-22T11:37:31Z</time>
      </trkpt>
      <trkpt lat="45.88288" lon="3.02755">
        <ele>699</ele>
        <time>2009-05-22T11:37:41Z</time>
      </trkpt>
      <trkpt lat="45.88296" lon="3.02752">
        <ele>699</ele>
        <time>2009-05-22T11:37:48Z</time>
      </trkpt>
      <trkpt lat="45.88304" lon="3.02742">
        <ele>699</ele>
        <time>2009-05-22T11:37:56Z</time>
      </trkpt>
      <trkpt lat="45.88308" lon="3.02727">
        <ele>701</ele>
        <time>2009-05-22T11:38:04Z</time>
      </trkpt>
      <trkpt lat="45.88304" lon="3.02712">
        <ele>704</ele>
        <time>2009-05-22T11:38:12Z</time>
      </trkpt>
      <trkpt lat="45.88298" lon="3.02698">
        <ele>706</ele>
        <time>2009-05-22T11:38:20Z</time>
      </trkpt>
      <trkpt lat="45.8829" lon="3.02689">
        <ele>708</ele>
        <time>2009-05-22T11:38:27Z</time>
      </trkpt>
      <trkpt lat="45.88283" lon="3.02674">
        <ele>711</ele>
        <time>2009-05-22T11:38:35Z</time>
      </trkpt>
      <trkpt lat="45.88276" lon="3.02664">
        <ele>713</ele>
        <time>2009-05-22T11:38:42Z</time>
      </trkpt>
      <trkpt lat="45.88268" lon="3.02653">
        <ele>716</ele>
        <time>2009-05-22T11:38:50Z</time>
      </trkpt>
      <trkpt lat="45.88263" lon="3.02646">
        <ele>718</ele>
        <time>2009-05-22T11:38:55Z</time>
      </trkpt>
      <trkpt lat="45.88254" lon="3.02631">
        <ele>721</ele>
        <time>2009-05-22T11:39:05Z</time>
      </trkpt>
      <trkpt lat="45.88248" lon="3.02618">
        <ele>724</ele>
        <time>2009-05-22T11:39:13Z</time>
      </trkpt>
      <trkpt lat="45.88241" lon="3.02605">
        <ele>726</ele>
        <time>2009-05-22T11:39:20Z</time>
      </trkpt>
      <trkpt lat="45.88237" lon="3.02586">
        <ele>728</ele>
        <time>2009-05-22T11:39:29Z</time>
      </trkpt>
      <trkpt lat="45.88234" lon="3.02579">
        <ele>729</ele>
        <time>2009-05-22T11:39:33Z</time>
      </trkpt>
      <trkpt lat="45.88231" lon="3.02572">
        <ele>730</ele>
        <time>2009-05-22T11:39:37Z</time>
      </trkpt>
      <trkpt lat="45.88232" lon="3.02556">
        <ele>732</ele>
        <time>2009-05-22T11:39:45Z</time>
      </trkpt>
      <trkpt lat="45.88238" lon="3.02544">
        <ele>733</ele>
        <time>2009-05-22T11:39:53Z</time>
      </trkpt>
      <trkpt lat="45.88249" lon="3.0253">
        <ele>733</ele>
        <time>2009-05-22T11:40:04Z</time>
      </trkpt>
      <trkpt lat="45.88258" lon="3.02515">
        <ele>732</ele>
        <time>2009-05-22T11:40:13Z</time>
      </trkpt>
      <trkpt lat="45.88265" lon="3.02499">
        <ele>731</ele>
        <time>2009-05-22T11:40:18Z</time>
      </trkpt>
      <trkpt lat="45.88271" lon="3.0248">
        <ele>729</ele>
        <time>2009-05-22T11:40:23Z</time>
      </trkpt>
      <trkpt lat="45.88272" lon="3.02477">
        <ele>729</ele>
        <time>2009-05-22T11:40:27Z</time>
      </trkpt>
      <trkpt lat="45.88272" lon="3.02478">
        <ele>729</ele>
        <time>2009-05-22T11:40:37Z</time>
      </trkpt>
      <trkpt lat="45.88271" lon="3.02478">
        <ele>729</ele>
        <time>2009-05-22T11:40:43Z</time>
      </trkpt>
      <trkpt lat="45.88271" lon="3.02478">
        <ele>729</ele>
        <time>2009-05-22T11:40:51Z</time>
      </trkpt>
      <trkpt lat="45.88274" lon="3.02471">
        <ele>729</ele>
        <time>2009-05-22T11:41:09Z</time>
      </trkpt>
      <trkpt lat="45.88283" lon="3.02455">
        <ele>728</ele>
        <time>2009-05-22T11:41:15Z</time>
      </trkpt>
      <trkpt lat="45.88297" lon="3.02442">
        <ele>727</ele>
        <time>2009-05-22T11:41:20Z</time>
      </trkpt>
      <trkpt lat="45.88317" lon="3.02429">
        <ele>728</ele>
        <time>2009-05-22T11:41:27Z</time>
      </trkpt>
      <trkpt lat="45.8833" lon="3.02422">
        <ele>729</ele>
        <time>2009-05-22T11:41:33Z</time>
      </trkpt>
      <trkpt lat="45.88346" lon="3.02413">
        <ele>730</ele>
        <time>2009-05-22T11:41:39Z</time>
      </trkpt>
      <trkpt lat="45.88362" lon="3.02407">
        <ele>731</ele>
        <time>2009-05-22T11:41:45Z</time>
      </trkpt>
      <trkpt lat="45.88382" lon="3.02399">
        <ele>733</ele>
        <time>2009-05-22T11:41:53Z</time>
      </trkpt>
      <trkpt lat="45.88392" lon="3.02396">
        <ele>733</ele>
        <time>2009-05-22T11:41:58Z</time>
      </trkpt>
      <trkpt lat="45.88398" lon="3.02394">
        <ele>734</ele>
        <time>2009-05-22T11:42:01Z</time>
      </trkpt>
      <trkpt lat="45.88408" lon="3.02384">
        <ele>735</ele>
        <time>2009-05-22T11:42:09Z</time>
      </trkpt>
      <trkpt lat="45.8841" lon="3.0238">
        <ele>735</ele>
        <time>2009-05-22T11:42:15Z</time>
      </trkpt>
      <trkpt lat="45.88412" lon="3.02377">
        <ele>735</ele>
        <time>2009-05-22T11:42:33Z</time>
      </trkpt>
      <trkpt lat="45.88424" lon="3.0237">
        <ele>736</ele>
        <time>2009-05-22T11:42:40Z</time>
      </trkpt>
      <trkpt lat="45.88443" lon="3.02368">
        <ele>736</ele>
        <time>2009-05-22T11:42:46Z</time>
      </trkpt>
      <trkpt lat="45.88459" lon="3.02368">
        <ele>737</ele>
        <time>2009-05-22T11:42:51Z</time>
      </trkpt>
      <trkpt lat="45.88481" lon="3.02366">
        <ele>738</ele>
        <time>2009-05-22T11:42:58Z</time>
      </trkpt>
      <trkpt lat="45.88502" lon="3.02364">
        <ele>739</ele>
        <time>2009-05-22T11:43:04Z</time>
      </trkpt>
      <trkpt lat="45.88528" lon="3.02361">
        <ele>740</ele>
        <time>2009-05-22T11:43:10Z</time>
      </trkpt>
      <trkpt lat="45.88532" lon="3.02361">
        <ele>740</ele>
        <time>2009-05-22T11:43:11Z</time>
      </trkpt>
      <trkpt lat="45.88564" lon="3.02361">
        <ele>741</ele>
        <time>2009-05-22T11:43:20Z</time>
      </trkpt>
      <trkpt lat="45.88574" lon="3.02355">
        <ele>742</ele>
        <time>2009-05-22T11:43:24Z</time>
      </trkpt>
      <trkpt lat="45.88584" lon="3.02335">
        <ele>742</ele>
        <time>2009-05-22T11:43:29Z</time>
      </trkpt>
      <trkpt lat="45.88596" lon="3.02308">
        <ele>742</ele>
        <time>2009-05-22T11:43:35Z</time>
      </trkpt>
      <trkpt lat="45.88608" lon="3.02276">
        <ele>742</ele>
        <time>2009-05-22T11:43:41Z</time>
      </trkpt>
      <trkpt lat="45.88621" lon="3.02244">
        <ele>741</ele>
        <time>2009-05-22T11:43:47Z</time>
      </trkpt>
      <trkpt lat="45.8863" lon="3.02228">
        <ele>741</ele>
        <time>2009-05-22T11:43:50Z</time>
      </trkpt>
      <trkpt lat="45.88638" lon="3.02196">
        <ele>740</ele>
        <time>2009-05-22T11:43:56Z</time>
      </trkpt>
      <trkpt lat="45.8864" lon="3.02181">
        <ele>739</ele>
        <time>2009-05-22T11:44:01Z</time>
      </trkpt>
      <trkpt lat="45.88641" lon="3.02179">
        <ele>739</ele>
        <time>2009-05-22T11:44:05Z</time>
      </trkpt>
      <trkpt lat="45.88641" lon="3.02177">
        <ele>739</ele>
        <time>2009-05-22T11:44:12Z</time>
      </trkpt>
      <trkpt lat="45.88643" lon="3.02169">
        <ele>739</ele>
        <time>2009-05-22T11:44:24Z</time>
      </trkpt>
      <trkpt lat="45.88653" lon="3.0214">
        <ele>738</ele>
        <time>2009-05-22T11:44:31Z</time>
      </trkpt>
      <trkpt lat="45.88657" lon="3.02126">
        <ele>737</ele>
        <time>2009-05-22T11:44:34Z</time>
      </trkpt>
      <trkpt lat="45.88669" lon="3.02084">
        <ele>736</ele>
        <time>2009-05-22T11:44:42Z</time>
      </trkpt>
      <trkpt lat="45.88675" lon="3.02056">
        <ele>735</ele>
        <time>2009-05-22T11:44:48Z</time>
      </trkpt>
      <trkpt lat="45.88679" lon="3.02041">
        <ele>734</ele>
        <time>2009-05-22T11:44:51Z</time>
      </trkpt>
      <trkpt lat="45.88694" lon="3.02022">
        <ele>734</ele>
        <time>2009-05-22T11:44:56Z</time>
      </trkpt>
      <trkpt lat="45.88697" lon="3.0202">
        <ele>734</ele>
        <time>2009-05-22T11:44:57Z</time>
      </trkpt>
      <trkpt lat="45.8872" lon="3.01998">
        <ele>735</ele>
        <time>2009-05-22T11:45:04Z</time>
      </trkpt>
      <trkpt lat="45.88736" lon="3.01986">
        <ele>735</ele>
        <time>2009-05-22T11:45:09Z</time>
      </trkpt>
      <trkpt lat="45.8875" lon="3.01969">
        <ele>736</ele>
        <time>2009-05-22T11:45:14Z</time>
      </trkpt>
      <trkpt lat="45.88772" lon="3.0195">
        <ele>737</ele>
        <time>2009-05-22T11:45:21Z</time>
      </trkpt>
      <trkpt lat="45.88786" lon="3.01937">
        <ele>738</ele>
        <time>2009-05-22T11:45:25Z</time>
      </trkpt>
      <trkpt lat="45.888" lon="3.01903">
        <ele>739</ele>
        <time>2009-05-22T11:45:31Z</time>
      </trkpt>
      <trkpt lat="45.88804" lon="3.01892">
        <ele>739</ele>
        <time>2009-05-22T11:45:33Z</time>
      </trkpt>
      <trkpt lat="45.88838" lon="3.01836">
        <ele>740</ele>
        <time>2009-05-22T11:45:44Z</time>
      </trkpt>
      <trkpt lat="45.88852" lon="3.01812">
        <ele>740</ele>
        <time>2009-05-22T11:45:49Z</time>
      </trkpt>
      <trkpt lat="45.8885" lon="3.01789">
        <ele>740</ele>
        <time>2009-05-22T11:45:53Z</time>
      </trkpt>
      <trkpt lat="45.88847" lon="3.01785">
        <ele>740</ele>
        <time>2009-05-22T11:45:54Z</time>
      </trkpt>
      <trkpt lat="45.88832" lon="3.01769">
        <ele>739</ele>
        <time>2009-05-22T11:45:58Z</time>
      </trkpt>
      <trkpt lat="45.88821" lon="3.01754">
        <ele>739</ele>
        <time>2009-05-22T11:46:01Z</time>
      </trkpt>
      <trkpt lat="45.88801" lon="3.01716">
        <ele>738</ele>
        <time>2009-05-22T11:46:07Z</time>
      </trkpt>
      <trkpt lat="45.88783" lon="3.01683">
        <ele>736</ele>
        <time>2009-05-22T11:46:13Z</time>
      </trkpt>
      <trkpt lat="45.88778" lon="3.01678">
        <ele>736</ele>
        <time>2009-05-22T11:46:16Z</time>
      </trkpt>
      <trkpt lat="45.88774" lon="3.01678">
        <ele>735</ele>
        <time>2009-05-22T11:46:19Z</time>
      </trkpt>
      <trkpt lat="45.8877" lon="3.01669">
        <ele>735</ele>
        <time>2009-05-22T11:46:24Z</time>
      </trkpt>
      <trkpt lat="45.8877" lon="3.01667">
        <ele>735</ele>
        <time>2009-05-22T11:46:25Z</time>
      </trkpt>
      <trkpt lat="45.88768" lon="3.01659">
        <ele>735</ele>
        <time>2009-05-22T11:46:30Z</time>
      </trkpt>
      <trkpt lat="45.88768" lon="3.0166">
        <ele>735</ele>
        <time>2009-05-22T11:46:43Z</time>
      </trkpt>
      <trkpt lat="45.88768" lon="3.01659">
        <ele>735</ele>
        <time>2009-05-22T11:46:54Z</time>
      </trkpt>
      <trkpt lat="45.88767" lon="3.01657">
        <ele>734</ele>
        <time>2009-05-22T11:47:14Z</time>
      </trkpt>
      <trkpt lat="45.88766" lon="3.01642">
        <ele>734</ele>
        <time>2009-05-22T11:47:18Z</time>
      </trkpt>
      <trkpt lat="45.88778" lon="3.01632">
        <ele>733</ele>
        <time>2009-05-22T11:47:22Z</time>
      </trkpt>
      <trkpt lat="45.88789" lon="3.01634">
        <ele>734</ele>
        <time>2009-05-22T11:47:25Z</time>
      </trkpt>
      <trkpt lat="45.88792" lon="3.01634">
        <ele>734</ele>
        <time>2009-05-22T11:47:26Z</time>
      </trkpt>
      <trkpt lat="45.88802" lon="3.01634">
        <ele>734</ele>
        <time>2009-05-22T11:47:29Z</time>
      </trkpt>
      <trkpt lat="45.88828" lon="3.01629">
        <ele>735</ele>
        <time>2009-05-22T11:47:36Z</time>
      </trkpt>
      <trkpt lat="45.88848" lon="3.01622">
        <ele>735</ele>
        <time>2009-05-22T11:47:43Z</time>
      </trkpt>
      <trkpt lat="45.88862" lon="3.01619">
        <ele>735</ele>
        <time>2009-05-22T11:47:48Z</time>
      </trkpt>
      <trkpt lat="45.88874" lon="3.01616">
        <ele>735</ele>
        <time>2009-05-22T11:47:52Z</time>
      </trkpt>
      <trkpt lat="45.88883" lon="3.01614">
        <ele>735</ele>
        <time>2009-05-22T11:47:55Z</time>
      </trkpt>
      <trkpt lat="45.88908" lon="3.0161">
        <ele>736</ele>
        <time>2009-05-22T11:48:02Z</time>
      </trkpt>
      <trkpt lat="45.88935" lon="3.01604">
        <ele>739</ele>
        <time>2009-05-22T11:48:09Z</time>
      </trkpt>
      <trkpt lat="45.88952" lon="3.01596">
        <ele>740</ele>
        <time>2009-05-22T11:48:16Z</time>
      </trkpt>
      <trkpt lat="45.88969" lon="3.01587">
        <ele>742</ele>
        <time>2009-05-22T11:48:24Z</time>
      </trkpt>
      <trkpt lat="45.88981" lon="3.01577">
        <ele>743</ele>
        <time>2009-05-22T11:48:30Z</time>
      </trkpt>
      <trkpt lat="45.88989" lon="3.01556">
        <ele>743</ele>
        <time>2009-05-22T11:48:37Z</time>
      </trkpt>
      <trkpt lat="45.89" lon="3.0152">
        <ele>744</ele>
        <time>2009-05-22T11:48:47Z</time>
      </trkpt>
      <trkpt lat="45.89007" lon="3.01485">
        <ele>746</ele>
        <time>2009-05-22T11:48:57Z</time>
      </trkpt>
      <trkpt lat="45.8901" lon="3.01454">
        <ele>747</ele>
        <time>2009-05-22T11:49:07Z</time>
      </trkpt>
      <trkpt lat="45.89018" lon="3.01425">
        <ele>748</ele>
        <time>2009-05-22T11:49:17Z</time>
      </trkpt>
      <trkpt lat="45.89033" lon="3.01403">
        <ele>750</ele>
        <time>2009-05-22T11:49:26Z</time>
      </trkpt>
      <trkpt lat="45.89044" lon="3.01395">
        <ele>750</ele>
        <time>2009-05-22T11:49:30Z</time>
      </trkpt>
      <trkpt lat="45.89058" lon="3.01389">
        <ele>749</ele>
        <time>2009-05-22T11:49:33Z</time>
      </trkpt>
      <trkpt lat="45.89074" lon="3.01377">
        <ele>748</ele>
        <time>2009-05-22T11:49:36Z</time>
      </trkpt>
      <trkpt lat="45.89078" lon="3.0137">
        <ele>748</ele>
        <time>2009-05-22T11:49:37Z</time>
      </trkpt>
      <trkpt lat="45.89094" lon="3.01353">
        <ele>748</ele>
        <time>2009-05-22T11:49:43Z</time>
      </trkpt>
      <trkpt lat="45.89098" lon="3.01356">
        <ele>749</ele>
        <time>2009-05-22T11:49:45Z</time>
      </trkpt>
      <trkpt lat="45.89111" lon="3.01368">
        <ele>750</ele>
        <time>2009-05-22T11:49:52Z</time>
      </trkpt>
      <trkpt lat="45.89125" lon="3.01371">
        <ele>751</ele>
        <time>2009-05-22T11:49:58Z</time>
      </trkpt>
      <trkpt lat="45.89137" lon="3.0136">
        <ele>752</ele>
        <time>2009-05-22T11:50:03Z</time>
      </trkpt>
      <trkpt lat="45.89155" lon="3.01342">
        <ele>753</ele>
        <time>2009-05-22T11:50:10Z</time>
      </trkpt>
      <trkpt lat="45.89178" lon="3.0132">
        <ele>754</ele>
        <time>2009-05-22T11:50:18Z</time>
      </trkpt>
      <trkpt lat="45.89198" lon="3.01293">
        <ele>754</ele>
        <time>2009-05-22T11:50:27Z</time>
      </trkpt>
      <trkpt lat="45.8921" lon="3.01268">
        <ele>754</ele>
        <time>2009-05-22T11:50:34Z</time>
      </trkpt>
      <trkpt lat="45.89223" lon="3.01238">
        <ele>753</ele>
        <time>2009-05-22T11:50:40Z</time>
      </trkpt>
      <trkpt lat="45.89232" lon="3.01214">
        <ele>753</ele>
        <time>2009-05-22T11:50:44Z</time>
      </trkpt>
      <trkpt lat="45.89251" lon="3.01186">
        <ele>753</ele>
        <time>2009-05-22T11:50:50Z</time>
      </trkpt>
      <trkpt lat="45.89257" lon="3.01177">
        <ele>753</ele>
        <time>2009-05-22T11:50:52Z</time>
      </trkpt>
      <trkpt lat="45.89266" lon="3.01163">
        <ele>754</ele>
        <time>2009-05-22T11:50:55Z</time>
      </trkpt>
      <trkpt lat="45.89293" lon="3.01112">
        <ele>754</ele>
        <time>2009-05-22T11:51:05Z</time>
      </trkpt>
      <trkpt lat="45.89295" lon="3.01107">
        <ele>754</ele>
        <time>2009-05-22T11:51:06Z</time>
      </trkpt>
      <trkpt lat="45.89319" lon="3.01054">
        <ele>755</ele>
        <time>2009-05-22T11:51:16Z</time>
      </trkpt>
      <trkpt lat="45.89334" lon="3.01023">
        <ele>756</ele>
        <time>2009-05-22T11:51:23Z</time>
      </trkpt>
      <trkpt lat="45.8935" lon="3.00986">
        <ele>756</ele>
        <time>2009-05-22T11:51:32Z</time>
      </trkpt>
      <trkpt lat="45.89362" lon="3.0096">
        <ele>756</ele>
        <time>2009-05-22T11:51:38Z</time>
      </trkpt>
      <trkpt lat="45.8938" lon="3.00923">
        <ele>757</ele>
        <time>2009-05-22T11:51:47Z</time>
      </trkpt>
      <trkpt lat="45.89395" lon="3.00896">
        <ele>758</ele>
        <time>2009-05-22T11:51:54Z</time>
      </trkpt>
      <trkpt lat="45.8941" lon="3.00866">
        <ele>759</ele>
        <time>2009-05-22T11:52:02Z</time>
      </trkpt>
      <trkpt lat="45.89423" lon="3.00845">
        <ele>760</ele>
        <time>2009-05-22T11:52:08Z</time>
      </trkpt>
      <trkpt lat="45.89439" lon="3.00821">
        <ele>761</ele>
        <time>2009-05-22T11:52:15Z</time>
      </trkpt>
      <trkpt lat="45.89463" lon="3.00784">
        <ele>763</ele>
        <time>2009-05-22T11:52:25Z</time>
      </trkpt>
      <trkpt lat="45.89484" lon="3.00753">
        <ele>765</ele>
        <time>2009-05-22T11:52:34Z</time>
      </trkpt>
      <trkpt lat="45.89506" lon="3.00726">
        <ele>767</ele>
        <time>2009-05-22T11:52:42Z</time>
      </trkpt>
      <trkpt lat="45.89522" lon="3.00712">
        <ele>768</ele>
        <time>2009-05-22T11:52:48Z</time>
      </trkpt>
      <trkpt lat="45.89537" lon="3.00703">
        <ele>769</ele>
        <time>2009-05-22T11:52:53Z</time>
      </trkpt>
      <trkpt lat="45.89558" lon="3.00687">
        <ele>770</ele>
        <time>2009-05-22T11:53:00Z</time>
      </trkpt>
      <trkpt lat="45.89579" lon="3.00667">
        <ele>771</ele>
        <time>2009-05-22T11:53:08Z</time>
      </trkpt>
      <trkpt lat="45.89597" lon="3.00645">
        <ele>771</ele>
        <time>2009-05-22T11:53:15Z</time>
      </trkpt>
      <trkpt lat="45.89611" lon="3.00614">
        <ele>772</ele>
        <time>2009-05-22T11:53:23Z</time>
      </trkpt>
      <trkpt lat="45.89628" lon="3.00574">
        <ele>772</ele>
        <time>2009-05-22T11:53:33Z</time>
      </trkpt>
      <trkpt lat="45.89641" lon="3.00542">
        <ele>772</ele>
        <time>2009-05-22T11:53:42Z</time>
      </trkpt>
      <trkpt lat="45.89648" lon="3.00515">
        <ele>773</ele>
        <time>2009-05-22T11:53:50Z</time>
      </trkpt>
      <trkpt lat="45.89653" lon="3.00502">
        <ele>773</ele>
        <time>2009-05-22T11:53:56Z</time>
      </trkpt>
      <trkpt lat="45.8966" lon="3.00484">
        <ele>773</ele>
        <time>2009-05-22T11:54:02Z</time>
      </trkpt>
      <trkpt lat="45.89665" lon="3.00474">
        <ele>773</ele>
        <time>2009-05-22T11:54:06Z</time>
      </trkpt>
      <trkpt lat="45.89668" lon="3.00465">
        <ele>773</ele>
        <time>2009-05-22T11:54:11Z</time>
      </trkpt>
      <trkpt lat="45.8967" lon="3.00459">
        <ele>773</ele>
        <time>2009-05-22T11:54:29Z</time>
      </trkpt>
      <trkpt lat="45.89678" lon="3.00439">
        <ele>773</ele>
        <time>2009-05-22T11:54:34Z</time>
      </trkpt>
      <trkpt lat="45.89688" lon="3.00418">
        <ele>773</ele>
        <time>2009-05-22T11:54:38Z</time>
      </trkpt>
      <trkpt lat="45.89693" lon="3.00407">
        <ele>773</ele>
        <time>2009-05-22T11:54:40Z</time>
      </trkpt>
      <trkpt lat="45.89695" lon="3.00402">
        <ele>773</ele>
        <time>2009-05-22T11:54:41Z</time>
      </trkpt>
      <trkpt lat="45.89701" lon="3.00385">
        <ele>773</ele>
        <time>2009-05-22T11:54:44Z</time>
      </trkpt>
      <trkpt lat="45.89705" lon="3.00373">
        <ele>773</ele>
        <time>2009-05-22T11:54:46Z</time>
      </trkpt>
      <trkpt lat="45.89716" lon="3.00346">
        <ele>773</ele>
        <time>2009-05-22T11:54:51Z</time>
      </trkpt>
      <trkpt lat="45.89726" lon="3.00321">
        <ele>774</ele>
        <time>2009-05-22T11:54:56Z</time>
      </trkpt>
      <trkpt lat="45.89746" lon="3.00269">
        <ele>773</ele>
        <time>2009-05-22T11:55:07Z</time>
      </trkpt>
      <trkpt lat="45.89758" lon="3.00241">
        <ele>773</ele>
        <time>2009-05-22T11:55:13Z</time>
      </trkpt>
      <trkpt lat="45.89773" lon="3.00211">
        <ele>773</ele>
        <time>2009-05-22T11:55:20Z</time>
      </trkpt>
      <trkpt lat="45.89793" lon="3.00186">
        <ele>772</ele>
        <time>2009-05-22T11:55:28Z</time>
      </trkpt>
      <trkpt lat="45.89795" lon="3.00182">
        <ele>772</ele>
        <time>2009-05-22T11:55:29Z</time>
      </trkpt>
      <trkpt lat="45.89792" lon="3.00162">
        <ele>772</ele>
        <time>2009-05-22T11:55:33Z</time>
      </trkpt>
      <trkpt lat="45.89773" lon="3.00128">
        <ele>773</ele>
        <time>2009-05-22T11:55:41Z</time>
      </trkpt>
      <trkpt lat="45.8975" lon="3.00107">
        <ele>775</ele>
        <time>2009-05-22T11:55:48Z</time>
      </trkpt>
      <trkpt lat="45.89713" lon="3.00076">
        <ele>777</ele>
        <time>2009-05-22T11:55:59Z</time>
      </trkpt>
      <trkpt lat="45.89687" lon="3.00052">
        <ele>778</ele>
        <time>2009-05-22T11:56:07Z</time>
      </trkpt>
      <trkpt lat="45.89666" lon="3.00033">
        <ele>778</ele>
        <time>2009-05-22T11:56:14Z</time>
      </trkpt>
      <trkpt lat="45.89642" lon="3.00011">
        <ele>778</ele>
        <time>2009-05-22T11:56:22Z</time>
      </trkpt>
      <trkpt lat="45.89622" lon="2.99984">
        <ele>779</ele>
        <time>2009-05-22T11:56:30Z</time>
      </trkpt>
      <trkpt lat="45.89613" lon="2.99957">
        <ele>780</ele>
        <time>2009-05-22T11:56:37Z</time>
      </trkpt>
      <trkpt lat="45.89606" lon="2.99924">
        <ele>782</ele>
        <time>2009-05-22T11:56:46Z</time>
      </trkpt>
      <trkpt lat="45.89604" lon="2.99889">
        <ele>783</ele>
        <time>2009-05-22T11:56:55Z</time>
      </trkpt>
      <trkpt lat="45.89606" lon="2.9985">
        <ele>784</ele>
        <time>2009-05-22T11:57:04Z</time>
      </trkpt>
      <trkpt lat="45.89601" lon="2.99824">
        <ele>784</ele>
        <time>2009-05-22T11:57:09Z</time>
      </trkpt>
      <trkpt lat="45.8959" lon="2.99793">
        <ele>784</ele>
        <time>2009-05-22T11:57:15Z</time>
      </trkpt>
      <trkpt lat="45.89588" lon="2.99788">
        <ele>785</ele>
        <time>2009-05-22T11:57:16Z</time>
      </trkpt>
      <trkpt lat="45.89559" lon="2.99748">
        <ele>786</ele>
        <time>2009-05-22T11:57:26Z</time>
      </trkpt>
      <trkpt lat="45.89531" lon="2.997">
        <ele>788</ele>
        <time>2009-05-22T11:57:37Z</time>
      </trkpt>
      <trkpt lat="45.89511" lon="2.99668">
        <ele>788</ele>
        <time>2009-05-22T11:57:45Z</time>
      </trkpt>
      <trkpt lat="45.89504" lon="2.99637">
        <ele>789</ele>
        <time>2009-05-22T11:57:51Z</time>
      </trkpt>
      <trkpt lat="45.89499" lon="2.99602">
        <ele>789</ele>
        <time>2009-05-22T11:57:58Z</time>
      </trkpt>
      <trkpt lat="45.89493" lon="2.99564">
        <ele>788</ele>
        <time>2009-05-22T11:58:05Z</time>
      </trkpt>
      <trkpt lat="45.89483" lon="2.99528">
        <ele>787</ele>
        <time>2009-05-22T11:58:10Z</time>
      </trkpt>
      <trkpt lat="45.89463" lon="2.99479">
        <ele>787</ele>
        <time>2009-05-22T11:58:17Z</time>
      </trkpt>
      <trkpt lat="45.89456" lon="2.9946">
        <ele>787</ele>
        <time>2009-05-22T11:58:20Z</time>
      </trkpt>
      <trkpt lat="45.89449" lon="2.99417">
        <ele>785</ele>
        <time>2009-05-22T11:58:26Z</time>
      </trkpt>
      <trkpt lat="45.89445" lon="2.99377">
        <ele>783</ele>
        <time>2009-05-22T11:58:31Z</time>
      </trkpt>
      <trkpt lat="45.89439" lon="2.99314">
        <ele>782</ele>
        <time>2009-05-22T11:58:39Z</time>
      </trkpt>
      <trkpt lat="45.89431" lon="2.9926">
        <ele>782</ele>
        <time>2009-05-22T11:58:46Z</time>
      </trkpt>
      <trkpt lat="45.8942" lon="2.99207">
        <ele>781</ele>
        <time>2009-05-22T11:58:53Z</time>
      </trkpt>
      <trkpt lat="45.8942" lon="2.99167">
        <ele>782</ele>
        <time>2009-05-22T11:58:58Z</time>
      </trkpt>
      <trkpt lat="45.89429" lon="2.99139">
        <ele>781</ele>
        <time>2009-05-22T11:59:02Z</time>
      </trkpt>
      <trkpt lat="45.89448" lon="2.99107">
        <ele>782</ele>
        <time>2009-05-22T11:59:09Z</time>
      </trkpt>
      <trkpt lat="45.89456" lon="2.99077">
        <ele>784</ele>
        <time>2009-05-22T11:59:15Z</time>
      </trkpt>
      <trkpt lat="45.8946" lon="2.9904">
        <ele>786</ele>
        <time>2009-05-22T11:59:21Z</time>
      </trkpt>
      <trkpt lat="45.89467" lon="2.98995">
        <ele>789</ele>
        <time>2009-05-22T11:59:29Z</time>
      </trkpt>
      <trkpt lat="45.89469" lon="2.98983">
        <ele>790</ele>
        <time>2009-05-22T11:59:31Z</time>
      </trkpt>
      <trkpt lat="45.89488" lon="2.9894">
        <ele>791</ele>
        <time>2009-05-22T11:59:39Z</time>
      </trkpt>
      <trkpt lat="45.89493" lon="2.98922">
        <ele>791</ele>
        <time>2009-05-22T11:59:42Z</time>
      </trkpt>
      <trkpt lat="45.89504" lon="2.98871">
        <ele>792</ele>
        <time>2009-05-22T11:59:50Z</time>
      </trkpt>
      <trkpt lat="45.89508" lon="2.98831">
        <ele>794</ele>
        <time>2009-05-22T11:59:55Z</time>
      </trkpt>
      <trkpt lat="45.89517" lon="2.9878">
        <ele>795</ele>
        <time>2009-05-22T12:00:01Z</time>
      </trkpt>
      <trkpt lat="45.89532" lon="2.9874">
        <ele>795</ele>
        <time>2009-05-22T12:00:06Z</time>
      </trkpt>
      <trkpt lat="45.89539" lon="2.98726">
        <ele>795</ele>
        <time>2009-05-22T12:00:08Z</time>
      </trkpt>
      <trkpt lat="45.89542" lon="2.98719">
        <ele>795</ele>
        <time>2009-05-22T12:00:09Z</time>
      </trkpt>
      <trkpt lat="45.89556" lon="2.98678">
        <ele>795</ele>
        <time>2009-05-22T12:00:15Z</time>
      </trkpt>
      <trkpt lat="45.89561" lon="2.98664">
        <ele>794</ele>
        <time>2009-05-22T12:00:18Z</time>
      </trkpt>
      <trkpt lat="45.89569" lon="2.9865">
        <ele>794</ele>
        <time>2009-05-22T12:00:21Z</time>
      </trkpt>
      <trkpt lat="45.89579" lon="2.98641">
        <ele>794</ele>
        <time>2009-05-22T12:00:24Z</time>
      </trkpt>
      <trkpt lat="45.89603" lon="2.98615">
        <ele>794</ele>
        <time>2009-05-22T12:00:31Z</time>
      </trkpt>
      <trkpt lat="45.89642" lon="2.98571">
        <ele>795</ele>
        <time>2009-05-22T12:00:41Z</time>
      </trkpt>
      <trkpt lat="45.89658" lon="2.98553">
        <ele>795</ele>
        <time>2009-05-22T12:00:45Z</time>
      </trkpt>
      <trkpt lat="45.89677" lon="2.98528">
        <ele>795</ele>
        <time>2009-05-22T12:00:50Z</time>
      </trkpt>
      <trkpt lat="45.89686" lon="2.98513">
        <ele>795</ele>
        <time>2009-05-22T12:00:53Z</time>
      </trkpt>
      <trkpt lat="45.89699" lon="2.98472">
        <ele>794</ele>
        <time>2009-05-22T12:00:59Z</time>
      </trkpt>
      <trkpt lat="45.89702" lon="2.98464">
        <ele>794</ele>
        <time>2009-05-22T12:01:00Z</time>
      </trkpt>
      <trkpt lat="45.89719" lon="2.98439">
        <ele>794</ele>
        <time>2009-05-22T12:01:04Z</time>
      </trkpt>
      <trkpt lat="45.89729" lon="2.98429">
        <ele>794</ele>
        <time>2009-05-22T12:01:06Z</time>
      </trkpt>
      <trkpt lat="45.89765" lon="2.98398">
        <ele>795</ele>
        <time>2009-05-22T12:01:14Z</time>
      </trkpt>
      <trkpt lat="45.8979" lon="2.98369">
        <ele>796</ele>
        <time>2009-05-22T12:01:20Z</time>
      </trkpt>
      <trkpt lat="45.89806" lon="2.9835">
        <ele>797</ele>
        <time>2009-05-22T12:01:24Z</time>
      </trkpt>
      <trkpt lat="45.89832" lon="2.98316">
        <ele>797</ele>
        <time>2009-05-22T12:01:31Z</time>
      </trkpt>
      <trkpt lat="45.89861" lon="2.98279">
        <ele>797</ele>
        <time>2009-05-22T12:01:39Z</time>
      </trkpt>
      <trkpt lat="45.8987" lon="2.98271">
        <ele>797</ele>
        <time>2009-05-22T12:01:41Z</time>
      </trkpt>
      <trkpt lat="45.89905" lon="2.98255">
        <ele>795</ele>
        <time>2009-05-22T12:01:48Z</time>
      </trkpt>
      <trkpt lat="45.89947" lon="2.98234">
        <ele>793</ele>
        <time>2009-05-22T12:01:56Z</time>
      </trkpt>
      <trkpt lat="45.89971" lon="2.9822">
        <ele>792</ele>
        <time>2009-05-22T12:02:01Z</time>
      </trkpt>
      <trkpt lat="45.89999" lon="2.98194">
        <ele>790</ele>
        <time>2009-05-22T12:02:07Z</time>
      </trkpt>
      <trkpt lat="45.90003" lon="2.9819">
        <ele>789</ele>
        <time>2009-05-22T12:02:08Z</time>
      </trkpt>
      <trkpt lat="45.9001" lon="2.9818">
        <ele>789</ele>
        <time>2009-05-22T12:02:10Z</time>
      </trkpt>
      <trkpt lat="45.90019" lon="2.98145">
        <ele>786</ele>
        <time>2009-05-22T12:02:15Z</time>
      </trkpt>
      <trkpt lat="45.9002" lon="2.98138">
        <ele>786</ele>
        <time>2009-05-22T12:02:16Z</time>
      </trkpt>
      <trkpt lat="45.90035" lon="2.98103">
        <ele>783</ele>
        <time>2009-05-22T12:02:21Z</time>
      </trkpt>
      <trkpt lat="45.9005" lon="2.98075">
        <ele>780</ele>
        <time>2009-05-22T12:02:25Z</time>
      </trkpt>
      <trkpt lat="45.90072" lon="2.98043">
        <ele>778</ele>
        <time>2009-05-22T12:02:30Z</time>
      </trkpt>
      <trkpt lat="45.90076" lon="2.98033">
        <ele>778</ele>
        <time>2009-05-22T12:02:31Z</time>
      </trkpt>
      <trkpt lat="45.90091" lon="2.97969">
        <ele>777</ele>
        <time>2009-05-22T12:02:38Z</time>
      </trkpt>
      <trkpt lat="45.90097" lon="2.97936">
        <ele>778</ele>
        <time>2009-05-22T12:02:42Z</time>
      </trkpt>
      <trkpt lat="45.90101" lon="2.97893">
        <ele>779</ele>
        <time>2009-05-22T12:02:48Z</time>
      </trkpt>
      <trkpt lat="45.90106" lon="2.97866">
        <ele>780</ele>
        <time>2009-05-22T12:02:53Z</time>
      </trkpt>
      <trkpt lat="45.90112" lon="2.97846">
        <ele>782</ele>
        <time>2009-05-22T12:02:57Z</time>
      </trkpt>
      <trkpt lat="45.90117" lon="2.97826">
        <ele>783</ele>
        <time>2009-05-22T12:03:01Z</time>
      </trkpt>
      <trkpt lat="45.90123" lon="2.97806">
        <ele>785</ele>
        <time>2009-05-22T12:03:05Z</time>
      </trkpt>
      <trkpt lat="45.90133" lon="2.97772">
        <ele>788</ele>
        <time>2009-05-22T12:03:12Z</time>
      </trkpt>
      <trkpt lat="45.90137" lon="2.97763">
        <ele>790</ele>
        <time>2009-05-22T12:03:14Z</time>
      </trkpt>
      <trkpt lat="45.90138" lon="2.9774">
        <ele>791</ele>
        <time>2009-05-22T12:03:19Z</time>
      </trkpt>
      <trkpt lat="45.90134" lon="2.97695">
        <ele>793</ele>
        <time>2009-05-22T12:03:28Z</time>
      </trkpt>
      <trkpt lat="45.90126" lon="2.97662">
        <ele>792</ele>
        <time>2009-05-22T12:03:34Z</time>
      </trkpt>
      <trkpt lat="45.90114" lon="2.9762">
        <ele>792</ele>
        <time>2009-05-22T12:03:41Z</time>
      </trkpt>
      <trkpt lat="45.90098" lon="2.97565">
        <ele>790</ele>
        <time>2009-05-22T12:03:49Z</time>
      </trkpt>
      <trkpt lat="45.90089" lon="2.97528">
        <ele>789</ele>
        <time>2009-05-22T12:03:54Z</time>
      </trkpt>
      <trkpt lat="45.90085" lon="2.97514">
        <ele>789</ele>
        <time>2009-05-22T12:03:56Z</time>
      </trkpt>
      <trkpt lat="45.90073" lon="2.9747">
        <ele>786</ele>
        <time>2009-05-22T12:04:02Z</time>
      </trkpt>
      <trkpt lat="45.90068" lon="2.97422">
        <ele>785</ele>
        <time>2009-05-22T12:04:08Z</time>
      </trkpt>
      <trkpt lat="45.9006" lon="2.97387">
        <ele>781</ele>
        <time>2009-05-22T12:04:13Z</time>
      </trkpt>
      <trkpt lat="45.90042" lon="2.97338">
        <ele>779</ele>
        <time>2009-05-22T12:04:20Z</time>
      </trkpt>
      <trkpt lat="45.90025" lon="2.97301">
        <ele>781</ele>
        <time>2009-05-22T12:04:27Z</time>
      </trkpt>
      <trkpt lat="45.90013" lon="2.97279">
        <ele>783</ele>
        <time>2009-05-22T12:04:33Z</time>
      </trkpt>
      <trkpt lat="45.90005" lon="2.97263">
        <ele>784</ele>
        <time>2009-05-22T12:04:39Z</time>
      </trkpt>
      <trkpt lat="45.9" lon="2.97256">
        <ele>785</ele>
        <time>2009-05-22T12:04:42Z</time>
      </trkpt>
      <trkpt lat="45.89995" lon="2.97244">
        <ele>786</ele>
        <time>2009-05-22T12:04:47Z</time>
      </trkpt>
      <trkpt lat="45.89988" lon="2.97228">
        <ele>788</ele>
        <time>2009-05-22T12:04:53Z</time>
      </trkpt>
      <trkpt lat="45.89981" lon="2.97216">
        <ele>790</ele>
        <time>2009-05-22T12:04:58Z</time>
      </trkpt>
      <trkpt lat="45.89976" lon="2.97207">
        <ele>791</ele>
        <time>2009-05-22T12:05:02Z</time>
      </trkpt>
      <trkpt lat="45.89971" lon="2.97191">
        <ele>792</ele>
        <time>2009-05-22T12:05:08Z</time>
      </trkpt>
      <trkpt lat="45.89963" lon="2.97174">
        <ele>794</ele>
        <time>2009-05-22T12:05:16Z</time>
      </trkpt>
      <trkpt lat="45.89954" lon="2.97153">
        <ele>795</ele>
        <time>2009-05-22T12:05:25Z</time>
      </trkpt>
      <trkpt lat="45.89945" lon="2.97131">
        <ele>796</ele>
        <time>2009-05-22T12:05:33Z</time>
      </trkpt>
      <trkpt lat="45.89933" lon="2.97101">
        <ele>797</ele>
        <time>2009-05-22T12:05:42Z</time>
      </trkpt>
      <trkpt lat="45.89924" lon="2.97079">
        <ele>798</ele>
        <time>2009-05-22T12:05:48Z</time>
      </trkpt>
      <trkpt lat="45.89918" lon="2.97062">
        <ele>798</ele>
        <time>2009-05-22T12:05:54Z</time>
      </trkpt>
      <trkpt lat="45.89915" lon="2.97052">
        <ele>799</ele>
        <time>2009-05-22T12:06:01Z</time>
      </trkpt>
      <trkpt lat="45.89912" lon="2.97043">
        <ele>799</ele>
        <time>2009-05-22T12:06:06Z</time>
      </trkpt>
      <trkpt lat="45.89907" lon="2.97029">
        <ele>799</ele>
        <time>2009-05-22T12:06:12Z</time>
      </trkpt>
      <trkpt lat="45.89899" lon="2.97004">
        <ele>800</ele>
        <time>2009-05-22T12:06:18Z</time>
      </trkpt>
      <trkpt lat="45.8989" lon="2.96978">
        <ele>800</ele>
        <time>2009-05-22T12:06:25Z</time>
      </trkpt>
      <trkpt lat="45.89883" lon="2.96956">
        <ele>800</ele>
        <time>2009-05-22T12:06:31Z</time>
      </trkpt>
      <trkpt lat="45.89876" lon="2.96928">
        <ele>801</ele>
        <time>2009-05-22T12:06:38Z</time>
      </trkpt>
      <trkpt lat="45.8987" lon="2.96903">
        <ele>800</ele>
        <time>2009-05-22T12:06:43Z</time>
      </trkpt>
      <trkpt lat="45.89862" lon="2.96865">
        <ele>802</ele>
        <time>2009-05-22T12:06:50Z</time>
      </trkpt>
      <trkpt lat="45.89851" lon="2.96826">
        <ele>803</ele>
        <time>2009-05-22T12:06:57Z</time>
      </trkpt>
      <trkpt lat="45.89837" lon="2.96776">
        <ele>805</ele>
        <time>2009-05-22T12:07:07Z</time>
      </trkpt>
      <trkpt lat="45.89827" lon="2.96732">
        <ele>807</ele>
        <time>2009-05-22T12:07:16Z</time>
      </trkpt>
      <trkpt lat="45.89819" lon="2.96688">
        <ele>809</ele>
        <time>2009-05-22T12:07:25Z</time>
      </trkpt>
      <trkpt lat="45.89809" lon="2.96641">
        <ele>810</ele>
        <time>2009-05-22T12:07:34Z</time>
      </trkpt>
      <trkpt lat="45.89802" lon="2.96584">
        <ele>810</ele>
        <time>2009-05-22T12:07:44Z</time>
      </trkpt>
      <trkpt lat="45.89801" lon="2.96545">
        <ele>811</ele>
        <time>2009-05-22T12:07:51Z</time>
      </trkpt>
      <trkpt lat="45.89799" lon="2.96521">
        <ele>811</ele>
        <time>2009-05-22T12:07:55Z</time>
      </trkpt>
      <trkpt lat="45.89795" lon="2.96449">
        <ele>809</ele>
        <time>2009-05-22T12:08:07Z</time>
      </trkpt>
      <trkpt lat="45.89795" lon="2.96438">
        <ele>809</ele>
        <time>2009-05-22T12:08:09Z</time>
      </trkpt>
      <trkpt lat="45.89792" lon="2.96404">
        <ele>810</ele>
        <time>2009-05-22T12:08:16Z</time>
      </trkpt>
      <trkpt lat="45.89786" lon="2.96385">
        <ele>811</ele>
        <time>2009-05-22T12:08:21Z</time>
      </trkpt>
      <trkpt lat="45.89782" lon="2.96357">
        <ele>812</ele>
        <time>2009-05-22T12:08:27Z</time>
      </trkpt>
      <trkpt lat="45.89774" lon="2.96318">
        <ele>813</ele>
        <time>2009-05-22T12:08:35Z</time>
      </trkpt>
      <trkpt lat="45.89763" lon="2.96278">
        <ele>813</ele>
        <time>2009-05-22T12:08:43Z</time>
      </trkpt>
      <trkpt lat="45.89752" lon="2.9624">
        <ele>813</ele>
        <time>2009-05-22T12:08:51Z</time>
      </trkpt>
      <trkpt lat="45.89737" lon="2.9619">
        <ele>813</ele>
        <time>2009-05-22T12:09:02Z</time>
      </trkpt>
      <trkpt lat="45.89725" lon="2.96148">
        <ele>813</ele>
        <time>2009-05-22T12:09:11Z</time>
      </trkpt>
      <trkpt lat="45.8972" lon="2.96104">
        <ele>813</ele>
        <time>2009-05-22T12:09:19Z</time>
      </trkpt>
      <trkpt lat="45.89724" lon="2.96059">
        <ele>813</ele>
        <time>2009-05-22T12:09:27Z</time>
      </trkpt>
      <trkpt lat="45.89731" lon="2.9603">
        <ele>813</ele>
        <time>2009-05-22T12:09:32Z</time>
      </trkpt>
      <trkpt lat="45.89741" lon="2.95987">
        <ele>813</ele>
        <time>2009-05-22T12:09:39Z</time>
      </trkpt>
      <trkpt lat="45.89742" lon="2.95935">
        <ele>815</ele>
        <time>2009-05-22T12:09:47Z</time>
      </trkpt>
      <trkpt lat="45.8974" lon="2.95853">
        <ele>818</ele>
        <time>2009-05-22T12:10:00Z</time>
      </trkpt>
      <trkpt lat="45.89736" lon="2.95815">
        <ele>818</ele>
        <time>2009-05-22T12:10:06Z</time>
      </trkpt>
      <trkpt lat="45.89721" lon="2.95769">
        <ele>818</ele>
        <time>2009-05-22T12:10:13Z</time>
      </trkpt>
      <trkpt lat="45.89709" lon="2.95736">
        <ele>818</ele>
        <time>2009-05-22T12:10:18Z</time>
      </trkpt>
      <trkpt lat="45.89705" lon="2.9569">
        <ele>817</ele>
        <time>2009-05-22T12:10:24Z</time>
      </trkpt>
      <trkpt lat="45.89705" lon="2.95675">
        <ele>817</ele>
        <time>2009-05-22T12:10:26Z</time>
      </trkpt>
      <trkpt lat="45.89701" lon="2.95652">
        <ele>817</ele>
        <time>2009-05-22T12:10:29Z</time>
      </trkpt>
      <trkpt lat="45.89687" lon="2.95583">
        <ele>816</ele>
        <time>2009-05-22T12:10:39Z</time>
      </trkpt>
      <trkpt lat="45.89686" lon="2.95577">
        <ele>816</ele>
        <time>2009-05-22T12:10:40Z</time>
      </trkpt>
      <trkpt lat="45.89676" lon="2.95548">
        <ele>817</ele>
        <time>2009-05-22T12:10:45Z</time>
      </trkpt>
      <trkpt lat="45.89656" lon="2.95525">
        <ele>817</ele>
        <time>2009-05-22T12:10:52Z</time>
      </trkpt>
      <trkpt lat="45.89644" lon="2.95501">
        <ele>817</ele>
        <time>2009-05-22T12:10:58Z</time>
      </trkpt>
      <trkpt lat="45.89634" lon="2.95484">
        <ele>818</ele>
        <time>2009-05-22T12:11:04Z</time>
      </trkpt>
      <trkpt lat="45.89627" lon="2.95472">
        <ele>818</ele>
        <time>2009-05-22T12:11:09Z</time>
      </trkpt>
      <trkpt lat="45.89617" lon="2.9546">
        <ele>818</ele>
        <time>2009-05-22T12:11:15Z</time>
      </trkpt>
      <trkpt lat="45.8961" lon="2.95454">
        <ele>819</ele>
        <time>2009-05-22T12:11:20Z</time>
      </trkpt>
      <trkpt lat="45.89609" lon="2.95454">
        <ele>819</ele>
        <time>2009-05-22T12:11:22Z</time>
      </trkpt>
      <trkpt lat="45.89601" lon="2.95459">
        <ele>819</ele>
        <time>2009-05-22T12:11:28Z</time>
      </trkpt>
      <trkpt lat="45.89593" lon="2.95462">
        <ele>820</ele>
        <time>2009-05-22T12:11:33Z</time>
      </trkpt>
      <trkpt lat="45.89584" lon="2.95462">
        <ele>820</ele>
        <time>2009-05-22T12:11:39Z</time>
      </trkpt>
      <trkpt lat="45.89578" lon="2.95461">
        <ele>821</ele>
        <time>2009-05-22T12:11:43Z</time>
      </trkpt>
      <trkpt lat="45.89572" lon="2.95449">
        <ele>822</ele>
        <time>2009-05-22T12:11:50Z</time>
      </trkpt>
      <trkpt lat="45.8957" lon="2.95437">
        <ele>824</ele>
        <time>2009-05-22T12:11:57Z</time>
      </trkpt>
      <trkpt lat="45.8957" lon="2.95429">
        <ele>824</ele>
        <time>2009-05-22T12:12:02Z</time>
      </trkpt>
      <trkpt lat="45.89572" lon="2.95417">
        <ele>825</ele>
        <time>2009-05-22T12:12:08Z</time>
      </trkpt>
      <trkpt lat="45.89577" lon="2.95404">
        <ele>826</ele>
        <time>2009-05-22T12:12:13Z</time>
      </trkpt>
      <trkpt lat="45.89577" lon="2.95401">
        <ele>826</ele>
        <time>2009-05-22T12:12:14Z</time>
      </trkpt>
      <trkpt lat="45.89583" lon="2.95382">
        <ele>827</ele>
        <time>2009-05-22T12:12:21Z</time>
      </trkpt>
      <trkpt lat="45.8959" lon="2.95361">
        <ele>828</ele>
        <time>2009-05-22T12:12:27Z</time>
      </trkpt>
      <trkpt lat="45.89594" lon="2.95341">
        <ele>829</ele>
        <time>2009-05-22T12:12:32Z</time>
      </trkpt>
      <trkpt lat="45.89594" lon="2.95324">
        <ele>830</ele>
        <time>2009-05-22T12:12:37Z</time>
      </trkpt>
      <trkpt lat="45.89598" lon="2.95304">
        <ele>831</ele>
        <time>2009-05-22T12:12:43Z</time>
      </trkpt>
      <trkpt lat="45.89595" lon="2.95285">
        <ele>834</ele>
        <time>2009-05-22T12:12:49Z</time>
      </trkpt>
      <trkpt lat="45.89588" lon="2.95267">
        <ele>836</ele>
        <time>2009-05-22T12:12:54Z</time>
      </trkpt>
      <trkpt lat="45.8958" lon="2.95249">
        <ele>838</ele>
        <time>2009-05-22T12:12:59Z</time>
      </trkpt>
      <trkpt lat="45.89576" lon="2.95235">
        <ele>838</ele>
        <time>2009-05-22T12:13:03Z</time>
      </trkpt>
      <trkpt lat="45.8958" lon="2.95216">
        <ele>837</ele>
        <time>2009-05-22T12:13:07Z</time>
      </trkpt>
      <trkpt lat="45.89593" lon="2.95171">
        <ele>838</ele>
        <time>2009-05-22T12:13:16Z</time>
      </trkpt>
      <trkpt lat="45.89603" lon="2.95134">
        <ele>839</ele>
        <time>2009-05-22T12:13:23Z</time>
      </trkpt>
      <trkpt lat="45.8961" lon="2.95104">
        <ele>840</ele>
        <time>2009-05-22T12:13:29Z</time>
      </trkpt>
      <trkpt lat="45.89623" lon="2.95059">
        <ele>840</ele>
        <time>2009-05-22T12:13:38Z</time>
      </trkpt>
      <trkpt lat="45.89632" lon="2.95023">
        <ele>840</ele>
        <time>2009-05-22T12:13:45Z</time>
      </trkpt>
      <trkpt lat="45.89636" lon="2.95006">
        <ele>840</ele>
        <time>2009-05-22T12:13:48Z</time>
      </trkpt>
      <trkpt lat="45.89641" lon="2.94994">
        <ele>839</ele>
        <time>2009-05-22T12:13:50Z</time>
      </trkpt>
      <trkpt lat="45.89647" lon="2.94981">
        <ele>838</ele>
        <time>2009-05-22T12:13:52Z</time>
      </trkpt>
      <trkpt lat="45.89675" lon="2.94931">
        <ele>833</ele>
        <time>2009-05-22T12:13:59Z</time>
      </trkpt>
      <trkpt lat="45.89679" lon="2.94918">
        <ele>832</ele>
        <time>2009-05-22T12:14:01Z</time>
      </trkpt>
      <trkpt lat="45.89674" lon="2.94905">
        <ele>832</ele>
        <time>2009-05-22T12:14:04Z</time>
      </trkpt>
      <trkpt lat="45.89666" lon="2.94904">
        <ele>832</ele>
        <time>2009-05-22T12:14:06Z</time>
      </trkpt>
      <trkpt lat="45.89635" lon="2.94902">
        <ele>833</ele>
        <time>2009-05-22T12:14:13Z</time>
      </trkpt>
      <trkpt lat="45.89592" lon="2.94899">
        <ele>833</ele>
        <time>2009-05-22T12:14:21Z</time>
      </trkpt>
      <trkpt lat="45.89541" lon="2.94899">
        <ele>830</ele>
        <time>2009-05-22T12:14:29Z</time>
      </trkpt>
      <trkpt lat="45.89484" lon="2.94896">
        <ele>829</ele>
        <time>2009-05-22T12:14:37Z</time>
      </trkpt>
      <trkpt lat="45.89409" lon="2.94888">
        <ele>829</ele>
        <time>2009-05-22T12:14:48Z</time>
      </trkpt>
      <trkpt lat="45.8936" lon="2.94884">
        <ele>829</ele>
        <time>2009-05-22T12:14:56Z</time>
      </trkpt>
      <trkpt lat="45.89311" lon="2.94883">
        <ele>829</ele>
        <time>2009-05-22T12:15:05Z</time>
      </trkpt>
      <trkpt lat="45.89302" lon="2.94883">
        <ele>829</ele>
        <time>2009-05-22T12:15:07Z</time>
      </trkpt>
      <trkpt lat="45.89278" lon="2.94889">
        <ele>829</ele>
        <time>2009-05-22T12:15:13Z</time>
      </trkpt>
      <trkpt lat="45.89269" lon="2.94887">
        <ele>830</ele>
        <time>2009-05-22T12:15:16Z</time>
      </trkpt>
      <trkpt lat="45.89262" lon="2.9487">
        <ele>830</ele>
        <time>2009-05-22T12:15:20Z</time>
      </trkpt>
      <trkpt lat="45.89258" lon="2.9484">
        <ele>831</ele>
        <time>2009-05-22T12:15:25Z</time>
      </trkpt>
      <trkpt lat="45.89261" lon="2.94796">
        <ele>830</ele>
        <time>2009-05-22T12:15:30Z</time>
      </trkpt>
      <trkpt lat="45.8925" lon="2.94767">
        <ele>829</ele>
        <time>2009-05-22T12:15:34Z</time>
      </trkpt>
      <trkpt lat="45.89246" lon="2.94762">
        <ele>829</ele>
        <time>2009-05-22T12:15:35Z</time>
      </trkpt>
      <trkpt lat="45.89221" lon="2.94728">
        <ele>829</ele>
        <time>2009-05-22T12:15:41Z</time>
      </trkpt>
      <trkpt lat="45.892" lon="2.94697">
        <ele>829</ele>
        <time>2009-05-22T12:15:46Z</time>
      </trkpt>
      <trkpt lat="45.8919" lon="2.94687">
        <ele>829</ele>
        <time>2009-05-22T12:15:48Z</time>
      </trkpt>
      <trkpt lat="45.89152" lon="2.9467">
        <ele>830</ele>
        <time>2009-05-22T12:15:55Z</time>
      </trkpt>
      <trkpt lat="45.89121" lon="2.94672">
        <ele>830</ele>
        <time>2009-05-22T12:16:02Z</time>
      </trkpt>
      <trkpt lat="45.89112" lon="2.94673">
        <ele>830</ele>
        <time>2009-05-22T12:16:04Z</time>
      </trkpt>
      <trkpt lat="45.89106" lon="2.94657">
        <ele>829</ele>
        <time>2009-05-22T12:16:08Z</time>
      </trkpt>
      <trkpt lat="45.89114" lon="2.94632">
        <ele>829</ele>
        <time>2009-05-22T12:16:12Z</time>
      </trkpt>
      <trkpt lat="45.89119" lon="2.94595">
        <ele>829</ele>
        <time>2009-05-22T12:16:17Z</time>
      </trkpt>
      <trkpt lat="45.8911" lon="2.94571">
        <ele>829</ele>
        <time>2009-05-22T12:16:21Z</time>
      </trkpt>
      <trkpt lat="45.89089" lon="2.94525">
        <ele>829</ele>
        <time>2009-05-22T12:16:29Z</time>
      </trkpt>
      <trkpt lat="45.89078" lon="2.94485">
        <ele>829</ele>
        <time>2009-05-22T12:16:35Z</time>
      </trkpt>
      <trkpt lat="45.89064" lon="2.94428">
        <ele>830</ele>
        <time>2009-05-22T12:16:43Z</time>
      </trkpt>
      <trkpt lat="45.89047" lon="2.94371">
        <ele>830</ele>
        <time>2009-05-22T12:16:51Z</time>
      </trkpt>
      <trkpt lat="45.89031" lon="2.94318">
        <ele>830</ele>
        <time>2009-05-22T12:16:59Z</time>
      </trkpt>
      <trkpt lat="45.89015" lon="2.9424">
        <ele>831</ele>
        <time>2009-05-22T12:17:10Z</time>
      </trkpt>
      <trkpt lat="45.8901" lon="2.94219">
        <ele>831</ele>
        <time>2009-05-22T12:17:13Z</time>
      </trkpt>
      <trkpt lat="45.88986" lon="2.94174">
        <ele>830</ele>
        <time>2009-05-22T12:17:21Z</time>
      </trkpt>
      <trkpt lat="45.88962" lon="2.94132">
        <ele>831</ele>
        <time>2009-05-22T12:17:29Z</time>
      </trkpt>
      <trkpt lat="45.88937" lon="2.941">
        <ele>831</ele>
        <time>2009-05-22T12:17:36Z</time>
      </trkpt>
      <trkpt lat="45.88913" lon="2.94076">
        <ele>831</ele>
        <time>2009-05-22T12:17:42Z</time>
      </trkpt>
      <trkpt lat="45.88891" lon="2.94061">
        <ele>831</ele>
        <time>2009-05-22T12:17:48Z</time>
      </trkpt>
      <trkpt lat="45.88867" lon="2.94056">
        <ele>831</ele>
        <time>2009-05-22T12:17:54Z</time>
      </trkpt>
      <trkpt lat="45.88851" lon="2.94058">
        <ele>832</ele>
        <time>2009-05-22T12:17:58Z</time>
      </trkpt>
      <trkpt lat="45.88836" lon="2.9406">
        <ele>833</ele>
        <time>2009-05-22T12:18:02Z</time>
      </trkpt>
      <trkpt lat="45.88808" lon="2.94061">
        <ele>835</ele>
        <time>2009-05-22T12:18:09Z</time>
      </trkpt>
      <trkpt lat="45.88768" lon="2.94061">
        <ele>838</ele>
        <time>2009-05-22T12:18:19Z</time>
      </trkpt>
      <trkpt lat="45.88742" lon="2.9406">
        <ele>839</ele>
        <time>2009-05-22T12:18:26Z</time>
      </trkpt>
      <trkpt lat="45.88716" lon="2.94061">
        <ele>841</ele>
        <time>2009-05-22T12:18:33Z</time>
      </trkpt>
      <trkpt lat="45.88683" lon="2.94065">
        <ele>842</ele>
        <time>2009-05-22T12:18:42Z</time>
      </trkpt>
      <trkpt lat="45.88649" lon="2.94069">
        <ele>842</ele>
        <time>2009-05-22T12:18:51Z</time>
      </trkpt>
      <trkpt lat="45.88623" lon="2.94067">
        <ele>842</ele>
        <time>2009-05-22T12:18:59Z</time>
      </trkpt>
      <trkpt lat="45.88601" lon="2.94062">
        <ele>841</ele>
        <time>2009-05-22T12:19:05Z</time>
      </trkpt>
      <trkpt lat="45.88598" lon="2.94059">
        <ele>841</ele>
        <time>2009-05-22T12:19:06Z</time>
      </trkpt>
      <trkpt lat="45.88595" lon="2.94043">
        <ele>841</ele>
        <time>2009-05-22T12:19:09Z</time>
      </trkpt>
      <trkpt lat="45.88589" lon="2.9403">
        <ele>841</ele>
        <time>2009-05-22T12:19:11Z</time>
      </trkpt>
      <trkpt lat="45.88578" lon="2.9402">
        <ele>840</ele>
        <time>2009-05-22T12:19:13Z</time>
      </trkpt>
      <trkpt lat="45.88573" lon="2.94016">
        <ele>840</ele>
        <time>2009-05-22T12:19:14Z</time>
      </trkpt>
      <trkpt lat="45.8854" lon="2.94003">
        <ele>837</ele>
        <time>2009-05-22T12:19:21Z</time>
      </trkpt>
      <trkpt lat="45.88517" lon="2.93997">
        <ele>838</ele>
        <time>2009-05-22T12:19:27Z</time>
      </trkpt>
      <trkpt lat="45.88515" lon="2.93998">
        <ele>839</ele>
        <time>2009-05-22T12:19:28Z</time>
      </trkpt>
      <trkpt lat="45.8851" lon="2.94021">
        <ele>838</ele>
        <time>2009-05-22T12:19:33Z</time>
      </trkpt>
      <trkpt lat="45.8851" lon="2.94027">
        <ele>838</ele>
        <time>2009-05-22T12:19:34Z</time>
      </trkpt>
      <trkpt lat="45.88514" lon="2.9406">
        <ele>837</ele>
        <time>2009-05-22T12:19:39Z</time>
      </trkpt>
      <trkpt lat="45.8852" lon="2.94103">
        <ele>836</ele>
        <time>2009-05-22T12:19:46Z</time>
      </trkpt>
      <trkpt lat="45.88523" lon="2.94124">
        <ele>835</ele>
        <time>2009-05-22T12:19:49Z</time>
      </trkpt>
      <trkpt lat="45.88536" lon="2.94167">
        <ele>831</ele>
        <time>2009-05-22T12:19:54Z</time>
      </trkpt>
      <trkpt lat="45.88546" lon="2.94214">
        <ele>830</ele>
        <time>2009-05-22T12:19:58Z</time>
      </trkpt>
      <trkpt lat="45.88542" lon="2.9426">
        <ele>829</ele>
        <time>2009-05-22T12:20:02Z</time>
      </trkpt>
      <trkpt lat="45.88525" lon="2.94286">
        <ele>829</ele>
        <time>2009-05-22T12:20:05Z</time>
      </trkpt>
      <trkpt lat="45.88509" lon="2.94299">
        <ele>829</ele>
        <time>2009-05-22T12:20:07Z</time>
      </trkpt>
      <trkpt lat="45.8846" lon="2.94341">
        <ele>828</ele>
        <time>2009-05-22T12:20:14Z</time>
      </trkpt>
      <trkpt lat="45.88447" lon="2.94352">
        <ele>828</ele>
        <time>2009-05-22T12:20:16Z</time>
      </trkpt>
      <trkpt lat="45.88423" lon="2.94387">
        <ele>829</ele>
        <time>2009-05-22T12:20:21Z</time>
      </trkpt>
      <trkpt lat="45.88415" lon="2.94402">
        <ele>829</ele>
        <time>2009-05-22T12:20:23Z</time>
      </trkpt>
      <trkpt lat="45.88407" lon="2.94416">
        <ele>828</ele>
        <time>2009-05-22T12:20:25Z</time>
      </trkpt>
      <trkpt lat="45.8839" lon="2.9445">
        <ele>828</ele>
        <time>2009-05-22T12:20:30Z</time>
      </trkpt>
      <trkpt lat="45.88386" lon="2.94458">
        <ele>828</ele>
        <time>2009-05-22T12:20:31Z</time>
      </trkpt>
      <trkpt lat="45.88381" lon="2.94466">
        <ele>828</ele>
        <time>2009-05-22T12:20:32Z</time>
      </trkpt>
      <trkpt lat="45.88345" lon="2.94504">
        <ele>827</ele>
        <time>2009-05-22T12:20:38Z</time>
      </trkpt>
      <trkpt lat="45.88321" lon="2.94524">
        <ele>827</ele>
        <time>2009-05-22T12:20:42Z</time>
      </trkpt>
      <trkpt lat="45.88298" lon="2.94521">
        <ele>827</ele>
        <time>2009-05-22T12:20:46Z</time>
      </trkpt>
      <trkpt lat="45.88267" lon="2.94504">
        <ele>827</ele>
        <time>2009-05-22T12:20:52Z</time>
      </trkpt>
      <trkpt lat="45.88234" lon="2.94503">
        <ele>827</ele>
        <time>2009-05-22T12:20:58Z</time>
      </trkpt>
      <trkpt lat="45.88193" lon="2.94498">
        <ele>827</ele>
        <time>2009-05-22T12:21:05Z</time>
      </trkpt>
      <trkpt lat="45.88159" lon="2.94496">
        <ele>827</ele>
        <time>2009-05-22T12:21:11Z</time>
      </trkpt>
      <trkpt lat="45.88115" lon="2.9448">
        <ele>827</ele>
        <time>2009-05-22T12:21:19Z</time>
      </trkpt>
      <trkpt lat="45.88098" lon="2.94477">
        <ele>828</ele>
        <time>2009-05-22T12:21:22Z</time>
      </trkpt>
      <trkpt lat="45.88086" lon="2.94475">
        <ele>828</ele>
        <time>2009-05-22T12:21:24Z</time>
      </trkpt>
      <trkpt lat="45.88067" lon="2.94465">
        <ele>828</ele>
        <time>2009-05-22T12:21:28Z</time>
      </trkpt>
      <trkpt lat="45.88063" lon="2.94453">
        <ele>827</ele>
        <time>2009-05-22T12:21:30Z</time>
      </trkpt>
      <trkpt lat="45.88057" lon="2.94432">
        <ele>827</ele>
        <time>2009-05-22T12:21:33Z</time>
      </trkpt>
      <trkpt lat="45.88034" lon="2.94397">
        <ele>827</ele>
        <time>2009-05-22T12:21:39Z</time>
      </trkpt>
      <trkpt lat="45.88014" lon="2.94369">
        <ele>828</ele>
        <time>2009-05-22T12:21:44Z</time>
      </trkpt>
      <trkpt lat="45.87994" lon="2.94339">
        <ele>828</ele>
        <time>2009-05-22T12:21:50Z</time>
      </trkpt>
      <trkpt lat="45.87971" lon="2.94314">
        <ele>829</ele>
        <time>2009-05-22T12:21:57Z</time>
      </trkpt>
      <trkpt lat="45.87956" lon="2.943">
        <ele>830</ele>
        <time>2009-05-22T12:22:02Z</time>
      </trkpt>
      <trkpt lat="45.87937" lon="2.94286">
        <ele>831</ele>
        <time>2009-05-22T12:22:08Z</time>
      </trkpt>
      <trkpt lat="45.87929" lon="2.94281">
        <ele>831</ele>
        <time>2009-05-22T12:22:10Z</time>
      </trkpt>
      <trkpt lat="45.87925" lon="2.94259">
        <ele>832</ele>
        <time>2009-05-22T12:22:14Z</time>
      </trkpt>
      <trkpt lat="45.87926" lon="2.94253">
        <ele>832</ele>
        <time>2009-05-22T12:22:15Z</time>
      </trkpt>
      <trkpt lat="45.87932" lon="2.94219">
        <ele>832</ele>
        <time>2009-05-22T12:22:21Z</time>
      </trkpt>
      <trkpt lat="45.87931" lon="2.9421">
        <ele>833</ele>
        <time>2009-05-22T12:22:23Z</time>
      </trkpt>
      <trkpt lat="45.87924" lon="2.94191">
        <ele>835</ele>
        <time>2009-05-22T12:22:28Z</time>
      </trkpt>
      <trkpt lat="45.87914" lon="2.94161">
        <ele>837</ele>
        <time>2009-05-22T12:22:34Z</time>
      </trkpt>
      <trkpt lat="45.87911" lon="2.9415">
        <ele>837</ele>
        <time>2009-05-22T12:22:36Z</time>
      </trkpt>
      <trkpt lat="45.87909" lon="2.94114">
        <ele>839</ele>
        <time>2009-05-22T12:22:42Z</time>
      </trkpt>
      <trkpt lat="45.87908" lon="2.94088">
        <ele>839</ele>
        <time>2009-05-22T12:22:47Z</time>
      </trkpt>
      <trkpt lat="45.87898" lon="2.94064">
        <ele>839</ele>
        <time>2009-05-22T12:22:53Z</time>
      </trkpt>
      <trkpt lat="45.87884" lon="2.94041">
        <ele>838</ele>
        <time>2009-05-22T12:23:00Z</time>
      </trkpt>
      <trkpt lat="45.87872" lon="2.94024">
        <ele>838</ele>
        <time>2009-05-22T12:23:06Z</time>
      </trkpt>
      <trkpt lat="45.87859" lon="2.94011">
        <ele>838</ele>
        <time>2009-05-22T12:23:13Z</time>
      </trkpt>
      <trkpt lat="45.87842" lon="2.94001">
        <ele>838</ele>
        <time>2009-05-22T12:23:19Z</time>
      </trkpt>
      <trkpt lat="45.87817" lon="2.93997">
        <ele>838</ele>
        <time>2009-05-22T12:23:26Z</time>
      </trkpt>
      <trkpt lat="45.8779" lon="2.93987">
        <ele>838</ele>
        <time>2009-05-22T12:23:33Z</time>
      </trkpt>
      <trkpt lat="45.87759" lon="2.93964">
        <ele>840</ele>
        <time>2009-05-22T12:23:42Z</time>
      </trkpt>
      <trkpt lat="45.87734" lon="2.93946">
        <ele>841</ele>
        <time>2009-05-22T12:23:50Z</time>
      </trkpt>
      <trkpt lat="45.87722" lon="2.9394">
        <ele>842</ele>
        <time>2009-05-22T12:23:55Z</time>
      </trkpt>
      <trkpt lat="45.87705" lon="2.93933">
        <ele>844</ele>
        <time>2009-05-22T12:24:01Z</time>
      </trkpt>
      <trkpt lat="45.87678" lon="2.93925">
        <ele>847</ele>
        <time>2009-05-22T12:24:10Z</time>
      </trkpt>
      <trkpt lat="45.87666" lon="2.93924">
        <ele>848</ele>
        <time>2009-05-22T12:24:14Z</time>
      </trkpt>
      <trkpt lat="45.87646" lon="2.93922">
        <ele>850</ele>
        <time>2009-05-22T12:24:21Z</time>
      </trkpt>
      <trkpt lat="45.87614" lon="2.93912">
        <ele>851</ele>
        <time>2009-05-22T12:24:31Z</time>
      </trkpt>
      <trkpt lat="45.87583" lon="2.93899">
        <ele>852</ele>
        <time>2009-05-22T12:24:40Z</time>
      </trkpt>
      <trkpt lat="45.87567" lon="2.93904">
        <ele>851</ele>
        <time>2009-05-22T12:24:45Z</time>
      </trkpt>
      <trkpt lat="45.87556" lon="2.93927">
        <ele>850</ele>
        <time>2009-05-22T12:24:50Z</time>
      </trkpt>
      <trkpt lat="45.87546" lon="2.93946">
        <ele>850</ele>
        <time>2009-05-22T12:24:53Z</time>
      </trkpt>
      <trkpt lat="45.87532" lon="2.93994">
        <ele>849</ele>
        <time>2009-05-22T12:24:59Z</time>
      </trkpt>
      <trkpt lat="45.87534" lon="2.94035">
        <ele>849</ele>
        <time>2009-05-22T12:25:04Z</time>
      </trkpt>
      <trkpt lat="45.87539" lon="2.9408">
        <ele>849</ele>
        <time>2009-05-22T12:25:11Z</time>
      </trkpt>
      <trkpt lat="45.87542" lon="2.94101">
        <ele>849</ele>
        <time>2009-05-22T12:25:16Z</time>
      </trkpt>
      <trkpt lat="45.87544" lon="2.94105">
        <ele>849</ele>
        <time>2009-05-22T12:25:18Z</time>
      </trkpt>
      <trkpt lat="45.87549" lon="2.94118">
        <ele>849</ele>
        <time>2009-05-22T12:25:23Z</time>
      </trkpt>
      <trkpt lat="45.87552" lon="2.94124">
        <ele>849</ele>
        <time>2009-05-22T12:25:25Z</time>
      </trkpt>
      <trkpt lat="45.87557" lon="2.94144">
        <ele>849</ele>
        <time>2009-05-22T12:25:31Z</time>
      </trkpt>
      <trkpt lat="45.87556" lon="2.94165">
        <ele>850</ele>
        <time>2009-05-22T12:25:36Z</time>
      </trkpt>
      <trkpt lat="45.87553" lon="2.94197">
        <ele>851</ele>
        <time>2009-05-22T12:25:43Z</time>
      </trkpt>
      <trkpt lat="45.87544" lon="2.9424">
        <ele>852</ele>
        <time>2009-05-22T12:25:52Z</time>
      </trkpt>
      <trkpt lat="45.87538" lon="2.94264">
        <ele>852</ele>
        <time>2009-05-22T12:25:57Z</time>
      </trkpt>
      <trkpt lat="45.87527" lon="2.94301">
        <ele>852</ele>
        <time>2009-05-22T12:26:05Z</time>
      </trkpt>
      <trkpt lat="45.87515" lon="2.94338">
        <ele>852</ele>
        <time>2009-05-22T12:26:13Z</time>
      </trkpt>
      <trkpt lat="45.87503" lon="2.94374">
        <ele>852</ele>
        <time>2009-05-22T12:26:21Z</time>
      </trkpt>
      <trkpt lat="45.87492" lon="2.94398">
        <ele>852</ele>
        <time>2009-05-22T12:26:27Z</time>
      </trkpt>
      <trkpt lat="45.87483" lon="2.94416">
        <ele>852</ele>
        <time>2009-05-22T12:26:32Z</time>
      </trkpt>
      <trkpt lat="45.87467" lon="2.94439">
        <ele>853</ele>
        <time>2009-05-22T12:26:39Z</time>
      </trkpt>
      <trkpt lat="45.87462" lon="2.94449">
        <ele>853</ele>
        <time>2009-05-22T12:26:43Z</time>
      </trkpt>
      <trkpt lat="45.87456" lon="2.94465">
        <ele>854</ele>
        <time>2009-05-22T12:26:48Z</time>
      </trkpt>
      <trkpt lat="45.8745" lon="2.94477">
        <ele>854</ele>
        <time>2009-05-22T12:26:53Z</time>
      </trkpt>
      <trkpt lat="45.87438" lon="2.94492">
        <ele>856</ele>
        <time>2009-05-22T12:26:58Z</time>
      </trkpt>
      <trkpt lat="45.8743" lon="2.94505">
        <ele>858</ele>
        <time>2009-05-22T12:27:02Z</time>
      </trkpt>
      <trkpt lat="45.87421" lon="2.94517">
        <ele>860</ele>
        <time>2009-05-22T12:27:06Z</time>
      </trkpt>
      <trkpt lat="45.87412" lon="2.94526">
        <ele>861</ele>
        <time>2009-05-22T12:27:12Z</time>
      </trkpt>
      <trkpt lat="45.8741" lon="2.94528">
        <ele>861</ele>
        <time>2009-05-22T12:27:13Z</time>
      </trkpt>
      <trkpt lat="45.87409" lon="2.94531">
        <ele>862</ele>
        <time>2009-05-22T12:27:20Z</time>
      </trkpt>
      <trkpt lat="45.87403" lon="2.94533">
        <ele>862</ele>
        <time>2009-05-22T12:27:27Z</time>
      </trkpt>
      <trkpt lat="45.87399" lon="2.9454">
        <ele>863</ele>
        <time>2009-05-22T12:27:32Z</time>
      </trkpt>
      <trkpt lat="45.87397" lon="2.94541">
        <ele>864</ele>
        <time>2009-05-22T12:27:33Z</time>
      </trkpt>
      <trkpt lat="45.87394" lon="2.94549">
        <ele>864</ele>
        <time>2009-05-22T12:27:37Z</time>
      </trkpt>
      <trkpt lat="45.87392" lon="2.94554">
        <ele>865</ele>
        <time>2009-05-22T12:27:39Z</time>
      </trkpt>
      <trkpt lat="45.87389" lon="2.94569">
        <ele>866</ele>
        <time>2009-05-22T12:27:45Z</time>
      </trkpt>
      <trkpt lat="45.87388" lon="2.94571">
        <ele>867</ele>
        <time>2009-05-22T12:27:46Z</time>
      </trkpt>
      <trkpt lat="45.87384" lon="2.94579">
        <ele>868</ele>
        <time>2009-05-22T12:27:50Z</time>
      </trkpt>
      <trkpt lat="45.87377" lon="2.94595">
        <ele>869</ele>
        <time>2009-05-22T12:27:57Z</time>
      </trkpt>
      <trkpt lat="45.8737" lon="2.94607">
        <ele>871</ele>
        <time>2009-05-22T12:28:03Z</time>
      </trkpt>
      <trkpt lat="45.87365" lon="2.94615">
        <ele>871</ele>
        <time>2009-05-22T12:28:07Z</time>
      </trkpt>
      <trkpt lat="45.87359" lon="2.94631">
        <ele>872</ele>
        <time>2009-05-22T12:28:13Z</time>
      </trkpt>
      <trkpt lat="45.87358" lon="2.94632">
        <ele>872</ele>
        <time>2009-05-22T12:28:14Z</time>
      </trkpt>
      <trkpt lat="45.87352" lon="2.94645">
        <ele>872</ele>
        <time>2009-05-22T12:28:21Z</time>
      </trkpt>
      <trkpt lat="45.87351" lon="2.94647">
        <ele>872</ele>
        <time>2009-05-22T12:28:22Z</time>
      </trkpt>
      <trkpt lat="45.87347" lon="2.94661">
        <ele>873</ele>
        <time>2009-05-22T12:28:30Z</time>
      </trkpt>
      <trkpt lat="45.87343" lon="2.94669">
        <ele>873</ele>
        <time>2009-05-22T12:28:35Z</time>
      </trkpt>
      <trkpt lat="45.87335" lon="2.94683">
        <ele>874</ele>
        <time>2009-05-22T12:28:42Z</time>
      </trkpt>
      <trkpt lat="45.87331" lon="2.94698">
        <ele>874</ele>
        <time>2009-05-22T12:28:49Z</time>
      </trkpt>
      <trkpt lat="45.87328" lon="2.94718">
        <ele>874</ele>
        <time>2009-05-22T12:28:56Z</time>
      </trkpt>
      <trkpt lat="45.87326" lon="2.94728">
        <ele>874</ele>
        <time>2009-05-22T12:29:00Z</time>
      </trkpt>
      <trkpt lat="45.87322" lon="2.94748">
        <ele>874</ele>
        <time>2009-05-22T12:29:06Z</time>
      </trkpt>
      <trkpt lat="45.87314" lon="2.94769">
        <ele>874</ele>
        <time>2009-05-22T12:29:11Z</time>
      </trkpt>
      <trkpt lat="45.87307" lon="2.94792">
        <ele>874</ele>
        <time>2009-05-22T12:29:15Z</time>
      </trkpt>
      <trkpt lat="45.87301" lon="2.94819">
        <ele>874</ele>
        <time>2009-05-22T12:29:20Z</time>
      </trkpt>
      <trkpt lat="45.87296" lon="2.94839">
        <ele>874</ele>
        <time>2009-05-22T12:29:24Z</time>
      </trkpt>
      <trkpt lat="45.87292" lon="2.94855">
        <ele>873</ele>
        <time>2009-05-22T12:29:28Z</time>
      </trkpt>
      <trkpt lat="45.87286" lon="2.94879">
        <ele>873</ele>
        <time>2009-05-22T12:29:34Z</time>
      </trkpt>
      <trkpt lat="45.87276" lon="2.94896">
        <ele>874</ele>
        <time>2009-05-22T12:29:39Z</time>
      </trkpt>
      <trkpt lat="45.8727" lon="2.94909">
        <ele>874</ele>
        <time>2009-05-22T12:29:44Z</time>
      </trkpt>
      <trkpt lat="45.87269" lon="2.94916">
        <ele>874</ele>
        <time>2009-05-22T12:29:46Z</time>
      </trkpt>
      <trkpt lat="45.87259" lon="2.94935">
        <ele>875</ele>
        <time>2009-05-22T12:29:51Z</time>
      </trkpt>
      <trkpt lat="45.87253" lon="2.94949">
        <ele>875</ele>
        <time>2009-05-22T12:29:55Z</time>
      </trkpt>
      <trkpt lat="45.87241" lon="2.94966">
        <ele>876</ele>
        <time>2009-05-22T12:30:01Z</time>
      </trkpt>
      <trkpt lat="45.87227" lon="2.94981">
        <ele>876</ele>
        <time>2009-05-22T12:30:07Z</time>
      </trkpt>
      <trkpt lat="45.87217" lon="2.94992">
        <ele>876</ele>
        <time>2009-05-22T12:30:12Z</time>
      </trkpt>
      <trkpt lat="45.87204" lon="2.95009">
        <ele>878</ele>
        <time>2009-05-22T12:30:18Z</time>
      </trkpt>
      <trkpt lat="45.87194" lon="2.95021">
        <ele>878</ele>
        <time>2009-05-22T12:30:23Z</time>
      </trkpt>
      <trkpt lat="45.87181" lon="2.95038">
        <ele>880</ele>
        <time>2009-05-22T12:30:31Z</time>
      </trkpt>
      <trkpt lat="45.87176" lon="2.95046">
        <ele>880</ele>
        <time>2009-05-22T12:30:36Z</time>
      </trkpt>
      <trkpt lat="45.8717" lon="2.95056">
        <ele>881</ele>
        <time>2009-05-22T12:30:41Z</time>
      </trkpt>
      <trkpt lat="45.87167" lon="2.95061">
        <ele>882</ele>
        <time>2009-05-22T12:30:43Z</time>
      </trkpt>
      <trkpt lat="45.87156" lon="2.95073">
        <ele>884</ele>
        <time>2009-05-22T12:30:50Z</time>
      </trkpt>
      <trkpt lat="45.87146" lon="2.95078">
        <ele>885</ele>
        <time>2009-05-22T12:30:56Z</time>
      </trkpt>
      <trkpt lat="45.87134" lon="2.95083">
        <ele>886</ele>
        <time>2009-05-22T12:31:04Z</time>
      </trkpt>
      <trkpt lat="45.87124" lon="2.95089">
        <ele>887</ele>
        <time>2009-05-22T12:31:11Z</time>
      </trkpt>
      <trkpt lat="45.8712" lon="2.95094">
        <ele>888</ele>
        <time>2009-05-22T12:31:16Z</time>
      </trkpt>
      <trkpt lat="45.8711" lon="2.95102">
        <ele>889</ele>
        <time>2009-05-22T12:31:22Z</time>
      </trkpt>
      <trkpt lat="45.87094" lon="2.95108">
        <ele>890</ele>
        <time>2009-05-22T12:31:29Z</time>
      </trkpt>
      <trkpt lat="45.87088" lon="2.95109">
        <ele>890</ele>
        <time>2009-05-22T12:31:32Z</time>
      </trkpt>
      <trkpt lat="45.87082" lon="2.95108">
        <ele>890</ele>
        <time>2009-05-22T12:31:36Z</time>
      </trkpt>
      <trkpt lat="45.87071" lon="2.9511">
        <ele>891</ele>
        <time>2009-05-22T12:31:42Z</time>
      </trkpt>
      <trkpt lat="45.87057" lon="2.95113">
        <ele>892</ele>
        <time>2009-05-22T12:31:50Z</time>
      </trkpt>
      <trkpt lat="45.87053" lon="2.95113">
        <ele>892</ele>
        <time>2009-05-22T12:31:52Z</time>
      </trkpt>
      <trkpt lat="45.87039" lon="2.95109">
        <ele>893</ele>
        <time>2009-05-22T12:31:59Z</time>
      </trkpt>
      <trkpt lat="45.87029" lon="2.95106">
        <ele>893</ele>
        <time>2009-05-22T12:32:04Z</time>
      </trkpt>
      <trkpt lat="45.87016" lon="2.95104">
        <ele>893</ele>
        <time>2009-05-22T12:32:10Z</time>
      </trkpt>
      <trkpt lat="45.87001" lon="2.95108">
        <ele>894</ele>
        <time>2009-05-22T12:32:16Z</time>
      </trkpt>
      <trkpt lat="45.86988" lon="2.95116">
        <ele>894</ele>
        <time>2009-05-22T12:32:21Z</time>
      </trkpt>
      <trkpt lat="45.86975" lon="2.95125">
        <ele>896</ele>
        <time>2009-05-22T12:32:26Z</time>
      </trkpt>
      <trkpt lat="45.86963" lon="2.95135">
        <ele>898</ele>
        <time>2009-05-22T12:32:30Z</time>
      </trkpt>
      <trkpt lat="45.86946" lon="2.95146">
        <ele>899</ele>
        <time>2009-05-22T12:32:36Z</time>
      </trkpt>
      <trkpt lat="45.86937" lon="2.95152">
        <ele>900</ele>
        <time>2009-05-22T12:32:40Z</time>
      </trkpt>
      <trkpt lat="45.86932" lon="2.95155">
        <ele>900</ele>
        <time>2009-05-22T12:32:45Z</time>
      </trkpt>
      <trkpt lat="45.86925" lon="2.95159">
        <ele>901</ele>
        <time>2009-05-22T12:32:50Z</time>
      </trkpt>
      <trkpt lat="45.86911" lon="2.95165">
        <ele>902</ele>
        <time>2009-05-22T12:32:56Z</time>
      </trkpt>
      <trkpt lat="45.86902" lon="2.95171">
        <ele>902</ele>
        <time>2009-05-22T12:33:01Z</time>
      </trkpt>
      <trkpt lat="45.86881" lon="2.95187">
        <ele>901</ele>
        <time>2009-05-22T12:33:08Z</time>
      </trkpt>
      <trkpt lat="45.86875" lon="2.95194">
        <ele>901</ele>
        <time>2009-05-22T12:33:12Z</time>
      </trkpt>
      <trkpt lat="45.86865" lon="2.95208">
        <ele>901</ele>
        <time>2009-05-22T12:33:19Z</time>
      </trkpt>
      <trkpt lat="45.86858" lon="2.95221">
        <ele>902</ele>
        <time>2009-05-22T12:33:25Z</time>
      </trkpt>
      <trkpt lat="45.86853" lon="2.9523">
        <ele>902</ele>
        <time>2009-05-22T12:33:30Z</time>
      </trkpt>
      <trkpt lat="45.86845" lon="2.95245">
        <ele>902</ele>
        <time>2009-05-22T12:33:38Z</time>
      </trkpt>
      <trkpt lat="45.86841" lon="2.95247">
        <ele>902</ele>
        <time>2009-05-22T12:33:40Z</time>
      </trkpt>
      <trkpt lat="45.86832" lon="2.95257">
        <ele>900</ele>
        <time>2009-05-22T12:33:46Z</time>
      </trkpt>
      <trkpt lat="45.86825" lon="2.95266">
        <ele>900</ele>
        <time>2009-05-22T12:33:51Z</time>
      </trkpt>
      <trkpt lat="45.86815" lon="2.95281">
        <ele>900</ele>
        <time>2009-05-22T12:33:57Z</time>
      </trkpt>
      <trkpt lat="45.86814" lon="2.95283">
        <ele>900</ele>
        <time>2009-05-22T12:33:58Z</time>
      </trkpt>
      <trkpt lat="45.8681" lon="2.95292">
        <ele>900</ele>
        <time>2009-05-22T12:34:03Z</time>
      </trkpt>
      <trkpt lat="45.86797" lon="2.95303">
        <ele>900</ele>
        <time>2009-05-22T12:34:10Z</time>
      </trkpt>
      <trkpt lat="45.8679" lon="2.95304">
        <ele>900</ele>
        <time>2009-05-22T12:34:14Z</time>
      </trkpt>
      <trkpt lat="45.86782" lon="2.953">
        <ele>900</ele>
        <time>2009-05-22T12:34:22Z</time>
      </trkpt>
      <trkpt lat="45.86776" lon="2.95294">
        <ele>900</ele>
        <time>2009-05-22T12:34:57Z</time>
      </trkpt>
      <trkpt lat="45.86774" lon="2.95296">
        <ele>900</ele>
        <time>2009-05-22T12:35:10Z</time>
      </trkpt>
      <trkpt lat="45.86776" lon="2.95295">
        <ele>900</ele>
        <time>2009-05-22T12:35:24Z</time>
      </trkpt>
      <trkpt lat="45.86776" lon="2.95294">
        <ele>900</ele>
        <time>2009-05-22T12:35:32Z</time>
      </trkpt>
      <trkpt lat="45.86777" lon="2.95294">
        <ele>900</ele>
        <time>2009-05-22T12:35:38Z</time>
      </trkpt>
      <trkpt lat="45.86775" lon="2.95299">
        <ele>901</ele>
        <time>2009-05-22T12:36:05Z</time>
      </trkpt>
      <trkpt lat="45.86776" lon="2.953">
        <ele>901</ele>
        <time>2009-05-22T12:36:17Z</time>
      </trkpt>
      <trkpt lat="45.86776" lon="2.953">
        <ele>900</ele>
        <time>2009-05-22T12:36:26Z</time>
      </trkpt>
      <trkpt lat="45.86777" lon="2.95299">
        <ele>900</ele>
        <time>2009-05-22T12:36:41Z</time>
      </trkpt>
      <trkpt lat="45.86778" lon="2.95298">
        <ele>900</ele>
        <time>2009-05-22T12:36:47Z</time>
      </trkpt>
      <trkpt lat="45.8678" lon="2.95296">
        <ele>900</ele>
        <time>2009-05-22T12:37:08Z</time>
      </trkpt>
      <trkpt lat="45.86781" lon="2.95296">
        <ele>900</ele>
        <time>2009-05-22T12:37:09Z</time>
      </trkpt>
      <trkpt lat="45.86779" lon="2.95285">
        <ele>900</ele>
        <time>2009-05-22T12:37:15Z</time>
      </trkpt>
      <trkpt lat="45.86776" lon="2.95267">
        <ele>899</ele>
        <time>2009-05-22T12:37:22Z</time>
      </trkpt>
      <trkpt lat="45.86775" lon="2.95249">
        <ele>898</ele>
        <time>2009-05-22T12:37:27Z</time>
      </trkpt>
      <trkpt lat="45.86774" lon="2.95229">
        <ele>897</ele>
        <time>2009-05-22T12:37:32Z</time>
      </trkpt>
      <trkpt lat="45.86774" lon="2.95218">
        <ele>897</ele>
        <time>2009-05-22T12:37:34Z</time>
      </trkpt>
      <trkpt lat="45.86773" lon="2.952">
        <ele>896</ele>
        <time>2009-05-22T12:37:38Z</time>
      </trkpt>
      <trkpt lat="45.86774" lon="2.95174">
        <ele>895</ele>
        <time>2009-05-22T12:37:42Z</time>
      </trkpt>
      <trkpt lat="45.86773" lon="2.95144">
        <ele>895</ele>
        <time>2009-05-22T12:37:47Z</time>
      </trkpt>
      <trkpt lat="45.86774" lon="2.95137">
        <ele>895</ele>
        <time>2009-05-22T12:37:48Z</time>
      </trkpt>
      <trkpt lat="45.86773" lon="2.95112">
        <ele>895</ele>
        <time>2009-05-22T12:37:52Z</time>
      </trkpt>
      <trkpt lat="45.86769" lon="2.95084">
        <ele>895</ele>
        <time>2009-05-22T12:37:56Z</time>
      </trkpt>
      <trkpt lat="45.86769" lon="2.95039">
        <ele>893</ele>
        <time>2009-05-22T12:38:01Z</time>
      </trkpt>
      <trkpt lat="45.86773" lon="2.95001">
        <ele>891</ele>
        <time>2009-05-22T12:38:05Z</time>
      </trkpt>
      <trkpt lat="45.86777" lon="2.94975">
        <ele>890</ele>
        <time>2009-05-22T12:38:08Z</time>
      </trkpt>
      <trkpt lat="45.86786" lon="2.94938">
        <ele>888</ele>
        <time>2009-05-22T12:38:12Z</time>
      </trkpt>
      <trkpt lat="45.86794" lon="2.94922">
        <ele>886</ele>
        <time>2009-05-22T12:38:14Z</time>
      </trkpt>
      <trkpt lat="45.86811" lon="2.94895">
        <ele>884</ele>
        <time>2009-05-22T12:38:17Z</time>
      </trkpt>
      <trkpt lat="45.86822" lon="2.94854">
        <ele>883</ele>
        <time>2009-05-22T12:38:22Z</time>
      </trkpt>
      <trkpt lat="45.8682" lon="2.9482">
        <ele>882</ele>
        <time>2009-05-22T12:38:26Z</time>
      </trkpt>
      <trkpt lat="45.86814" lon="2.94779">
        <ele>881</ele>
        <time>2009-05-22T12:38:31Z</time>
      </trkpt>
      <trkpt lat="45.86808" lon="2.94745">
        <ele>880</ele>
        <time>2009-05-22T12:38:35Z</time>
      </trkpt>
      <trkpt lat="45.86804" lon="2.94713">
        <ele>879</ele>
        <time>2009-05-22T12:38:38Z</time>
      </trkpt>
      <trkpt lat="45.86794" lon="2.9466">
        <ele>877</ele>
        <time>2009-05-22T12:38:44Z</time>
      </trkpt>
      <trkpt lat="45.86792" lon="2.9465">
        <ele>877</ele>
        <time>2009-05-22T12:38:45Z</time>
      </trkpt>
      <trkpt lat="45.86793" lon="2.94599">
        <ele>876</ele>
        <time>2009-05-22T12:38:50Z</time>
      </trkpt>
      <trkpt lat="45.86796" lon="2.94571">
        <ele>876</ele>
        <time>2009-05-22T12:38:53Z</time>
      </trkpt>
      <trkpt lat="45.86783" lon="2.9454">
        <ele>875</ele>
        <time>2009-05-22T12:38:57Z</time>
      </trkpt>
      <trkpt lat="45.86759" lon="2.94517">
        <ele>875</ele>
        <time>2009-05-22T12:39:01Z</time>
      </trkpt>
      <trkpt lat="45.8674" lon="2.94503">
        <ele>874</ele>
        <time>2009-05-22T12:39:04Z</time>
      </trkpt>
      <trkpt lat="45.86698" lon="2.94477">
        <ele>872</ele>
        <time>2009-05-22T12:39:10Z</time>
      </trkpt>
      <trkpt lat="45.86666" lon="2.94451">
        <ele>871</ele>
        <time>2009-05-22T12:39:15Z</time>
      </trkpt>
      <trkpt lat="45.8663" lon="2.94409">
        <ele>870</ele>
        <time>2009-05-22T12:39:21Z</time>
      </trkpt>
      <trkpt lat="45.86606" lon="2.94381">
        <ele>870</ele>
        <time>2009-05-22T12:39:25Z</time>
      </trkpt>
      <trkpt lat="45.86578" lon="2.94338">
        <ele>869</ele>
        <time>2009-05-22T12:39:30Z</time>
      </trkpt>
      <trkpt lat="45.86543" lon="2.94286">
        <ele>869</ele>
        <time>2009-05-22T12:39:36Z</time>
      </trkpt>
      <trkpt lat="45.86508" lon="2.94237">
        <ele>869</ele>
        <time>2009-05-22T12:39:42Z</time>
      </trkpt>
      <trkpt lat="45.86482" lon="2.94196">
        <ele>869</ele>
        <time>2009-05-22T12:39:47Z</time>
      </trkpt>
      <trkpt lat="45.86445" lon="2.94151">
        <ele>869</ele>
        <time>2009-05-22T12:39:54Z</time>
      </trkpt>
      <trkpt lat="45.86415" lon="2.94115">
        <ele>869</ele>
        <time>2009-05-22T12:40:00Z</time>
      </trkpt>
      <trkpt lat="45.86384" lon="2.94075">
        <ele>869</ele>
        <time>2009-05-22T12:40:07Z</time>
      </trkpt>
      <trkpt lat="45.86347" lon="2.94022">
        <ele>869</ele>
        <time>2009-05-22T12:40:16Z</time>
      </trkpt>
      <trkpt lat="45.8633" lon="2.94001">
        <ele>868</ele>
        <time>2009-05-22T12:40:20Z</time>
      </trkpt>
      <trkpt lat="45.86301" lon="2.93957">
        <ele>868</ele>
        <time>2009-05-22T12:40:27Z</time>
      </trkpt>
      <trkpt lat="45.8629" lon="2.93916">
        <ele>868</ele>
        <time>2009-05-22T12:40:32Z</time>
      </trkpt>
      <trkpt lat="45.86292" lon="2.93887">
        <ele>868</ele>
        <time>2009-05-22T12:40:35Z</time>
      </trkpt>
      <trkpt lat="45.86295" lon="2.93869">
        <ele>868</ele>
        <time>2009-05-22T12:40:37Z</time>
      </trkpt>
      <trkpt lat="45.86308" lon="2.93809">
        <ele>868</ele>
        <time>2009-05-22T12:40:44Z</time>
      </trkpt>
      <trkpt lat="45.86317" lon="2.93768">
        <ele>867</ele>
        <time>2009-05-22T12:40:49Z</time>
      </trkpt>
      <trkpt lat="45.86324" lon="2.93724">
        <ele>866</ele>
        <time>2009-05-22T12:40:54Z</time>
      </trkpt>
      <trkpt lat="45.86328" lon="2.93707">
        <ele>865</ele>
        <time>2009-05-22T12:40:56Z</time>
      </trkpt>
      <trkpt lat="45.86344" lon="2.93639">
        <ele>861</ele>
        <time>2009-05-22T12:41:03Z</time>
      </trkpt>
      <trkpt lat="45.86346" lon="2.93628">
        <ele>860</ele>
        <time>2009-05-22T12:41:04Z</time>
      </trkpt>
      <trkpt lat="45.86349" lon="2.93605">
        <ele>860</ele>
        <time>2009-05-22T12:41:06Z</time>
      </trkpt>
      <trkpt lat="45.86369" lon="2.93526">
        <ele>859</ele>
        <time>2009-05-22T12:41:14Z</time>
      </trkpt>
      <trkpt lat="45.86372" lon="2.93508">
        <ele>859</ele>
        <time>2009-05-22T12:41:16Z</time>
      </trkpt>
      <trkpt lat="45.86373" lon="2.93482">
        <ele>859</ele>
        <time>2009-05-22T12:41:19Z</time>
      </trkpt>
      <trkpt lat="45.86371" lon="2.93473">
        <ele>859</ele>
        <time>2009-05-22T12:41:20Z</time>
      </trkpt>
      <trkpt lat="45.86353" lon="2.93415">
        <ele>861</ele>
        <time>2009-05-22T12:41:27Z</time>
      </trkpt>
      <trkpt lat="45.86337" lon="2.9336">
        <ele>861</ele>
        <time>2009-05-22T12:41:33Z</time>
      </trkpt>
      <trkpt lat="45.8632" lon="2.93307">
        <ele>861</ele>
        <time>2009-05-22T12:41:39Z</time>
      </trkpt>
      <trkpt lat="45.86318" lon="2.93298">
        <ele>861</ele>
        <time>2009-05-22T12:41:40Z</time>
      </trkpt>
      <trkpt lat="45.86307" lon="2.93265">
        <ele>861</ele>
        <time>2009-05-22T12:41:44Z</time>
      </trkpt>
      <trkpt lat="45.863" lon="2.93241">
        <ele>860</ele>
        <time>2009-05-22T12:41:47Z</time>
      </trkpt>
      <trkpt lat="45.86291" lon="2.93209">
        <ele>860</ele>
        <time>2009-05-22T12:41:52Z</time>
      </trkpt>
      <trkpt lat="45.8629" lon="2.93203">
        <ele>860</ele>
        <time>2009-05-22T12:41:56Z</time>
      </trkpt>
      <trkpt lat="45.86286" lon="2.93201">
        <ele>860</ele>
        <time>2009-05-22T12:42:02Z</time>
      </trkpt>
      <trkpt lat="45.86283" lon="2.93198">
        <ele>860</ele>
        <time>2009-05-22T12:42:09Z</time>
      </trkpt>
      <trkpt lat="45.8628" lon="2.93198">
        <ele>860</ele>
        <time>2009-05-22T12:42:13Z</time>
      </trkpt>
      <trkpt lat="45.86275" lon="2.93199">
        <ele>860</ele>
        <time>2009-05-22T12:42:19Z</time>
      </trkpt>
      <trkpt lat="45.86271" lon="2.93198">
        <ele>861</ele>
        <time>2009-05-22T12:42:26Z</time>
      </trkpt>
      <trkpt lat="45.86265" lon="2.93187">
        <ele>860</ele>
        <time>2009-05-22T12:42:31Z</time>
      </trkpt>
      <trkpt lat="45.86252" lon="2.93181">
        <ele>861</ele>
        <time>2009-05-22T12:42:37Z</time>
      </trkpt>
      <trkpt lat="45.86245" lon="2.93183">
        <ele>861</ele>
        <time>2009-05-22T12:42:39Z</time>
      </trkpt>
      <trkpt lat="45.8623" lon="2.93185">
        <ele>864</ele>
        <time>2009-05-22T12:42:45Z</time>
      </trkpt>
      <trkpt lat="45.86212" lon="2.93185">
        <ele>866</ele>
        <time>2009-05-22T12:42:52Z</time>
      </trkpt>
      <trkpt lat="45.86199" lon="2.93187">
        <ele>867</ele>
        <time>2009-05-22T12:42:57Z</time>
      </trkpt>
      <trkpt lat="45.86191" lon="2.93193">
        <ele>868</ele>
        <time>2009-05-22T12:43:02Z</time>
      </trkpt>
      <trkpt lat="45.86182" lon="2.93202">
        <ele>869</ele>
        <time>2009-05-22T12:43:08Z</time>
      </trkpt>
      <trkpt lat="45.86172" lon="2.93208">
        <ele>870</ele>
        <time>2009-05-22T12:43:13Z</time>
      </trkpt>
      <trkpt lat="45.86157" lon="2.93213">
        <ele>871</ele>
        <time>2009-05-22T12:43:18Z</time>
      </trkpt>
      <trkpt lat="45.86142" lon="2.93218">
        <ele>871</ele>
        <time>2009-05-22T12:43:22Z</time>
      </trkpt>
      <trkpt lat="45.86125" lon="2.93223">
        <ele>872</ele>
        <time>2009-05-22T12:43:26Z</time>
      </trkpt>
      <trkpt lat="45.86104" lon="2.93231">
        <ele>872</ele>
        <time>2009-05-22T12:43:32Z</time>
      </trkpt>
      <trkpt lat="45.86086" lon="2.93233">
        <ele>872</ele>
        <time>2009-05-22T12:43:37Z</time>
      </trkpt>
      <trkpt lat="45.86071" lon="2.93231">
        <ele>872</ele>
        <time>2009-05-22T12:43:42Z</time>
      </trkpt>
      <trkpt lat="45.86062" lon="2.93227">
        <ele>872</ele>
        <time>2009-05-22T12:43:46Z</time>
      </trkpt>
      <trkpt lat="45.86047" lon="2.9322">
        <ele>872</ele>
        <time>2009-05-22T12:43:52Z</time>
      </trkpt>
      <trkpt lat="45.86028" lon="2.93207">
        <ele>872</ele>
        <time>2009-05-22T12:43:57Z</time>
      </trkpt>
      <trkpt lat="45.86015" lon="2.93191">
        <ele>871</ele>
        <time>2009-05-22T12:44:02Z</time>
      </trkpt>
      <trkpt lat="45.86004" lon="2.93171">
        <ele>870</ele>
        <time>2009-05-22T12:44:07Z</time>
      </trkpt>
      <trkpt lat="45.85997" lon="2.93153">
        <ele>871</ele>
        <time>2009-05-22T12:44:11Z</time>
      </trkpt>
      <trkpt lat="45.85998" lon="2.93133">
        <ele>871</ele>
        <time>2009-05-22T12:44:15Z</time>
      </trkpt>
      <trkpt lat="45.86005" lon="2.93102">
        <ele>871</ele>
        <time>2009-05-22T12:44:21Z</time>
      </trkpt>
      <trkpt lat="45.86013" lon="2.93076">
        <ele>872</ele>
        <time>2009-05-22T12:44:26Z</time>
      </trkpt>
      <trkpt lat="45.86015" lon="2.93061">
        <ele>873</ele>
        <time>2009-05-22T12:44:29Z</time>
      </trkpt>
      <trkpt lat="45.86022" lon="2.93034">
        <ele>873</ele>
        <time>2009-05-22T12:44:35Z</time>
      </trkpt>
      <trkpt lat="45.8603" lon="2.92999">
        <ele>874</ele>
        <time>2009-05-22T12:44:42Z</time>
      </trkpt>
      <trkpt lat="45.86034" lon="2.92969">
        <ele>874</ele>
        <time>2009-05-22T12:44:48Z</time>
      </trkpt>
      <trkpt lat="45.86037" lon="2.92947">
        <ele>874</ele>
        <time>2009-05-22T12:44:52Z</time>
      </trkpt>
      <trkpt lat="45.86039" lon="2.92918">
        <ele>874</ele>
        <time>2009-05-22T12:44:57Z</time>
      </trkpt>
      <trkpt lat="45.8604" lon="2.92895">
        <ele>874</ele>
        <time>2009-05-22T12:45:01Z</time>
      </trkpt>
      <trkpt lat="45.86041" lon="2.9288">
        <ele>873</ele>
        <time>2009-05-22T12:45:04Z</time>
      </trkpt>
      <trkpt lat="45.86043" lon="2.92852">
        <ele>873</ele>
        <time>2009-05-22T12:45:08Z</time>
      </trkpt>
      <trkpt lat="45.86037" lon="2.92833">
        <ele>874</ele>
        <time>2009-05-22T12:45:12Z</time>
      </trkpt>
      <trkpt lat="45.86037" lon="2.92819">
        <ele>874</ele>
        <time>2009-05-22T12:45:15Z</time>
      </trkpt>
      <trkpt lat="45.86037" lon="2.92792">
        <ele>874</ele>
        <time>2009-05-22T12:45:20Z</time>
      </trkpt>
      <trkpt lat="45.86033" lon="2.92766">
        <ele>874</ele>
        <time>2009-05-22T12:45:25Z</time>
      </trkpt>
      <trkpt lat="45.86028" lon="2.92739">
        <ele>874</ele>
        <time>2009-05-22T12:45:30Z</time>
      </trkpt>
      <trkpt lat="45.86024" lon="2.92714">
        <ele>874</ele>
        <time>2009-05-22T12:45:34Z</time>
      </trkpt>
      <trkpt lat="45.86015" lon="2.92674">
        <ele>875</ele>
        <time>2009-05-22T12:45:40Z</time>
      </trkpt>
      <trkpt lat="45.86011" lon="2.92648">
        <ele>875</ele>
        <time>2009-05-22T12:45:45Z</time>
      </trkpt>
      <trkpt lat="45.8601" lon="2.92626">
        <ele>875</ele>
        <time>2009-05-22T12:45:49Z</time>
      </trkpt>
      <trkpt lat="45.8601" lon="2.92586">
        <ele>874</ele>
        <time>2009-05-22T12:45:55Z</time>
      </trkpt>
      <trkpt lat="45.8601" lon="2.92559">
        <ele>874</ele>
        <time>2009-05-22T12:45:59Z</time>
      </trkpt>
      <trkpt lat="45.8601" lon="2.92538">
        <ele>874</ele>
        <time>2009-05-22T12:46:02Z</time>
      </trkpt>
      <trkpt lat="45.86015" lon="2.925">
        <ele>874</ele>
        <time>2009-05-22T12:46:08Z</time>
      </trkpt>
      <trkpt lat="45.86016" lon="2.92467">
        <ele>875</ele>
        <time>2009-05-22T12:46:14Z</time>
      </trkpt>
      <trkpt lat="45.86011" lon="2.92442">
        <ele>875</ele>
        <time>2009-05-22T12:46:18Z</time>
      </trkpt>
      <trkpt lat="45.86005" lon="2.92417">
        <ele>876</ele>
        <time>2009-05-22T12:46:23Z</time>
      </trkpt>
      <trkpt lat="45.86004" lon="2.92414">
        <ele>876</ele>
        <time>2009-05-22T12:46:24Z</time>
      </trkpt>
      <trkpt lat="45.85987" lon="2.92394">
        <ele>877</ele>
        <time>2009-05-22T12:46:31Z</time>
      </trkpt>
      <trkpt lat="45.85982" lon="2.92385">
        <ele>877</ele>
        <time>2009-05-22T12:46:33Z</time>
      </trkpt>
      <trkpt lat="45.85972" lon="2.9235">
        <ele>877</ele>
        <time>2009-05-22T12:46:39Z</time>
      </trkpt>
      <trkpt lat="45.85969" lon="2.92339">
        <ele>877</ele>
        <time>2009-05-22T12:46:41Z</time>
      </trkpt>
      <trkpt lat="45.85965" lon="2.92314">
        <ele>877</ele>
        <time>2009-05-22T12:46:45Z</time>
      </trkpt>
      <trkpt lat="45.8596" lon="2.92273">
        <ele>877</ele>
        <time>2009-05-22T12:46:52Z</time>
      </trkpt>
      <trkpt lat="45.8596" lon="2.9224">
        <ele>877</ele>
        <time>2009-05-22T12:46:58Z</time>
      </trkpt>
      <trkpt lat="45.85962" lon="2.92206">
        <ele>877</ele>
        <time>2009-05-22T12:47:05Z</time>
      </trkpt>
      <trkpt lat="45.8596" lon="2.92189">
        <ele>877</ele>
        <time>2009-05-22T12:47:09Z</time>
      </trkpt>
      <trkpt lat="45.85956" lon="2.92166">
        <ele>877</ele>
        <time>2009-05-22T12:47:14Z</time>
      </trkpt>
      <trkpt lat="45.85951" lon="2.92138">
        <ele>877</ele>
        <time>2009-05-22T12:47:20Z</time>
      </trkpt>
      <trkpt lat="45.85943" lon="2.92113">
        <ele>877</ele>
        <time>2009-05-22T12:47:26Z</time>
      </trkpt>
      <trkpt lat="45.85931" lon="2.92108">
        <ele>877</ele>
        <time>2009-05-22T12:47:30Z</time>
      </trkpt>
      <trkpt lat="45.85914" lon="2.92117">
        <ele>878</ele>
        <time>2009-05-22T12:47:35Z</time>
      </trkpt>
      <trkpt lat="45.85897" lon="2.92124">
        <ele>879</ele>
        <time>2009-05-22T12:47:40Z</time>
      </trkpt>
      <trkpt lat="45.85889" lon="2.92116">
        <ele>879</ele>
        <time>2009-05-22T12:47:44Z</time>
      </trkpt>
      <trkpt lat="45.85888" lon="2.92112">
        <ele>879</ele>
        <time>2009-05-22T12:47:45Z</time>
      </trkpt>
      <trkpt lat="45.85889" lon="2.92064">
        <ele>879</ele>
        <time>2009-05-22T12:47:53Z</time>
      </trkpt>
      <trkpt lat="45.8589" lon="2.91999">
        <ele>878</ele>
        <time>2009-05-22T12:48:02Z</time>
      </trkpt>
      <trkpt lat="45.8589" lon="2.91977">
        <ele>877</ele>
        <time>2009-05-22T12:48:05Z</time>
      </trkpt>
      <trkpt lat="45.8589" lon="2.91961">
        <ele>876</ele>
        <time>2009-05-22T12:48:07Z</time>
      </trkpt>
      <trkpt lat="45.8589" lon="2.91946">
        <ele>876</ele>
        <time>2009-05-22T12:48:09Z</time>
      </trkpt>
      <trkpt lat="45.8589" lon="2.91923">
        <ele>876</ele>
        <time>2009-05-22T12:48:12Z</time>
      </trkpt>
      <trkpt lat="45.8589" lon="2.91876">
        <ele>875</ele>
        <time>2009-05-22T12:48:18Z</time>
      </trkpt>
      <trkpt lat="45.85887" lon="2.9183">
        <ele>874</ele>
        <time>2009-05-22T12:48:24Z</time>
      </trkpt>
      <trkpt lat="45.85876" lon="2.91803">
        <ele>874</ele>
        <time>2009-05-22T12:48:28Z</time>
      </trkpt>
      <trkpt lat="45.85854" lon="2.91769">
        <ele>874</ele>
        <time>2009-05-22T12:48:34Z</time>
      </trkpt>
      <trkpt lat="45.85816" lon="2.91707">
        <ele>875</ele>
        <time>2009-05-22T12:48:45Z</time>
      </trkpt>
      <trkpt lat="45.85783" lon="2.91662">
        <ele>875</ele>
        <time>2009-05-22T12:48:53Z</time>
      </trkpt>
      <trkpt lat="45.85742" lon="2.91628">
        <ele>875</ele>
        <time>2009-05-22T12:49:00Z</time>
      </trkpt>
      <trkpt lat="45.85716" lon="2.91608">
        <ele>876</ele>
        <time>2009-05-22T12:49:04Z</time>
      </trkpt>
      <trkpt lat="45.85679" lon="2.91579">
        <ele>875</ele>
        <time>2009-05-22T12:49:10Z</time>
      </trkpt>
      <trkpt lat="45.85653" lon="2.9157">
        <ele>874</ele>
        <time>2009-05-22T12:49:14Z</time>
      </trkpt>
      <trkpt lat="45.85646" lon="2.91571">
        <ele>874</ele>
        <time>2009-05-22T12:49:15Z</time>
      </trkpt>
      <trkpt lat="45.85612" lon="2.91579">
        <ele>874</ele>
        <time>2009-05-22T12:49:20Z</time>
      </trkpt>
      <trkpt lat="45.85606" lon="2.9158">
        <ele>874</ele>
        <time>2009-05-22T12:49:21Z</time>
      </trkpt>
      <trkpt lat="45.85588" lon="2.91578">
        <ele>874</ele>
        <time>2009-05-22T12:49:24Z</time>
      </trkpt>
      <trkpt lat="45.85583" lon="2.91576">
        <ele>874</ele>
        <time>2009-05-22T12:49:25Z</time>
      </trkpt>
      <trkpt lat="45.85571" lon="2.91562">
        <ele>874</ele>
        <time>2009-05-22T12:49:29Z</time>
      </trkpt>
      <trkpt lat="45.85565" lon="2.91543">
        <ele>874</ele>
        <time>2009-05-22T12:49:33Z</time>
      </trkpt>
      <trkpt lat="45.85563" lon="2.91539">
        <ele>874</ele>
        <time>2009-05-22T12:49:34Z</time>
      </trkpt>
      <trkpt lat="45.85556" lon="2.91527">
        <ele>874</ele>
        <time>2009-05-22T12:49:37Z</time>
      </trkpt>
      <trkpt lat="45.85545" lon="2.91517">
        <ele>875</ele>
        <time>2009-05-22T12:49:40Z</time>
      </trkpt>
      <trkpt lat="45.85529" lon="2.91513">
        <ele>877</ele>
        <time>2009-05-22T12:49:44Z</time>
      </trkpt>
      <trkpt lat="45.85525" lon="2.91513">
        <ele>878</ele>
        <time>2009-05-22T12:49:45Z</time>
      </trkpt>
      <trkpt lat="45.85506" lon="2.91513">
        <ele>880</ele>
        <time>2009-05-22T12:49:50Z</time>
      </trkpt>
      <trkpt lat="45.8548" lon="2.91514">
        <ele>883</ele>
        <time>2009-05-22T12:49:57Z</time>
      </trkpt>
      <trkpt lat="45.8545" lon="2.91509">
        <ele>885</ele>
        <time>2009-05-22T12:50:06Z</time>
      </trkpt>
      <trkpt lat="45.85441" lon="2.91502">
        <ele>885</ele>
        <time>2009-05-22T12:50:09Z</time>
      </trkpt>
      <trkpt lat="45.85425" lon="2.91512">
        <ele>886</ele>
        <time>2009-05-22T12:50:14Z</time>
      </trkpt>
      <trkpt lat="45.85422" lon="2.91515">
        <ele>886</ele>
        <time>2009-05-22T12:50:15Z</time>
      </trkpt>
      <trkpt lat="45.85397" lon="2.91534">
        <ele>886</ele>
        <time>2009-05-22T12:50:23Z</time>
      </trkpt>
      <trkpt lat="45.85392" lon="2.91541">
        <ele>886</ele>
        <time>2009-05-22T12:50:28Z</time>
      </trkpt>
      <trkpt lat="45.85391" lon="2.91543">
        <ele>886</ele>
        <time>2009-05-22T12:50:31Z</time>
      </trkpt>
      <trkpt lat="45.85388" lon="2.91553">
        <ele>887</ele>
        <time>2009-05-22T12:50:36Z</time>
      </trkpt>
      <trkpt lat="45.85379" lon="2.91582">
        <ele>887</ele>
        <time>2009-05-22T12:50:44Z</time>
      </trkpt>
      <trkpt lat="45.85377" lon="2.91584">
        <ele>887</ele>
        <time>2009-05-22T12:50:45Z</time>
      </trkpt>
      <trkpt lat="45.85363" lon="2.91584">
        <ele>886</ele>
        <time>2009-05-22T12:50:51Z</time>
      </trkpt>
      <trkpt lat="45.85361" lon="2.91582">
        <ele>886</ele>
        <time>2009-05-22T12:50:52Z</time>
      </trkpt>
      <trkpt lat="45.85347" lon="2.91565">
        <ele>886</ele>
        <time>2009-05-22T12:51:00Z</time>
      </trkpt>
      <trkpt lat="45.85347" lon="2.91565">
        <ele>886</ele>
        <time>2009-05-22T12:51:09Z</time>
      </trkpt>
      <trkpt lat="45.85348" lon="2.91565">
        <ele>886</ele>
        <time>2009-05-22T12:51:32Z</time>
      </trkpt>
      <trkpt lat="45.85344" lon="2.9156">
        <ele>886</ele>
        <time>2009-05-22T12:51:40Z</time>
      </trkpt>
      <trkpt lat="45.85335" lon="2.91545">
        <ele>886</ele>
        <time>2009-05-22T12:51:45Z</time>
      </trkpt>
      <trkpt lat="45.85317" lon="2.91505">
        <ele>884</ele>
        <time>2009-05-22T12:51:54Z</time>
      </trkpt>
      <trkpt lat="45.85315" lon="2.915">
        <ele>884</ele>
        <time>2009-05-22T12:51:55Z</time>
      </trkpt>
      <trkpt lat="45.85292" lon="2.91466">
        <ele>884</ele>
        <time>2009-05-22T12:52:03Z</time>
      </trkpt>
      <trkpt lat="45.85285" lon="2.91456">
        <ele>884</ele>
        <time>2009-05-22T12:52:06Z</time>
      </trkpt>
      <trkpt lat="45.85269" lon="2.91429">
        <ele>883</ele>
        <time>2009-05-22T12:52:13Z</time>
      </trkpt>
      <trkpt lat="45.8526" lon="2.91408">
        <ele>883</ele>
        <time>2009-05-22T12:52:17Z</time>
      </trkpt>
      <trkpt lat="45.85256" lon="2.91382">
        <ele>882</ele>
        <time>2009-05-22T12:52:21Z</time>
      </trkpt>
      <trkpt lat="45.85247" lon="2.91354">
        <ele>882</ele>
        <time>2009-05-22T12:52:25Z</time>
      </trkpt>
      <trkpt lat="45.85238" lon="2.91327">
        <ele>881</ele>
        <time>2009-05-22T12:52:29Z</time>
      </trkpt>
      <trkpt lat="45.85231" lon="2.91322">
        <ele>881</ele>
        <time>2009-05-22T12:52:32Z</time>
      </trkpt>
      <trkpt lat="45.85222" lon="2.91331">
        <ele>881</ele>
        <time>2009-05-22T12:52:35Z</time>
      </trkpt>
      <trkpt lat="45.85207" lon="2.91348">
        <ele>882</ele>
        <time>2009-05-22T12:52:40Z</time>
      </trkpt>
      <trkpt lat="45.85195" lon="2.91365">
        <ele>882</ele>
        <time>2009-05-22T12:52:44Z</time>
      </trkpt>
      <trkpt lat="45.85177" lon="2.91387">
        <ele>882</ele>
        <time>2009-05-22T12:52:49Z</time>
      </trkpt>
      <trkpt lat="45.85149" lon="2.91422">
        <ele>882</ele>
        <time>2009-05-22T12:52:56Z</time>
      </trkpt>
      <trkpt lat="45.85124" lon="2.91448">
        <ele>882</ele>
        <time>2009-05-22T12:53:02Z</time>
      </trkpt>
      <trkpt lat="45.85091" lon="2.91472">
        <ele>882</ele>
        <time>2009-05-22T12:53:10Z</time>
      </trkpt>
      <trkpt lat="45.85058" lon="2.91503">
        <ele>882</ele>
        <time>2009-05-22T12:53:19Z</time>
      </trkpt>
      <trkpt lat="45.8505" lon="2.9151">
        <ele>882</ele>
        <time>2009-05-22T12:53:21Z</time>
      </trkpt>
      <trkpt lat="45.85039" lon="2.91529">
        <ele>882</ele>
        <time>2009-05-22T12:53:25Z</time>
      </trkpt>
      <trkpt lat="45.85031" lon="2.91551">
        <ele>883</ele>
        <time>2009-05-22T12:53:29Z</time>
      </trkpt>
      <trkpt lat="45.85016" lon="2.91607">
        <ele>883</ele>
        <time>2009-05-22T12:53:38Z</time>
      </trkpt>
      <trkpt lat="45.85002" lon="2.91662">
        <ele>884</ele>
        <time>2009-05-22T12:53:47Z</time>
      </trkpt>
      <trkpt lat="45.85" lon="2.91668">
        <ele>884</ele>
        <time>2009-05-22T12:53:48Z</time>
      </trkpt>
      <trkpt lat="45.84989" lon="2.91689">
        <ele>884</ele>
        <time>2009-05-22T12:53:52Z</time>
      </trkpt>
      <trkpt lat="45.84959" lon="2.91719">
        <ele>884</ele>
        <time>2009-05-22T12:54:00Z</time>
      </trkpt>
      <trkpt lat="45.84926" lon="2.91758">
        <ele>883</ele>
        <time>2009-05-22T12:54:09Z</time>
      </trkpt>
      <trkpt lat="45.84902" lon="2.91802">
        <ele>883</ele>
        <time>2009-05-22T12:54:17Z</time>
      </trkpt>
      <trkpt lat="45.84897" lon="2.91819">
        <ele>883</ele>
        <time>2009-05-22T12:54:20Z</time>
      </trkpt>
      <trkpt lat="45.84885" lon="2.91877">
        <ele>883</ele>
        <time>2009-05-22T12:54:28Z</time>
      </trkpt>
      <trkpt lat="45.84878" lon="2.91929">
        <ele>882</ele>
        <time>2009-05-22T12:54:35Z</time>
      </trkpt>
      <trkpt lat="45.84877" lon="2.91936">
        <ele>882</ele>
        <time>2009-05-22T12:54:36Z</time>
      </trkpt>
      <trkpt lat="45.84868" lon="2.9196">
        <ele>883</ele>
        <time>2009-05-22T12:54:40Z</time>
      </trkpt>
      <trkpt lat="45.84845" lon="2.92">
        <ele>883</ele>
        <time>2009-05-22T12:54:48Z</time>
      </trkpt>
      <trkpt lat="45.84813" lon="2.92043">
        <ele>884</ele>
        <time>2009-05-22T12:54:57Z</time>
      </trkpt>
      <trkpt lat="45.84787" lon="2.92061">
        <ele>885</ele>
        <time>2009-05-22T12:55:03Z</time>
      </trkpt>
      <trkpt lat="45.8477" lon="2.92072">
        <ele>886</ele>
        <time>2009-05-22T12:55:07Z</time>
      </trkpt>
      <trkpt lat="45.84732" lon="2.92113">
        <ele>888</ele>
        <time>2009-05-22T12:55:17Z</time>
      </trkpt>
      <trkpt lat="45.84699" lon="2.92156">
        <ele>890</ele>
        <time>2009-05-22T12:55:27Z</time>
      </trkpt>
      <trkpt lat="45.84666" lon="2.92201">
        <ele>892</ele>
        <time>2009-05-22T12:55:37Z</time>
      </trkpt>
      <trkpt lat="45.84643" lon="2.92242">
        <ele>893</ele>
        <time>2009-05-22T12:55:45Z</time>
      </trkpt>
      <trkpt lat="45.84617" lon="2.92291">
        <ele>893</ele>
        <time>2009-05-22T12:55:54Z</time>
      </trkpt>
      <trkpt lat="45.84587" lon="2.92348">
        <ele>892</ele>
        <time>2009-05-22T12:56:04Z</time>
      </trkpt>
      <trkpt lat="45.84564" lon="2.92384">
        <ele>891</ele>
        <time>2009-05-22T12:56:10Z</time>
      </trkpt>
      <trkpt lat="45.84534" lon="2.92424">
        <ele>890</ele>
        <time>2009-05-22T12:56:17Z</time>
      </trkpt>
      <trkpt lat="45.84511" lon="2.92459">
        <ele>888</ele>
        <time>2009-05-22T12:56:22Z</time>
      </trkpt>
      <trkpt lat="45.84494" lon="2.92486">
        <ele>887</ele>
        <time>2009-05-22T12:56:25Z</time>
      </trkpt>
      <trkpt lat="45.84455" lon="2.92527">
        <ele>883</ele>
        <time>2009-05-22T12:56:30Z</time>
      </trkpt>
      <trkpt lat="45.8443" lon="2.92547">
        <ele>882</ele>
        <time>2009-05-22T12:56:33Z</time>
      </trkpt>
      <trkpt lat="45.84395" lon="2.92555">
        <ele>879</ele>
        <time>2009-05-22T12:56:37Z</time>
      </trkpt>
      <trkpt lat="45.8437" lon="2.92547">
        <ele>877</ele>
        <time>2009-05-22T12:56:40Z</time>
      </trkpt>
      <trkpt lat="45.84324" lon="2.92525">
        <ele>878</ele>
        <time>2009-05-22T12:56:46Z</time>
      </trkpt>
      <trkpt lat="45.84317" lon="2.92523">
        <ele>878</ele>
        <time>2009-05-22T12:56:47Z</time>
      </trkpt>
      <trkpt lat="45.84293" lon="2.92531">
        <ele>879</ele>
        <time>2009-05-22T12:56:51Z</time>
      </trkpt>
      <trkpt lat="45.84288" lon="2.92538">
        <ele>879</ele>
        <time>2009-05-22T12:56:52Z</time>
      </trkpt>
      <trkpt lat="45.84251" lon="2.92601">
        <ele>879</ele>
        <time>2009-05-22T12:57:00Z</time>
      </trkpt>
      <trkpt lat="45.84225" lon="2.92644">
        <ele>880</ele>
        <time>2009-05-22T12:57:06Z</time>
      </trkpt>
      <trkpt lat="45.84188" lon="2.92706">
        <ele>883</ele>
        <time>2009-05-22T12:57:16Z</time>
      </trkpt>
      <trkpt lat="45.84165" lon="2.92744">
        <ele>885</ele>
        <time>2009-05-22T12:57:23Z</time>
      </trkpt>
      <trkpt lat="45.84162" lon="2.92748">
        <ele>885</ele>
        <time>2009-05-22T12:57:24Z</time>
      </trkpt>
      <trkpt lat="45.8415" lon="2.92758">
        <ele>886</ele>
        <time>2009-05-22T12:57:27Z</time>
      </trkpt>
      <trkpt lat="45.84146" lon="2.92759">
        <ele>886</ele>
        <time>2009-05-22T12:57:28Z</time>
      </trkpt>
      <trkpt lat="45.84116" lon="2.92775">
        <ele>887</ele>
        <time>2009-05-22T12:57:36Z</time>
      </trkpt>
      <trkpt lat="45.84108" lon="2.92801">
        <ele>888</ele>
        <time>2009-05-22T12:57:41Z</time>
      </trkpt>
      <trkpt lat="45.84104" lon="2.92839">
        <ele>890</ele>
        <time>2009-05-22T12:57:48Z</time>
      </trkpt>
      <trkpt lat="45.84106" lon="2.92887">
        <ele>893</ele>
        <time>2009-05-22T12:57:58Z</time>
      </trkpt>
      <trkpt lat="45.84114" lon="2.92917">
        <ele>895</ele>
        <time>2009-05-22T12:58:06Z</time>
      </trkpt>
      <trkpt lat="45.84125" lon="2.92955">
        <ele>897</ele>
        <time>2009-05-22T12:58:16Z</time>
      </trkpt>
      <trkpt lat="45.84125" lon="2.92971">
        <ele>898</ele>
        <time>2009-05-22T12:58:20Z</time>
      </trkpt>
      <trkpt lat="45.84111" lon="2.92979">
        <ele>899</ele>
        <time>2009-05-22T12:58:25Z</time>
      </trkpt>
      <trkpt lat="45.84108" lon="2.92979">
        <ele>899</ele>
        <time>2009-05-22T12:58:26Z</time>
      </trkpt>
      <trkpt lat="45.84083" lon="2.92987">
        <ele>900</ele>
        <time>2009-05-22T12:58:34Z</time>
      </trkpt>
      <trkpt lat="45.84058" lon="2.92997">
        <ele>901</ele>
        <time>2009-05-22T12:58:43Z</time>
      </trkpt>
      <trkpt lat="45.84038" lon="2.93005">
        <ele>902</ele>
        <time>2009-05-22T12:58:50Z</time>
      </trkpt>
      <trkpt lat="45.84016" lon="2.93011">
        <ele>903</ele>
        <time>2009-05-22T12:58:57Z</time>
      </trkpt>
      <trkpt lat="45.83985" lon="2.93018">
        <ele>904</ele>
        <time>2009-05-22T12:59:07Z</time>
      </trkpt>
      <trkpt lat="45.83971" lon="2.93021">
        <ele>904</ele>
        <time>2009-05-22T12:59:13Z</time>
      </trkpt>
      <trkpt lat="45.83954" lon="2.93027">
        <ele>905</ele>
        <time>2009-05-22T12:59:21Z</time>
      </trkpt>
      <trkpt lat="45.83942" lon="2.93035">
        <ele>906</ele>
        <time>2009-05-22T12:59:27Z</time>
      </trkpt>
      <trkpt lat="45.83928" lon="2.9304">
        <ele>907</ele>
        <time>2009-05-22T12:59:33Z</time>
      </trkpt>
      <trkpt lat="45.83909" lon="2.93049">
        <ele>907</ele>
        <time>2009-05-22T12:59:41Z</time>
      </trkpt>
      <trkpt lat="45.8389" lon="2.93056">
        <ele>908</ele>
        <time>2009-05-22T12:59:50Z</time>
      </trkpt>
      <trkpt lat="45.83868" lon="2.93063">
        <ele>909</ele>
        <time>2009-05-22T12:59:59Z</time>
      </trkpt>
      <trkpt lat="45.83852" lon="2.9307">
        <ele>910</ele>
        <time>2009-05-22T13:00:06Z</time>
      </trkpt>
      <trkpt lat="45.83835" lon="2.93081">
        <ele>911</ele>
        <time>2009-05-22T13:00:14Z</time>
      </trkpt>
      <trkpt lat="45.83821" lon="2.93093">
        <ele>911</ele>
        <time>2009-05-22T13:00:22Z</time>
      </trkpt>
      <trkpt lat="45.83812" lon="2.93106">
        <ele>912</ele>
        <time>2009-05-22T13:00:27Z</time>
      </trkpt>
      <trkpt lat="45.838" lon="2.93132">
        <ele>913</ele>
        <time>2009-05-22T13:00:35Z</time>
      </trkpt>
      <trkpt lat="45.83789" lon="2.93165">
        <ele>913</ele>
        <time>2009-05-22T13:00:44Z</time>
      </trkpt>
      <trkpt lat="45.83784" lon="2.93189">
        <ele>913</ele>
        <time>2009-05-22T13:00:51Z</time>
      </trkpt>
      <trkpt lat="45.8378" lon="2.93215">
        <ele>913</ele>
        <time>2009-05-22T13:00:57Z</time>
      </trkpt>
      <trkpt lat="45.83771" lon="2.93262">
        <ele>913</ele>
        <time>2009-05-22T13:01:05Z</time>
      </trkpt>
      <trkpt lat="45.83764" lon="2.93292">
        <ele>913</ele>
        <time>2009-05-22T13:01:10Z</time>
      </trkpt>
      <trkpt lat="45.83748" lon="2.93323">
        <ele>914</ele>
        <time>2009-05-22T13:01:17Z</time>
      </trkpt>
      <trkpt lat="45.83729" lon="2.93346">
        <ele>915</ele>
        <time>2009-05-22T13:01:25Z</time>
      </trkpt>
      <trkpt lat="45.83712" lon="2.93373">
        <ele>916</ele>
        <time>2009-05-22T13:01:34Z</time>
      </trkpt>
      <trkpt lat="45.83707" lon="2.9339">
        <ele>917</ele>
        <time>2009-05-22T13:01:41Z</time>
      </trkpt>
      <trkpt lat="45.837" lon="2.9341">
        <ele>918</ele>
        <time>2009-05-22T13:01:49Z</time>
      </trkpt>
      <trkpt lat="45.83693" lon="2.93423">
        <ele>919</ele>
        <time>2009-05-22T13:01:55Z</time>
      </trkpt>
      <trkpt lat="45.83691" lon="2.93424">
        <ele>920</ele>
        <time>2009-05-22T13:01:56Z</time>
      </trkpt>
      <trkpt lat="45.83685" lon="2.93429">
        <ele>920</ele>
        <time>2009-05-22T13:02:00Z</time>
      </trkpt>
      <trkpt lat="45.83672" lon="2.9344">
        <ele>921</ele>
        <time>2009-05-22T13:02:07Z</time>
      </trkpt>
      <trkpt lat="45.83656" lon="2.93456">
        <ele>923</ele>
        <time>2009-05-22T13:02:16Z</time>
      </trkpt>
      <trkpt lat="45.83635" lon="2.93481">
        <ele>927</ele>
        <time>2009-05-22T13:02:27Z</time>
      </trkpt>
      <trkpt lat="45.83616" lon="2.93506">
        <ele>928</ele>
        <time>2009-05-22T13:02:37Z</time>
      </trkpt>
      <trkpt lat="45.836" lon="2.93534">
        <ele>930</ele>
        <time>2009-05-22T13:02:47Z</time>
      </trkpt>
      <trkpt lat="45.8359" lon="2.93567">
        <ele>930</ele>
        <time>2009-05-22T13:02:57Z</time>
      </trkpt>
      <trkpt lat="45.83582" lon="2.9359">
        <ele>930</ele>
        <time>2009-05-22T13:03:04Z</time>
      </trkpt>
      <trkpt lat="45.83573" lon="2.93616">
        <ele>930</ele>
        <time>2009-05-22T13:03:11Z</time>
      </trkpt>
      <trkpt lat="45.83562" lon="2.93647">
        <ele>930</ele>
        <time>2009-05-22T13:03:18Z</time>
      </trkpt>
      <trkpt lat="45.83552" lon="2.9367">
        <ele>930</ele>
        <time>2009-05-22T13:03:24Z</time>
      </trkpt>
      <trkpt lat="45.83548" lon="2.93688">
        <ele>930</ele>
        <time>2009-05-22T13:03:29Z</time>
      </trkpt>
      <trkpt lat="45.8354" lon="2.93713">
        <ele>930</ele>
        <time>2009-05-22T13:03:34Z</time>
      </trkpt>
      <trkpt lat="45.83531" lon="2.93732">
        <ele>930</ele>
        <time>2009-05-22T13:03:38Z</time>
      </trkpt>
      <trkpt lat="45.83519" lon="2.93764">
        <ele>930</ele>
        <time>2009-05-22T13:03:45Z</time>
      </trkpt>
      <trkpt lat="45.83508" lon="2.93786">
        <ele>930</ele>
        <time>2009-05-22T13:03:50Z</time>
      </trkpt>
      <trkpt lat="45.83496" lon="2.93812">
        <ele>931</ele>
        <time>2009-05-22T13:03:56Z</time>
      </trkpt>
      <trkpt lat="45.83482" lon="2.93839">
        <ele>931</ele>
        <time>2009-05-22T13:04:03Z</time>
      </trkpt>
      <trkpt lat="45.83469" lon="2.93864">
        <ele>932</ele>
        <time>2009-05-22T13:04:10Z</time>
      </trkpt>
      <trkpt lat="45.83457" lon="2.9388">
        <ele>933</ele>
        <time>2009-05-22T13:04:15Z</time>
      </trkpt>
      <trkpt lat="45.83437" lon="2.93901">
        <ele>934</ele>
        <time>2009-05-22T13:04:24Z</time>
      </trkpt>
      <trkpt lat="45.83419" lon="2.93916">
        <ele>936</ele>
        <time>2009-05-22T13:04:32Z</time>
      </trkpt>
      <trkpt lat="45.83407" lon="2.9392">
        <ele>936</ele>
        <time>2009-05-22T13:04:38Z</time>
      </trkpt>
      <trkpt lat="45.83399" lon="2.9392">
        <ele>937</ele>
        <time>2009-05-22T13:04:43Z</time>
      </trkpt>
      <trkpt lat="45.83387" lon="2.9392">
        <ele>938</ele>
        <time>2009-05-22T13:04:50Z</time>
      </trkpt>
      <trkpt lat="45.83371" lon="2.93918">
        <ele>939</ele>
        <time>2009-05-22T13:04:59Z</time>
      </trkpt>
      <trkpt lat="45.83355" lon="2.93918">
        <ele>941</ele>
        <time>2009-05-22T13:05:07Z</time>
      </trkpt>
      <trkpt lat="45.83345" lon="2.93919">
        <ele>942</ele>
        <time>2009-05-22T13:05:13Z</time>
      </trkpt>
      <trkpt lat="45.83329" lon="2.93927">
        <ele>946</ele>
        <time>2009-05-22T13:05:21Z</time>
      </trkpt>
      <trkpt lat="45.83312" lon="2.93941">
        <ele>948</ele>
        <time>2009-05-22T13:05:29Z</time>
      </trkpt>
      <trkpt lat="45.8331" lon="2.93943">
        <ele>949</ele>
        <time>2009-05-22T13:05:30Z</time>
      </trkpt>
      <trkpt lat="45.83292" lon="2.93962">
        <ele>951</ele>
        <time>2009-05-22T13:05:38Z</time>
      </trkpt>
      <trkpt lat="45.83273" lon="2.9398">
        <ele>953</ele>
        <time>2009-05-22T13:05:47Z</time>
      </trkpt>
      <trkpt lat="45.8325" lon="2.94005">
        <ele>954</ele>
        <time>2009-05-22T13:05:57Z</time>
      </trkpt>
      <trkpt lat="45.83232" lon="2.94027">
        <ele>954</ele>
        <time>2009-05-22T13:06:05Z</time>
      </trkpt>
      <trkpt lat="45.83212" lon="2.94051">
        <ele>954</ele>
        <time>2009-05-22T13:06:14Z</time>
      </trkpt>
      <trkpt lat="45.8321" lon="2.94054">
        <ele>954</ele>
        <time>2009-05-22T13:06:15Z</time>
      </trkpt>
      <trkpt lat="45.83187" lon="2.94081">
        <ele>955</ele>
        <time>2009-05-22T13:06:25Z</time>
      </trkpt>
      <trkpt lat="45.83158" lon="2.94117">
        <ele>957</ele>
        <time>2009-05-22T13:06:38Z</time>
      </trkpt>
      <trkpt lat="45.83132" lon="2.94151">
        <ele>958</ele>
        <time>2009-05-22T13:06:49Z</time>
      </trkpt>
      <trkpt lat="45.8311" lon="2.94182">
        <ele>959</ele>
        <time>2009-05-22T13:06:59Z</time>
      </trkpt>
      <trkpt lat="45.83088" lon="2.9421">
        <ele>960</ele>
        <time>2009-05-22T13:07:08Z</time>
      </trkpt>
      <trkpt lat="45.83065" lon="2.9424">
        <ele>962</ele>
        <time>2009-05-22T13:07:18Z</time>
      </trkpt>
      <trkpt lat="45.8304" lon="2.94267">
        <ele>964</ele>
        <time>2009-05-22T13:07:28Z</time>
      </trkpt>
      <trkpt lat="45.83005" lon="2.94295">
        <ele>966</ele>
        <time>2009-05-22T13:07:41Z</time>
      </trkpt>
      <trkpt lat="45.82983" lon="2.94312">
        <ele>967</ele>
        <time>2009-05-22T13:07:49Z</time>
      </trkpt>
      <trkpt lat="45.82956" lon="2.94329">
        <ele>968</ele>
        <time>2009-05-22T13:07:58Z</time>
      </trkpt>
      <trkpt lat="45.82931" lon="2.94346">
        <ele>970</ele>
        <time>2009-05-22T13:08:07Z</time>
      </trkpt>
      <trkpt lat="45.82915" lon="2.94356">
        <ele>971</ele>
        <time>2009-05-22T13:08:13Z</time>
      </trkpt>
      <trkpt lat="45.82895" lon="2.94367">
        <ele>972</ele>
        <time>2009-05-22T13:08:20Z</time>
      </trkpt>
      <trkpt lat="45.82873" lon="2.94376">
        <ele>973</ele>
        <time>2009-05-22T13:08:28Z</time>
      </trkpt>
      <trkpt lat="45.8285" lon="2.9438">
        <ele>974</ele>
        <time>2009-05-22T13:08:36Z</time>
      </trkpt>
      <trkpt lat="45.82824" lon="2.94381">
        <ele>974</ele>
        <time>2009-05-22T13:08:45Z</time>
      </trkpt>
      <trkpt lat="45.82803" lon="2.94391">
        <ele>976</ele>
        <time>2009-05-22T13:08:53Z</time>
      </trkpt>
      <trkpt lat="45.8278" lon="2.94405">
        <ele>977</ele>
        <time>2009-05-22T13:09:02Z</time>
      </trkpt>
      <trkpt lat="45.82759" lon="2.94414">
        <ele>978</ele>
        <time>2009-05-22T13:09:10Z</time>
      </trkpt>
      <trkpt lat="45.82734" lon="2.94426">
        <ele>980</ele>
        <time>2009-05-22T13:09:20Z</time>
      </trkpt>
      <trkpt lat="45.82724" lon="2.94437">
        <ele>981</ele>
        <time>2009-05-22T13:09:25Z</time>
      </trkpt>
      <trkpt lat="45.82721" lon="2.94449">
        <ele>982</ele>
        <time>2009-05-22T13:09:29Z</time>
      </trkpt>
      <trkpt lat="45.82727" lon="2.94459">
        <ele>983</ele>
        <time>2009-05-22T13:09:34Z</time>
      </trkpt>
      <trkpt lat="45.82733" lon="2.94463">
        <ele>983</ele>
        <time>2009-05-22T13:09:38Z</time>
      </trkpt>
      <trkpt lat="45.82746" lon="2.94467">
        <ele>982</ele>
        <time>2009-05-22T13:09:44Z</time>
      </trkpt>
      <trkpt lat="45.8277" lon="2.94476">
        <ele>981</ele>
        <time>2009-05-22T13:09:52Z</time>
      </trkpt>
      <trkpt lat="45.82805" lon="2.9449">
        <ele>979</ele>
        <time>2009-05-22T13:10:02Z</time>
      </trkpt>
      <trkpt lat="45.82826" lon="2.94498">
        <ele>978</ele>
        <time>2009-05-22T13:10:09Z</time>
      </trkpt>
      <trkpt lat="45.82851" lon="2.94503">
        <ele>977</ele>
        <time>2009-05-22T13:10:16Z</time>
      </trkpt>
      <trkpt lat="45.8287" lon="2.94505">
        <ele>976</ele>
        <time>2009-05-22T13:10:21Z</time>
      </trkpt>
      <trkpt lat="45.82878" lon="2.94505">
        <ele>976</ele>
        <time>2009-05-22T13:10:23Z</time>
      </trkpt>
      <trkpt lat="45.82882" lon="2.94505">
        <ele>976</ele>
        <time>2009-05-22T13:10:24Z</time>
      </trkpt>
      <trkpt lat="45.82922" lon="2.94512">
        <ele>975</ele>
        <time>2009-05-22T13:10:33Z</time>
      </trkpt>
      <trkpt lat="45.82961" lon="2.94518">
        <ele>975</ele>
        <time>2009-05-22T13:10:41Z</time>
      </trkpt>
      <trkpt lat="45.82997" lon="2.94523">
        <ele>974</ele>
        <time>2009-05-22T13:10:48Z</time>
      </trkpt>
      <trkpt lat="45.8305" lon="2.9454">
        <ele>972</ele>
        <time>2009-05-22T13:10:59Z</time>
      </trkpt>
      <trkpt lat="45.83092" lon="2.94553">
        <ele>971</ele>
        <time>2009-05-22T13:11:07Z</time>
      </trkpt>
      <trkpt lat="45.83139" lon="2.94567">
        <ele>968</ele>
        <time>2009-05-22T13:11:15Z</time>
      </trkpt>
      <trkpt lat="45.83192" lon="2.94582">
        <ele>965</ele>
        <time>2009-05-22T13:11:23Z</time>
      </trkpt>
      <trkpt lat="45.83213" lon="2.94589">
        <ele>965</ele>
        <time>2009-05-22T13:11:26Z</time>
      </trkpt>
      <trkpt lat="45.83242" lon="2.94597">
        <ele>964</ele>
        <time>2009-05-22T13:11:30Z</time>
      </trkpt>
      <trkpt lat="45.8325" lon="2.94599">
        <ele>964</ele>
        <time>2009-05-22T13:11:31Z</time>
      </trkpt>
      <trkpt lat="45.83257" lon="2.94599">
        <ele>963</ele>
        <time>2009-05-22T13:11:32Z</time>
      </trkpt>
      <trkpt lat="45.83288" lon="2.94595">
        <ele>962</ele>
        <time>2009-05-22T13:11:36Z</time>
      </trkpt>
      <trkpt lat="45.83321" lon="2.94585">
        <ele>961</ele>
        <time>2009-05-22T13:11:41Z</time>
      </trkpt>
      <trkpt lat="45.83331" lon="2.94596">
        <ele>961</ele>
        <time>2009-05-22T13:11:45Z</time>
      </trkpt>
      <trkpt lat="45.8333" lon="2.94605">
        <ele>961</ele>
        <time>2009-05-22T13:11:47Z</time>
      </trkpt>
      <trkpt lat="45.83326" lon="2.94626">
        <ele>962</ele>
        <time>2009-05-22T13:11:52Z</time>
      </trkpt>
      <trkpt lat="45.83325" lon="2.94647">
        <ele>963</ele>
        <time>2009-05-22T13:11:57Z</time>
      </trkpt>
      <trkpt lat="45.83324" lon="2.94666">
        <ele>963</ele>
        <time>2009-05-22T13:12:02Z</time>
      </trkpt>
      <trkpt lat="45.83323" lon="2.94688">
        <ele>964</ele>
        <time>2009-05-22T13:12:08Z</time>
      </trkpt>
      <trkpt lat="45.83323" lon="2.94715">
        <ele>965</ele>
        <time>2009-05-22T13:12:14Z</time>
      </trkpt>
      <trkpt lat="45.83324" lon="2.94742">
        <ele>966</ele>
        <time>2009-05-22T13:12:20Z</time>
      </trkpt>
      <trkpt lat="45.83323" lon="2.94768">
        <ele>968</ele>
        <time>2009-05-22T13:12:26Z</time>
      </trkpt>
      <trkpt lat="45.83321" lon="2.94792">
        <ele>969</ele>
        <time>2009-05-22T13:12:32Z</time>
      </trkpt>
      <trkpt lat="45.8332" lon="2.94806">
        <ele>970</ele>
        <time>2009-05-22T13:12:36Z</time>
      </trkpt>
      <trkpt lat="45.83317" lon="2.94828">
        <ele>971</ele>
        <time>2009-05-22T13:12:42Z</time>
      </trkpt>
      <trkpt lat="45.83315" lon="2.9485">
        <ele>973</ele>
        <time>2009-05-22T13:12:49Z</time>
      </trkpt>
      <trkpt lat="45.83315" lon="2.94865">
        <ele>974</ele>
        <time>2009-05-22T13:12:55Z</time>
      </trkpt>
      <trkpt lat="45.83311" lon="2.94877">
        <ele>975</ele>
        <time>2009-05-22T13:13:00Z</time>
      </trkpt>
      <trkpt lat="45.83308" lon="2.94895">
        <ele>976</ele>
        <time>2009-05-22T13:13:07Z</time>
      </trkpt>
      <trkpt lat="45.83305" lon="2.94912">
        <ele>977</ele>
        <time>2009-05-22T13:13:13Z</time>
      </trkpt>
      <trkpt lat="45.83302" lon="2.9493">
        <ele>978</ele>
        <time>2009-05-22T13:13:19Z</time>
      </trkpt>
      <trkpt lat="45.83295" lon="2.94963">
        <ele>980</ele>
        <time>2009-05-22T13:13:29Z</time>
      </trkpt>
      <trkpt lat="45.83292" lon="2.9498">
        <ele>981</ele>
        <time>2009-05-22T13:13:35Z</time>
      </trkpt>
      <trkpt lat="45.8329" lon="2.94997">
        <ele>982</ele>
        <time>2009-05-22T13:13:41Z</time>
      </trkpt>
      <trkpt lat="45.83288" lon="2.95017">
        <ele>983</ele>
        <time>2009-05-22T13:13:47Z</time>
      </trkpt>
      <trkpt lat="45.83286" lon="2.95034">
        <ele>984</ele>
        <time>2009-05-22T13:13:51Z</time>
      </trkpt>
      <trkpt lat="45.83283" lon="2.95057">
        <ele>986</ele>
        <time>2009-05-22T13:13:57Z</time>
      </trkpt>
      <trkpt lat="45.83283" lon="2.95074">
        <ele>987</ele>
        <time>2009-05-22T13:14:01Z</time>
      </trkpt>
      <trkpt lat="45.8328" lon="2.95098">
        <ele>988</ele>
        <time>2009-05-22T13:14:07Z</time>
      </trkpt>
      <trkpt lat="45.83277" lon="2.95124">
        <ele>990</ele>
        <time>2009-05-22T13:14:14Z</time>
      </trkpt>
      <trkpt lat="45.83272" lon="2.95149">
        <ele>992</ele>
        <time>2009-05-22T13:14:21Z</time>
      </trkpt>
      <trkpt lat="45.83266" lon="2.95165">
        <ele>993</ele>
        <time>2009-05-22T13:14:27Z</time>
      </trkpt>
      <trkpt lat="45.83261" lon="2.95177">
        <ele>994</ele>
        <time>2009-05-22T13:14:32Z</time>
      </trkpt>
      <trkpt lat="45.83259" lon="2.9519">
        <ele>994</ele>
        <time>2009-05-22T13:14:39Z</time>
      </trkpt>
      <trkpt lat="45.83254" lon="2.95203">
        <ele>995</ele>
        <time>2009-05-22T13:14:45Z</time>
      </trkpt>
      <trkpt lat="45.83247" lon="2.9522">
        <ele>996</ele>
        <time>2009-05-22T13:14:52Z</time>
      </trkpt>
      <trkpt lat="45.83239" lon="2.95237">
        <ele>997</ele>
        <time>2009-05-22T13:14:59Z</time>
      </trkpt>
      <trkpt lat="45.83234" lon="2.9525">
        <ele>997</ele>
        <time>2009-05-22T13:15:05Z</time>
      </trkpt>
      <trkpt lat="45.83232" lon="2.95267">
        <ele>998</ele>
        <time>2009-05-22T13:15:11Z</time>
      </trkpt>
      <trkpt lat="45.83224" lon="2.9529">
        <ele>1000</ele>
        <time>2009-05-22T13:15:21Z</time>
      </trkpt>
      <trkpt lat="45.83221" lon="2.95305">
        <ele>1002</ele>
        <time>2009-05-22T13:15:27Z</time>
      </trkpt>
      <trkpt lat="45.8322" lon="2.9531">
        <ele>1003</ele>
        <time>2009-05-22T13:15:29Z</time>
      </trkpt>
      <trkpt lat="45.83219" lon="2.95324">
        <ele>1005</ele>
        <time>2009-05-22T13:15:36Z</time>
      </trkpt>
      <trkpt lat="45.83214" lon="2.95342">
        <ele>1007</ele>
        <time>2009-05-22T13:15:44Z</time>
      </trkpt>
      <trkpt lat="45.83209" lon="2.95356">
        <ele>1010</ele>
        <time>2009-05-22T13:15:52Z</time>
      </trkpt>
      <trkpt lat="45.83207" lon="2.95367">
        <ele>1012</ele>
        <time>2009-05-22T13:15:58Z</time>
      </trkpt>
      <trkpt lat="45.83201" lon="2.95379">
        <ele>1014</ele>
        <time>2009-05-22T13:16:05Z</time>
      </trkpt>
      <trkpt lat="45.83196" lon="2.95387">
        <ele>1015</ele>
        <time>2009-05-22T13:16:10Z</time>
      </trkpt>
      <trkpt lat="45.83186" lon="2.95399">
        <ele>1016</ele>
        <time>2009-05-22T13:16:18Z</time>
      </trkpt>
      <trkpt lat="45.83182" lon="2.95408">
        <ele>1018</ele>
        <time>2009-05-22T13:16:24Z</time>
      </trkpt>
      <trkpt lat="45.83178" lon="2.95417">
        <ele>1018</ele>
        <time>2009-05-22T13:16:30Z</time>
      </trkpt>
      <trkpt lat="45.83174" lon="2.95427">
        <ele>1020</ele>
        <time>2009-05-22T13:16:36Z</time>
      </trkpt>
      <trkpt lat="45.83166" lon="2.95439">
        <ele>1021</ele>
        <time>2009-05-22T13:16:42Z</time>
      </trkpt>
      <trkpt lat="45.8316" lon="2.95449">
        <ele>1022</ele>
        <time>2009-05-22T13:16:48Z</time>
      </trkpt>
      <trkpt lat="45.83151" lon="2.95459">
        <ele>1022</ele>
        <time>2009-05-22T13:16:54Z</time>
      </trkpt>
      <trkpt lat="45.8314" lon="2.95474">
        <ele>1022</ele>
        <time>2009-05-22T13:17:01Z</time>
      </trkpt>
      <trkpt lat="45.83132" lon="2.9549">
        <ele>1021</ele>
        <time>2009-05-22T13:17:08Z</time>
      </trkpt>
      <trkpt lat="45.83125" lon="2.95505">
        <ele>1020</ele>
        <time>2009-05-22T13:17:15Z</time>
      </trkpt>
      <trkpt lat="45.83115" lon="2.95525">
        <ele>1020</ele>
        <time>2009-05-22T13:17:24Z</time>
      </trkpt>
      <trkpt lat="45.83111" lon="2.95537">
        <ele>1019</ele>
        <time>2009-05-22T13:17:30Z</time>
      </trkpt>
      <trkpt lat="45.83111" lon="2.95541">
        <ele>1019</ele>
        <time>2009-05-22T13:17:35Z</time>
      </trkpt>
      <trkpt lat="45.83111" lon="2.95545">
        <ele>1019</ele>
        <time>2009-05-22T13:17:46Z</time>
      </trkpt>
      <trkpt lat="45.8311" lon="2.95546">
        <ele>1019</ele>
        <time>2009-05-22T13:17:50Z</time>
      </trkpt>
      <trkpt lat="45.8311" lon="2.95546">
        <ele>1019</ele>
        <time>2009-05-22T13:17:55Z</time>
      </trkpt>
      <trkpt lat="45.8311" lon="2.9555">
        <ele>1019</ele>
        <time>2009-05-22T13:18:13Z</time>
      </trkpt>
      <trkpt lat="45.83113" lon="2.95563">
        <ele>1019</ele>
        <time>2009-05-22T13:18:18Z</time>
      </trkpt>
      <trkpt lat="45.83116" lon="2.95591">
        <ele>1018</ele>
        <time>2009-05-22T13:18:26Z</time>
      </trkpt>
      <trkpt lat="45.83117" lon="2.95615">
        <ele>1017</ele>
        <time>2009-05-22T13:18:31Z</time>
      </trkpt>
      <trkpt lat="45.83117" lon="2.95638">
        <ele>1016</ele>
        <time>2009-05-22T13:18:36Z</time>
      </trkpt>
      <trkpt lat="45.83114" lon="2.95669">
        <ele>1014</ele>
        <time>2009-05-22T13:18:41Z</time>
      </trkpt>
      <trkpt lat="45.83108" lon="2.95704">
        <ele>1012</ele>
        <time>2009-05-22T13:18:47Z</time>
      </trkpt>
      <trkpt lat="45.83107" lon="2.95709">
        <ele>1012</ele>
        <time>2009-05-22T13:18:48Z</time>
      </trkpt>
      <trkpt lat="45.83106" lon="2.95716">
        <ele>1012</ele>
        <time>2009-05-22T13:18:49Z</time>
      </trkpt>
      <trkpt lat="45.83102" lon="2.95728">
        <ele>1012</ele>
        <time>2009-05-22T13:18:51Z</time>
      </trkpt>
      <trkpt lat="45.83099" lon="2.95741">
        <ele>1011</ele>
        <time>2009-05-22T13:18:53Z</time>
      </trkpt>
      <trkpt lat="45.83082" lon="2.95782">
        <ele>1010</ele>
        <time>2009-05-22T13:19:00Z</time>
      </trkpt>
      <trkpt lat="45.83065" lon="2.9581">
        <ele>1008</ele>
        <time>2009-05-22T13:19:05Z</time>
      </trkpt>
      <trkpt lat="45.83034" lon="2.95839">
        <ele>1007</ele>
        <time>2009-05-22T13:19:12Z</time>
      </trkpt>
      <trkpt lat="45.83015" lon="2.95867">
        <ele>1006</ele>
        <time>2009-05-22T13:19:18Z</time>
      </trkpt>
      <trkpt lat="45.83012" lon="2.95873">
        <ele>1006</ele>
        <time>2009-05-22T13:19:19Z</time>
      </trkpt>
      <trkpt lat="45.83008" lon="2.95884">
        <ele>1005</ele>
        <time>2009-05-22T13:19:21Z</time>
      </trkpt>
      <trkpt lat="45.82998" lon="2.95909">
        <ele>1004</ele>
        <time>2009-05-22T13:19:25Z</time>
      </trkpt>
      <trkpt lat="45.82985" lon="2.95934">
        <ele>1001</ele>
        <time>2009-05-22T13:19:29Z</time>
      </trkpt>
      <trkpt lat="45.82972" lon="2.95952">
        <ele>999</ele>
        <time>2009-05-22T13:19:32Z</time>
      </trkpt>
      <trkpt lat="45.82949" lon="2.95987">
        <ele>994</ele>
        <time>2009-05-22T13:19:37Z</time>
      </trkpt>
      <trkpt lat="45.82944" lon="2.95994">
        <ele>994</ele>
        <time>2009-05-22T13:19:38Z</time>
      </trkpt>
      <trkpt lat="45.82918" lon="2.96029">
        <ele>990</ele>
        <time>2009-05-22T13:19:43Z</time>
      </trkpt>
      <trkpt lat="45.82896" lon="2.96057">
        <ele>986</ele>
        <time>2009-05-22T13:19:46Z</time>
      </trkpt>
      <trkpt lat="45.82861" lon="2.96081">
        <ele>983</ele>
        <time>2009-05-22T13:19:50Z</time>
      </trkpt>
      <trkpt lat="45.82853" lon="2.96086">
        <ele>983</ele>
        <time>2009-05-22T13:19:51Z</time>
      </trkpt>
      <trkpt lat="45.82835" lon="2.961">
        <ele>982</ele>
        <time>2009-05-22T13:19:53Z</time>
      </trkpt>
      <trkpt lat="45.82801" lon="2.96126">
        <ele>981</ele>
        <time>2009-05-22T13:19:57Z</time>
      </trkpt>
      <trkpt lat="45.82771" lon="2.96142">
        <ele>981</ele>
        <time>2009-05-22T13:20:01Z</time>
      </trkpt>
      <trkpt lat="45.82732" lon="2.96168">
        <ele>981</ele>
        <time>2009-05-22T13:20:07Z</time>
      </trkpt>
      <trkpt lat="45.82693" lon="2.9618">
        <ele>981</ele>
        <time>2009-05-22T13:20:13Z</time>
      </trkpt>
      <trkpt lat="45.82643" lon="2.96178">
        <ele>980</ele>
        <time>2009-05-22T13:20:20Z</time>
      </trkpt>
      <trkpt lat="45.82611" lon="2.96183">
        <ele>978</ele>
        <time>2009-05-22T13:20:24Z</time>
      </trkpt>
      <trkpt lat="45.82567" lon="2.96215">
        <ele>972</ele>
        <time>2009-05-22T13:20:29Z</time>
      </trkpt>
      <trkpt lat="45.82531" lon="2.96242">
        <ele>969</ele>
        <time>2009-05-22T13:20:33Z</time>
      </trkpt>
      <trkpt lat="45.82481" lon="2.96284">
        <ele>968</ele>
        <time>2009-05-22T13:20:39Z</time>
      </trkpt>
      <trkpt lat="45.82459" lon="2.96305">
        <ele>969</ele>
        <time>2009-05-22T13:20:42Z</time>
      </trkpt>
      <trkpt lat="45.82444" lon="2.96315">
        <ele>970</ele>
        <time>2009-05-22T13:20:44Z</time>
      </trkpt>
      <trkpt lat="45.82415" lon="2.96322">
        <ele>971</ele>
        <time>2009-05-22T13:20:48Z</time>
      </trkpt>
      <trkpt lat="45.82363" lon="2.96318">
        <ele>971</ele>
        <time>2009-05-22T13:20:55Z</time>
      </trkpt>
      <trkpt lat="45.82341" lon="2.96321">
        <ele>970</ele>
        <time>2009-05-22T13:20:58Z</time>
      </trkpt>
      <trkpt lat="45.8231" lon="2.96322">
        <ele>969</ele>
        <time>2009-05-22T13:21:02Z</time>
      </trkpt>
      <trkpt lat="45.8228" lon="2.96308">
        <ele>966</ele>
        <time>2009-05-22T13:21:06Z</time>
      </trkpt>
      <trkpt lat="45.82231" lon="2.96288">
        <ele>963</ele>
        <time>2009-05-22T13:21:12Z</time>
      </trkpt>
      <trkpt lat="45.82191" lon="2.96282">
        <ele>960</ele>
        <time>2009-05-22T13:21:17Z</time>
      </trkpt>
      <trkpt lat="45.82144" lon="2.96275">
        <ele>957</ele>
        <time>2009-05-22T13:21:23Z</time>
      </trkpt>
      <trkpt lat="45.82128" lon="2.96271">
        <ele>957</ele>
        <time>2009-05-22T13:21:25Z</time>
      </trkpt>
      <trkpt lat="45.82112" lon="2.96265">
        <ele>958</ele>
        <time>2009-05-22T13:21:27Z</time>
      </trkpt>
      <trkpt lat="45.82096" lon="2.96259">
        <ele>958</ele>
        <time>2009-05-22T13:21:29Z</time>
      </trkpt>
      <trkpt lat="45.82072" lon="2.96254">
        <ele>959</ele>
        <time>2009-05-22T13:21:32Z</time>
      </trkpt>
      <trkpt lat="45.82049" lon="2.96252">
        <ele>959</ele>
        <time>2009-05-22T13:21:35Z</time>
      </trkpt>
      <trkpt lat="45.82019" lon="2.96239">
        <ele>959</ele>
        <time>2009-05-22T13:21:39Z</time>
      </trkpt>
      <trkpt lat="45.81962" lon="2.96196">
        <ele>959</ele>
        <time>2009-05-22T13:21:47Z</time>
      </trkpt>
      <trkpt lat="45.81908" lon="2.96152">
        <ele>959</ele>
        <time>2009-05-22T13:21:55Z</time>
      </trkpt>
      <trkpt lat="45.81869" lon="2.96122">
        <ele>958</ele>
        <time>2009-05-22T13:22:01Z</time>
      </trkpt>
      <trkpt lat="45.81855" lon="2.96113">
        <ele>958</ele>
        <time>2009-05-22T13:22:03Z</time>
      </trkpt>
      <trkpt lat="45.81823" lon="2.96087">
        <ele>958</ele>
        <time>2009-05-22T13:22:08Z</time>
      </trkpt>
      <trkpt lat="45.81794" lon="2.96057">
        <ele>958</ele>
        <time>2009-05-22T13:22:13Z</time>
      </trkpt>
      <trkpt lat="45.81764" lon="2.96032">
        <ele>958</ele>
        <time>2009-05-22T13:22:18Z</time>
      </trkpt>
      <trkpt lat="45.81736" lon="2.96003">
        <ele>957</ele>
        <time>2009-05-22T13:22:23Z</time>
      </trkpt>
      <trkpt lat="45.81702" lon="2.95985">
        <ele>957</ele>
        <time>2009-05-22T13:22:28Z</time>
      </trkpt>
      <trkpt lat="45.8166" lon="2.9596">
        <ele>957</ele>
        <time>2009-05-22T13:22:35Z</time>
      </trkpt>
      <trkpt lat="45.81613" lon="2.95932">
        <ele>957</ele>
        <time>2009-05-22T13:22:43Z</time>
      </trkpt>
      <trkpt lat="45.81565" lon="2.95902">
        <ele>956</ele>
        <time>2009-05-22T13:22:52Z</time>
      </trkpt>
      <trkpt lat="45.8154" lon="2.95886">
        <ele>956</ele>
        <time>2009-05-22T13:22:58Z</time>
      </trkpt>
      <trkpt lat="45.81517" lon="2.95873">
        <ele>956</ele>
        <time>2009-05-22T13:23:05Z</time>
      </trkpt>
      <trkpt lat="45.81513" lon="2.95869">
        <ele>956</ele>
        <time>2009-05-22T13:23:07Z</time>
      </trkpt>
      <trkpt lat="45.81507" lon="2.95865">
        <ele>956</ele>
        <time>2009-05-22T13:23:14Z</time>
      </trkpt>
      <trkpt lat="45.81509" lon="2.95865">
        <ele>956</ele>
        <time>2009-05-22T13:23:19Z</time>
      </trkpt>
      <trkpt lat="45.81512" lon="2.95864">
        <ele>956</ele>
        <time>2009-05-22T13:23:32Z</time>
      </trkpt>
      <trkpt lat="45.81513" lon="2.95865">
        <ele>956</ele>
        <time>2009-05-22T13:23:46Z</time>
      </trkpt>
      <trkpt lat="45.81507" lon="2.95869">
        <ele>956</ele>
        <time>2009-05-22T14:57:37Z</time>
      </trkpt>
      <trkpt lat="45.81507" lon="2.95869">
        <ele>956</ele>
        <time>2009-05-22T14:57:38Z</time>
      </trkpt>
      <trkpt lat="45.81507" lon="2.95869">
        <ele>956</ele>
        <time>2009-05-22T14:57:39Z</time>
      </trkpt>
      <trkpt lat="45.81507" lon="2.9587">
        <ele>956</ele>
        <time>2009-05-22T14:57:44Z</time>
      </trkpt>
      <trkpt lat="45.81502" lon="2.95868">
        <ele>956</ele>
        <time>2009-05-22T14:57:50Z</time>
      </trkpt>
      <trkpt lat="45.81492" lon="2.95862">
        <ele>956</ele>
        <time>2009-05-22T14:57:58Z</time>
      </trkpt>
      <trkpt lat="45.81479" lon="2.95855">
        <ele>956</ele>
        <time>2009-05-22T14:58:06Z</time>
      </trkpt>
      <trkpt lat="45.81466" lon="2.95847">
        <ele>956</ele>
        <time>2009-05-22T14:58:14Z</time>
      </trkpt>
      <trkpt lat="45.81452" lon="2.9584">
        <ele>956</ele>
        <time>2009-05-22T14:58:21Z</time>
      </trkpt>
      <trkpt lat="45.81438" lon="2.95827">
        <ele>956</ele>
        <time>2009-05-22T14:58:29Z</time>
      </trkpt>
      <trkpt lat="45.8142" lon="2.95815">
        <ele>956</ele>
        <time>2009-05-22T14:58:39Z</time>
      </trkpt>
      <trkpt lat="45.81409" lon="2.95809">
        <ele>956</ele>
        <time>2009-05-22T14:58:46Z</time>
      </trkpt>
      <trkpt lat="45.81402" lon="2.95815">
        <ele>956</ele>
        <time>2009-05-22T14:58:52Z</time>
      </trkpt>
      <trkpt lat="45.814" lon="2.95834">
        <ele>956</ele>
        <time>2009-05-22T14:59:00Z</time>
      </trkpt>
      <trkpt lat="45.81403" lon="2.95848">
        <ele>956</ele>
        <time>2009-05-22T14:59:07Z</time>
      </trkpt>
      <trkpt lat="45.81405" lon="2.9586">
        <ele>956</ele>
        <time>2009-05-22T14:59:12Z</time>
      </trkpt>
      <trkpt lat="45.81407" lon="2.9587">
        <ele>957</ele>
        <time>2009-05-22T14:59:16Z</time>
      </trkpt>
      <trkpt lat="45.81412" lon="2.95888">
        <ele>957</ele>
        <time>2009-05-22T14:59:23Z</time>
      </trkpt>
      <trkpt lat="45.81413" lon="2.95899">
        <ele>957</ele>
        <time>2009-05-22T14:59:27Z</time>
      </trkpt>
      <trkpt lat="45.81414" lon="2.95919">
        <ele>957</ele>
        <time>2009-05-22T14:59:34Z</time>
      </trkpt>
      <trkpt lat="45.81416" lon="2.95937">
        <ele>957</ele>
        <time>2009-05-22T14:59:41Z</time>
      </trkpt>
      <trkpt lat="45.81416" lon="2.95945">
        <ele>957</ele>
        <time>2009-05-22T14:59:43Z</time>
      </trkpt>
      <trkpt lat="45.81419" lon="2.95962">
        <ele>957</ele>
        <time>2009-05-22T14:59:48Z</time>
      </trkpt>
      <trkpt lat="45.81418" lon="2.95966">
        <ele>957</ele>
        <time>2009-05-22T14:59:49Z</time>
      </trkpt>
      <trkpt lat="45.8142" lon="2.95986">
        <ele>957</ele>
        <time>2009-05-22T14:59:55Z</time>
      </trkpt>
      <trkpt lat="45.81421" lon="2.96008">
        <ele>957</ele>
        <time>2009-05-22T15:00:02Z</time>
      </trkpt>
      <trkpt lat="45.81415" lon="2.96027">
        <ele>957</ele>
        <time>2009-05-22T15:00:09Z</time>
      </trkpt>
      <trkpt lat="45.81407" lon="2.9604">
        <ele>957</ele>
        <time>2009-05-22T15:00:14Z</time>
      </trkpt>
      <trkpt lat="45.81395" lon="2.96058">
        <ele>958</ele>
        <time>2009-05-22T15:00:21Z</time>
      </trkpt>
      <trkpt lat="45.81381" lon="2.96081">
        <ele>958</ele>
        <time>2009-05-22T15:00:29Z</time>
      </trkpt>
      <trkpt lat="45.81373" lon="2.96096">
        <ele>958</ele>
        <time>2009-05-22T15:00:35Z</time>
      </trkpt>
      <trkpt lat="45.81364" lon="2.9611">
        <ele>958</ele>
        <time>2009-05-22T15:00:41Z</time>
      </trkpt>
      <trkpt lat="45.81356" lon="2.96123">
        <ele>958</ele>
        <time>2009-05-22T15:00:46Z</time>
      </trkpt>
      <trkpt lat="45.81345" lon="2.96143">
        <ele>959</ele>
        <time>2009-05-22T15:00:53Z</time>
      </trkpt>
      <trkpt lat="45.81337" lon="2.96156">
        <ele>959</ele>
        <time>2009-05-22T15:00:59Z</time>
      </trkpt>
      <trkpt lat="45.81329" lon="2.96167">
        <ele>959</ele>
        <time>2009-05-22T15:01:05Z</time>
      </trkpt>
      <trkpt lat="45.8132" lon="2.96184">
        <ele>959</ele>
        <time>2009-05-22T15:01:12Z</time>
      </trkpt>
      <trkpt lat="45.81311" lon="2.96202">
        <ele>959</ele>
        <time>2009-05-22T15:01:19Z</time>
      </trkpt>
      <trkpt lat="45.81305" lon="2.96218">
        <ele>960</ele>
        <time>2009-05-22T15:01:25Z</time>
      </trkpt>
      <trkpt lat="45.81301" lon="2.96231">
        <ele>960</ele>
        <time>2009-05-22T15:01:30Z</time>
      </trkpt>
      <trkpt lat="45.81297" lon="2.96245">
        <ele>960</ele>
        <time>2009-05-22T15:01:37Z</time>
      </trkpt>
      <trkpt lat="45.81291" lon="2.96262">
        <ele>961</ele>
        <time>2009-05-22T15:01:45Z</time>
      </trkpt>
      <trkpt lat="45.81286" lon="2.96276">
        <ele>961</ele>
        <time>2009-05-22T15:01:52Z</time>
      </trkpt>
      <trkpt lat="45.81279" lon="2.96292">
        <ele>961</ele>
        <time>2009-05-22T15:02:00Z</time>
      </trkpt>
      <trkpt lat="45.81274" lon="2.96306">
        <ele>962</ele>
        <time>2009-05-22T15:02:07Z</time>
      </trkpt>
      <trkpt lat="45.81262" lon="2.96317">
        <ele>963</ele>
        <time>2009-05-22T15:02:14Z</time>
      </trkpt>
      <trkpt lat="45.81252" lon="2.96313">
        <ele>963</ele>
        <time>2009-05-22T15:02:19Z</time>
      </trkpt>
      <trkpt lat="45.81236" lon="2.96303">
        <ele>964</ele>
        <time>2009-05-22T15:02:26Z</time>
      </trkpt>
      <trkpt lat="45.81219" lon="2.96294">
        <ele>965</ele>
        <time>2009-05-22T15:02:33Z</time>
      </trkpt>
      <trkpt lat="45.81206" lon="2.96289">
        <ele>966</ele>
        <time>2009-05-22T15:02:40Z</time>
      </trkpt>
      <trkpt lat="45.81189" lon="2.96283">
        <ele>967</ele>
        <time>2009-05-22T15:02:48Z</time>
      </trkpt>
      <trkpt lat="45.81175" lon="2.96276">
        <ele>968</ele>
        <time>2009-05-22T15:02:56Z</time>
      </trkpt>
      <trkpt lat="45.81163" lon="2.96269">
        <ele>969</ele>
        <time>2009-05-22T15:03:04Z</time>
      </trkpt>
      <trkpt lat="45.81156" lon="2.96265">
        <ele>969</ele>
        <time>2009-05-22T15:03:10Z</time>
      </trkpt>
      <trkpt lat="45.81142" lon="2.96258">
        <ele>970</ele>
        <time>2009-05-22T15:03:18Z</time>
      </trkpt>
      <trkpt lat="45.81138" lon="2.96253">
        <ele>970</ele>
        <time>2009-05-22T15:03:21Z</time>
      </trkpt>
      <trkpt lat="45.81124" lon="2.96248">
        <ele>971</ele>
        <time>2009-05-22T15:03:26Z</time>
      </trkpt>
      <trkpt lat="45.81108" lon="2.9624">
        <ele>972</ele>
        <time>2009-05-22T15:03:33Z</time>
      </trkpt>
      <trkpt lat="45.81103" lon="2.96238">
        <ele>972</ele>
        <time>2009-05-22T15:03:36Z</time>
      </trkpt>
      <trkpt lat="45.81092" lon="2.96237">
        <ele>973</ele>
        <time>2009-05-22T15:03:42Z</time>
      </trkpt>
      <trkpt lat="45.81088" lon="2.96247">
        <ele>973</ele>
        <time>2009-05-22T15:03:45Z</time>
      </trkpt>
      <trkpt lat="45.81078" lon="2.96277">
        <ele>974</ele>
        <time>2009-05-22T15:03:53Z</time>
      </trkpt>
      <trkpt lat="45.81068" lon="2.96302">
        <ele>974</ele>
        <time>2009-05-22T15:04:00Z</time>
      </trkpt>
      <trkpt lat="45.81059" lon="2.9633">
        <ele>975</ele>
        <time>2009-05-22T15:04:08Z</time>
      </trkpt>
      <trkpt lat="45.81046" lon="2.96366">
        <ele>975</ele>
        <time>2009-05-22T15:04:18Z</time>
      </trkpt>
      <trkpt lat="45.81044" lon="2.96369">
        <ele>975</ele>
        <time>2009-05-22T15:04:19Z</time>
      </trkpt>
      <trkpt lat="45.81034" lon="2.9637">
        <ele>976</ele>
        <time>2009-05-22T15:04:24Z</time>
      </trkpt>
      <trkpt lat="45.81027" lon="2.96358">
        <ele>976</ele>
        <time>2009-05-22T15:04:29Z</time>
      </trkpt>
      <trkpt lat="45.81028" lon="2.96347">
        <ele>976</ele>
        <time>2009-05-22T15:04:32Z</time>
      </trkpt>
      <trkpt lat="45.81031" lon="2.96323">
        <ele>976</ele>
        <time>2009-05-22T15:04:38Z</time>
      </trkpt>
      <trkpt lat="45.81035" lon="2.96302">
        <ele>976</ele>
        <time>2009-05-22T15:04:43Z</time>
      </trkpt>
      <trkpt lat="45.81035" lon="2.96282">
        <ele>976</ele>
        <time>2009-05-22T15:04:48Z</time>
      </trkpt>
      <trkpt lat="45.81036" lon="2.96267">
        <ele>976</ele>
        <time>2009-05-22T15:04:52Z</time>
      </trkpt>
      <trkpt lat="45.81034" lon="2.96253">
        <ele>977</ele>
        <time>2009-05-22T15:04:56Z</time>
      </trkpt>
      <trkpt lat="45.81033" lon="2.96248">
        <ele>977</ele>
        <time>2009-05-22T15:04:58Z</time>
      </trkpt>
      <trkpt lat="45.81034" lon="2.96226">
        <ele>977</ele>
        <time>2009-05-22T15:05:03Z</time>
      </trkpt>
      <trkpt lat="45.81034" lon="2.96221">
        <ele>977</ele>
        <time>2009-05-22T15:05:04Z</time>
      </trkpt>
      <trkpt lat="45.81037" lon="2.96188">
        <ele>976</ele>
        <time>2009-05-22T15:05:10Z</time>
      </trkpt>
      <trkpt lat="45.81041" lon="2.96161">
        <ele>976</ele>
        <time>2009-05-22T15:05:14Z</time>
      </trkpt>
      <trkpt lat="45.81041" lon="2.96146">
        <ele>976</ele>
        <time>2009-05-22T15:05:16Z</time>
      </trkpt>
      <trkpt lat="45.81042" lon="2.96111">
        <ele>976</ele>
        <time>2009-05-22T15:05:21Z</time>
      </trkpt>
      <trkpt lat="45.81044" lon="2.96087">
        <ele>975</ele>
        <time>2009-05-22T15:05:24Z</time>
      </trkpt>
      <trkpt lat="45.81042" lon="2.96055">
        <ele>975</ele>
        <time>2009-05-22T15:05:28Z</time>
      </trkpt>
      <trkpt lat="45.81041" lon="2.96047">
        <ele>975</ele>
        <time>2009-05-22T15:05:29Z</time>
      </trkpt>
      <trkpt lat="45.81032" lon="2.95992">
        <ele>974</ele>
        <time>2009-05-22T15:05:35Z</time>
      </trkpt>
      <trkpt lat="45.81021" lon="2.95948">
        <ele>973</ele>
        <time>2009-05-22T15:05:40Z</time>
      </trkpt>
      <trkpt lat="45.8102" lon="2.95939">
        <ele>973</ele>
        <time>2009-05-22T15:05:41Z</time>
      </trkpt>
      <trkpt lat="45.81015" lon="2.95914">
        <ele>973</ele>
        <time>2009-05-22T15:05:44Z</time>
      </trkpt>
      <trkpt lat="45.81014" lon="2.95896">
        <ele>972</ele>
        <time>2009-05-22T15:05:46Z</time>
      </trkpt>
      <trkpt lat="45.81008" lon="2.95862">
        <ele>971</ele>
        <time>2009-05-22T15:05:50Z</time>
      </trkpt>
      <trkpt lat="45.80994" lon="2.95817">
        <ele>970</ele>
        <time>2009-05-22T15:05:55Z</time>
      </trkpt>
      <trkpt lat="45.80978" lon="2.95776">
        <ele>969</ele>
        <time>2009-05-22T15:06:00Z</time>
      </trkpt>
      <trkpt lat="45.80964" lon="2.95753">
        <ele>969</ele>
        <time>2009-05-22T15:06:04Z</time>
      </trkpt>
      <trkpt lat="45.80944" lon="2.95715">
        <ele>969</ele>
        <time>2009-05-22T15:06:11Z</time>
      </trkpt>
      <trkpt lat="45.80939" lon="2.95704">
        <ele>969</ele>
        <time>2009-05-22T15:06:13Z</time>
      </trkpt>
      <trkpt lat="45.80936" lon="2.957">
        <ele>969</ele>
        <time>2009-05-22T15:06:14Z</time>
      </trkpt>
      <trkpt lat="45.80933" lon="2.95695">
        <ele>969</ele>
        <time>2009-05-22T15:06:15Z</time>
      </trkpt>
      <trkpt lat="45.80926" lon="2.95683">
        <ele>969</ele>
        <time>2009-05-22T15:06:17Z</time>
      </trkpt>
      <trkpt lat="45.80916" lon="2.95664">
        <ele>968</ele>
        <time>2009-05-22T15:06:20Z</time>
      </trkpt>
      <trkpt lat="45.80896" lon="2.95627">
        <ele>968</ele>
        <time>2009-05-22T15:06:26Z</time>
      </trkpt>
      <trkpt lat="45.80888" lon="2.95609">
        <ele>968</ele>
        <time>2009-05-22T15:06:30Z</time>
      </trkpt>
      <trkpt lat="45.80872" lon="2.95588">
        <ele>968</ele>
        <time>2009-05-22T15:06:35Z</time>
      </trkpt>
      <trkpt lat="45.80843" lon="2.95544">
        <ele>966</ele>
        <time>2009-05-22T15:06:42Z</time>
      </trkpt>
      <trkpt lat="45.80832" lon="2.95525">
        <ele>964</ele>
        <time>2009-05-22T15:06:45Z</time>
      </trkpt>
      <trkpt lat="45.80822" lon="2.95504">
        <ele>963</ele>
        <time>2009-05-22T15:06:47Z</time>
      </trkpt>
      <trkpt lat="45.80805" lon="2.95461">
        <ele>960</ele>
        <time>2009-05-22T15:06:53Z</time>
      </trkpt>
      <trkpt lat="45.80798" lon="2.95435">
        <ele>959</ele>
        <time>2009-05-22T15:06:58Z</time>
      </trkpt>
      <trkpt lat="45.8079" lon="2.95412">
        <ele>959</ele>
        <time>2009-05-22T15:07:02Z</time>
      </trkpt>
      <trkpt lat="45.80783" lon="2.95388">
        <ele>959</ele>
        <time>2009-05-22T15:07:06Z</time>
      </trkpt>
      <trkpt lat="45.80782" lon="2.95358">
        <ele>959</ele>
        <time>2009-05-22T15:07:11Z</time>
      </trkpt>
      <trkpt lat="45.8078" lon="2.95344">
        <ele>959</ele>
        <time>2009-05-22T15:07:13Z</time>
      </trkpt>
      <trkpt lat="45.80764" lon="2.95305">
        <ele>959</ele>
        <time>2009-05-22T15:07:20Z</time>
      </trkpt>
      <trkpt lat="45.80747" lon="2.9527">
        <ele>959</ele>
        <time>2009-05-22T15:07:26Z</time>
      </trkpt>
      <trkpt lat="45.80744" lon="2.95263">
        <ele>959</ele>
        <time>2009-05-22T15:07:27Z</time>
      </trkpt>
      <trkpt lat="45.80736" lon="2.95242">
        <ele>959</ele>
        <time>2009-05-22T15:07:30Z</time>
      </trkpt>
      <trkpt lat="45.80719" lon="2.95204">
        <ele>959</ele>
        <time>2009-05-22T15:07:36Z</time>
      </trkpt>
      <trkpt lat="45.80713" lon="2.95181">
        <ele>959</ele>
        <time>2009-05-22T15:07:38Z</time>
      </trkpt>
      <trkpt lat="45.80694" lon="2.95127">
        <ele>958</ele>
        <time>2009-05-22T15:07:43Z</time>
      </trkpt>
      <trkpt lat="45.80682" lon="2.95095">
        <ele>957</ele>
        <time>2009-05-22T15:07:47Z</time>
      </trkpt>
      <trkpt lat="45.80676" lon="2.95052">
        <ele>956</ele>
        <time>2009-05-22T15:07:52Z</time>
      </trkpt>
      <trkpt lat="45.80663" lon="2.95038">
        <ele>956</ele>
        <time>2009-05-22T15:07:55Z</time>
      </trkpt>
      <trkpt lat="45.8066" lon="2.95037">
        <ele>956</ele>
        <time>2009-05-22T15:07:56Z</time>
      </trkpt>
      <trkpt lat="45.80653" lon="2.95033">
        <ele>956</ele>
        <time>2009-05-22T15:08:01Z</time>
      </trkpt>
      <trkpt lat="45.80648" lon="2.95031">
        <ele>956</ele>
        <time>2009-05-22T15:08:04Z</time>
      </trkpt>
      <trkpt lat="45.80643" lon="2.95026">
        <ele>956</ele>
        <time>2009-05-22T15:08:08Z</time>
      </trkpt>
      <trkpt lat="45.80629" lon="2.95021">
        <ele>957</ele>
        <time>2009-05-22T15:08:14Z</time>
      </trkpt>
      <trkpt lat="45.80611" lon="2.95017">
        <ele>957</ele>
        <time>2009-05-22T15:08:20Z</time>
      </trkpt>
      <trkpt lat="45.80591" lon="2.95014">
        <ele>958</ele>
        <time>2009-05-22T15:08:26Z</time>
      </trkpt>
      <trkpt lat="45.80576" lon="2.95012">
        <ele>958</ele>
        <time>2009-05-22T15:08:30Z</time>
      </trkpt>
      <trkpt lat="45.8056" lon="2.95005">
        <ele>959</ele>
        <time>2009-05-22T15:08:35Z</time>
      </trkpt>
      <trkpt lat="45.80542" lon="2.94996">
        <ele>959</ele>
        <time>2009-05-22T15:08:42Z</time>
      </trkpt>
      <trkpt lat="45.80527" lon="2.94995">
        <ele>959</ele>
        <time>2009-05-22T15:08:47Z</time>
      </trkpt>
      <trkpt lat="45.80514" lon="2.94999">
        <ele>960</ele>
        <time>2009-05-22T15:08:51Z</time>
      </trkpt>
      <trkpt lat="45.80495" lon="2.95012">
        <ele>961</ele>
        <time>2009-05-22T15:08:57Z</time>
      </trkpt>
      <trkpt lat="45.80479" lon="2.95023">
        <ele>963</ele>
        <time>2009-05-22T15:09:03Z</time>
      </trkpt>
      <trkpt lat="45.80465" lon="2.95027">
        <ele>964</ele>
        <time>2009-05-22T15:09:09Z</time>
      </trkpt>
      <trkpt lat="45.80449" lon="2.95034">
        <ele>965</ele>
        <time>2009-05-22T15:09:15Z</time>
      </trkpt>
      <trkpt lat="45.80437" lon="2.95038">
        <ele>966</ele>
        <time>2009-05-22T15:09:19Z</time>
      </trkpt>
      <trkpt lat="45.80426" lon="2.9504">
        <ele>966</ele>
        <time>2009-05-22T15:09:23Z</time>
      </trkpt>
      <trkpt lat="45.80411" lon="2.95045">
        <ele>967</ele>
        <time>2009-05-22T15:09:28Z</time>
      </trkpt>
      <trkpt lat="45.80395" lon="2.95055">
        <ele>969</ele>
        <time>2009-05-22T15:09:34Z</time>
      </trkpt>
      <trkpt lat="45.80381" lon="2.95063">
        <ele>970</ele>
        <time>2009-05-22T15:09:39Z</time>
      </trkpt>
      <trkpt lat="45.80367" lon="2.95079">
        <ele>972</ele>
        <time>2009-05-22T15:09:45Z</time>
      </trkpt>
      <trkpt lat="45.80354" lon="2.95095">
        <ele>974</ele>
        <time>2009-05-22T15:09:51Z</time>
      </trkpt>
      <trkpt lat="45.80347" lon="2.95105">
        <ele>975</ele>
        <time>2009-05-22T15:09:56Z</time>
      </trkpt>
      <trkpt lat="45.80345" lon="2.95106">
        <ele>975</ele>
        <time>2009-05-22T15:09:57Z</time>
      </trkpt>
      <trkpt lat="45.80334" lon="2.95106">
        <ele>974</ele>
        <time>2009-05-22T15:10:04Z</time>
      </trkpt>
      <trkpt lat="45.80324" lon="2.95107">
        <ele>974</ele>
        <time>2009-05-22T15:10:10Z</time>
      </trkpt>
      <trkpt lat="45.80313" lon="2.95105">
        <ele>973</ele>
        <time>2009-05-22T15:10:17Z</time>
      </trkpt>
      <trkpt lat="45.8031" lon="2.95105">
        <ele>973</ele>
        <time>2009-05-22T15:10:19Z</time>
      </trkpt>
      <trkpt lat="45.80299" lon="2.95114">
        <ele>973</ele>
        <time>2009-05-22T15:10:25Z</time>
      </trkpt>
      <trkpt lat="45.80292" lon="2.95118">
        <ele>973</ele>
        <time>2009-05-22T15:10:29Z</time>
      </trkpt>
      <trkpt lat="45.80288" lon="2.95118">
        <ele>973</ele>
        <time>2009-05-22T15:10:31Z</time>
      </trkpt>
      <trkpt lat="45.80277" lon="2.95122">
        <ele>973</ele>
        <time>2009-05-22T15:10:37Z</time>
      </trkpt>
      <trkpt lat="45.80269" lon="2.95122">
        <ele>973</ele>
        <time>2009-05-22T15:10:43Z</time>
      </trkpt>
      <trkpt lat="45.80255" lon="2.95128">
        <ele>973</ele>
        <time>2009-05-22T15:10:51Z</time>
      </trkpt>
      <trkpt lat="45.80251" lon="2.95129">
        <ele>973</ele>
        <time>2009-05-22T15:10:54Z</time>
      </trkpt>
      <trkpt lat="45.80238" lon="2.9513">
        <ele>974</ele>
        <time>2009-05-22T15:11:01Z</time>
      </trkpt>
      <trkpt lat="45.80226" lon="2.95132">
        <ele>974</ele>
        <time>2009-05-22T15:11:07Z</time>
      </trkpt>
      <trkpt lat="45.80214" lon="2.95131">
        <ele>975</ele>
        <time>2009-05-22T15:11:15Z</time>
      </trkpt>
      <trkpt lat="45.80213" lon="2.95131">
        <ele>975</ele>
        <time>2009-05-22T15:11:16Z</time>
      </trkpt>
      <trkpt lat="45.80199" lon="2.95126">
        <ele>975</ele>
        <time>2009-05-22T15:11:24Z</time>
      </trkpt>
      <trkpt lat="45.80194" lon="2.95124">
        <ele>976</ele>
        <time>2009-05-22T15:11:28Z</time>
      </trkpt>
      <trkpt lat="45.80186" lon="2.95124">
        <ele>976</ele>
        <time>2009-05-22T15:11:32Z</time>
      </trkpt>
      <trkpt lat="45.80184" lon="2.95124">
        <ele>976</ele>
        <time>2009-05-22T15:11:33Z</time>
      </trkpt>
      <trkpt lat="45.8017" lon="2.95126">
        <ele>977</ele>
        <time>2009-05-22T15:11:41Z</time>
      </trkpt>
      <trkpt lat="45.80159" lon="2.95128">
        <ele>978</ele>
        <time>2009-05-22T15:11:47Z</time>
      </trkpt>
      <trkpt lat="45.80152" lon="2.95128">
        <ele>979</ele>
        <time>2009-05-22T15:11:53Z</time>
      </trkpt>
      <trkpt lat="45.80141" lon="2.95126">
        <ele>980</ele>
        <time>2009-05-22T15:11:59Z</time>
      </trkpt>
      <trkpt lat="45.80135" lon="2.95123">
        <ele>980</ele>
        <time>2009-05-22T15:12:04Z</time>
      </trkpt>
      <trkpt lat="45.80133" lon="2.95121">
        <ele>980</ele>
        <time>2009-05-22T15:12:06Z</time>
      </trkpt>
      <trkpt lat="45.80126" lon="2.95117">
        <ele>981</ele>
        <time>2009-05-22T15:12:10Z</time>
      </trkpt>
      <trkpt lat="45.80117" lon="2.9512">
        <ele>982</ele>
        <time>2009-05-22T15:12:16Z</time>
      </trkpt>
      <trkpt lat="45.80105" lon="2.95125">
        <ele>983</ele>
        <time>2009-05-22T15:12:22Z</time>
      </trkpt>
      <trkpt lat="45.80095" lon="2.95124">
        <ele>983</ele>
        <time>2009-05-22T15:12:27Z</time>
      </trkpt>
      <trkpt lat="45.8009" lon="2.95111">
        <ele>984</ele>
        <time>2009-05-22T15:12:34Z</time>
      </trkpt>
      <trkpt lat="45.80082" lon="2.95104">
        <ele>984</ele>
        <time>2009-05-22T15:12:40Z</time>
      </trkpt>
      <trkpt lat="45.80081" lon="2.95103">
        <ele>984</ele>
        <time>2009-05-22T15:12:41Z</time>
      </trkpt>
      <trkpt lat="45.80072" lon="2.95102">
        <ele>985</ele>
        <time>2009-05-22T15:12:45Z</time>
      </trkpt>
      <trkpt lat="45.80067" lon="2.951">
        <ele>985</ele>
        <time>2009-05-22T15:12:48Z</time>
      </trkpt>
      <trkpt lat="45.80056" lon="2.95094">
        <ele>986</ele>
        <time>2009-05-22T15:12:54Z</time>
      </trkpt>
      <trkpt lat="45.80046" lon="2.95095">
        <ele>986</ele>
        <time>2009-05-22T15:12:59Z</time>
      </trkpt>
      <trkpt lat="45.80029" lon="2.95096">
        <ele>987</ele>
        <time>2009-05-22T15:13:05Z</time>
      </trkpt>
      <trkpt lat="45.80024" lon="2.95092">
        <ele>988</ele>
        <time>2009-05-22T15:13:09Z</time>
      </trkpt>
      <trkpt lat="45.80015" lon="2.9509">
        <ele>989</ele>
        <time>2009-05-22T15:13:13Z</time>
      </trkpt>
      <trkpt lat="45.80004" lon="2.95086">
        <ele>990</ele>
        <time>2009-05-22T15:13:18Z</time>
      </trkpt>
      <trkpt lat="45.79999" lon="2.95083">
        <ele>990</ele>
        <time>2009-05-22T15:13:21Z</time>
      </trkpt>
      <trkpt lat="45.79989" lon="2.95084">
        <ele>991</ele>
        <time>2009-05-22T15:13:27Z</time>
      </trkpt>
      <trkpt lat="45.79983" lon="2.95081">
        <ele>992</ele>
        <time>2009-05-22T15:13:30Z</time>
      </trkpt>
      <trkpt lat="45.79969" lon="2.95069">
        <ele>994</ele>
        <time>2009-05-22T15:13:36Z</time>
      </trkpt>
      <trkpt lat="45.79959" lon="2.95061">
        <ele>996</ele>
        <time>2009-05-22T15:13:42Z</time>
      </trkpt>
      <trkpt lat="45.7995" lon="2.95051">
        <ele>998</ele>
        <time>2009-05-22T15:13:47Z</time>
      </trkpt>
      <trkpt lat="45.79943" lon="2.95039">
        <ele>1000</ele>
        <time>2009-05-22T15:13:53Z</time>
      </trkpt>
      <trkpt lat="45.79942" lon="2.95034">
        <ele>1001</ele>
        <time>2009-05-22T15:13:55Z</time>
      </trkpt>
      <trkpt lat="45.7993" lon="2.95028">
        <ele>1002</ele>
        <time>2009-05-22T15:14:02Z</time>
      </trkpt>
      <trkpt lat="45.79929" lon="2.95027">
        <ele>1002</ele>
        <time>2009-05-22T15:14:03Z</time>
      </trkpt>
      <trkpt lat="45.79917" lon="2.9502">
        <ele>1004</ele>
        <time>2009-05-22T15:14:11Z</time>
      </trkpt>
      <trkpt lat="45.79913" lon="2.95011">
        <ele>1006</ele>
        <time>2009-05-22T15:14:18Z</time>
      </trkpt>
      <trkpt lat="45.79913" lon="2.95005">
        <ele>1006</ele>
        <time>2009-05-22T15:14:22Z</time>
      </trkpt>
      <trkpt lat="45.79908" lon="2.94999">
        <ele>1008</ele>
        <time>2009-05-22T15:14:28Z</time>
      </trkpt>
      <trkpt lat="45.79901" lon="2.95">
        <ele>1008</ele>
        <time>2009-05-22T15:14:35Z</time>
      </trkpt>
      <trkpt lat="45.79892" lon="2.95002">
        <ele>1009</ele>
        <time>2009-05-22T15:14:42Z</time>
      </trkpt>
      <trkpt lat="45.79889" lon="2.95001">
        <ele>1009</ele>
        <time>2009-05-22T15:14:44Z</time>
      </trkpt>
      <trkpt lat="45.7987" lon="2.94998">
        <ele>1009</ele>
        <time>2009-05-22T15:14:53Z</time>
      </trkpt>
      <trkpt lat="45.79858" lon="2.94998">
        <ele>1010</ele>
        <time>2009-05-22T15:15:01Z</time>
      </trkpt>
      <trkpt lat="45.79851" lon="2.95002">
        <ele>1009</ele>
        <time>2009-05-22T15:15:05Z</time>
      </trkpt>
      <trkpt lat="45.79839" lon="2.95011">
        <ele>1008</ele>
        <time>2009-05-22T15:15:11Z</time>
      </trkpt>
      <trkpt lat="45.79828" lon="2.95006">
        <ele>1008</ele>
        <time>2009-05-22T15:15:15Z</time>
      </trkpt>
      <trkpt lat="45.79811" lon="2.95002">
        <ele>1008</ele>
        <time>2009-05-22T15:15:19Z</time>
      </trkpt>
      <trkpt lat="45.79802" lon="2.94997">
        <ele>1009</ele>
        <time>2009-05-22T15:15:21Z</time>
      </trkpt>
      <trkpt lat="45.79771" lon="2.95">
        <ele>1008</ele>
        <time>2009-05-22T15:15:26Z</time>
      </trkpt>
      <trkpt lat="45.79744" lon="2.95005">
        <ele>1008</ele>
        <time>2009-05-22T15:15:30Z</time>
      </trkpt>
      <trkpt lat="45.79726" lon="2.95011">
        <ele>1007</ele>
        <time>2009-05-22T15:15:33Z</time>
      </trkpt>
      <trkpt lat="45.79709" lon="2.95015">
        <ele>1007</ele>
        <time>2009-05-22T15:15:36Z</time>
      </trkpt>
      <trkpt lat="45.79689" lon="2.95021">
        <ele>1006</ele>
        <time>2009-05-22T15:15:39Z</time>
      </trkpt>
      <trkpt lat="45.79665" lon="2.95032">
        <ele>1005</ele>
        <time>2009-05-22T15:15:43Z</time>
      </trkpt>
      <trkpt lat="45.79655" lon="2.95037">
        <ele>1004</ele>
        <time>2009-05-22T15:15:45Z</time>
      </trkpt>
      <trkpt lat="45.79624" lon="2.95051">
        <ele>1005</ele>
        <time>2009-05-22T15:15:51Z</time>
      </trkpt>
      <trkpt lat="45.79613" lon="2.95057">
        <ele>1005</ele>
        <time>2009-05-22T15:15:54Z</time>
      </trkpt>
      <trkpt lat="45.79601" lon="2.95074">
        <ele>1006</ele>
        <time>2009-05-22T15:16:01Z</time>
      </trkpt>
      <trkpt lat="45.79599" lon="2.95073">
        <ele>1006</ele>
        <time>2009-05-22T15:16:03Z</time>
      </trkpt>
      <trkpt lat="45.79594" lon="2.95068">
        <ele>1006</ele>
        <time>2009-05-22T15:16:07Z</time>
      </trkpt>
      <trkpt lat="45.79585" lon="2.95058">
        <ele>1006</ele>
        <time>2009-05-22T15:16:14Z</time>
      </trkpt>
      <trkpt lat="45.79573" lon="2.95048">
        <ele>1007</ele>
        <time>2009-05-22T15:16:22Z</time>
      </trkpt>
      <trkpt lat="45.79564" lon="2.9504">
        <ele>1008</ele>
        <time>2009-05-22T15:16:28Z</time>
      </trkpt>
      <trkpt lat="45.79558" lon="2.95028">
        <ele>1008</ele>
        <time>2009-05-22T15:16:32Z</time>
      </trkpt>
      <trkpt lat="45.79557" lon="2.95025">
        <ele>1008</ele>
        <time>2009-05-22T15:16:33Z</time>
      </trkpt>
      <trkpt lat="45.79547" lon="2.95007">
        <ele>1009</ele>
        <time>2009-05-22T15:16:39Z</time>
      </trkpt>
      <trkpt lat="45.79539" lon="2.94991">
        <ele>1009</ele>
        <time>2009-05-22T15:16:43Z</time>
      </trkpt>
      <trkpt lat="45.79529" lon="2.94975">
        <ele>1010</ele>
        <time>2009-05-22T15:16:48Z</time>
      </trkpt>
      <trkpt lat="45.7952" lon="2.94955">
        <ele>1012</ele>
        <time>2009-05-22T15:16:54Z</time>
      </trkpt>
      <trkpt lat="45.79509" lon="2.94933">
        <ele>1013</ele>
        <time>2009-05-22T15:17:01Z</time>
      </trkpt>
      <trkpt lat="45.79502" lon="2.94921">
        <ele>1013</ele>
        <time>2009-05-22T15:17:06Z</time>
      </trkpt>
      <trkpt lat="45.795" lon="2.9492">
        <ele>1013</ele>
        <time>2009-05-22T15:17:07Z</time>
      </trkpt>
      <trkpt lat="45.7949" lon="2.94905">
        <ele>1012</ele>
        <time>2009-05-22T15:17:13Z</time>
      </trkpt>
      <trkpt lat="45.79479" lon="2.94893">
        <ele>1014</ele>
        <time>2009-05-22T15:17:18Z</time>
      </trkpt>
      <trkpt lat="45.79465" lon="2.94882">
        <ele>1016</ele>
        <time>2009-05-22T15:17:23Z</time>
      </trkpt>
      <trkpt lat="45.79455" lon="2.94867">
        <ele>1016</ele>
        <time>2009-05-22T15:17:28Z</time>
      </trkpt>
      <trkpt lat="45.79443" lon="2.94849">
        <ele>1016</ele>
        <time>2009-05-22T15:17:34Z</time>
      </trkpt>
      <trkpt lat="45.79432" lon="2.94831">
        <ele>1018</ele>
        <time>2009-05-22T15:17:40Z</time>
      </trkpt>
      <trkpt lat="45.79424" lon="2.94821">
        <ele>1019</ele>
        <time>2009-05-22T15:17:45Z</time>
      </trkpt>
      <trkpt lat="45.79413" lon="2.94809">
        <ele>1020</ele>
        <time>2009-05-22T15:17:51Z</time>
      </trkpt>
      <trkpt lat="45.79399" lon="2.94788">
        <ele>1019</ele>
        <time>2009-05-22T15:17:58Z</time>
      </trkpt>
      <trkpt lat="45.79386" lon="2.9477">
        <ele>1021</ele>
        <time>2009-05-22T15:18:05Z</time>
      </trkpt>
      <trkpt lat="45.79373" lon="2.9475">
        <ele>1024</ele>
        <time>2009-05-22T15:18:12Z</time>
      </trkpt>
      <trkpt lat="45.79359" lon="2.94735">
        <ele>1024</ele>
        <time>2009-05-22T15:18:18Z</time>
      </trkpt>
      <trkpt lat="45.79342" lon="2.94712">
        <ele>1025</ele>
        <time>2009-05-22T15:18:26Z</time>
      </trkpt>
      <trkpt lat="45.79324" lon="2.94687">
        <ele>1027</ele>
        <time>2009-05-22T15:18:34Z</time>
      </trkpt>
      <trkpt lat="45.7931" lon="2.94664">
        <ele>1026</ele>
        <time>2009-05-22T15:18:41Z</time>
      </trkpt>
      <trkpt lat="45.79295" lon="2.94636">
        <ele>1028</ele>
        <time>2009-05-22T15:18:48Z</time>
      </trkpt>
      <trkpt lat="45.7928" lon="2.94606">
        <ele>1028</ele>
        <time>2009-05-22T15:18:56Z</time>
      </trkpt>
      <trkpt lat="45.79266" lon="2.9459">
        <ele>1027</ele>
        <time>2009-05-22T15:19:02Z</time>
      </trkpt>
      <trkpt lat="45.79254" lon="2.9457">
        <ele>1028</ele>
        <time>2009-05-22T15:19:08Z</time>
      </trkpt>
      <trkpt lat="45.79248" lon="2.94563">
        <ele>1029</ele>
        <time>2009-05-22T15:19:11Z</time>
      </trkpt>
      <trkpt lat="45.79237" lon="2.94552">
        <ele>1029</ele>
        <time>2009-05-22T15:19:16Z</time>
      </trkpt>
      <trkpt lat="45.79225" lon="2.94536">
        <ele>1029</ele>
        <time>2009-05-22T15:19:22Z</time>
      </trkpt>
      <trkpt lat="45.79217" lon="2.94523">
        <ele>1029</ele>
        <time>2009-05-22T15:19:27Z</time>
      </trkpt>
      <trkpt lat="45.79209" lon="2.94509">
        <ele>1029</ele>
        <time>2009-05-22T15:19:32Z</time>
      </trkpt>
      <trkpt lat="45.792" lon="2.945">
        <ele>1030</ele>
        <time>2009-05-22T15:19:37Z</time>
      </trkpt>
      <trkpt lat="45.79194" lon="2.94492">
        <ele>1030</ele>
        <time>2009-05-22T15:19:41Z</time>
      </trkpt>
      <trkpt lat="45.79186" lon="2.94483">
        <ele>1030</ele>
        <time>2009-05-22T15:19:45Z</time>
      </trkpt>
      <trkpt lat="45.7918" lon="2.94475">
        <ele>1031</ele>
        <time>2009-05-22T15:19:49Z</time>
      </trkpt>
      <trkpt lat="45.79167" lon="2.94465">
        <ele>1031</ele>
        <time>2009-05-22T15:19:55Z</time>
      </trkpt>
      <trkpt lat="45.7915" lon="2.94452">
        <ele>1032</ele>
        <time>2009-05-22T15:20:01Z</time>
      </trkpt>
      <trkpt lat="45.7914" lon="2.94447">
        <ele>1033</ele>
        <time>2009-05-22T15:20:05Z</time>
      </trkpt>
      <trkpt lat="45.79123" lon="2.94439">
        <ele>1034</ele>
        <time>2009-05-22T15:20:12Z</time>
      </trkpt>
      <trkpt lat="45.79112" lon="2.94436">
        <ele>1035</ele>
        <time>2009-05-22T15:20:17Z</time>
      </trkpt>
      <trkpt lat="45.79095" lon="2.94434">
        <ele>1036</ele>
        <time>2009-05-22T15:20:24Z</time>
      </trkpt>
      <trkpt lat="45.79084" lon="2.94432">
        <ele>1037</ele>
        <time>2009-05-22T15:20:29Z</time>
      </trkpt>
      <trkpt lat="45.79068" lon="2.94426">
        <ele>1039</ele>
        <time>2009-05-22T15:20:36Z</time>
      </trkpt>
      <trkpt lat="45.79056" lon="2.94421">
        <ele>1039</ele>
        <time>2009-05-22T15:20:42Z</time>
      </trkpt>
      <trkpt lat="45.79047" lon="2.94418">
        <ele>1040</ele>
        <time>2009-05-22T15:20:47Z</time>
      </trkpt>
      <trkpt lat="45.79034" lon="2.94415">
        <ele>1041</ele>
        <time>2009-05-22T15:20:53Z</time>
      </trkpt>
      <trkpt lat="45.79016" lon="2.94411">
        <ele>1042</ele>
        <time>2009-05-22T15:21:00Z</time>
      </trkpt>
      <trkpt lat="45.78999" lon="2.94412">
        <ele>1044</ele>
        <time>2009-05-22T15:21:07Z</time>
      </trkpt>
      <trkpt lat="45.78986" lon="2.9441">
        <ele>1045</ele>
        <time>2009-05-22T15:21:13Z</time>
      </trkpt>
      <trkpt lat="45.78974" lon="2.9441">
        <ele>1046</ele>
        <time>2009-05-22T15:21:20Z</time>
      </trkpt>
      <trkpt lat="45.78965" lon="2.9441">
        <ele>1047</ele>
        <time>2009-05-22T15:21:26Z</time>
      </trkpt>
      <trkpt lat="45.78959" lon="2.94411">
        <ele>1047</ele>
        <time>2009-05-22T15:21:34Z</time>
      </trkpt>
      <trkpt lat="45.78956" lon="2.94411">
        <ele>1047</ele>
        <time>2009-05-22T15:21:44Z</time>
      </trkpt>
      <trkpt lat="45.78953" lon="2.94411">
        <ele>1047</ele>
        <time>2009-05-22T15:21:50Z</time>
      </trkpt>
      <trkpt lat="45.78944" lon="2.94412">
        <ele>1047</ele>
        <time>2009-05-22T15:21:58Z</time>
      </trkpt>
      <trkpt lat="45.78936" lon="2.94411">
        <ele>1047</ele>
        <time>2009-05-22T15:22:03Z</time>
      </trkpt>
      <trkpt lat="45.78922" lon="2.94408">
        <ele>1048</ele>
        <time>2009-05-22T15:22:08Z</time>
      </trkpt>
      <trkpt lat="45.78908" lon="2.94405">
        <ele>1048</ele>
        <time>2009-05-22T15:22:13Z</time>
      </trkpt>
      <trkpt lat="45.78895" lon="2.94407">
        <ele>1047</ele>
        <time>2009-05-22T15:22:17Z</time>
      </trkpt>
      <trkpt lat="45.78885" lon="2.94406">
        <ele>1046</ele>
        <time>2009-05-22T15:22:21Z</time>
      </trkpt>
      <trkpt lat="45.78878" lon="2.94409">
        <ele>1046</ele>
        <time>2009-05-22T15:22:25Z</time>
      </trkpt>
      <trkpt lat="45.78866" lon="2.94411">
        <ele>1045</ele>
        <time>2009-05-22T15:22:29Z</time>
      </trkpt>
      <trkpt lat="45.78856" lon="2.94417">
        <ele>1044</ele>
        <time>2009-05-22T15:22:34Z</time>
      </trkpt>
      <trkpt lat="45.78854" lon="2.94419">
        <ele>1044</ele>
        <time>2009-05-22T15:22:36Z</time>
      </trkpt>
      <trkpt lat="45.78841" lon="2.94426">
        <ele>1042</ele>
        <time>2009-05-22T15:22:41Z</time>
      </trkpt>
      <trkpt lat="45.78833" lon="2.94429">
        <ele>1042</ele>
        <time>2009-05-22T15:22:44Z</time>
      </trkpt>
      <trkpt lat="45.78829" lon="2.94433">
        <ele>1041</ele>
        <time>2009-05-22T15:22:47Z</time>
      </trkpt>
      <trkpt lat="45.7882" lon="2.94438">
        <ele>1040</ele>
        <time>2009-05-22T15:22:51Z</time>
      </trkpt>
      <trkpt lat="45.78814" lon="2.94438">
        <ele>1040</ele>
        <time>2009-05-22T15:22:53Z</time>
      </trkpt>
      <trkpt lat="45.78802" lon="2.94441">
        <ele>1039</ele>
        <time>2009-05-22T15:22:57Z</time>
      </trkpt>
      <trkpt lat="45.78788" lon="2.94446">
        <ele>1038</ele>
        <time>2009-05-22T15:23:01Z</time>
      </trkpt>
      <trkpt lat="45.78776" lon="2.94446">
        <ele>1037</ele>
        <time>2009-05-22T15:23:04Z</time>
      </trkpt>
      <trkpt lat="45.78766" lon="2.94447">
        <ele>1037</ele>
        <time>2009-05-22T15:23:06Z</time>
      </trkpt>
      <trkpt lat="45.78761" lon="2.94446">
        <ele>1036</ele>
        <time>2009-05-22T15:23:07Z</time>
      </trkpt>
      <trkpt lat="45.78739" lon="2.94441">
        <ele>1035</ele>
        <time>2009-05-22T15:23:11Z</time>
      </trkpt>
      <trkpt lat="45.78726" lon="2.94441">
        <ele>1035</ele>
        <time>2009-05-22T15:23:13Z</time>
      </trkpt>
      <trkpt lat="45.78705" lon="2.94453">
        <ele>1035</ele>
        <time>2009-05-22T15:23:17Z</time>
      </trkpt>
      <trkpt lat="45.78676" lon="2.9449">
        <ele>1035</ele>
        <time>2009-05-22T15:23:25Z</time>
      </trkpt>
      <trkpt lat="45.78655" lon="2.94515">
        <ele>1036</ele>
        <time>2009-05-22T15:23:32Z</time>
      </trkpt>
      <trkpt lat="45.78637" lon="2.94538">
        <ele>1037</ele>
        <time>2009-05-22T15:23:39Z</time>
      </trkpt>
      <trkpt lat="45.78626" lon="2.94561">
        <ele>1038</ele>
        <time>2009-05-22T15:23:45Z</time>
      </trkpt>
      <trkpt lat="45.78616" lon="2.94582">
        <ele>1039</ele>
        <time>2009-05-22T15:23:50Z</time>
      </trkpt>
      <trkpt lat="45.7861" lon="2.94604">
        <ele>1039</ele>
        <time>2009-05-22T15:23:55Z</time>
      </trkpt>
      <trkpt lat="45.78606" lon="2.94626">
        <ele>1040</ele>
        <time>2009-05-22T15:24:00Z</time>
      </trkpt>
      <trkpt lat="45.78602" lon="2.94644">
        <ele>1041</ele>
        <time>2009-05-22T15:24:05Z</time>
      </trkpt>
      <trkpt lat="45.78603" lon="2.94661">
        <ele>1041</ele>
        <time>2009-05-22T15:24:09Z</time>
      </trkpt>
      <trkpt lat="45.78604" lon="2.94673">
        <ele>1042</ele>
        <time>2009-05-22T15:24:12Z</time>
      </trkpt>
      <trkpt lat="45.78609" lon="2.94693">
        <ele>1042</ele>
        <time>2009-05-22T15:24:18Z</time>
      </trkpt>
      <trkpt lat="45.7861" lon="2.94716">
        <ele>1043</ele>
        <time>2009-05-22T15:24:24Z</time>
      </trkpt>
      <trkpt lat="45.78608" lon="2.94733">
        <ele>1044</ele>
        <time>2009-05-22T15:24:29Z</time>
      </trkpt>
      <trkpt lat="45.7861" lon="2.94748">
        <ele>1045</ele>
        <time>2009-05-22T15:24:34Z</time>
      </trkpt>
      <trkpt lat="45.78613" lon="2.94769">
        <ele>1046</ele>
        <time>2009-05-22T15:24:40Z</time>
      </trkpt>
      <trkpt lat="45.78614" lon="2.94786">
        <ele>1047</ele>
        <time>2009-05-22T15:24:45Z</time>
      </trkpt>
      <trkpt lat="45.78614" lon="2.94798">
        <ele>1047</ele>
        <time>2009-05-22T15:24:49Z</time>
      </trkpt>
      <trkpt lat="45.78622" lon="2.94818">
        <ele>1049</ele>
        <time>2009-05-22T15:24:55Z</time>
      </trkpt>
      <trkpt lat="45.7863" lon="2.94837">
        <ele>1050</ele>
        <time>2009-05-22T15:25:00Z</time>
      </trkpt>
      <trkpt lat="45.78631" lon="2.94854">
        <ele>1051</ele>
        <time>2009-05-22T15:25:05Z</time>
      </trkpt>
      <trkpt lat="45.78635" lon="2.94874">
        <ele>1051</ele>
        <time>2009-05-22T15:25:11Z</time>
      </trkpt>
      <trkpt lat="45.78638" lon="2.94891">
        <ele>1052</ele>
        <time>2009-05-22T15:25:16Z</time>
      </trkpt>
      <trkpt lat="45.78643" lon="2.9491">
        <ele>1053</ele>
        <time>2009-05-22T15:25:22Z</time>
      </trkpt>
      <trkpt lat="45.78647" lon="2.94922">
        <ele>1055</ele>
        <time>2009-05-22T15:25:27Z</time>
      </trkpt>
      <trkpt lat="45.78648" lon="2.94934">
        <ele>1056</ele>
        <time>2009-05-22T15:25:31Z</time>
      </trkpt>
      <trkpt lat="45.78644" lon="2.94954">
        <ele>1056</ele>
        <time>2009-05-22T15:25:38Z</time>
      </trkpt>
      <trkpt lat="45.78641" lon="2.94967">
        <ele>1056</ele>
        <time>2009-05-22T15:25:43Z</time>
      </trkpt>
      <trkpt lat="45.78639" lon="2.94973">
        <ele>1057</ele>
        <time>2009-05-22T15:25:48Z</time>
      </trkpt>
      <trkpt lat="45.78635" lon="2.94986">
        <ele>1057</ele>
        <time>2009-05-22T15:26:01Z</time>
      </trkpt>
      <trkpt lat="45.78627" lon="2.95005">
        <ele>1058</ele>
        <time>2009-05-22T15:26:07Z</time>
      </trkpt>
      <trkpt lat="45.78626" lon="2.95019">
        <ele>1059</ele>
        <time>2009-05-22T15:26:12Z</time>
      </trkpt>
      <trkpt lat="45.78623" lon="2.95037">
        <ele>1060</ele>
        <time>2009-05-22T15:26:17Z</time>
      </trkpt>
      <trkpt lat="45.78621" lon="2.95049">
        <ele>1061</ele>
        <time>2009-05-22T15:26:21Z</time>
      </trkpt>
      <trkpt lat="45.7862" lon="2.95069">
        <ele>1063</ele>
        <time>2009-05-22T15:26:28Z</time>
      </trkpt>
      <trkpt lat="45.78622" lon="2.95087">
        <ele>1065</ele>
        <time>2009-05-22T15:26:33Z</time>
      </trkpt>
      <trkpt lat="45.78622" lon="2.9509">
        <ele>1065</ele>
        <time>2009-05-22T15:26:34Z</time>
      </trkpt>
      <trkpt lat="45.78624" lon="2.95111">
        <ele>1067</ele>
        <time>2009-05-22T15:26:40Z</time>
      </trkpt>
      <trkpt lat="45.78622" lon="2.95127">
        <ele>1067</ele>
        <time>2009-05-22T15:26:45Z</time>
      </trkpt>
      <trkpt lat="45.78622" lon="2.95134">
        <ele>1068</ele>
        <time>2009-05-22T15:26:47Z</time>
      </trkpt>
      <trkpt lat="45.78623" lon="2.95155">
        <ele>1069</ele>
        <time>2009-05-22T15:26:53Z</time>
      </trkpt>
      <trkpt lat="45.78622" lon="2.95172">
        <ele>1070</ele>
        <time>2009-05-22T15:26:58Z</time>
      </trkpt>
      <trkpt lat="45.78621" lon="2.95188">
        <ele>1071</ele>
        <time>2009-05-22T15:27:03Z</time>
      </trkpt>
      <trkpt lat="45.78617" lon="2.95208">
        <ele>1071</ele>
        <time>2009-05-22T15:27:09Z</time>
      </trkpt>
      <trkpt lat="45.78614" lon="2.95226">
        <ele>1071</ele>
        <time>2009-05-22T15:27:15Z</time>
      </trkpt>
      <trkpt lat="45.7861" lon="2.95252">
        <ele>1071</ele>
        <time>2009-05-22T15:27:22Z</time>
      </trkpt>
      <trkpt lat="45.78609" lon="2.95259">
        <ele>1071</ele>
        <time>2009-05-22T15:27:23Z</time>
      </trkpt>
      <trkpt lat="45.78602" lon="2.95295">
        <ele>1069</ele>
        <time>2009-05-22T15:27:28Z</time>
      </trkpt>
      <trkpt lat="45.78601" lon="2.95312">
        <ele>1069</ele>
        <time>2009-05-22T15:27:30Z</time>
      </trkpt>
      <trkpt lat="45.78602" lon="2.95348">
        <ele>1069</ele>
        <time>2009-05-22T15:27:34Z</time>
      </trkpt>
      <trkpt lat="45.78605" lon="2.95384">
        <ele>1071</ele>
        <time>2009-05-22T15:27:38Z</time>
      </trkpt>
      <trkpt lat="45.78607" lon="2.95402">
        <ele>1071</ele>
        <time>2009-05-22T15:27:40Z</time>
      </trkpt>
      <trkpt lat="45.78603" lon="2.9543">
        <ele>1070</ele>
        <time>2009-05-22T15:27:44Z</time>
      </trkpt>
      <trkpt lat="45.78601" lon="2.95434">
        <ele>1069</ele>
        <time>2009-05-22T15:27:45Z</time>
      </trkpt>
      <trkpt lat="45.78597" lon="2.95441">
        <ele>1068</ele>
        <time>2009-05-22T15:27:47Z</time>
      </trkpt>
      <trkpt lat="45.78594" lon="2.95459">
        <ele>1068</ele>
        <time>2009-05-22T15:27:53Z</time>
      </trkpt>
      <trkpt lat="45.78595" lon="2.95467">
        <ele>1068</ele>
        <time>2009-05-22T15:27:56Z</time>
      </trkpt>
      <trkpt lat="45.78592" lon="2.95478">
        <ele>1067</ele>
        <time>2009-05-22T15:28:00Z</time>
      </trkpt>
      <trkpt lat="45.78592" lon="2.95486">
        <ele>1067</ele>
        <time>2009-05-22T15:28:04Z</time>
      </trkpt>
      <trkpt lat="45.78592" lon="2.95498">
        <ele>1068</ele>
        <time>2009-05-22T15:28:09Z</time>
      </trkpt>
      <trkpt lat="45.78592" lon="2.95503">
        <ele>1068</ele>
        <time>2009-05-22T15:28:11Z</time>
      </trkpt>
      <trkpt lat="45.78592" lon="2.95524">
        <ele>1068</ele>
        <time>2009-05-22T15:28:18Z</time>
      </trkpt>
      <trkpt lat="45.78591" lon="2.95545">
        <ele>1068</ele>
        <time>2009-05-22T15:28:24Z</time>
      </trkpt>
      <trkpt lat="45.78585" lon="2.95572">
        <ele>1067</ele>
        <time>2009-05-22T15:28:31Z</time>
      </trkpt>
      <trkpt lat="45.78584" lon="2.95597">
        <ele>1067</ele>
        <time>2009-05-22T15:28:38Z</time>
      </trkpt>
      <trkpt lat="45.78583" lon="2.9561">
        <ele>1067</ele>
        <time>2009-05-22T15:28:42Z</time>
      </trkpt>
      <trkpt lat="45.78581" lon="2.95629">
        <ele>1067</ele>
        <time>2009-05-22T15:28:47Z</time>
      </trkpt>
      <trkpt lat="45.78581" lon="2.9566">
        <ele>1067</ele>
        <time>2009-05-22T15:28:54Z</time>
      </trkpt>
      <trkpt lat="45.78581" lon="2.95682">
        <ele>1068</ele>
        <time>2009-05-22T15:29:00Z</time>
      </trkpt>
      <trkpt lat="45.78581" lon="2.95707">
        <ele>1068</ele>
        <time>2009-05-22T15:29:07Z</time>
      </trkpt>
      <trkpt lat="45.78581" lon="2.95733">
        <ele>1069</ele>
        <time>2009-05-22T15:29:14Z</time>
      </trkpt>
      <trkpt lat="45.78581" lon="2.95753">
        <ele>1070</ele>
        <time>2009-05-22T15:29:20Z</time>
      </trkpt>
      <trkpt lat="45.7858" lon="2.95771">
        <ele>1070</ele>
        <time>2009-05-22T15:29:25Z</time>
      </trkpt>
      <trkpt lat="45.78582" lon="2.95799">
        <ele>1071</ele>
        <time>2009-05-22T15:29:33Z</time>
      </trkpt>
      <trkpt lat="45.78583" lon="2.95821">
        <ele>1072</ele>
        <time>2009-05-22T15:29:40Z</time>
      </trkpt>
      <trkpt lat="45.78582" lon="2.95846">
        <ele>1074</ele>
        <time>2009-05-22T15:29:48Z</time>
      </trkpt>
      <trkpt lat="45.78575" lon="2.95851">
        <ele>1074</ele>
        <time>2009-05-22T15:29:52Z</time>
      </trkpt>
      <trkpt lat="45.78561" lon="2.9585">
        <ele>1073</ele>
        <time>2009-05-22T15:29:58Z</time>
      </trkpt>
      <trkpt lat="45.78561" lon="2.95851">
        <ele>1073</ele>
        <time>2009-05-22T15:30:01Z</time>
      </trkpt>
      <trkpt lat="45.78563" lon="2.95851">
        <ele>1074</ele>
        <time>2009-05-22T15:30:18Z</time>
      </trkpt>
      <trkpt lat="45.78564" lon="2.95851">
        <ele>1074</ele>
        <time>2009-05-22T15:30:23Z</time>
      </trkpt>
      <trkpt lat="45.78564" lon="2.95851">
        <ele>1074</ele>
        <time>2009-05-22T15:30:29Z</time>
      </trkpt>
      <trkpt lat="45.78562" lon="2.95852">
        <ele>1074</ele>
        <time>2009-05-22T15:31:25Z</time>
      </trkpt>
      <trkpt lat="45.78562" lon="2.95852">
        <ele>1073</ele>
        <time>2009-05-22T15:31:26Z</time>
      </trkpt>
      <trkpt lat="45.78561" lon="2.95852">
        <ele>1073</ele>
        <time>2009-05-22T15:31:47Z</time>
      </trkpt>
      <trkpt lat="45.78561" lon="2.95852">
        <ele>1073</ele>
        <time>2009-05-22T15:32:11Z</time>
      </trkpt>
      <trkpt lat="45.7856" lon="2.95852">
        <ele>1073</ele>
        <time>2009-05-22T15:32:20Z</time>
      </trkpt>
      <trkpt lat="45.78562" lon="2.9585">
        <ele>1073</ele>
        <time>2009-05-22T15:32:31Z</time>
      </trkpt>
      <trkpt lat="45.78562" lon="2.95849">
        <ele>1073</ele>
        <time>2009-05-22T15:32:53Z</time>
      </trkpt>
      <trkpt lat="45.78562" lon="2.95849">
        <ele>1073</ele>
        <time>2009-05-22T15:33:04Z</time>
      </trkpt>
      <trkpt lat="45.78563" lon="2.95849">
        <ele>1073</ele>
        <time>2009-05-22T15:33:20Z</time>
      </trkpt>
      <trkpt lat="45.78563" lon="2.95849">
        <ele>1073</ele>
        <time>2009-05-22T15:33:42Z</time>
      </trkpt>
      <trkpt lat="45.78563" lon="2.95849">
        <ele>1073</ele>
        <time>2009-05-22T15:33:53Z</time>
      </trkpt>
      <trkpt lat="45.78563" lon="2.95849">
        <ele>1073</ele>
        <time>2009-05-22T15:34:03Z</time>
      </trkpt>
      <trkpt lat="45.78562" lon="2.9585">
        <ele>1073</ele>
        <time>2009-05-22T15:34:21Z</time>
      </trkpt>
      <trkpt lat="45.78558" lon="2.95849">
        <ele>1073</ele>
        <time>2009-05-22T15:34:27Z</time>
      </trkpt>
      <trkpt lat="45.78558" lon="2.95849">
        <ele>1073</ele>
        <time>2009-05-22T15:34:35Z</time>
      </trkpt>
      <trkpt lat="45.78552" lon="2.9585">
        <ele>1073</ele>
        <time>2009-05-22T15:35:03Z</time>
      </trkpt>
      <trkpt lat="45.78537" lon="2.95852">
        <ele>1073</ele>
        <time>2009-05-22T15:35:09Z</time>
      </trkpt>
      <trkpt lat="45.78511" lon="2.95854">
        <ele>1074</ele>
        <time>2009-05-22T15:35:18Z</time>
      </trkpt>
      <trkpt lat="45.7849" lon="2.95855">
        <ele>1075</ele>
        <time>2009-05-22T15:35:25Z</time>
      </trkpt>
      <trkpt lat="45.78457" lon="2.95856">
        <ele>1075</ele>
        <time>2009-05-22T15:35:35Z</time>
      </trkpt>
      <trkpt lat="45.7843" lon="2.95855">
        <ele>1075</ele>
        <time>2009-05-22T15:35:43Z</time>
      </trkpt>
      <trkpt lat="45.784" lon="2.95858">
        <ele>1075</ele>
        <time>2009-05-22T15:35:52Z</time>
      </trkpt>
      <trkpt lat="45.78376" lon="2.95859">
        <ele>1075</ele>
        <time>2009-05-22T15:35:59Z</time>
      </trkpt>
      <trkpt lat="45.78344" lon="2.95857">
        <ele>1075</ele>
        <time>2009-05-22T15:36:08Z</time>
      </trkpt>
      <trkpt lat="45.7833" lon="2.95854">
        <ele>1075</ele>
        <time>2009-05-22T15:36:13Z</time>
      </trkpt>
      <trkpt lat="45.783" lon="2.95846">
        <ele>1075</ele>
        <time>2009-05-22T15:36:21Z</time>
      </trkpt>
      <trkpt lat="45.78266" lon="2.95834">
        <ele>1076</ele>
        <time>2009-05-22T15:36:30Z</time>
      </trkpt>
      <trkpt lat="45.78232" lon="2.95821">
        <ele>1076</ele>
        <time>2009-05-22T15:36:39Z</time>
      </trkpt>
      <trkpt lat="45.78202" lon="2.95805">
        <ele>1076</ele>
        <time>2009-05-22T15:36:48Z</time>
      </trkpt>
      <trkpt lat="45.78189" lon="2.95783">
        <ele>1076</ele>
        <time>2009-05-22T15:36:53Z</time>
      </trkpt>
      <trkpt lat="45.78166" lon="2.95742">
        <ele>1075</ele>
        <time>2009-05-22T15:37:02Z</time>
      </trkpt>
      <trkpt lat="45.7815" lon="2.95712">
        <ele>1074</ele>
        <time>2009-05-22T15:37:09Z</time>
      </trkpt>
      <trkpt lat="45.78144" lon="2.95687">
        <ele>1074</ele>
        <time>2009-05-22T15:37:15Z</time>
      </trkpt>
      <trkpt lat="45.7814" lon="2.95671">
        <ele>1073</ele>
        <time>2009-05-22T15:37:19Z</time>
      </trkpt>
      <trkpt lat="45.7814" lon="2.95654">
        <ele>1073</ele>
        <time>2009-05-22T15:37:23Z</time>
      </trkpt>
      <trkpt lat="45.7814" lon="2.95647">
        <ele>1073</ele>
        <time>2009-05-22T15:37:25Z</time>
      </trkpt>
      <trkpt lat="45.78129" lon="2.95627">
        <ele>1073</ele>
        <time>2009-05-22T15:37:31Z</time>
      </trkpt>
      <trkpt lat="45.78122" lon="2.9561">
        <ele>1073</ele>
        <time>2009-05-22T15:37:36Z</time>
      </trkpt>
      <trkpt lat="45.78115" lon="2.95595">
        <ele>1074</ele>
        <time>2009-05-22T15:37:41Z</time>
      </trkpt>
      <trkpt lat="45.78105" lon="2.95579">
        <ele>1075</ele>
        <time>2009-05-22T15:37:46Z</time>
      </trkpt>
      <trkpt lat="45.78103" lon="2.95576">
        <ele>1075</ele>
        <time>2009-05-22T15:37:47Z</time>
      </trkpt>
      <trkpt lat="45.78101" lon="2.95561">
        <ele>1075</ele>
        <time>2009-05-22T15:37:52Z</time>
      </trkpt>
      <trkpt lat="45.78095" lon="2.95542">
        <ele>1075</ele>
        <time>2009-05-22T15:37:57Z</time>
      </trkpt>
      <trkpt lat="45.78089" lon="2.95534">
        <ele>1075</ele>
        <time>2009-05-22T15:38:01Z</time>
      </trkpt>
      <trkpt lat="45.78086" lon="2.95527">
        <ele>1075</ele>
        <time>2009-05-22T15:38:04Z</time>
      </trkpt>
      <trkpt lat="45.78077" lon="2.9552">
        <ele>1076</ele>
        <time>2009-05-22T15:38:09Z</time>
      </trkpt>
      <trkpt lat="45.78073" lon="2.95499">
        <ele>1076</ele>
        <time>2009-05-22T15:38:14Z</time>
      </trkpt>
      <trkpt lat="45.78068" lon="2.95479">
        <ele>1075</ele>
        <time>2009-05-22T15:38:18Z</time>
      </trkpt>
      <trkpt lat="45.78064" lon="2.95466">
        <ele>1075</ele>
        <time>2009-05-22T15:38:20Z</time>
      </trkpt>
      <trkpt lat="45.78054" lon="2.95444">
        <ele>1075</ele>
        <time>2009-05-22T15:38:23Z</time>
      </trkpt>
      <trkpt lat="45.78038" lon="2.95412">
        <ele>1075</ele>
        <time>2009-05-22T15:38:29Z</time>
      </trkpt>
      <trkpt lat="45.78033" lon="2.95398">
        <ele>1074</ele>
        <time>2009-05-22T15:38:33Z</time>
      </trkpt>
      <trkpt lat="45.78024" lon="2.95378">
        <ele>1073</ele>
        <time>2009-05-22T15:38:38Z</time>
      </trkpt>
      <trkpt lat="45.7801" lon="2.95364">
        <ele>1072</ele>
        <time>2009-05-22T15:38:43Z</time>
      </trkpt>
      <trkpt lat="45.78007" lon="2.95362">
        <ele>1072</ele>
        <time>2009-05-22T15:38:44Z</time>
      </trkpt>
      <trkpt lat="45.77989" lon="2.95354">
        <ele>1070</ele>
        <time>2009-05-22T15:38:47Z</time>
      </trkpt>
      <trkpt lat="45.7797" lon="2.95344">
        <ele>1068</ele>
        <time>2009-05-22T15:38:50Z</time>
      </trkpt>
      <trkpt lat="45.77957" lon="2.95338">
        <ele>1067</ele>
        <time>2009-05-22T15:38:52Z</time>
      </trkpt>
      <trkpt lat="45.77927" lon="2.95315">
        <ele>1065</ele>
        <time>2009-05-22T15:38:57Z</time>
      </trkpt>
      <trkpt lat="45.77921" lon="2.9531">
        <ele>1065</ele>
        <time>2009-05-22T15:38:58Z</time>
      </trkpt>
      <trkpt lat="45.779" lon="2.95298">
        <ele>1065</ele>
        <time>2009-05-22T15:39:03Z</time>
      </trkpt>
      <trkpt lat="45.77894" lon="2.95295">
        <ele>1066</ele>
        <time>2009-05-22T15:39:05Z</time>
      </trkpt>
      <trkpt lat="45.77879" lon="2.9528">
        <ele>1066</ele>
        <time>2009-05-22T15:39:11Z</time>
      </trkpt>
      <trkpt lat="45.77874" lon="2.95276">
        <ele>1067</ele>
        <time>2009-05-22T15:39:13Z</time>
      </trkpt>
      <trkpt lat="45.77859" lon="2.9527">
        <ele>1068</ele>
        <time>2009-05-22T15:39:18Z</time>
      </trkpt>
      <trkpt lat="45.77854" lon="2.9527">
        <ele>1068</ele>
        <time>2009-05-22T15:39:20Z</time>
      </trkpt>
      <trkpt lat="45.77833" lon="2.95261">
        <ele>1070</ele>
        <time>2009-05-22T15:39:25Z</time>
      </trkpt>
      <trkpt lat="45.77825" lon="2.95259">
        <ele>1071</ele>
        <time>2009-05-22T15:39:30Z</time>
      </trkpt>
      <trkpt lat="45.77818" lon="2.95259">
        <ele>1071</ele>
        <time>2009-05-22T15:39:37Z</time>
      </trkpt>
      <trkpt lat="45.7781" lon="2.95258">
        <ele>1072</ele>
        <time>2009-05-22T15:39:42Z</time>
      </trkpt>
      <trkpt lat="45.77799" lon="2.95254">
        <ele>1073</ele>
        <time>2009-05-22T15:39:48Z</time>
      </trkpt>
      <trkpt lat="45.77786" lon="2.95254">
        <ele>1074</ele>
        <time>2009-05-22T15:39:52Z</time>
      </trkpt>
      <trkpt lat="45.77782" lon="2.95253">
        <ele>1075</ele>
        <time>2009-05-22T15:39:53Z</time>
      </trkpt>
      <trkpt lat="45.77769" lon="2.95251">
        <ele>1075</ele>
        <time>2009-05-22T15:39:57Z</time>
      </trkpt>
      <trkpt lat="45.77749" lon="2.95241">
        <ele>1076</ele>
        <time>2009-05-22T15:40:03Z</time>
      </trkpt>
      <trkpt lat="45.77731" lon="2.95235">
        <ele>1076</ele>
        <time>2009-05-22T15:40:08Z</time>
      </trkpt>
      <trkpt lat="45.77727" lon="2.95234">
        <ele>1076</ele>
        <time>2009-05-22T15:40:10Z</time>
      </trkpt>
      <trkpt lat="45.77711" lon="2.95232">
        <ele>1075</ele>
        <time>2009-05-22T15:40:15Z</time>
      </trkpt>
      <trkpt lat="45.77699" lon="2.95237">
        <ele>1075</ele>
        <time>2009-05-22T15:40:18Z</time>
      </trkpt>
      <trkpt lat="45.77669" lon="2.95251">
        <ele>1074</ele>
        <time>2009-05-22T15:40:23Z</time>
      </trkpt>
      <trkpt lat="45.77637" lon="2.95264">
        <ele>1071</ele>
        <time>2009-05-22T15:40:28Z</time>
      </trkpt>
      <trkpt lat="45.7763" lon="2.95267">
        <ele>1071</ele>
        <time>2009-05-22T15:40:29Z</time>
      </trkpt>
      <trkpt lat="45.77618" lon="2.95273">
        <ele>1070</ele>
        <time>2009-05-22T15:40:31Z</time>
      </trkpt>
      <trkpt lat="45.77591" lon="2.95289">
        <ele>1071</ele>
        <time>2009-05-22T15:40:34Z</time>
      </trkpt>
      <trkpt lat="45.77573" lon="2.95287">
        <ele>1070</ele>
        <time>2009-05-22T15:40:37Z</time>
      </trkpt>
      <trkpt lat="45.77561" lon="2.95279">
        <ele>1067</ele>
        <time>2009-05-22T15:40:39Z</time>
      </trkpt>
      <trkpt lat="45.77542" lon="2.95249">
        <ele>1062</ele>
        <time>2009-05-22T15:40:43Z</time>
      </trkpt>
      <trkpt lat="45.77528" lon="2.95226">
        <ele>1059</ele>
        <time>2009-05-22T15:40:46Z</time>
      </trkpt>
      <trkpt lat="45.77511" lon="2.95214">
        <ele>1057</ele>
        <time>2009-05-22T15:40:51Z</time>
      </trkpt>
      <trkpt lat="45.77494" lon="2.95211">
        <ele>1058</ele>
        <time>2009-05-22T15:40:55Z</time>
      </trkpt>
      <trkpt lat="45.77477" lon="2.95207">
        <ele>1059</ele>
        <time>2009-05-22T15:41:00Z</time>
      </trkpt>
      <trkpt lat="45.77463" lon="2.95201">
        <ele>1060</ele>
        <time>2009-05-22T15:41:05Z</time>
      </trkpt>
      <trkpt lat="45.77446" lon="2.95195">
        <ele>1062</ele>
        <time>2009-05-22T15:41:10Z</time>
      </trkpt>
      <trkpt lat="45.77431" lon="2.95193">
        <ele>1064</ele>
        <time>2009-05-22T15:41:15Z</time>
      </trkpt>
      <trkpt lat="45.77412" lon="2.95188">
        <ele>1066</ele>
        <time>2009-05-22T15:41:22Z</time>
      </trkpt>
      <trkpt lat="45.77397" lon="2.95187">
        <ele>1067</ele>
        <time>2009-05-22T15:41:27Z</time>
      </trkpt>
      <trkpt lat="45.77384" lon="2.95191">
        <ele>1069</ele>
        <time>2009-05-22T15:41:32Z</time>
      </trkpt>
      <trkpt lat="45.77372" lon="2.95193">
        <ele>1071</ele>
        <time>2009-05-22T15:41:36Z</time>
      </trkpt>
      <trkpt lat="45.77353" lon="2.95195">
        <ele>1072</ele>
        <time>2009-05-22T15:41:42Z</time>
      </trkpt>
      <trkpt lat="45.77335" lon="2.95195">
        <ele>1073</ele>
        <time>2009-05-22T15:41:47Z</time>
      </trkpt>
      <trkpt lat="45.7732" lon="2.95195">
        <ele>1074</ele>
        <time>2009-05-22T15:41:52Z</time>
      </trkpt>
      <trkpt lat="45.77307" lon="2.95197">
        <ele>1075</ele>
        <time>2009-05-22T15:41:57Z</time>
      </trkpt>
      <trkpt lat="45.77295" lon="2.952">
        <ele>1076</ele>
        <time>2009-05-22T15:42:03Z</time>
      </trkpt>
      <trkpt lat="45.77279" lon="2.95201">
        <ele>1077</ele>
        <time>2009-05-22T15:42:10Z</time>
      </trkpt>
      <trkpt lat="45.77272" lon="2.95202">
        <ele>1078</ele>
        <time>2009-05-22T15:42:13Z</time>
      </trkpt>
      <trkpt lat="45.77261" lon="2.95202">
        <ele>1079</ele>
        <time>2009-05-22T15:42:18Z</time>
      </trkpt>
      <trkpt lat="45.77247" lon="2.95205">
        <ele>1080</ele>
        <time>2009-05-22T15:42:25Z</time>
      </trkpt>
      <trkpt lat="45.7724" lon="2.95208">
        <ele>1081</ele>
        <time>2009-05-22T15:42:29Z</time>
      </trkpt>
      <trkpt lat="45.77231" lon="2.95212">
        <ele>1082</ele>
        <time>2009-05-22T15:42:33Z</time>
      </trkpt>
      <trkpt lat="45.77216" lon="2.95218">
        <ele>1084</ele>
        <time>2009-05-22T15:42:39Z</time>
      </trkpt>
      <trkpt lat="45.77206" lon="2.95221">
        <ele>1085</ele>
        <time>2009-05-22T15:42:44Z</time>
      </trkpt>
      <trkpt lat="45.77193" lon="2.95224">
        <ele>1086</ele>
        <time>2009-05-22T15:42:52Z</time>
      </trkpt>
      <trkpt lat="45.77181" lon="2.95226">
        <ele>1087</ele>
        <time>2009-05-22T15:42:59Z</time>
      </trkpt>
      <trkpt lat="45.77172" lon="2.95226">
        <ele>1087</ele>
        <time>2009-05-22T15:43:05Z</time>
      </trkpt>
      <trkpt lat="45.77163" lon="2.9523">
        <ele>1088</ele>
        <time>2009-05-22T15:43:10Z</time>
      </trkpt>
      <trkpt lat="45.77159" lon="2.95231">
        <ele>1088</ele>
        <time>2009-05-22T15:43:14Z</time>
      </trkpt>
      <trkpt lat="45.77149" lon="2.95236">
        <ele>1089</ele>
        <time>2009-05-22T15:43:20Z</time>
      </trkpt>
      <trkpt lat="45.77141" lon="2.95238">
        <ele>1090</ele>
        <time>2009-05-22T15:43:26Z</time>
      </trkpt>
      <trkpt lat="45.77132" lon="2.95243">
        <ele>1091</ele>
        <time>2009-05-22T15:43:32Z</time>
      </trkpt>
      <trkpt lat="45.77123" lon="2.95247">
        <ele>1092</ele>
        <time>2009-05-22T15:43:37Z</time>
      </trkpt>
      <trkpt lat="45.77112" lon="2.95254">
        <ele>1094</ele>
        <time>2009-05-22T15:43:43Z</time>
      </trkpt>
      <trkpt lat="45.77102" lon="2.95261">
        <ele>1095</ele>
        <time>2009-05-22T15:43:49Z</time>
      </trkpt>
      <trkpt lat="45.77092" lon="2.95267">
        <ele>1096</ele>
        <time>2009-05-22T15:43:55Z</time>
      </trkpt>
      <trkpt lat="45.77079" lon="2.95276">
        <ele>1098</ele>
        <time>2009-05-22T15:44:03Z</time>
      </trkpt>
      <trkpt lat="45.77065" lon="2.95285">
        <ele>1099</ele>
        <time>2009-05-22T15:44:11Z</time>
      </trkpt>
      <trkpt lat="45.77058" lon="2.95289">
        <ele>1099</ele>
        <time>2009-05-22T15:44:16Z</time>
      </trkpt>
      <trkpt lat="45.77047" lon="2.95298">
        <ele>1101</ele>
        <time>2009-05-22T15:44:21Z</time>
      </trkpt>
      <trkpt lat="45.77036" lon="2.95304">
        <ele>1101</ele>
        <time>2009-05-22T15:44:25Z</time>
      </trkpt>
      <trkpt lat="45.77026" lon="2.95307">
        <ele>1101</ele>
        <time>2009-05-22T15:44:30Z</time>
      </trkpt>
      <trkpt lat="45.77017" lon="2.95314">
        <ele>1101</ele>
        <time>2009-05-22T15:44:35Z</time>
      </trkpt>
      <trkpt lat="45.77001" lon="2.95315">
        <ele>1100</ele>
        <time>2009-05-22T15:44:42Z</time>
      </trkpt>
      <trkpt lat="45.76983" lon="2.95319">
        <ele>1098</ele>
        <time>2009-05-22T15:44:47Z</time>
      </trkpt>
      <trkpt lat="45.76963" lon="2.95327">
        <ele>1098</ele>
        <time>2009-05-22T15:44:51Z</time>
      </trkpt>
      <trkpt lat="45.76953" lon="2.95332">
        <ele>1097</ele>
        <time>2009-05-22T15:44:53Z</time>
      </trkpt>
      <trkpt lat="45.76915" lon="2.95356">
        <ele>1098</ele>
        <time>2009-05-22T15:44:59Z</time>
      </trkpt>
      <trkpt lat="45.76884" lon="2.95372">
        <ele>1097</ele>
        <time>2009-05-22T15:45:04Z</time>
      </trkpt>
      <trkpt lat="45.76872" lon="2.95376">
        <ele>1097</ele>
        <time>2009-05-22T15:45:06Z</time>
      </trkpt>
      <trkpt lat="45.76849" lon="2.95388">
        <ele>1096</ele>
        <time>2009-05-22T15:45:10Z</time>
      </trkpt>
      <trkpt lat="45.76839" lon="2.95394">
        <ele>1096</ele>
        <time>2009-05-22T15:45:12Z</time>
      </trkpt>
      <trkpt lat="45.7681" lon="2.95407">
        <ele>1097</ele>
        <time>2009-05-22T15:45:18Z</time>
      </trkpt>
      <trkpt lat="45.76792" lon="2.95411">
        <ele>1096</ele>
        <time>2009-05-22T15:45:23Z</time>
      </trkpt>
      <trkpt lat="45.76782" lon="2.95407">
        <ele>1094</ele>
        <time>2009-05-22T15:45:25Z</time>
      </trkpt>
      <trkpt lat="45.76757" lon="2.954">
        <ele>1091</ele>
        <time>2009-05-22T15:45:29Z</time>
      </trkpt>
      <trkpt lat="45.76727" lon="2.95406">
        <ele>1090</ele>
        <time>2009-05-22T15:45:34Z</time>
      </trkpt>
      <trkpt lat="45.76706" lon="2.95408">
        <ele>1090</ele>
        <time>2009-05-22T15:45:38Z</time>
      </trkpt>
      <trkpt lat="45.76681" lon="2.95415">
        <ele>1090</ele>
        <time>2009-05-22T15:45:42Z</time>
      </trkpt>
      <trkpt lat="45.76675" lon="2.95417">
        <ele>1091</ele>
        <time>2009-05-22T15:45:43Z</time>
      </trkpt>
      <trkpt lat="45.76642" lon="2.95434">
        <ele>1094</ele>
        <time>2009-05-22T15:45:49Z</time>
      </trkpt>
      <trkpt lat="45.76625" lon="2.95451">
        <ele>1098</ele>
        <time>2009-05-22T15:45:54Z</time>
      </trkpt>
      <trkpt lat="45.76622" lon="2.95455">
        <ele>1099</ele>
        <time>2009-05-22T15:45:55Z</time>
      </trkpt>
      <trkpt lat="45.76613" lon="2.95465">
        <ele>1100</ele>
        <time>2009-05-22T15:45:59Z</time>
      </trkpt>
      <trkpt lat="45.76605" lon="2.95469">
        <ele>1100</ele>
        <time>2009-05-22T15:46:02Z</time>
      </trkpt>
      <trkpt lat="45.76589" lon="2.95482">
        <ele>1101</ele>
        <time>2009-05-22T15:46:07Z</time>
      </trkpt>
      <trkpt lat="45.76583" lon="2.95484">
        <ele>1100</ele>
        <time>2009-05-22T15:46:11Z</time>
      </trkpt>
      <trkpt lat="45.76572" lon="2.95486">
        <ele>1098</ele>
        <time>2009-05-22T15:46:33Z</time>
      </trkpt>
      <trkpt lat="45.76571" lon="2.95486">
        <ele>1098</ele>
        <time>2009-05-22T15:46:34Z</time>
      </trkpt>
      <trkpt lat="45.76564" lon="2.95495">
        <ele>1098</ele>
        <time>2009-05-22T15:46:38Z</time>
      </trkpt>
      <trkpt lat="45.7655" lon="2.95498">
        <ele>1095</ele>
        <time>2009-05-22T15:46:43Z</time>
      </trkpt>
      <trkpt lat="45.76546" lon="2.95499">
        <ele>1095</ele>
        <time>2009-05-22T15:46:44Z</time>
      </trkpt>
      <trkpt lat="45.76522" lon="2.9551">
        <ele>1092</ele>
        <time>2009-05-22T15:46:50Z</time>
      </trkpt>
      <trkpt lat="45.76505" lon="2.95517">
        <ele>1091</ele>
        <time>2009-05-22T15:46:54Z</time>
      </trkpt>
      <trkpt lat="45.76487" lon="2.95523">
        <ele>1089</ele>
        <time>2009-05-22T15:46:58Z</time>
      </trkpt>
      <trkpt lat="45.76473" lon="2.95529">
        <ele>1087</ele>
        <time>2009-05-22T15:47:02Z</time>
      </trkpt>
      <trkpt lat="45.76452" lon="2.95536">
        <ele>1086</ele>
        <time>2009-05-22T15:47:08Z</time>
      </trkpt>
      <trkpt lat="45.76432" lon="2.95541">
        <ele>1084</ele>
        <time>2009-05-22T15:47:15Z</time>
      </trkpt>
      <trkpt lat="45.7642" lon="2.95544">
        <ele>1083</ele>
        <time>2009-05-22T15:47:20Z</time>
      </trkpt>
      <trkpt lat="45.76406" lon="2.9555">
        <ele>1081</ele>
        <time>2009-05-22T15:47:25Z</time>
      </trkpt>
      <trkpt lat="45.76401" lon="2.95556">
        <ele>1081</ele>
        <time>2009-05-22T15:47:27Z</time>
      </trkpt>
      <trkpt lat="45.76396" lon="2.95585">
        <ele>1079</ele>
        <time>2009-05-22T15:47:32Z</time>
      </trkpt>
      <trkpt lat="45.76394" lon="2.95592">
        <ele>1078</ele>
        <time>2009-05-22T15:47:33Z</time>
      </trkpt>
      <trkpt lat="45.76385" lon="2.95619">
        <ele>1075</ele>
        <time>2009-05-22T15:47:37Z</time>
      </trkpt>
      <trkpt lat="45.76377" lon="2.95631">
        <ele>1073</ele>
        <time>2009-05-22T15:47:41Z</time>
      </trkpt>
      <trkpt lat="45.76376" lon="2.95632">
        <ele>1073</ele>
        <time>2009-05-22T15:47:44Z</time>
      </trkpt>
      <trkpt lat="45.76375" lon="2.95634">
        <ele>1072</ele>
        <time>2009-05-22T15:47:54Z</time>
      </trkpt>
      <trkpt lat="45.76375" lon="2.95632">
        <ele>1073</ele>
        <time>2009-05-22T15:48:11Z</time>
      </trkpt>
      <trkpt lat="45.76376" lon="2.95632">
        <ele>1073</ele>
        <time>2009-05-22T15:48:20Z</time>
      </trkpt>
      <trkpt lat="45.76376" lon="2.95632">
        <ele>1073</ele>
        <time>2009-05-22T15:48:27Z</time>
      </trkpt>
      <trkpt lat="45.76376" lon="2.95636">
        <ele>1072</ele>
        <time>2009-05-22T15:49:17Z</time>
      </trkpt>
      <trkpt lat="45.76376" lon="2.95636">
        <ele>1072</ele>
        <time>2009-05-22T15:49:23Z</time>
      </trkpt>
      <trkpt lat="45.76377" lon="2.95632">
        <ele>1073</ele>
        <time>2009-05-22T15:49:50Z</time>
      </trkpt>
      <trkpt lat="45.76366" lon="2.95635">
        <ele>1072</ele>
        <time>2009-05-22T15:49:55Z</time>
      </trkpt>
      <trkpt lat="45.76363" lon="2.95636">
        <ele>1072</ele>
        <time>2009-05-22T15:49:56Z</time>
      </trkpt>
      <trkpt lat="45.76342" lon="2.95653">
        <ele>1068</ele>
        <time>2009-05-22T15:50:01Z</time>
      </trkpt>
      <trkpt lat="45.76333" lon="2.95664">
        <ele>1066</ele>
        <time>2009-05-22T15:50:04Z</time>
      </trkpt>
      <trkpt lat="45.7633" lon="2.95665">
        <ele>1066</ele>
        <time>2009-05-22T15:50:05Z</time>
      </trkpt>
      <trkpt lat="45.76315" lon="2.95669">
        <ele>1064</ele>
        <time>2009-05-22T15:50:09Z</time>
      </trkpt>
      <trkpt lat="45.76306" lon="2.95675">
        <ele>1063</ele>
        <time>2009-05-22T15:50:12Z</time>
      </trkpt>
      <trkpt lat="45.76293" lon="2.9569">
        <ele>1060</ele>
        <time>2009-05-22T15:50:15Z</time>
      </trkpt>
      <trkpt lat="45.76281" lon="2.95708">
        <ele>1056</ele>
        <time>2009-05-22T15:50:19Z</time>
      </trkpt>
      <trkpt lat="45.76268" lon="2.95715">
        <ele>1054</ele>
        <time>2009-05-22T15:50:23Z</time>
      </trkpt>
      <trkpt lat="45.76263" lon="2.95716">
        <ele>1054</ele>
        <time>2009-05-22T15:50:24Z</time>
      </trkpt>
      <trkpt lat="45.76237" lon="2.95735">
        <ele>1050</ele>
        <time>2009-05-22T15:50:29Z</time>
      </trkpt>
      <trkpt lat="45.76211" lon="2.95743">
        <ele>1048</ele>
        <time>2009-05-22T15:50:34Z</time>
      </trkpt>
      <trkpt lat="45.76189" lon="2.95757">
        <ele>1047</ele>
        <time>2009-05-22T15:50:38Z</time>
      </trkpt>
      <trkpt lat="45.76185" lon="2.95762">
        <ele>1046</ele>
        <time>2009-05-22T15:50:39Z</time>
      </trkpt>
      <trkpt lat="45.76153" lon="2.95795">
        <ele>1042</ele>
        <time>2009-05-22T15:50:44Z</time>
      </trkpt>
      <trkpt lat="45.76131" lon="2.95813">
        <ele>1041</ele>
        <time>2009-05-22T15:50:48Z</time>
      </trkpt>
      <trkpt lat="45.76118" lon="2.95821">
        <ele>1042</ele>
        <time>2009-05-22T15:50:50Z</time>
      </trkpt>
      <trkpt lat="45.7611" lon="2.95827">
        <ele>1042</ele>
        <time>2009-05-22T15:50:52Z</time>
      </trkpt>
      <trkpt lat="45.76099" lon="2.95834">
        <ele>1041</ele>
        <time>2009-05-22T15:50:54Z</time>
      </trkpt>
      <trkpt lat="45.7608" lon="2.9586">
        <ele>1037</ele>
        <time>2009-05-22T15:50:59Z</time>
      </trkpt>
      <trkpt lat="45.76072" lon="2.95875">
        <ele>1035</ele>
        <time>2009-05-22T15:51:03Z</time>
      </trkpt>
      <trkpt lat="45.7607" lon="2.95889">
        <ele>1032</ele>
        <time>2009-05-22T15:51:08Z</time>
      </trkpt>
      <trkpt lat="45.76066" lon="2.95907">
        <ele>1029</ele>
        <time>2009-05-22T15:51:13Z</time>
      </trkpt>
      <trkpt lat="45.76068" lon="2.9592">
        <ele>1025</ele>
        <time>2009-05-22T15:51:16Z</time>
      </trkpt>
      <trkpt lat="45.76072" lon="2.95943">
        <ele>1019</ele>
        <time>2009-05-22T15:51:21Z</time>
      </trkpt>
      <trkpt lat="45.76074" lon="2.95958">
        <ele>1016</ele>
        <time>2009-05-22T15:51:24Z</time>
      </trkpt>
      <trkpt lat="45.76075" lon="2.95968">
        <ele>1013</ele>
        <time>2009-05-22T15:51:26Z</time>
      </trkpt>
      <trkpt lat="45.76081" lon="2.95989">
        <ele>1009</ele>
        <time>2009-05-22T15:51:29Z</time>
      </trkpt>
      <trkpt lat="45.76094" lon="2.96021">
        <ele>1003</ele>
        <time>2009-05-22T15:51:34Z</time>
      </trkpt>
      <trkpt lat="45.76098" lon="2.96051">
        <ele>1000</ele>
        <time>2009-05-22T15:51:39Z</time>
      </trkpt>
      <trkpt lat="45.76098" lon="2.96059">
        <ele>999</ele>
        <time>2009-05-22T15:51:41Z</time>
      </trkpt>
      <trkpt lat="45.76092" lon="2.96071">
        <ele>997</ele>
        <time>2009-05-22T15:51:46Z</time>
      </trkpt>
      <trkpt lat="45.76086" lon="2.96092">
        <ele>995</ele>
        <time>2009-05-22T15:51:51Z</time>
      </trkpt>
      <trkpt lat="45.76082" lon="2.96097">
        <ele>994</ele>
        <time>2009-05-22T15:51:52Z</time>
      </trkpt>
      <trkpt lat="45.76072" lon="2.96122">
        <ele>992</ele>
        <time>2009-05-22T15:51:57Z</time>
      </trkpt>
      <trkpt lat="45.76073" lon="2.96137">
        <ele>991</ele>
        <time>2009-05-22T15:52:00Z</time>
      </trkpt>
      <trkpt lat="45.76069" lon="2.96163">
        <ele>988</ele>
        <time>2009-05-22T15:52:04Z</time>
      </trkpt>
      <trkpt lat="45.76061" lon="2.96187">
        <ele>985</ele>
        <time>2009-05-22T15:52:08Z</time>
      </trkpt>
      <trkpt lat="45.76059" lon="2.96196">
        <ele>984</ele>
        <time>2009-05-22T15:52:10Z</time>
      </trkpt>
      <trkpt lat="45.7606" lon="2.96204">
        <ele>984</ele>
        <time>2009-05-22T15:52:12Z</time>
      </trkpt>
      <trkpt lat="45.76057" lon="2.96228">
        <ele>981</ele>
        <time>2009-05-22T15:52:16Z</time>
      </trkpt>
      <trkpt lat="45.76053" lon="2.96242">
        <ele>980</ele>
        <time>2009-05-22T15:52:19Z</time>
      </trkpt>
      <trkpt lat="45.76049" lon="2.96272">
        <ele>978</ele>
        <time>2009-05-22T15:52:24Z</time>
      </trkpt>
      <trkpt lat="45.76044" lon="2.96301">
        <ele>976</ele>
        <time>2009-05-22T15:52:29Z</time>
      </trkpt>
      <trkpt lat="45.76043" lon="2.96309">
        <ele>976</ele>
        <time>2009-05-22T15:52:30Z</time>
      </trkpt>
      <trkpt lat="45.76036" lon="2.96348">
        <ele>974</ele>
        <time>2009-05-22T15:52:34Z</time>
      </trkpt>
      <trkpt lat="45.76031" lon="2.96366">
        <ele>974</ele>
        <time>2009-05-22T15:52:36Z</time>
      </trkpt>
      <trkpt lat="45.76023" lon="2.96404">
        <ele>972</ele>
        <time>2009-05-22T15:52:41Z</time>
      </trkpt>
      <trkpt lat="45.76023" lon="2.96413">
        <ele>972</ele>
        <time>2009-05-22T15:52:42Z</time>
      </trkpt>
      <trkpt lat="45.76012" lon="2.9646">
        <ele>969</ele>
        <time>2009-05-22T15:52:48Z</time>
      </trkpt>
      <trkpt lat="45.76008" lon="2.96464">
        <ele>968</ele>
        <time>2009-05-22T15:52:49Z</time>
      </trkpt>
      <trkpt lat="45.75997" lon="2.96472">
        <ele>968</ele>
        <time>2009-05-22T15:52:52Z</time>
      </trkpt>
      <trkpt lat="45.7598" lon="2.96487">
        <ele>966</ele>
        <time>2009-05-22T15:52:56Z</time>
      </trkpt>
      <trkpt lat="45.75954" lon="2.96494">
        <ele>966</ele>
        <time>2009-05-22T15:53:00Z</time>
      </trkpt>
      <trkpt lat="45.75935" lon="2.96497">
        <ele>965</ele>
        <time>2009-05-22T15:53:02Z</time>
      </trkpt>
      <trkpt lat="45.75897" lon="2.96502">
        <ele>965</ele>
        <time>2009-05-22T15:53:07Z</time>
      </trkpt>
      <trkpt lat="45.75885" lon="2.96503">
        <ele>965</ele>
        <time>2009-05-22T15:53:09Z</time>
      </trkpt>
      <trkpt lat="45.75873" lon="2.96503">
        <ele>965</ele>
        <time>2009-05-22T15:53:11Z</time>
      </trkpt>
      <trkpt lat="45.75839" lon="2.96511">
        <ele>966</ele>
        <time>2009-05-22T15:53:16Z</time>
      </trkpt>
      <trkpt lat="45.7583" lon="2.96511">
        <ele>966</ele>
        <time>2009-05-22T15:53:18Z</time>
      </trkpt>
      <trkpt lat="45.75806" lon="2.96526">
        <ele>965</ele>
        <time>2009-05-22T15:53:24Z</time>
      </trkpt>
      <trkpt lat="45.75779" lon="2.96536">
        <ele>965</ele>
        <time>2009-05-22T15:53:29Z</time>
      </trkpt>
      <trkpt lat="45.75745" lon="2.96549">
        <ele>965</ele>
        <time>2009-05-22T15:53:36Z</time>
      </trkpt>
      <trkpt lat="45.75721" lon="2.96558">
        <ele>965</ele>
        <time>2009-05-22T15:53:40Z</time>
      </trkpt>
      <trkpt lat="45.75685" lon="2.96573">
        <ele>965</ele>
        <time>2009-05-22T15:53:46Z</time>
      </trkpt>
      <trkpt lat="45.75656" lon="2.96591">
        <ele>965</ele>
        <time>2009-05-22T15:53:52Z</time>
      </trkpt>
      <trkpt lat="45.75639" lon="2.96599">
        <ele>965</ele>
        <time>2009-05-22T15:53:55Z</time>
      </trkpt>
      <trkpt lat="45.7561" lon="2.96612">
        <ele>964</ele>
        <time>2009-05-22T15:54:00Z</time>
      </trkpt>
      <trkpt lat="45.75595" lon="2.96623">
        <ele>964</ele>
        <time>2009-05-22T15:54:04Z</time>
      </trkpt>
      <trkpt lat="45.75574" lon="2.96627">
        <ele>963</ele>
        <time>2009-05-22T15:54:10Z</time>
      </trkpt>
      <trkpt lat="45.75554" lon="2.96638">
        <ele>963</ele>
        <time>2009-05-22T15:54:14Z</time>
      </trkpt>
      <trkpt lat="45.75538" lon="2.96649">
        <ele>962</ele>
        <time>2009-05-22T15:54:17Z</time>
      </trkpt>
      <trkpt lat="45.75502" lon="2.96667">
        <ele>961</ele>
        <time>2009-05-22T15:54:23Z</time>
      </trkpt>
      <trkpt lat="45.75446" lon="2.96687">
        <ele>960</ele>
        <time>2009-05-22T15:54:28Z</time>
      </trkpt>
      <trkpt lat="45.75416" lon="2.967">
        <ele>959</ele>
        <time>2009-05-22T15:54:33Z</time>
      </trkpt>
      <trkpt lat="45.75389" lon="2.96711">
        <ele>958</ele>
        <time>2009-05-22T15:54:38Z</time>
      </trkpt>
      <trkpt lat="45.75383" lon="2.96713">
        <ele>958</ele>
        <time>2009-05-22T15:54:39Z</time>
      </trkpt>
      <trkpt lat="45.75371" lon="2.96715">
        <ele>958</ele>
        <time>2009-05-22T15:54:41Z</time>
      </trkpt>
      <trkpt lat="45.75346" lon="2.96724">
        <ele>958</ele>
        <time>2009-05-22T15:54:45Z</time>
      </trkpt>
      <trkpt lat="45.75336" lon="2.96728">
        <ele>958</ele>
        <time>2009-05-22T15:54:46Z</time>
      </trkpt>
      <trkpt lat="45.7532" lon="2.96731">
        <ele>957</ele>
        <time>2009-05-22T15:54:50Z</time>
      </trkpt>
      <trkpt lat="45.75318" lon="2.96731">
        <ele>957</ele>
        <time>2009-05-22T15:54:53Z</time>
      </trkpt>
      <trkpt lat="45.75324" lon="2.9673">
        <ele>957</ele>
        <time>2009-05-22T15:54:59Z</time>
      </trkpt>
      <trkpt lat="45.75325" lon="2.9673">
        <ele>958</ele>
        <time>2009-05-22T15:55:00Z</time>
      </trkpt>
      <trkpt lat="45.75321" lon="2.96728">
        <ele>957</ele>
        <time>2009-05-22T15:55:04Z</time>
      </trkpt>
      <trkpt lat="45.75318" lon="2.96731">
        <ele>957</ele>
        <time>2009-05-22T15:55:05Z</time>
      </trkpt>
      <trkpt lat="45.75294" lon="2.96748">
        <ele>957</ele>
        <time>2009-05-22T15:55:11Z</time>
      </trkpt>
      <trkpt lat="45.75283" lon="2.96763">
        <ele>956</ele>
        <time>2009-05-22T15:55:14Z</time>
      </trkpt>
      <trkpt lat="45.75283" lon="2.96779">
        <ele>956</ele>
        <time>2009-05-22T15:55:17Z</time>
      </trkpt>
      <trkpt lat="45.75284" lon="2.96783">
        <ele>956</ele>
        <time>2009-05-22T15:55:18Z</time>
      </trkpt>
      <trkpt lat="45.75284" lon="2.96792">
        <ele>956</ele>
        <time>2009-05-22T15:55:22Z</time>
      </trkpt>
      <trkpt lat="45.75283" lon="2.96795">
        <ele>956</ele>
        <time>2009-05-22T15:55:30Z</time>
      </trkpt>
      <trkpt lat="45.75278" lon="2.968">
        <ele>955</ele>
        <time>2009-05-22T15:55:34Z</time>
      </trkpt>
      <trkpt lat="45.75263" lon="2.96793">
        <ele>955</ele>
        <time>2009-05-22T15:55:40Z</time>
      </trkpt>
      <trkpt lat="45.75255" lon="2.9679">
        <ele>955</ele>
        <time>2009-05-22T15:55:42Z</time>
      </trkpt>
      <trkpt lat="45.75227" lon="2.96792">
        <ele>954</ele>
        <time>2009-05-22T15:55:47Z</time>
      </trkpt>
      <trkpt lat="45.75211" lon="2.96794">
        <ele>954</ele>
        <time>2009-05-22T15:55:50Z</time>
      </trkpt>
      <trkpt lat="45.75165" lon="2.96804">
        <ele>953</ele>
        <time>2009-05-22T15:55:57Z</time>
      </trkpt>
      <trkpt lat="45.75147" lon="2.96809">
        <ele>953</ele>
        <time>2009-05-22T15:56:00Z</time>
      </trkpt>
      <trkpt lat="45.75125" lon="2.96813">
        <ele>953</ele>
        <time>2009-05-22T15:56:05Z</time>
      </trkpt>
      <trkpt lat="45.75101" lon="2.96821">
        <ele>952</ele>
        <time>2009-05-22T15:56:10Z</time>
      </trkpt>
      <trkpt lat="45.75085" lon="2.96824">
        <ele>952</ele>
        <time>2009-05-22T15:56:13Z</time>
      </trkpt>
      <trkpt lat="45.75037" lon="2.96837">
        <ele>952</ele>
        <time>2009-05-22T15:56:22Z</time>
      </trkpt>
      <trkpt lat="45.74989" lon="2.9685">
        <ele>952</ele>
        <time>2009-05-22T15:56:31Z</time>
      </trkpt>
      <trkpt lat="45.74949" lon="2.96861">
        <ele>951</ele>
        <time>2009-05-22T15:56:38Z</time>
      </trkpt>
      <trkpt lat="45.74903" lon="2.96874">
        <ele>949</ele>
        <time>2009-05-22T15:56:46Z</time>
      </trkpt>
      <trkpt lat="45.74863" lon="2.96885">
        <ele>949</ele>
        <time>2009-05-22T15:56:53Z</time>
      </trkpt>
      <trkpt lat="45.74829" lon="2.96899">
        <ele>948</ele>
        <time>2009-05-22T15:56:59Z</time>
      </trkpt>
      <trkpt lat="45.74772" lon="2.96926">
        <ele>948</ele>
        <time>2009-05-22T15:57:09Z</time>
      </trkpt>
      <trkpt lat="45.74731" lon="2.96947">
        <ele>947</ele>
        <time>2009-05-22T15:57:17Z</time>
      </trkpt>
      <trkpt lat="45.7469" lon="2.96971">
        <ele>948</ele>
        <time>2009-05-22T15:57:26Z</time>
      </trkpt>
      <trkpt lat="45.74661" lon="2.96986">
        <ele>948</ele>
        <time>2009-05-22T15:57:33Z</time>
      </trkpt>
      <trkpt lat="45.74629" lon="2.97002">
        <ele>949</ele>
        <time>2009-05-22T15:57:41Z</time>
      </trkpt>
      <trkpt lat="45.74604" lon="2.97011">
        <ele>950</ele>
        <time>2009-05-22T15:57:47Z</time>
      </trkpt>
      <trkpt lat="45.746" lon="2.97011">
        <ele>950</ele>
        <time>2009-05-22T15:57:48Z</time>
      </trkpt>
      <trkpt lat="45.74583" lon="2.97007">
        <ele>951</ele>
        <time>2009-05-22T15:57:52Z</time>
      </trkpt>
      <trkpt lat="45.74546" lon="2.96998">
        <ele>953</ele>
        <time>2009-05-22T15:58:01Z</time>
      </trkpt>
      <trkpt lat="45.74525" lon="2.96993">
        <ele>955</ele>
        <time>2009-05-22T15:58:07Z</time>
      </trkpt>
      <trkpt lat="45.7451" lon="2.96988">
        <ele>956</ele>
        <time>2009-05-22T15:58:12Z</time>
      </trkpt>
      <trkpt lat="45.74489" lon="2.96977">
        <ele>958</ele>
        <time>2009-05-22T15:58:19Z</time>
      </trkpt>
      <trkpt lat="45.74467" lon="2.96969">
        <ele>958</ele>
        <time>2009-05-22T15:58:25Z</time>
      </trkpt>
      <trkpt lat="45.74438" lon="2.96955">
        <ele>959</ele>
        <time>2009-05-22T15:58:33Z</time>
      </trkpt>
      <trkpt lat="45.74404" lon="2.9694">
        <ele>961</ele>
        <time>2009-05-22T15:58:43Z</time>
      </trkpt>
      <trkpt lat="45.7438" lon="2.96929">
        <ele>962</ele>
        <time>2009-05-22T15:58:51Z</time>
      </trkpt>
      <trkpt lat="45.74353" lon="2.9692">
        <ele>962</ele>
        <time>2009-05-22T15:58:59Z</time>
      </trkpt>
      <trkpt lat="45.74328" lon="2.9691">
        <ele>962</ele>
        <time>2009-05-22T15:59:06Z</time>
      </trkpt>
      <trkpt lat="45.74302" lon="2.96897">
        <ele>962</ele>
        <time>2009-05-22T15:59:13Z</time>
      </trkpt>
      <trkpt lat="45.7428" lon="2.96876">
        <ele>963</ele>
        <time>2009-05-22T15:59:20Z</time>
      </trkpt>
      <trkpt lat="45.74249" lon="2.9685">
        <ele>964</ele>
        <time>2009-05-22T15:59:29Z</time>
      </trkpt>
      <trkpt lat="45.74222" lon="2.96826">
        <ele>964</ele>
        <time>2009-05-22T15:59:37Z</time>
      </trkpt>
      <trkpt lat="45.74195" lon="2.96804">
        <ele>965</ele>
        <time>2009-05-22T15:59:45Z</time>
      </trkpt>
      <trkpt lat="45.74175" lon="2.96788">
        <ele>965</ele>
        <time>2009-05-22T15:59:51Z</time>
      </trkpt>
      <trkpt lat="45.74154" lon="2.96777">
        <ele>966</ele>
        <time>2009-05-22T15:59:57Z</time>
      </trkpt>
      <trkpt lat="45.74137" lon="2.96766">
        <ele>966</ele>
        <time>2009-05-22T16:00:02Z</time>
      </trkpt>
      <trkpt lat="45.7413" lon="2.9675">
        <ele>967</ele>
        <time>2009-05-22T16:00:06Z</time>
      </trkpt>
      <trkpt lat="45.74118" lon="2.96718">
        <ele>969</ele>
        <time>2009-05-22T16:00:14Z</time>
      </trkpt>
      <trkpt lat="45.74104" lon="2.96687">
        <ele>971</ele>
        <time>2009-05-22T16:00:22Z</time>
      </trkpt>
      <trkpt lat="45.74089" lon="2.96659">
        <ele>972</ele>
        <time>2009-05-22T16:00:30Z</time>
      </trkpt>
      <trkpt lat="45.74074" lon="2.96632">
        <ele>973</ele>
        <time>2009-05-22T16:00:38Z</time>
      </trkpt>
      <trkpt lat="45.74072" lon="2.96629">
        <ele>973</ele>
        <time>2009-05-22T16:00:39Z</time>
      </trkpt>
      <trkpt lat="45.74053" lon="2.96627">
        <ele>974</ele>
        <time>2009-05-22T16:00:46Z</time>
      </trkpt>
      <trkpt lat="45.74042" lon="2.96629">
        <ele>974</ele>
        <time>2009-05-22T16:00:50Z</time>
      </trkpt>
      <trkpt lat="45.74032" lon="2.9663">
        <ele>975</ele>
        <time>2009-05-22T16:00:55Z</time>
      </trkpt>
      <trkpt lat="45.74021" lon="2.96626">
        <ele>975</ele>
        <time>2009-05-22T16:01:01Z</time>
      </trkpt>
      <trkpt lat="45.74001" lon="2.96619">
        <ele>977</ele>
        <time>2009-05-22T16:01:10Z</time>
      </trkpt>
      <trkpt lat="45.73982" lon="2.96612">
        <ele>979</ele>
        <time>2009-05-22T16:01:20Z</time>
      </trkpt>
      <trkpt lat="45.73978" lon="2.96609">
        <ele>979</ele>
        <time>2009-05-22T16:01:23Z</time>
      </trkpt>
      <trkpt lat="45.7397" lon="2.96605">
        <ele>980</ele>
        <time>2009-05-22T16:01:29Z</time>
      </trkpt>
      <trkpt lat="45.73968" lon="2.96603">
        <ele>980</ele>
        <time>2009-05-22T16:01:31Z</time>
      </trkpt>
      <trkpt lat="45.73958" lon="2.96597">
        <ele>981</ele>
        <time>2009-05-22T16:01:39Z</time>
      </trkpt>
      <trkpt lat="45.73946" lon="2.96593">
        <ele>982</ele>
        <time>2009-05-22T16:01:47Z</time>
      </trkpt>
      <trkpt lat="45.73943" lon="2.96591">
        <ele>983</ele>
        <time>2009-05-22T16:01:50Z</time>
      </trkpt>
      <trkpt lat="45.73932" lon="2.96591">
        <ele>984</ele>
        <time>2009-05-22T16:01:57Z</time>
      </trkpt>
      <trkpt lat="45.73924" lon="2.96593">
        <ele>985</ele>
        <time>2009-05-22T16:02:02Z</time>
      </trkpt>
      <trkpt lat="45.73912" lon="2.96596">
        <ele>987</ele>
        <time>2009-05-22T16:02:08Z</time>
      </trkpt>
      <trkpt lat="45.73896" lon="2.96595">
        <ele>989</ele>
        <time>2009-05-22T16:02:14Z</time>
      </trkpt>
      <trkpt lat="45.73883" lon="2.96593">
        <ele>990</ele>
        <time>2009-05-22T16:02:19Z</time>
      </trkpt>
      <trkpt lat="45.73863" lon="2.96587">
        <ele>992</ele>
        <time>2009-05-22T16:02:26Z</time>
      </trkpt>
      <trkpt lat="45.73834" lon="2.96575">
        <ele>993</ele>
        <time>2009-05-22T16:02:36Z</time>
      </trkpt>
      <trkpt lat="45.73813" lon="2.96563">
        <ele>993</ele>
        <time>2009-05-22T16:02:43Z</time>
      </trkpt>
      <trkpt lat="45.73793" lon="2.96548">
        <ele>993</ele>
        <time>2009-05-22T16:02:50Z</time>
      </trkpt>
      <trkpt lat="45.73775" lon="2.96534">
        <ele>994</ele>
        <time>2009-05-22T16:02:56Z</time>
      </trkpt>
      <trkpt lat="45.73762" lon="2.96524">
        <ele>994</ele>
        <time>2009-05-22T16:03:00Z</time>
      </trkpt>
      <trkpt lat="45.73738" lon="2.96507">
        <ele>995</ele>
        <time>2009-05-22T16:03:07Z</time>
      </trkpt>
      <trkpt lat="45.73719" lon="2.96495">
        <ele>995</ele>
        <time>2009-05-22T16:03:13Z</time>
      </trkpt>
      <trkpt lat="45.73694" lon="2.96476">
        <ele>996</ele>
        <time>2009-05-22T16:03:21Z</time>
      </trkpt>
      <trkpt lat="45.73668" lon="2.96463">
        <ele>996</ele>
        <time>2009-05-22T16:03:28Z</time>
      </trkpt>
      <trkpt lat="45.73637" lon="2.96443">
        <ele>997</ele>
        <time>2009-05-22T16:03:36Z</time>
      </trkpt>
      <trkpt lat="45.73594" lon="2.96415">
        <ele>998</ele>
        <time>2009-05-22T16:03:47Z</time>
      </trkpt>
      <trkpt lat="45.73558" lon="2.96394">
        <ele>998</ele>
        <time>2009-05-22T16:03:56Z</time>
      </trkpt>
      <trkpt lat="45.73523" lon="2.96374">
        <ele>998</ele>
        <time>2009-05-22T16:04:05Z</time>
      </trkpt>
      <trkpt lat="45.73484" lon="2.96356">
        <ele>998</ele>
        <time>2009-05-22T16:04:15Z</time>
      </trkpt>
      <trkpt lat="45.73447" lon="2.96342">
        <ele>998</ele>
        <time>2009-05-22T16:04:24Z</time>
      </trkpt>
      <trkpt lat="45.73424" lon="2.96331">
        <ele>998</ele>
        <time>2009-05-22T16:04:30Z</time>
      </trkpt>
      <trkpt lat="45.73393" lon="2.9632">
        <ele>998</ele>
        <time>2009-05-22T16:04:38Z</time>
      </trkpt>
      <trkpt lat="45.73364" lon="2.96306">
        <ele>999</ele>
        <time>2009-05-22T16:04:46Z</time>
      </trkpt>
      <trkpt lat="45.73343" lon="2.96296">
        <ele>999</ele>
        <time>2009-05-22T16:04:52Z</time>
      </trkpt>
      <trkpt lat="45.73312" lon="2.96285">
        <ele>1001</ele>
        <time>2009-05-22T16:05:00Z</time>
      </trkpt>
      <trkpt lat="45.73282" lon="2.96266">
        <ele>1002</ele>
        <time>2009-05-22T16:05:09Z</time>
      </trkpt>
      <trkpt lat="45.73253" lon="2.96248">
        <ele>1004</ele>
        <time>2009-05-22T16:05:18Z</time>
      </trkpt>
      <trkpt lat="45.7323" lon="2.96233">
        <ele>1005</ele>
        <time>2009-05-22T16:05:26Z</time>
      </trkpt>
      <trkpt lat="45.73211" lon="2.96221">
        <ele>1006</ele>
        <time>2009-05-22T16:05:32Z</time>
      </trkpt>
      <trkpt lat="45.73201" lon="2.96212">
        <ele>1007</ele>
        <time>2009-05-22T16:05:37Z</time>
      </trkpt>
      <trkpt lat="45.73192" lon="2.96203">
        <ele>1007</ele>
        <time>2009-05-22T16:05:41Z</time>
      </trkpt>
      <trkpt lat="45.73175" lon="2.96189">
        <ele>1008</ele>
        <time>2009-05-22T16:05:47Z</time>
      </trkpt>
      <trkpt lat="45.73159" lon="2.96179">
        <ele>1009</ele>
        <time>2009-05-22T16:05:52Z</time>
      </trkpt>
      <trkpt lat="45.73145" lon="2.9617">
        <ele>1009</ele>
        <time>2009-05-22T16:05:59Z</time>
      </trkpt>
      <trkpt lat="45.73137" lon="2.96164">
        <ele>1010</ele>
        <time>2009-05-22T16:06:03Z</time>
      </trkpt>
      <trkpt lat="45.73122" lon="2.96156">
        <ele>1010</ele>
        <time>2009-05-22T16:06:09Z</time>
      </trkpt>
      <trkpt lat="45.73107" lon="2.96158">
        <ele>1011</ele>
        <time>2009-05-22T16:06:16Z</time>
      </trkpt>
      <trkpt lat="45.73095" lon="2.96157">
        <ele>1011</ele>
        <time>2009-05-22T16:06:22Z</time>
      </trkpt>
      <trkpt lat="45.73082" lon="2.9615">
        <ele>1012</ele>
        <time>2009-05-22T16:06:29Z</time>
      </trkpt>
      <trkpt lat="45.73073" lon="2.96142">
        <ele>1013</ele>
        <time>2009-05-22T16:06:35Z</time>
      </trkpt>
      <trkpt lat="45.73066" lon="2.96138">
        <ele>1013</ele>
        <time>2009-05-22T16:06:40Z</time>
      </trkpt>
      <trkpt lat="45.73061" lon="2.96128">
        <ele>1014</ele>
        <time>2009-05-22T16:06:46Z</time>
      </trkpt>
      <trkpt lat="45.73059" lon="2.96128">
        <ele>1014</ele>
        <time>2009-05-22T16:06:47Z</time>
      </trkpt>
      <trkpt lat="45.73055" lon="2.96126">
        <ele>1015</ele>
        <time>2009-05-22T16:06:50Z</time>
      </trkpt>
      <trkpt lat="45.73048" lon="2.96119">
        <ele>1015</ele>
        <time>2009-05-22T16:06:56Z</time>
      </trkpt>
      <trkpt lat="45.73041" lon="2.96113">
        <ele>1016</ele>
        <time>2009-05-22T16:07:02Z</time>
      </trkpt>
      <trkpt lat="45.73033" lon="2.96106">
        <ele>1017</ele>
        <time>2009-05-22T16:07:08Z</time>
      </trkpt>
      <trkpt lat="45.73026" lon="2.96098">
        <ele>1018</ele>
        <time>2009-05-22T16:07:15Z</time>
      </trkpt>
      <trkpt lat="45.73018" lon="2.96089">
        <ele>1019</ele>
        <time>2009-05-22T16:07:22Z</time>
      </trkpt>
      <trkpt lat="45.73016" lon="2.96085">
        <ele>1019</ele>
        <time>2009-05-22T16:07:24Z</time>
      </trkpt>
      <trkpt lat="45.73005" lon="2.96072">
        <ele>1021</ele>
        <time>2009-05-22T16:07:33Z</time>
      </trkpt>
      <trkpt lat="45.73001" lon="2.9606">
        <ele>1022</ele>
        <time>2009-05-22T16:07:40Z</time>
      </trkpt>
      <trkpt lat="45.72994" lon="2.96044">
        <ele>1024</ele>
        <time>2009-05-22T16:07:49Z</time>
      </trkpt>
      <trkpt lat="45.72989" lon="2.96034">
        <ele>1025</ele>
        <time>2009-05-22T16:07:56Z</time>
      </trkpt>
      <trkpt lat="45.72986" lon="2.96027">
        <ele>1026</ele>
        <time>2009-05-22T16:08:00Z</time>
      </trkpt>
      <trkpt lat="45.72982" lon="2.96018">
        <ele>1027</ele>
        <time>2009-05-22T16:08:06Z</time>
      </trkpt>
      <trkpt lat="45.72977" lon="2.96009">
        <ele>1028</ele>
        <time>2009-05-22T16:08:13Z</time>
      </trkpt>
      <trkpt lat="45.72972" lon="2.96002">
        <ele>1029</ele>
        <time>2009-05-22T16:08:18Z</time>
      </trkpt>
      <trkpt lat="45.72968" lon="2.95995">
        <ele>1029</ele>
        <time>2009-05-22T16:08:23Z</time>
      </trkpt>
      <trkpt lat="45.72961" lon="2.95986">
        <ele>1030</ele>
        <time>2009-05-22T16:08:31Z</time>
      </trkpt>
      <trkpt lat="45.72955" lon="2.95981">
        <ele>1031</ele>
        <time>2009-05-22T16:08:37Z</time>
      </trkpt>
      <trkpt lat="45.72949" lon="2.95974">
        <ele>1032</ele>
        <time>2009-05-22T16:08:44Z</time>
      </trkpt>
      <trkpt lat="45.72943" lon="2.95967">
        <ele>1032</ele>
        <time>2009-05-22T16:08:49Z</time>
      </trkpt>
      <trkpt lat="45.7294" lon="2.95964">
        <ele>1033</ele>
        <time>2009-05-22T16:08:52Z</time>
      </trkpt>
      <trkpt lat="45.72932" lon="2.95956">
        <ele>1034</ele>
        <time>2009-05-22T16:09:00Z</time>
      </trkpt>
      <trkpt lat="45.72925" lon="2.95948">
        <ele>1035</ele>
        <time>2009-05-22T16:09:06Z</time>
      </trkpt>
      <trkpt lat="45.72919" lon="2.95941">
        <ele>1036</ele>
        <time>2009-05-22T16:09:12Z</time>
      </trkpt>
      <trkpt lat="45.7291" lon="2.95933">
        <ele>1037</ele>
        <time>2009-05-22T16:09:20Z</time>
      </trkpt>
      <trkpt lat="45.72903" lon="2.95926">
        <ele>1038</ele>
        <time>2009-05-22T16:09:28Z</time>
      </trkpt>
      <trkpt lat="45.72901" lon="2.95925">
        <ele>1038</ele>
        <time>2009-05-22T16:09:30Z</time>
      </trkpt>
      <trkpt lat="45.72892" lon="2.95915">
        <ele>1039</ele>
        <time>2009-05-22T16:09:38Z</time>
      </trkpt>
      <trkpt lat="45.72886" lon="2.9591">
        <ele>1040</ele>
        <time>2009-05-22T16:09:45Z</time>
      </trkpt>
      <trkpt lat="45.72879" lon="2.95905">
        <ele>1040</ele>
        <time>2009-05-22T16:09:51Z</time>
      </trkpt>
      <trkpt lat="45.72873" lon="2.95898">
        <ele>1041</ele>
        <time>2009-05-22T16:09:57Z</time>
      </trkpt>
      <trkpt lat="45.72869" lon="2.9589">
        <ele>1042</ele>
        <time>2009-05-22T16:10:02Z</time>
      </trkpt>
      <trkpt lat="45.72864" lon="2.95883">
        <ele>1042</ele>
        <time>2009-05-22T16:10:07Z</time>
      </trkpt>
      <trkpt lat="45.72855" lon="2.95871">
        <ele>1043</ele>
        <time>2009-05-22T16:10:15Z</time>
      </trkpt>
      <trkpt lat="45.72852" lon="2.95866">
        <ele>1044</ele>
        <time>2009-05-22T16:10:18Z</time>
      </trkpt>
      <trkpt lat="45.72849" lon="2.95856">
        <ele>1044</ele>
        <time>2009-05-22T16:10:24Z</time>
      </trkpt>
      <trkpt lat="45.72843" lon="2.95841">
        <ele>1046</ele>
        <time>2009-05-22T16:10:33Z</time>
      </trkpt>
      <trkpt lat="45.72838" lon="2.95831">
        <ele>1046</ele>
        <time>2009-05-22T16:10:39Z</time>
      </trkpt>
      <trkpt lat="45.72838" lon="2.95828">
        <ele>1047</ele>
        <time>2009-05-22T16:10:41Z</time>
      </trkpt>
      <trkpt lat="45.7283" lon="2.9581">
        <ele>1048</ele>
        <time>2009-05-22T16:10:51Z</time>
      </trkpt>
      <trkpt lat="45.72826" lon="2.95801">
        <ele>1049</ele>
        <time>2009-05-22T16:10:57Z</time>
      </trkpt>
      <trkpt lat="45.72823" lon="2.95797">
        <ele>1049</ele>
        <time>2009-05-22T16:11:00Z</time>
      </trkpt>
      <trkpt lat="45.72817" lon="2.95785">
        <ele>1050</ele>
        <time>2009-05-22T16:11:06Z</time>
      </trkpt>
      <trkpt lat="45.72813" lon="2.95777">
        <ele>1050</ele>
        <time>2009-05-22T16:11:12Z</time>
      </trkpt>
      <trkpt lat="45.72807" lon="2.95771">
        <ele>1050</ele>
        <time>2009-05-22T16:11:18Z</time>
      </trkpt>
      <trkpt lat="45.72798" lon="2.95759">
        <ele>1051</ele>
        <time>2009-05-22T16:11:24Z</time>
      </trkpt>
      <trkpt lat="45.72788" lon="2.95745">
        <ele>1051</ele>
        <time>2009-05-22T16:11:30Z</time>
      </trkpt>
      <trkpt lat="45.7278" lon="2.95729">
        <ele>1052</ele>
        <time>2009-05-22T16:11:36Z</time>
      </trkpt>
      <trkpt lat="45.72778" lon="2.95727">
        <ele>1052</ele>
        <time>2009-05-22T16:11:37Z</time>
      </trkpt>
      <trkpt lat="45.72764" lon="2.95712">
        <ele>1053</ele>
        <time>2009-05-22T16:11:45Z</time>
      </trkpt>
      <trkpt lat="45.72755" lon="2.957">
        <ele>1053</ele>
        <time>2009-05-22T16:11:50Z</time>
      </trkpt>
      <trkpt lat="45.72745" lon="2.95687">
        <ele>1054</ele>
        <time>2009-05-22T16:11:56Z</time>
      </trkpt>
      <trkpt lat="45.72737" lon="2.95678">
        <ele>1055</ele>
        <time>2009-05-22T16:12:01Z</time>
      </trkpt>
      <trkpt lat="45.72724" lon="2.95662">
        <ele>1055</ele>
        <time>2009-05-22T16:12:08Z</time>
      </trkpt>
      <trkpt lat="45.72711" lon="2.95648">
        <ele>1056</ele>
        <time>2009-05-22T16:12:15Z</time>
      </trkpt>
      <trkpt lat="45.727" lon="2.95643">
        <ele>1056</ele>
        <time>2009-05-22T16:12:21Z</time>
      </trkpt>
      <trkpt lat="45.72695" lon="2.95643">
        <ele>1056</ele>
        <time>2009-05-22T16:12:26Z</time>
      </trkpt>
      <trkpt lat="45.72692" lon="2.95645">
        <ele>1056</ele>
        <time>2009-05-22T16:12:30Z</time>
      </trkpt>
      <trkpt lat="45.72684" lon="2.95651">
        <ele>1056</ele>
        <time>2009-05-22T16:12:35Z</time>
      </trkpt>
      <trkpt lat="45.72679" lon="2.95652">
        <ele>1056</ele>
        <time>2009-05-22T16:12:38Z</time>
      </trkpt>
      <trkpt lat="45.72666" lon="2.95656">
        <ele>1057</ele>
        <time>2009-05-22T16:12:43Z</time>
      </trkpt>
      <trkpt lat="45.72656" lon="2.95646">
        <ele>1057</ele>
        <time>2009-05-22T16:12:47Z</time>
      </trkpt>
      <trkpt lat="45.72653" lon="2.95645">
        <ele>1058</ele>
        <time>2009-05-22T16:12:48Z</time>
      </trkpt>
      <trkpt lat="45.72637" lon="2.95646">
        <ele>1058</ele>
        <time>2009-05-22T16:12:53Z</time>
      </trkpt>
      <trkpt lat="45.72623" lon="2.95645">
        <ele>1058</ele>
        <time>2009-05-22T16:12:57Z</time>
      </trkpt>
      <trkpt lat="45.72607" lon="2.95643">
        <ele>1059</ele>
        <time>2009-05-22T16:13:02Z</time>
      </trkpt>
      <trkpt lat="45.72591" lon="2.95639">
        <ele>1059</ele>
        <time>2009-05-22T16:13:07Z</time>
      </trkpt>
      <trkpt lat="45.72572" lon="2.95626">
        <ele>1060</ele>
        <time>2009-05-22T16:13:13Z</time>
      </trkpt>
      <trkpt lat="45.72558" lon="2.95613">
        <ele>1061</ele>
        <time>2009-05-22T16:13:18Z</time>
      </trkpt>
      <trkpt lat="45.72547" lon="2.95603">
        <ele>1061</ele>
        <time>2009-05-22T16:13:22Z</time>
      </trkpt>
      <trkpt lat="45.72533" lon="2.95593">
        <ele>1061</ele>
        <time>2009-05-22T16:13:27Z</time>
      </trkpt>
      <trkpt lat="45.72522" lon="2.95585">
        <ele>1062</ele>
        <time>2009-05-22T16:13:32Z</time>
      </trkpt>
      <trkpt lat="45.72508" lon="2.95568">
        <ele>1063</ele>
        <time>2009-05-22T16:13:39Z</time>
      </trkpt>
      <trkpt lat="45.72499" lon="2.95556">
        <ele>1064</ele>
        <time>2009-05-22T16:13:45Z</time>
      </trkpt>
      <trkpt lat="45.72489" lon="2.95544">
        <ele>1065</ele>
        <time>2009-05-22T16:13:52Z</time>
      </trkpt>
      <trkpt lat="45.72477" lon="2.95535">
        <ele>1065</ele>
        <time>2009-05-22T16:14:00Z</time>
      </trkpt>
      <trkpt lat="45.72471" lon="2.95531">
        <ele>1066</ele>
        <time>2009-05-22T16:14:04Z</time>
      </trkpt>
      <trkpt lat="45.72461" lon="2.95521">
        <ele>1067</ele>
        <time>2009-05-22T16:14:12Z</time>
      </trkpt>
      <trkpt lat="45.72459" lon="2.9552">
        <ele>1067</ele>
        <time>2009-05-22T16:14:13Z</time>
      </trkpt>
      <trkpt lat="45.72449" lon="2.95511">
        <ele>1068</ele>
        <time>2009-05-22T16:14:19Z</time>
      </trkpt>
      <trkpt lat="45.72437" lon="2.95497">
        <ele>1070</ele>
        <time>2009-05-22T16:14:27Z</time>
      </trkpt>
      <trkpt lat="45.72424" lon="2.95479">
        <ele>1071</ele>
        <time>2009-05-22T16:14:37Z</time>
      </trkpt>
      <trkpt lat="45.72416" lon="2.95466">
        <ele>1073</ele>
        <time>2009-05-22T16:14:44Z</time>
      </trkpt>
      <trkpt lat="45.72405" lon="2.95453">
        <ele>1074</ele>
        <time>2009-05-22T16:14:52Z</time>
      </trkpt>
      <trkpt lat="45.72399" lon="2.95443">
        <ele>1075</ele>
        <time>2009-05-22T16:14:58Z</time>
      </trkpt>
      <trkpt lat="45.72399" lon="2.95441">
        <ele>1075</ele>
        <time>2009-05-22T16:14:59Z</time>
      </trkpt>
      <trkpt lat="45.72393" lon="2.95434">
        <ele>1076</ele>
        <time>2009-05-22T16:15:04Z</time>
      </trkpt>
      <trkpt lat="45.72385" lon="2.95427">
        <ele>1077</ele>
        <time>2009-05-22T16:15:10Z</time>
      </trkpt>
      <trkpt lat="45.72381" lon="2.95421">
        <ele>1077</ele>
        <time>2009-05-22T16:15:14Z</time>
      </trkpt>
      <trkpt lat="45.72371" lon="2.95408">
        <ele>1078</ele>
        <time>2009-05-22T16:15:24Z</time>
      </trkpt>
      <trkpt lat="45.72366" lon="2.95402">
        <ele>1079</ele>
        <time>2009-05-22T16:15:29Z</time>
      </trkpt>
      <trkpt lat="45.72361" lon="2.95396">
        <ele>1080</ele>
        <time>2009-05-22T16:15:35Z</time>
      </trkpt>
      <trkpt lat="45.72354" lon="2.95385">
        <ele>1081</ele>
        <time>2009-05-22T16:15:41Z</time>
      </trkpt>
      <trkpt lat="45.72347" lon="2.95375">
        <ele>1082</ele>
        <time>2009-05-22T16:15:47Z</time>
      </trkpt>
      <trkpt lat="45.72339" lon="2.95361">
        <ele>1083</ele>
        <time>2009-05-22T16:15:54Z</time>
      </trkpt>
      <trkpt lat="45.72329" lon="2.95351">
        <ele>1084</ele>
        <time>2009-05-22T16:16:01Z</time>
      </trkpt>
      <trkpt lat="45.72322" lon="2.95342">
        <ele>1084</ele>
        <time>2009-05-22T16:16:08Z</time>
      </trkpt>
      <trkpt lat="45.7231" lon="2.95332">
        <ele>1085</ele>
        <time>2009-05-22T16:16:17Z</time>
      </trkpt>
      <trkpt lat="45.723" lon="2.95318">
        <ele>1086</ele>
        <time>2009-05-22T16:16:25Z</time>
      </trkpt>
      <trkpt lat="45.72289" lon="2.95307">
        <ele>1086</ele>
        <time>2009-05-22T16:16:33Z</time>
      </trkpt>
      <trkpt lat="45.72282" lon="2.95299">
        <ele>1087</ele>
        <time>2009-05-22T16:16:39Z</time>
      </trkpt>
      <trkpt lat="45.72271" lon="2.95283">
        <ele>1088</ele>
        <time>2009-05-22T16:16:48Z</time>
      </trkpt>
      <trkpt lat="45.72262" lon="2.95272">
        <ele>1089</ele>
        <time>2009-05-22T16:16:55Z</time>
      </trkpt>
      <trkpt lat="45.72251" lon="2.95258">
        <ele>1090</ele>
        <time>2009-05-22T16:17:04Z</time>
      </trkpt>
      <trkpt lat="45.72242" lon="2.95253">
        <ele>1090</ele>
        <time>2009-05-22T16:17:10Z</time>
      </trkpt>
      <trkpt lat="45.72232" lon="2.95247">
        <ele>1092</ele>
        <time>2009-05-22T16:17:17Z</time>
      </trkpt>
      <trkpt lat="45.72226" lon="2.9524">
        <ele>1092</ele>
        <time>2009-05-22T16:17:23Z</time>
      </trkpt>
      <trkpt lat="45.72221" lon="2.95228">
        <ele>1093</ele>
        <time>2009-05-22T16:17:29Z</time>
      </trkpt>
      <trkpt lat="45.72216" lon="2.95223">
        <ele>1093</ele>
        <time>2009-05-22T16:17:35Z</time>
      </trkpt>
      <trkpt lat="45.72211" lon="2.95218">
        <ele>1093</ele>
        <time>2009-05-22T16:17:39Z</time>
      </trkpt>
      <trkpt lat="45.72205" lon="2.95211">
        <ele>1093</ele>
        <time>2009-05-22T16:17:46Z</time>
      </trkpt>
      <trkpt lat="45.72205" lon="2.95212">
        <ele>1093</ele>
        <time>2009-05-22T16:17:54Z</time>
      </trkpt>
      <trkpt lat="45.72204" lon="2.95213">
        <ele>1093</ele>
        <time>2009-05-22T16:18:06Z</time>
      </trkpt>
      <trkpt lat="45.72192" lon="2.95216">
        <ele>1093</ele>
        <time>2009-05-22T16:18:13Z</time>
      </trkpt>
      <trkpt lat="45.72179" lon="2.95209">
        <ele>1094</ele>
        <time>2009-05-22T16:18:18Z</time>
      </trkpt>
      <trkpt lat="45.7217" lon="2.952">
        <ele>1094</ele>
        <time>2009-05-22T16:18:21Z</time>
      </trkpt>
      <trkpt lat="45.72159" lon="2.95192">
        <ele>1094</ele>
        <time>2009-05-22T16:18:24Z</time>
      </trkpt>
      <trkpt lat="45.72142" lon="2.95179">
        <ele>1093</ele>
        <time>2009-05-22T16:18:28Z</time>
      </trkpt>
      <trkpt lat="45.72121" lon="2.95167">
        <ele>1092</ele>
        <time>2009-05-22T16:18:32Z</time>
      </trkpt>
      <trkpt lat="45.72116" lon="2.95165">
        <ele>1091</ele>
        <time>2009-05-22T16:18:33Z</time>
      </trkpt>
      <trkpt lat="45.72105" lon="2.95162">
        <ele>1091</ele>
        <time>2009-05-22T16:18:35Z</time>
      </trkpt>
      <trkpt lat="45.72095" lon="2.95158">
        <ele>1090</ele>
        <time>2009-05-22T16:18:37Z</time>
      </trkpt>
      <trkpt lat="45.72081" lon="2.9515">
        <ele>1090</ele>
        <time>2009-05-22T16:18:40Z</time>
      </trkpt>
      <trkpt lat="45.72061" lon="2.9514">
        <ele>1088</ele>
        <time>2009-05-22T16:18:44Z</time>
      </trkpt>
      <trkpt lat="45.72045" lon="2.9513">
        <ele>1087</ele>
        <time>2009-05-22T16:18:47Z</time>
      </trkpt>
      <trkpt lat="45.72035" lon="2.95122">
        <ele>1086</ele>
        <time>2009-05-22T16:18:49Z</time>
      </trkpt>
      <trkpt lat="45.72014" lon="2.95106">
        <ele>1084</ele>
        <time>2009-05-22T16:18:53Z</time>
      </trkpt>
      <trkpt lat="45.7199" lon="2.95093">
        <ele>1081</ele>
        <time>2009-05-22T16:18:57Z</time>
      </trkpt>
      <trkpt lat="45.71951" lon="2.95075">
        <ele>1079</ele>
        <time>2009-05-22T16:19:03Z</time>
      </trkpt>
      <trkpt lat="45.71945" lon="2.95071">
        <ele>1079</ele>
        <time>2009-05-22T16:19:04Z</time>
      </trkpt>
      <trkpt lat="45.71931" lon="2.95066">
        <ele>1079</ele>
        <time>2009-05-22T16:19:06Z</time>
      </trkpt>
      <trkpt lat="45.71895" lon="2.9504">
        <ele>1077</ele>
        <time>2009-05-22T16:19:12Z</time>
      </trkpt>
      <trkpt lat="45.71872" lon="2.95022">
        <ele>1074</ele>
        <time>2009-05-22T16:19:16Z</time>
      </trkpt>
      <trkpt lat="45.71835" lon="2.94996">
        <ele>1073</ele>
        <time>2009-05-22T16:19:22Z</time>
      </trkpt>
      <trkpt lat="45.71819" lon="2.94979">
        <ele>1073</ele>
        <time>2009-05-22T16:19:25Z</time>
      </trkpt>
      <trkpt lat="45.71798" lon="2.94955">
        <ele>1071</ele>
        <time>2009-05-22T16:19:30Z</time>
      </trkpt>
      <trkpt lat="45.71788" lon="2.94945">
        <ele>1071</ele>
        <time>2009-05-22T16:19:33Z</time>
      </trkpt>
      <trkpt lat="45.71771" lon="2.94938">
        <ele>1071</ele>
        <time>2009-05-22T16:19:37Z</time>
      </trkpt>
      <trkpt lat="45.71753" lon="2.94929">
        <ele>1072</ele>
        <time>2009-05-22T16:19:41Z</time>
      </trkpt>
      <trkpt lat="45.71749" lon="2.94926">
        <ele>1072</ele>
        <time>2009-05-22T16:19:42Z</time>
      </trkpt>
      <trkpt lat="45.71729" lon="2.94916">
        <ele>1072</ele>
        <time>2009-05-22T16:19:47Z</time>
      </trkpt>
      <trkpt lat="45.71725" lon="2.94914">
        <ele>1072</ele>
        <time>2009-05-22T16:19:48Z</time>
      </trkpt>
      <trkpt lat="45.71706" lon="2.94905">
        <ele>1072</ele>
        <time>2009-05-22T16:19:53Z</time>
      </trkpt>
      <trkpt lat="45.71686" lon="2.94896">
        <ele>1073</ele>
        <time>2009-05-22T16:19:58Z</time>
      </trkpt>
      <trkpt lat="45.71658" lon="2.94877">
        <ele>1073</ele>
        <time>2009-05-22T16:20:04Z</time>
      </trkpt>
      <trkpt lat="45.71636" lon="2.94869">
        <ele>1073</ele>
        <time>2009-05-22T16:20:08Z</time>
      </trkpt>
      <trkpt lat="45.71632" lon="2.94867">
        <ele>1072</ele>
        <time>2009-05-22T16:20:09Z</time>
      </trkpt>
      <trkpt lat="45.71607" lon="2.94858">
        <ele>1071</ele>
        <time>2009-05-22T16:20:14Z</time>
      </trkpt>
      <trkpt lat="45.71593" lon="2.94853">
        <ele>1069</ele>
        <time>2009-05-22T16:20:17Z</time>
      </trkpt>
      <trkpt lat="45.71575" lon="2.94847">
        <ele>1067</ele>
        <time>2009-05-22T16:20:20Z</time>
      </trkpt>
      <trkpt lat="45.71537" lon="2.94836">
        <ele>1062</ele>
        <time>2009-05-22T16:20:26Z</time>
      </trkpt>
      <trkpt lat="45.71531" lon="2.94834">
        <ele>1061</ele>
        <time>2009-05-22T16:20:27Z</time>
      </trkpt>
      <trkpt lat="45.71518" lon="2.94831">
        <ele>1059</ele>
        <time>2009-05-22T16:20:29Z</time>
      </trkpt>
      <trkpt lat="45.71506" lon="2.94829">
        <ele>1058</ele>
        <time>2009-05-22T16:20:31Z</time>
      </trkpt>
      <trkpt lat="45.71475" lon="2.94815">
        <ele>1054</ele>
        <time>2009-05-22T16:20:36Z</time>
      </trkpt>
      <trkpt lat="45.71447" lon="2.94807">
        <ele>1051</ele>
        <time>2009-05-22T16:20:41Z</time>
      </trkpt>
      <trkpt lat="45.71442" lon="2.94804">
        <ele>1050</ele>
        <time>2009-05-22T16:20:42Z</time>
      </trkpt>
      <trkpt lat="45.71411" lon="2.94772">
        <ele>1050</ele>
        <time>2009-05-22T16:20:48Z</time>
      </trkpt>
      <trkpt lat="45.71389" lon="2.94751">
        <ele>1050</ele>
        <time>2009-05-22T16:20:52Z</time>
      </trkpt>
      <trkpt lat="45.71374" lon="2.94732">
        <ele>1049</ele>
        <time>2009-05-22T16:20:55Z</time>
      </trkpt>
      <trkpt lat="45.71351" lon="2.94721">
        <ele>1048</ele>
        <time>2009-05-22T16:20:59Z</time>
      </trkpt>
      <trkpt lat="45.7134" lon="2.94717">
        <ele>1048</ele>
        <time>2009-05-22T16:21:01Z</time>
      </trkpt>
      <trkpt lat="45.7131" lon="2.94701">
        <ele>1047</ele>
        <time>2009-05-22T16:21:07Z</time>
      </trkpt>
      <trkpt lat="45.71287" lon="2.9468">
        <ele>1048</ele>
        <time>2009-05-22T16:21:13Z</time>
      </trkpt>
      <trkpt lat="45.71281" lon="2.94677">
        <ele>1048</ele>
        <time>2009-05-22T16:21:15Z</time>
      </trkpt>
      <trkpt lat="45.7125" lon="2.94661">
        <ele>1049</ele>
        <time>2009-05-22T16:21:23Z</time>
      </trkpt>
      <trkpt lat="45.71243" lon="2.94655">
        <ele>1049</ele>
        <time>2009-05-22T16:21:25Z</time>
      </trkpt>
      <trkpt lat="45.71214" lon="2.94626">
        <ele>1049</ele>
        <time>2009-05-22T16:21:33Z</time>
      </trkpt>
      <trkpt lat="45.71208" lon="2.94616">
        <ele>1049</ele>
        <time>2009-05-22T16:21:35Z</time>
      </trkpt>
      <trkpt lat="45.71188" lon="2.94589">
        <ele>1050</ele>
        <time>2009-05-22T16:21:41Z</time>
      </trkpt>
      <trkpt lat="45.71169" lon="2.94553">
        <ele>1050</ele>
        <time>2009-05-22T16:21:48Z</time>
      </trkpt>
      <trkpt lat="45.7116" lon="2.9454">
        <ele>1050</ele>
        <time>2009-05-22T16:21:51Z</time>
      </trkpt>
      <trkpt lat="45.71134" lon="2.94494">
        <ele>1051</ele>
        <time>2009-05-22T16:22:00Z</time>
      </trkpt>
      <trkpt lat="45.71123" lon="2.94474">
        <ele>1050</ele>
        <time>2009-05-22T16:22:04Z</time>
      </trkpt>
      <trkpt lat="45.71113" lon="2.9446">
        <ele>1049</ele>
        <time>2009-05-22T16:22:07Z</time>
      </trkpt>
      <trkpt lat="45.71106" lon="2.94443">
        <ele>1049</ele>
        <time>2009-05-22T16:22:10Z</time>
      </trkpt>
      <trkpt lat="45.7109" lon="2.94401">
        <ele>1048</ele>
        <time>2009-05-22T16:22:17Z</time>
      </trkpt>
      <trkpt lat="45.71083" lon="2.94375">
        <ele>1047</ele>
        <time>2009-05-22T16:22:20Z</time>
      </trkpt>
      <trkpt lat="45.71077" lon="2.94357">
        <ele>1047</ele>
        <time>2009-05-22T16:22:22Z</time>
      </trkpt>
      <trkpt lat="45.71073" lon="2.94348">
        <ele>1047</ele>
        <time>2009-05-22T16:22:23Z</time>
      </trkpt>
      <trkpt lat="45.71056" lon="2.94318">
        <ele>1046</ele>
        <time>2009-05-22T16:22:27Z</time>
      </trkpt>
      <trkpt lat="45.71045" lon="2.94295">
        <ele>1046</ele>
        <time>2009-05-22T16:22:30Z</time>
      </trkpt>
      <trkpt lat="45.71031" lon="2.94268">
        <ele>1046</ele>
        <time>2009-05-22T16:22:34Z</time>
      </trkpt>
      <trkpt lat="45.71014" lon="2.94246">
        <ele>1045</ele>
        <time>2009-05-22T16:22:38Z</time>
      </trkpt>
      <trkpt lat="45.7099" lon="2.94224">
        <ele>1045</ele>
        <time>2009-05-22T16:22:43Z</time>
      </trkpt>
      <trkpt lat="45.70956" lon="2.94188">
        <ele>1046</ele>
        <time>2009-05-22T16:22:51Z</time>
      </trkpt>
      <trkpt lat="45.70936" lon="2.94153">
        <ele>1047</ele>
        <time>2009-05-22T16:22:58Z</time>
      </trkpt>
      <trkpt lat="45.7092" lon="2.94124">
        <ele>1048</ele>
        <time>2009-05-22T16:23:05Z</time>
      </trkpt>
      <trkpt lat="45.70904" lon="2.94098">
        <ele>1048</ele>
        <time>2009-05-22T16:23:12Z</time>
      </trkpt>
      <trkpt lat="45.70901" lon="2.94091">
        <ele>1048</ele>
        <time>2009-05-22T16:23:16Z</time>
      </trkpt>
      <trkpt lat="45.70901" lon="2.94091">
        <ele>1048</ele>
        <time>2009-05-22T16:23:29Z</time>
      </trkpt>
      <trkpt lat="45.70892" lon="2.94084">
        <ele>1049</ele>
        <time>2009-05-22T16:23:36Z</time>
      </trkpt>
      <trkpt lat="45.70881" lon="2.94073">
        <ele>1049</ele>
        <time>2009-05-22T16:23:44Z</time>
      </trkpt>
      <trkpt lat="45.70877" lon="2.94069">
        <ele>1049</ele>
        <time>2009-05-22T16:23:47Z</time>
      </trkpt>
      <trkpt lat="45.70875" lon="2.94068">
        <ele>1049</ele>
        <time>2009-05-22T16:23:48Z</time>
      </trkpt>
      <trkpt lat="45.7086" lon="2.94055">
        <ele>1049</ele>
        <time>2009-05-22T16:23:55Z</time>
      </trkpt>
      <trkpt lat="45.70851" lon="2.94047">
        <ele>1049</ele>
        <time>2009-05-22T16:23:59Z</time>
      </trkpt>
      <trkpt lat="45.70832" lon="2.94026">
        <ele>1049</ele>
        <time>2009-05-22T16:24:06Z</time>
      </trkpt>
      <trkpt lat="45.70811" lon="2.93999">
        <ele>1049</ele>
        <time>2009-05-22T16:24:13Z</time>
      </trkpt>
      <trkpt lat="45.70786" lon="2.93963">
        <ele>1048</ele>
        <time>2009-05-22T16:24:22Z</time>
      </trkpt>
      <trkpt lat="45.70761" lon="2.93929">
        <ele>1049</ele>
        <time>2009-05-22T16:24:31Z</time>
      </trkpt>
      <trkpt lat="45.70743" lon="2.93904">
        <ele>1049</ele>
        <time>2009-05-22T16:24:37Z</time>
      </trkpt>
      <trkpt lat="45.70717" lon="2.93866">
        <ele>1049</ele>
        <time>2009-05-22T16:24:45Z</time>
      </trkpt>
      <trkpt lat="45.70712" lon="2.93855">
        <ele>1049</ele>
        <time>2009-05-22T16:24:47Z</time>
      </trkpt>
      <trkpt lat="45.70699" lon="2.93804">
        <ele>1048</ele>
        <time>2009-05-22T16:24:55Z</time>
      </trkpt>
      <trkpt lat="45.70696" lon="2.93792">
        <ele>1048</ele>
        <time>2009-05-22T16:24:57Z</time>
      </trkpt>
      <trkpt lat="45.70684" lon="2.93744">
        <ele>1048</ele>
        <time>2009-05-22T16:25:04Z</time>
      </trkpt>
      <trkpt lat="45.70665" lon="2.93669">
        <ele>1048</ele>
        <time>2009-05-22T16:25:14Z</time>
      </trkpt>
      <trkpt lat="45.70653" lon="2.93624">
        <ele>1048</ele>
        <time>2009-05-22T16:25:20Z</time>
      </trkpt>
      <trkpt lat="45.70641" lon="2.93581">
        <ele>1048</ele>
        <time>2009-05-22T16:25:27Z</time>
      </trkpt>
      <trkpt lat="45.7063" lon="2.93535">
        <ele>1049</ele>
        <time>2009-05-22T16:25:36Z</time>
      </trkpt>
      <trkpt lat="45.70622" lon="2.93503">
        <ele>1049</ele>
        <time>2009-05-22T16:25:43Z</time>
      </trkpt>
      <trkpt lat="45.70613" lon="2.93463">
        <ele>1050</ele>
        <time>2009-05-22T16:25:52Z</time>
      </trkpt>
      <trkpt lat="45.70602" lon="2.93427">
        <ele>1050</ele>
        <time>2009-05-22T16:25:59Z</time>
      </trkpt>
      <trkpt lat="45.70586" lon="2.93383">
        <ele>1050</ele>
        <time>2009-05-22T16:26:06Z</time>
      </trkpt>
      <trkpt lat="45.70572" lon="2.93344">
        <ele>1048</ele>
        <time>2009-05-22T16:26:12Z</time>
      </trkpt>
      <trkpt lat="45.70556" lon="2.93296">
        <ele>1046</ele>
        <time>2009-05-22T16:26:19Z</time>
      </trkpt>
      <trkpt lat="45.70546" lon="2.93246">
        <ele>1045</ele>
        <time>2009-05-22T16:26:26Z</time>
      </trkpt>
      <trkpt lat="45.7054" lon="2.93187">
        <ele>1044</ele>
        <time>2009-05-22T16:26:34Z</time>
      </trkpt>
      <trkpt lat="45.70537" lon="2.93118">
        <ele>1042</ele>
        <time>2009-05-22T16:26:42Z</time>
      </trkpt>
      <trkpt lat="45.70532" lon="2.9307">
        <ele>1042</ele>
        <time>2009-05-22T16:26:48Z</time>
      </trkpt>
      <trkpt lat="45.7053" lon="2.93028">
        <ele>1042</ele>
        <time>2009-05-22T16:26:53Z</time>
      </trkpt>
      <trkpt lat="45.7053" lon="2.93019">
        <ele>1041</ele>
        <time>2009-05-22T16:26:54Z</time>
      </trkpt>
      <trkpt lat="45.70534" lon="2.92992">
        <ele>1041</ele>
        <time>2009-05-22T16:26:57Z</time>
      </trkpt>
      <trkpt lat="45.70534" lon="2.92941">
        <ele>1040</ele>
        <time>2009-05-22T16:27:02Z</time>
      </trkpt>
      <trkpt lat="45.70524" lon="2.9289">
        <ele>1038</ele>
        <time>2009-05-22T16:27:07Z</time>
      </trkpt>
      <trkpt lat="45.7051" lon="2.92818">
        <ele>1037</ele>
        <time>2009-05-22T16:27:14Z</time>
      </trkpt>
      <trkpt lat="45.70509" lon="2.92807">
        <ele>1037</ele>
        <time>2009-05-22T16:27:15Z</time>
      </trkpt>
      <trkpt lat="45.70498" lon="2.92732">
        <ele>1036</ele>
        <time>2009-05-22T16:27:22Z</time>
      </trkpt>
      <trkpt lat="45.70491" lon="2.92652">
        <ele>1034</ele>
        <time>2009-05-22T16:27:30Z</time>
      </trkpt>
      <trkpt lat="45.70489" lon="2.92628">
        <ele>1033</ele>
        <time>2009-05-22T16:27:32Z</time>
      </trkpt>
      <trkpt lat="45.7049" lon="2.92563">
        <ele>1031</ele>
        <time>2009-05-22T16:27:37Z</time>
      </trkpt>
      <trkpt lat="45.70489" lon="2.92535">
        <ele>1029</ele>
        <time>2009-05-22T16:27:39Z</time>
      </trkpt>
      <trkpt lat="45.70498" lon="2.92482">
        <ele>1025</ele>
        <time>2009-05-22T16:27:43Z</time>
      </trkpt>
      <trkpt lat="45.70504" lon="2.92458">
        <ele>1024</ele>
        <time>2009-05-22T16:27:45Z</time>
      </trkpt>
      <trkpt lat="45.70502" lon="2.92411">
        <ele>1021</ele>
        <time>2009-05-22T16:27:49Z</time>
      </trkpt>
      <trkpt lat="45.70496" lon="2.92343">
        <ele>1017</ele>
        <time>2009-05-22T16:27:54Z</time>
      </trkpt>
      <trkpt lat="45.70495" lon="2.92298">
        <ele>1016</ele>
        <time>2009-05-22T16:27:57Z</time>
      </trkpt>
      <trkpt lat="45.70494" lon="2.92199">
        <ele>1012</ele>
        <time>2009-05-22T16:28:03Z</time>
      </trkpt>
      <trkpt lat="45.70494" lon="2.92183">
        <ele>1012</ele>
        <time>2009-05-22T16:28:04Z</time>
      </trkpt>
      <trkpt lat="45.70496" lon="2.92097">
        <ele>1008</ele>
        <time>2009-05-22T16:28:09Z</time>
      </trkpt>
      <trkpt lat="45.70494" lon="2.92044">
        <ele>1005</ele>
        <time>2009-05-22T16:28:12Z</time>
      </trkpt>
      <trkpt lat="45.70487" lon="2.92008">
        <ele>1003</ele>
        <time>2009-05-22T16:28:14Z</time>
      </trkpt>
      <trkpt lat="45.70477" lon="2.91971">
        <ele>1001</ele>
        <time>2009-05-22T16:28:16Z</time>
      </trkpt>
      <trkpt lat="45.70466" lon="2.91933">
        <ele>998</ele>
        <time>2009-05-22T16:28:18Z</time>
      </trkpt>
      <trkpt lat="45.70447" lon="2.91874">
        <ele>993</ele>
        <time>2009-05-22T16:28:21Z</time>
      </trkpt>
      <trkpt lat="45.70435" lon="2.91834">
        <ele>990</ele>
        <time>2009-05-22T16:28:23Z</time>
      </trkpt>
      <trkpt lat="45.70424" lon="2.91801">
        <ele>988</ele>
        <time>2009-05-22T16:28:25Z</time>
      </trkpt>
      <trkpt lat="45.70413" lon="2.91766">
        <ele>985</ele>
        <time>2009-05-22T16:28:28Z</time>
      </trkpt>
      <trkpt lat="45.7041" lon="2.91757">
        <ele>985</ele>
        <time>2009-05-22T16:28:29Z</time>
      </trkpt>
      <trkpt lat="45.70394" lon="2.9175">
        <ele>983</ele>
        <time>2009-05-22T16:28:33Z</time>
      </trkpt>
      <trkpt lat="45.70387" lon="2.91763">
        <ele>982</ele>
        <time>2009-05-22T16:28:35Z</time>
      </trkpt>
      <trkpt lat="45.70381" lon="2.91779">
        <ele>982</ele>
        <time>2009-05-22T16:28:37Z</time>
      </trkpt>
      <trkpt lat="45.70369" lon="2.91796">
        <ele>981</ele>
        <time>2009-05-22T16:28:42Z</time>
      </trkpt>
      <trkpt lat="45.70366" lon="2.91796">
        <ele>980</ele>
        <time>2009-05-22T16:28:46Z</time>
      </trkpt>
      <trkpt lat="45.70366" lon="2.91796">
        <ele>980</ele>
        <time>2009-05-22T16:28:47Z</time>
      </trkpt>
      <trkpt lat="45.70361" lon="2.91782">
        <ele>979</ele>
        <time>2009-05-22T16:28:52Z</time>
      </trkpt>
      <trkpt lat="45.70359" lon="2.91767">
        <ele>978</ele>
        <time>2009-05-22T16:28:58Z</time>
      </trkpt>
      <trkpt lat="45.70356" lon="2.9176">
        <ele>977</ele>
        <time>2009-05-22T16:29:04Z</time>
      </trkpt>
      <trkpt lat="45.70356" lon="2.91758">
        <ele>977</ele>
        <time>2009-05-22T16:29:09Z</time>
      </trkpt>
      <trkpt lat="45.70355" lon="2.91752">
        <ele>977</ele>
        <time>2009-05-22T16:29:15Z</time>
      </trkpt>
      <trkpt lat="45.70356" lon="2.91744">
        <ele>976</ele>
        <time>2009-05-22T16:29:22Z</time>
      </trkpt>
      <trkpt lat="45.70357" lon="2.91738">
        <ele>976</ele>
        <time>2009-05-22T16:29:28Z</time>
      </trkpt>
      <trkpt lat="45.70357" lon="2.91731">
        <ele>976</ele>
        <time>2009-05-22T16:29:32Z</time>
      </trkpt>
      <trkpt lat="45.70356" lon="2.91722">
        <ele>975</ele>
        <time>2009-05-22T16:29:37Z</time>
      </trkpt>
      <trkpt lat="45.70356" lon="2.91712">
        <ele>974</ele>
        <time>2009-05-22T16:29:42Z</time>
      </trkpt>
      <trkpt lat="45.70358" lon="2.91694">
        <ele>972</ele>
        <time>2009-05-22T16:29:48Z</time>
      </trkpt>
      <trkpt lat="45.7036" lon="2.91672">
        <ele>969</ele>
        <time>2009-05-22T16:29:53Z</time>
      </trkpt>
      <trkpt lat="45.70365" lon="2.91653">
        <ele>967</ele>
        <time>2009-05-22T16:29:57Z</time>
      </trkpt>
      <trkpt lat="45.70367" lon="2.91648">
        <ele>967</ele>
        <time>2009-05-22T16:29:58Z</time>
      </trkpt>
      <trkpt lat="45.70371" lon="2.91631">
        <ele>964</ele>
        <time>2009-05-22T16:30:02Z</time>
      </trkpt>
      <trkpt lat="45.70368" lon="2.91624">
        <ele>962</ele>
        <time>2009-05-22T16:30:08Z</time>
      </trkpt>
      <trkpt lat="45.70365" lon="2.91617">
        <ele>960</ele>
        <time>2009-05-22T16:30:21Z</time>
      </trkpt>
      <trkpt lat="45.7036" lon="2.91611">
        <ele>958</ele>
        <time>2009-05-22T16:30:24Z</time>
      </trkpt>
      <trkpt lat="45.70352" lon="2.91594">
        <ele>954</ele>
        <time>2009-05-22T16:30:27Z</time>
      </trkpt>
      <trkpt lat="45.70339" lon="2.91549">
        <ele>949</ele>
        <time>2009-05-22T16:30:32Z</time>
      </trkpt>
      <trkpt lat="45.70332" lon="2.9152">
        <ele>946</ele>
        <time>2009-05-22T16:30:35Z</time>
      </trkpt>
      <trkpt lat="45.70335" lon="2.91472">
        <ele>943</ele>
        <time>2009-05-22T16:30:39Z</time>
      </trkpt>
      <trkpt lat="45.70332" lon="2.91431">
        <ele>940</ele>
        <time>2009-05-22T16:30:43Z</time>
      </trkpt>
      <trkpt lat="45.70325" lon="2.91415">
        <ele>939</ele>
        <time>2009-05-22T16:30:45Z</time>
      </trkpt>
      <trkpt lat="45.70324" lon="2.91395">
        <ele>937</ele>
        <time>2009-05-22T16:30:48Z</time>
      </trkpt>
      <trkpt lat="45.70334" lon="2.91384">
        <ele>936</ele>
        <time>2009-05-22T16:30:51Z</time>
      </trkpt>
      <trkpt lat="45.70334" lon="2.91376">
        <ele>935</ele>
        <time>2009-05-22T16:30:54Z</time>
      </trkpt>
      <trkpt lat="45.70331" lon="2.91364">
        <ele>934</ele>
        <time>2009-05-22T16:30:57Z</time>
      </trkpt>
      <trkpt lat="45.70326" lon="2.91338">
        <ele>932</ele>
        <time>2009-05-22T16:31:02Z</time>
      </trkpt>
      <trkpt lat="45.70337" lon="2.91328">
        <ele>931</ele>
        <time>2009-05-22T16:31:06Z</time>
      </trkpt>
      <trkpt lat="45.70359" lon="2.91315">
        <ele>930</ele>
        <time>2009-05-22T16:31:11Z</time>
      </trkpt>
      <trkpt lat="45.70374" lon="2.91306">
        <ele>930</ele>
        <time>2009-05-22T16:31:14Z</time>
      </trkpt>
      <trkpt lat="45.70385" lon="2.91299">
        <ele>929</ele>
        <time>2009-05-22T16:31:16Z</time>
      </trkpt>
      <trkpt lat="45.70425" lon="2.91276">
        <ele>926</ele>
        <time>2009-05-22T16:31:24Z</time>
      </trkpt>
      <trkpt lat="45.70462" lon="2.91256">
        <ele>925</ele>
        <time>2009-05-22T16:31:30Z</time>
      </trkpt>
      <trkpt lat="45.70469" lon="2.91252">
        <ele>924</ele>
        <time>2009-05-22T16:31:31Z</time>
      </trkpt>
      <trkpt lat="45.70482" lon="2.91227">
        <ele>923</ele>
        <time>2009-05-22T16:31:35Z</time>
      </trkpt>
      <trkpt lat="45.70478" lon="2.91191">
        <ele>922</ele>
        <time>2009-05-22T16:31:40Z</time>
      </trkpt>
      <trkpt lat="45.70493" lon="2.91161">
        <ele>921</ele>
        <time>2009-05-22T16:31:46Z</time>
      </trkpt>
      <trkpt lat="45.70502" lon="2.91144">
        <ele>921</ele>
        <time>2009-05-22T16:31:52Z</time>
      </trkpt>
      <trkpt lat="45.70508" lon="2.91123">
        <ele>922</ele>
        <time>2009-05-22T16:31:57Z</time>
      </trkpt>
      <trkpt lat="45.70519" lon="2.911">
        <ele>923</ele>
        <time>2009-05-22T16:32:02Z</time>
      </trkpt>
      <trkpt lat="45.70535" lon="2.91067">
        <ele>925</ele>
        <time>2009-05-22T16:32:09Z</time>
      </trkpt>
      <trkpt lat="45.7055" lon="2.91044">
        <ele>926</ele>
        <time>2009-05-22T16:32:15Z</time>
      </trkpt>
      <trkpt lat="45.70564" lon="2.91033">
        <ele>925</ele>
        <time>2009-05-22T16:32:21Z</time>
      </trkpt>
      <trkpt lat="45.70578" lon="2.91026">
        <ele>923</ele>
        <time>2009-05-22T16:32:26Z</time>
      </trkpt>
      <trkpt lat="45.70596" lon="2.91012">
        <ele>922</ele>
        <time>2009-05-22T16:32:31Z</time>
      </trkpt>
      <trkpt lat="45.70617" lon="2.90993">
        <ele>921</ele>
        <time>2009-05-22T16:32:37Z</time>
      </trkpt>
      <trkpt lat="45.70629" lon="2.90974">
        <ele>920</ele>
        <time>2009-05-22T16:32:42Z</time>
      </trkpt>
      <trkpt lat="45.70637" lon="2.90957">
        <ele>920</ele>
        <time>2009-05-22T16:32:47Z</time>
      </trkpt>
      <trkpt lat="45.70641" lon="2.90937">
        <ele>922</ele>
        <time>2009-05-22T16:32:52Z</time>
      </trkpt>
      <trkpt lat="45.70647" lon="2.90914">
        <ele>924</ele>
        <time>2009-05-22T16:32:57Z</time>
      </trkpt>
      <trkpt lat="45.70653" lon="2.90884">
        <ele>927</ele>
        <time>2009-05-22T16:33:03Z</time>
      </trkpt>
      <trkpt lat="45.7066" lon="2.90854">
        <ele>930</ele>
        <time>2009-05-22T16:33:09Z</time>
      </trkpt>
      <trkpt lat="45.70662" lon="2.90828">
        <ele>934</ele>
        <time>2009-05-22T16:33:14Z</time>
      </trkpt>
      <trkpt lat="45.70662" lon="2.90815">
        <ele>934</ele>
        <time>2009-05-22T16:33:18Z</time>
      </trkpt>
      <trkpt lat="45.70657" lon="2.90801">
        <ele>935</ele>
        <time>2009-05-22T16:33:24Z</time>
      </trkpt>
      <trkpt lat="45.70649" lon="2.90793">
        <ele>937</ele>
        <time>2009-05-22T16:33:27Z</time>
      </trkpt>
      <trkpt lat="45.70628" lon="2.90789">
        <ele>938</ele>
        <time>2009-05-22T16:33:32Z</time>
      </trkpt>
      <trkpt lat="45.70595" lon="2.90778">
        <ele>939</ele>
        <time>2009-05-22T16:33:37Z</time>
      </trkpt>
      <trkpt lat="45.70567" lon="2.90745">
        <ele>934</ele>
        <time>2009-05-22T16:33:42Z</time>
      </trkpt>
      <trkpt lat="45.70558" lon="2.90728">
        <ele>931</ele>
        <time>2009-05-22T16:33:44Z</time>
      </trkpt>
      <trkpt lat="45.7055" lon="2.90708">
        <ele>928</ele>
        <time>2009-05-22T16:33:46Z</time>
      </trkpt>
      <trkpt lat="45.70535" lon="2.90663">
        <ele>925</ele>
        <time>2009-05-22T16:33:50Z</time>
      </trkpt>
      <trkpt lat="45.70518" lon="2.9061">
        <ele>923</ele>
        <time>2009-05-22T16:33:55Z</time>
      </trkpt>
      <trkpt lat="45.70509" lon="2.90591">
        <ele>923</ele>
        <time>2009-05-22T16:33:57Z</time>
      </trkpt>
      <trkpt lat="45.70484" lon="2.90533">
        <ele>920</ele>
        <time>2009-05-22T16:34:03Z</time>
      </trkpt>
      <trkpt lat="45.70475" lon="2.90512">
        <ele>920</ele>
        <time>2009-05-22T16:34:05Z</time>
      </trkpt>
      <trkpt lat="45.70461" lon="2.90478">
        <ele>918</ele>
        <time>2009-05-22T16:34:08Z</time>
      </trkpt>
      <trkpt lat="45.70436" lon="2.9042">
        <ele>915</ele>
        <time>2009-05-22T16:34:13Z</time>
      </trkpt>
      <trkpt lat="45.70429" lon="2.90379">
        <ele>912</ele>
        <time>2009-05-22T16:34:17Z</time>
      </trkpt>
      <trkpt lat="45.70436" lon="2.90352">
        <ele>911</ele>
        <time>2009-05-22T16:34:20Z</time>
      </trkpt>
      <trkpt lat="45.70442" lon="2.90344">
        <ele>910</ele>
        <time>2009-05-22T16:34:21Z</time>
      </trkpt>
      <trkpt lat="45.70486" lon="2.90297">
        <ele>911</ele>
        <time>2009-05-22T16:34:26Z</time>
      </trkpt>
      <trkpt lat="45.70494" lon="2.9029">
        <ele>912</ele>
        <time>2009-05-22T16:34:27Z</time>
      </trkpt>
      <trkpt lat="45.70511" lon="2.90255">
        <ele>914</ele>
        <time>2009-05-22T16:34:31Z</time>
      </trkpt>
      <trkpt lat="45.70511" lon="2.90247">
        <ele>914</ele>
        <time>2009-05-22T16:34:32Z</time>
      </trkpt>
      <trkpt lat="45.7051" lon="2.90235">
        <ele>914</ele>
        <time>2009-05-22T16:34:34Z</time>
      </trkpt>
      <trkpt lat="45.7051" lon="2.9023">
        <ele>914</ele>
        <time>2009-05-22T16:34:35Z</time>
      </trkpt>
      <trkpt lat="45.70512" lon="2.9021">
        <ele>914</ele>
        <time>2009-05-22T16:34:39Z</time>
      </trkpt>
      <trkpt lat="45.70512" lon="2.90196">
        <ele>914</ele>
        <time>2009-05-22T16:34:42Z</time>
      </trkpt>
      <trkpt lat="45.70515" lon="2.90171">
        <ele>914</ele>
        <time>2009-05-22T16:34:47Z</time>
      </trkpt>
      <trkpt lat="45.70519" lon="2.90121">
        <ele>915</ele>
        <time>2009-05-22T16:34:55Z</time>
      </trkpt>
      <trkpt lat="45.7052" lon="2.90103">
        <ele>916</ele>
        <time>2009-05-22T16:34:58Z</time>
      </trkpt>
      <trkpt lat="45.70514" lon="2.90081">
        <ele>916</ele>
        <time>2009-05-22T16:35:02Z</time>
      </trkpt>
      <trkpt lat="45.7051" lon="2.90079">
        <ele>917</ele>
        <time>2009-05-22T16:35:03Z</time>
      </trkpt>
      <trkpt lat="45.70491" lon="2.9006">
        <ele>918</ele>
        <time>2009-05-22T16:35:09Z</time>
      </trkpt>
      <trkpt lat="45.70475" lon="2.90031">
        <ele>917</ele>
        <time>2009-05-22T16:35:16Z</time>
      </trkpt>
      <trkpt lat="45.70457" lon="2.90015">
        <ele>918</ele>
        <time>2009-05-22T16:35:22Z</time>
      </trkpt>
      <trkpt lat="45.70435" lon="2.89996">
        <ele>920</ele>
        <time>2009-05-22T16:35:29Z</time>
      </trkpt>
      <trkpt lat="45.70413" lon="2.89976">
        <ele>921</ele>
        <time>2009-05-22T16:35:35Z</time>
      </trkpt>
      <trkpt lat="45.70404" lon="2.89962">
        <ele>921</ele>
        <time>2009-05-22T16:35:38Z</time>
      </trkpt>
      <trkpt lat="45.70387" lon="2.89926">
        <ele>921</ele>
        <time>2009-05-22T16:35:45Z</time>
      </trkpt>
      <trkpt lat="45.70374" lon="2.899">
        <ele>919</ele>
        <time>2009-05-22T16:35:51Z</time>
      </trkpt>
      <trkpt lat="45.70371" lon="2.89897">
        <ele>918</ele>
        <time>2009-05-22T16:35:52Z</time>
      </trkpt>
      <trkpt lat="45.70345" lon="2.89882">
        <ele>920</ele>
        <time>2009-05-22T16:35:57Z</time>
      </trkpt>
      <trkpt lat="45.70304" lon="2.89852">
        <ele>918</ele>
        <time>2009-05-22T16:36:02Z</time>
      </trkpt>
      <trkpt lat="45.70276" lon="2.89831">
        <ele>915</ele>
        <time>2009-05-22T16:36:05Z</time>
      </trkpt>
      <trkpt lat="45.70247" lon="2.89804">
        <ele>912</ele>
        <time>2009-05-22T16:36:08Z</time>
      </trkpt>
      <trkpt lat="45.70238" lon="2.89793">
        <ele>911</ele>
        <time>2009-05-22T16:36:09Z</time>
      </trkpt>
      <trkpt lat="45.70214" lon="2.89766">
        <ele>907</ele>
        <time>2009-05-22T16:36:12Z</time>
      </trkpt>
      <trkpt lat="45.70195" lon="2.89738">
        <ele>903</ele>
        <time>2009-05-22T16:36:15Z</time>
      </trkpt>
      <trkpt lat="45.70184" lon="2.89707">
        <ele>899</ele>
        <time>2009-05-22T16:36:18Z</time>
      </trkpt>
      <trkpt lat="45.7018" lon="2.89696">
        <ele>897</ele>
        <time>2009-05-22T16:36:19Z</time>
      </trkpt>
      <trkpt lat="45.70171" lon="2.89676">
        <ele>895</ele>
        <time>2009-05-22T16:36:21Z</time>
      </trkpt>
      <trkpt lat="45.70159" lon="2.89663">
        <ele>893</ele>
        <time>2009-05-22T16:36:23Z</time>
      </trkpt>
      <trkpt lat="45.70133" lon="2.89656">
        <ele>894</ele>
        <time>2009-05-22T16:36:26Z</time>
      </trkpt>
      <trkpt lat="45.70116" lon="2.89653">
        <ele>894</ele>
        <time>2009-05-22T16:36:28Z</time>
      </trkpt>
      <trkpt lat="45.7008" lon="2.89634">
        <ele>893</ele>
        <time>2009-05-22T16:36:32Z</time>
      </trkpt>
      <trkpt lat="45.70062" lon="2.8962">
        <ele>891</ele>
        <time>2009-05-22T16:36:34Z</time>
      </trkpt>
      <trkpt lat="45.70024" lon="2.89572">
        <ele>887</ele>
        <time>2009-05-22T16:36:39Z</time>
      </trkpt>
      <trkpt lat="45.69991" lon="2.89544">
        <ele>884</ele>
        <time>2009-05-22T16:36:43Z</time>
      </trkpt>
      <trkpt lat="45.69975" lon="2.8953">
        <ele>884</ele>
        <time>2009-05-22T16:36:46Z</time>
      </trkpt>
      <trkpt lat="45.69957" lon="2.89508">
        <ele>882</ele>
        <time>2009-05-22T16:36:50Z</time>
      </trkpt>
      <trkpt lat="45.69949" lon="2.89494">
        <ele>881</ele>
        <time>2009-05-22T16:36:54Z</time>
      </trkpt>
      <trkpt lat="45.69943" lon="2.89482">
        <ele>881</ele>
        <time>2009-05-22T16:36:59Z</time>
      </trkpt>
      <trkpt lat="45.69942" lon="2.8947">
        <ele>880</ele>
        <time>2009-05-22T16:37:04Z</time>
      </trkpt>
      <trkpt lat="45.69942" lon="2.89468">
        <ele>879</ele>
        <time>2009-05-22T16:37:05Z</time>
      </trkpt>
      <trkpt lat="45.69933" lon="2.89455">
        <ele>879</ele>
        <time>2009-05-22T16:37:10Z</time>
      </trkpt>
      <trkpt lat="45.69926" lon="2.89442">
        <ele>878</ele>
        <time>2009-05-22T16:37:14Z</time>
      </trkpt>
      <trkpt lat="45.69923" lon="2.89423">
        <ele>876</ele>
        <time>2009-05-22T16:37:19Z</time>
      </trkpt>
      <trkpt lat="45.69922" lon="2.89418">
        <ele>876</ele>
        <time>2009-05-22T16:37:20Z</time>
      </trkpt>
      <trkpt lat="45.69915" lon="2.89381">
        <ele>878</ele>
        <time>2009-05-22T16:37:28Z</time>
      </trkpt>
      <trkpt lat="45.69909" lon="2.89361">
        <ele>879</ele>
        <time>2009-05-22T16:37:34Z</time>
      </trkpt>
      <trkpt lat="45.69903" lon="2.89348">
        <ele>880</ele>
        <time>2009-05-22T16:37:39Z</time>
      </trkpt>
      <trkpt lat="45.69903" lon="2.89347">
        <ele>880</ele>
        <time>2009-05-22T16:37:44Z</time>
      </trkpt>
      <trkpt lat="45.69905" lon="2.89346">
        <ele>880</ele>
        <time>2009-05-22T16:37:58Z</time>
      </trkpt>
      <trkpt lat="45.69904" lon="2.89344">
        <ele>881</ele>
        <time>2009-05-22T16:38:06Z</time>
      </trkpt>
      <trkpt lat="45.69903" lon="2.89342">
        <ele>881</ele>
        <time>2009-05-22T16:38:12Z</time>
      </trkpt>
      <trkpt lat="45.69903" lon="2.89342">
        <ele>881</ele>
        <time>2009-05-22T16:38:21Z</time>
      </trkpt>
      <trkpt lat="45.69893" lon="2.89337">
        <ele>882</ele>
        <time>2009-05-22T16:38:28Z</time>
      </trkpt>
      <trkpt lat="45.6989" lon="2.89334">
        <ele>882</ele>
        <time>2009-05-22T16:38:30Z</time>
      </trkpt>
      <trkpt lat="45.69879" lon="2.89322">
        <ele>883</ele>
        <time>2009-05-22T16:38:36Z</time>
      </trkpt>
      <trkpt lat="45.69875" lon="2.89307">
        <ele>885</ele>
        <time>2009-05-22T16:38:42Z</time>
      </trkpt>
      <trkpt lat="45.69875" lon="2.89305">
        <ele>885</ele>
        <time>2009-05-22T16:38:43Z</time>
      </trkpt>
      <trkpt lat="45.6988" lon="2.893">
        <ele>885</ele>
        <time>2009-05-22T16:38:48Z</time>
      </trkpt>
      <trkpt lat="45.69889" lon="2.89295">
        <ele>886</ele>
        <time>2009-05-22T16:38:53Z</time>
      </trkpt>
      <trkpt lat="45.69898" lon="2.8929">
        <ele>886</ele>
        <time>2009-05-22T16:38:58Z</time>
      </trkpt>
      <trkpt lat="45.69904" lon="2.89284">
        <ele>886</ele>
        <time>2009-05-22T16:39:03Z</time>
      </trkpt>
      <trkpt lat="45.69911" lon="2.89278">
        <ele>886</ele>
        <time>2009-05-22T16:39:07Z</time>
      </trkpt>
      <trkpt lat="45.69928" lon="2.89263">
        <ele>887</ele>
        <time>2009-05-22T16:39:16Z</time>
      </trkpt>
      <trkpt lat="45.69945" lon="2.89249">
        <ele>888</ele>
        <time>2009-05-22T16:39:25Z</time>
      </trkpt>
      <trkpt lat="45.69957" lon="2.89238">
        <ele>888</ele>
        <time>2009-05-22T16:39:32Z</time>
      </trkpt>
      <trkpt lat="45.69972" lon="2.89223">
        <ele>889</ele>
        <time>2009-05-22T16:39:40Z</time>
      </trkpt>
      <trkpt lat="45.69987" lon="2.89202">
        <ele>891</ele>
        <time>2009-05-22T16:39:49Z</time>
      </trkpt>
      <trkpt lat="45.70002" lon="2.89179">
        <ele>894</ele>
        <time>2009-05-22T16:39:58Z</time>
      </trkpt>
      <trkpt lat="45.70016" lon="2.89156">
        <ele>897</ele>
        <time>2009-05-22T16:40:07Z</time>
      </trkpt>
      <trkpt lat="45.70032" lon="2.89137">
        <ele>901</ele>
        <time>2009-05-22T16:40:16Z</time>
      </trkpt>
      <trkpt lat="45.70049" lon="2.89131">
        <ele>903</ele>
        <time>2009-05-22T16:40:24Z</time>
      </trkpt>
      <trkpt lat="45.70066" lon="2.89126">
        <ele>904</ele>
        <time>2009-05-22T16:40:32Z</time>
      </trkpt>
      <trkpt lat="45.70076" lon="2.89124">
        <ele>905</ele>
        <time>2009-05-22T16:40:38Z</time>
      </trkpt>
      <trkpt lat="45.70087" lon="2.89126">
        <ele>905</ele>
        <time>2009-05-22T16:40:44Z</time>
      </trkpt>
      <trkpt lat="45.70104" lon="2.89129">
        <ele>905</ele>
        <time>2009-05-22T16:40:52Z</time>
      </trkpt>
      <trkpt lat="45.70117" lon="2.89129">
        <ele>905</ele>
        <time>2009-05-22T16:40:58Z</time>
      </trkpt>
      <trkpt lat="45.70134" lon="2.8913">
        <ele>906</ele>
        <time>2009-05-22T16:41:06Z</time>
      </trkpt>
      <trkpt lat="45.70151" lon="2.89131">
        <ele>907</ele>
        <time>2009-05-22T16:41:14Z</time>
      </trkpt>
      <trkpt lat="45.70169" lon="2.8913">
        <ele>908</ele>
        <time>2009-05-22T16:41:23Z</time>
      </trkpt>
      <trkpt lat="45.70185" lon="2.8913">
        <ele>911</ele>
        <time>2009-05-22T16:41:31Z</time>
      </trkpt>
      <trkpt lat="45.70205" lon="2.8913">
        <ele>913</ele>
        <time>2009-05-22T16:41:41Z</time>
      </trkpt>
      <trkpt lat="45.70212" lon="2.8913">
        <ele>914</ele>
        <time>2009-05-22T16:41:45Z</time>
      </trkpt>
      <trkpt lat="45.70227" lon="2.89127">
        <ele>918</ele>
        <time>2009-05-22T16:41:54Z</time>
      </trkpt>
      <trkpt lat="45.70233" lon="2.89123">
        <ele>920</ele>
        <time>2009-05-22T16:41:58Z</time>
      </trkpt>
      <trkpt lat="45.70247" lon="2.89109">
        <ele>924</ele>
        <time>2009-05-22T16:42:06Z</time>
      </trkpt>
      <trkpt lat="45.7026" lon="2.89091">
        <ele>927</ele>
        <time>2009-05-22T16:42:13Z</time>
      </trkpt>
      <trkpt lat="45.70273" lon="2.8907">
        <ele>928</ele>
        <time>2009-05-22T16:42:19Z</time>
      </trkpt>
      <trkpt lat="45.70289" lon="2.89037">
        <ele>928</ele>
        <time>2009-05-22T16:42:26Z</time>
      </trkpt>
      <trkpt lat="45.70303" lon="2.89003">
        <ele>927</ele>
        <time>2009-05-22T16:42:33Z</time>
      </trkpt>
      <trkpt lat="45.70315" lon="2.88969">
        <ele>926</ele>
        <time>2009-05-22T16:42:40Z</time>
      </trkpt>
      <trkpt lat="45.70309" lon="2.8895">
        <ele>926</ele>
        <time>2009-05-22T16:42:44Z</time>
      </trkpt>
      <trkpt lat="45.70302" lon="2.88949">
        <ele>927</ele>
        <time>2009-05-22T16:42:46Z</time>
      </trkpt>
      <trkpt lat="45.70288" lon="2.88947">
        <ele>927</ele>
        <time>2009-05-22T16:42:50Z</time>
      </trkpt>
      <trkpt lat="45.70264" lon="2.8894">
        <ele>928</ele>
        <time>2009-05-22T16:42:56Z</time>
      </trkpt>
      <trkpt lat="45.70231" lon="2.88935">
        <ele>929</ele>
        <time>2009-05-22T16:43:04Z</time>
      </trkpt>
      <trkpt lat="45.70187" lon="2.88926">
        <ele>930</ele>
        <time>2009-05-22T16:43:14Z</time>
      </trkpt>
      <trkpt lat="45.70152" lon="2.8892">
        <ele>931</ele>
        <time>2009-05-22T16:43:22Z</time>
      </trkpt>
      <trkpt lat="45.70148" lon="2.88919">
        <ele>931</ele>
        <time>2009-05-22T16:43:23Z</time>
      </trkpt>
      <trkpt lat="45.70139" lon="2.88918">
        <ele>931</ele>
        <time>2009-05-22T16:43:25Z</time>
      </trkpt>
      <trkpt lat="45.70094" lon="2.88911">
        <ele>932</ele>
        <time>2009-05-22T16:43:34Z</time>
      </trkpt>
      <trkpt lat="45.70055" lon="2.88903">
        <ele>932</ele>
        <time>2009-05-22T16:43:42Z</time>
      </trkpt>
      <trkpt lat="45.70008" lon="2.88895">
        <ele>933</ele>
        <time>2009-05-22T16:43:52Z</time>
      </trkpt>
      <trkpt lat="45.70003" lon="2.88893">
        <ele>933</ele>
        <time>2009-05-22T16:43:53Z</time>
      </trkpt>
      <trkpt lat="45.69985" lon="2.88893">
        <ele>933</ele>
        <time>2009-05-22T16:43:57Z</time>
      </trkpt>
      <trkpt lat="45.69937" lon="2.88899">
        <ele>933</ele>
        <time>2009-05-22T16:44:08Z</time>
      </trkpt>
      <trkpt lat="45.699" lon="2.88903">
        <ele>933</ele>
        <time>2009-05-22T16:44:17Z</time>
      </trkpt>
      <trkpt lat="45.69866" lon="2.88906">
        <ele>932</ele>
        <time>2009-05-22T16:44:25Z</time>
      </trkpt>
      <trkpt lat="45.69822" lon="2.88911">
        <ele>932</ele>
        <time>2009-05-22T16:44:35Z</time>
      </trkpt>
      <trkpt lat="45.69775" lon="2.88917">
        <ele>931</ele>
        <time>2009-05-22T16:44:46Z</time>
      </trkpt>
      <trkpt lat="45.69748" lon="2.88919">
        <ele>931</ele>
        <time>2009-05-22T16:44:52Z</time>
      </trkpt>
      <trkpt lat="45.69706" lon="2.88924">
        <ele>931</ele>
        <time>2009-05-22T16:45:01Z</time>
      </trkpt>
      <trkpt lat="45.69675" lon="2.88923">
        <ele>930</ele>
        <time>2009-05-22T16:45:08Z</time>
      </trkpt>
      <trkpt lat="45.69643" lon="2.88922">
        <ele>930</ele>
        <time>2009-05-22T16:45:16Z</time>
      </trkpt>
      <trkpt lat="45.69608" lon="2.88919">
        <ele>932</ele>
        <time>2009-05-22T16:45:24Z</time>
      </trkpt>
      <trkpt lat="45.6957" lon="2.8891">
        <ele>936</ele>
        <time>2009-05-22T16:45:32Z</time>
      </trkpt>
      <trkpt lat="45.69544" lon="2.88898">
        <ele>939</ele>
        <time>2009-05-22T16:45:38Z</time>
      </trkpt>
      <trkpt lat="45.69517" lon="2.88884">
        <ele>941</ele>
        <time>2009-05-22T16:45:45Z</time>
      </trkpt>
      <trkpt lat="45.69475" lon="2.88862">
        <ele>940</ele>
        <time>2009-05-22T16:45:55Z</time>
      </trkpt>
      <trkpt lat="45.69446" lon="2.8885">
        <ele>940</ele>
        <time>2009-05-22T16:46:02Z</time>
      </trkpt>
      <trkpt lat="45.69423" lon="2.88842">
        <ele>940</ele>
        <time>2009-05-22T16:46:07Z</time>
      </trkpt>
      <trkpt lat="45.69391" lon="2.88835">
        <ele>941</ele>
        <time>2009-05-22T16:46:15Z</time>
      </trkpt>
      <trkpt lat="45.69368" lon="2.88843">
        <ele>941</ele>
        <time>2009-05-22T16:46:22Z</time>
      </trkpt>
      <trkpt lat="45.69343" lon="2.88849">
        <ele>941</ele>
        <time>2009-05-22T16:46:29Z</time>
      </trkpt>
      <trkpt lat="45.69323" lon="2.8885">
        <ele>941</ele>
        <time>2009-05-22T16:46:35Z</time>
      </trkpt>
      <trkpt lat="45.69299" lon="2.8885">
        <ele>942</ele>
        <time>2009-05-22T16:46:43Z</time>
      </trkpt>
      <trkpt lat="45.69278" lon="2.88849">
        <ele>943</ele>
        <time>2009-05-22T16:46:50Z</time>
      </trkpt>
      <trkpt lat="45.69257" lon="2.8885">
        <ele>943</ele>
        <time>2009-05-22T16:46:57Z</time>
      </trkpt>
      <trkpt lat="45.69234" lon="2.88849">
        <ele>945</ele>
        <time>2009-05-22T16:47:05Z</time>
      </trkpt>
      <trkpt lat="45.69218" lon="2.88849">
        <ele>945</ele>
        <time>2009-05-22T16:47:10Z</time>
      </trkpt>
      <trkpt lat="45.6921" lon="2.88846">
        <ele>946</ele>
        <time>2009-05-22T16:47:12Z</time>
      </trkpt>
      <trkpt lat="45.6919" lon="2.88826">
        <ele>948</ele>
        <time>2009-05-22T16:47:17Z</time>
      </trkpt>
      <trkpt lat="45.69154" lon="2.88784">
        <ele>949</ele>
        <time>2009-05-22T16:47:26Z</time>
      </trkpt>
      <trkpt lat="45.69145" lon="2.88777">
        <ele>950</ele>
        <time>2009-05-22T16:47:28Z</time>
      </trkpt>
      <trkpt lat="45.69136" lon="2.88771">
        <ele>950</ele>
        <time>2009-05-22T16:47:30Z</time>
      </trkpt>
      <trkpt lat="45.69114" lon="2.88764">
        <ele>950</ele>
        <time>2009-05-22T16:47:35Z</time>
      </trkpt>
      <trkpt lat="45.69105" lon="2.88763">
        <ele>949</ele>
        <time>2009-05-22T16:47:37Z</time>
      </trkpt>
      <trkpt lat="45.69069" lon="2.88766">
        <ele>947</ele>
        <time>2009-05-22T16:47:45Z</time>
      </trkpt>
      <trkpt lat="45.69057" lon="2.88766">
        <ele>947</ele>
        <time>2009-05-22T16:47:48Z</time>
      </trkpt>
      <trkpt lat="45.6904" lon="2.88762">
        <ele>946</ele>
        <time>2009-05-22T16:47:52Z</time>
      </trkpt>
      <trkpt lat="45.69014" lon="2.88748">
        <ele>947</ele>
        <time>2009-05-22T16:47:59Z</time>
      </trkpt>
      <trkpt lat="45.68996" lon="2.88736">
        <ele>949</ele>
        <time>2009-05-22T16:48:04Z</time>
      </trkpt>
      <trkpt lat="45.68968" lon="2.88714">
        <ele>951</ele>
        <time>2009-05-22T16:48:12Z</time>
      </trkpt>
      <trkpt lat="45.68948" lon="2.88701">
        <ele>953</ele>
        <time>2009-05-22T16:48:19Z</time>
      </trkpt>
      <trkpt lat="45.68936" lon="2.88692">
        <ele>953</ele>
        <time>2009-05-22T16:48:24Z</time>
      </trkpt>
      <trkpt lat="45.68926" lon="2.88685">
        <ele>954</ele>
        <time>2009-05-22T16:48:29Z</time>
      </trkpt>
      <trkpt lat="45.68913" lon="2.88674">
        <ele>955</ele>
        <time>2009-05-22T16:48:36Z</time>
      </trkpt>
      <trkpt lat="45.68898" lon="2.88662">
        <ele>956</ele>
        <time>2009-05-22T16:48:43Z</time>
      </trkpt>
      <trkpt lat="45.68884" lon="2.88649">
        <ele>957</ele>
        <time>2009-05-22T16:48:49Z</time>
      </trkpt>
      <trkpt lat="45.68885" lon="2.88633">
        <ele>959</ele>
        <time>2009-05-22T16:48:53Z</time>
      </trkpt>
      <trkpt lat="45.68887" lon="2.8863">
        <ele>959</ele>
        <time>2009-05-22T16:48:54Z</time>
      </trkpt>
      <trkpt lat="45.68896" lon="2.88611">
        <ele>960</ele>
        <time>2009-05-22T16:49:02Z</time>
      </trkpt>
      <trkpt lat="45.689" lon="2.88591">
        <ele>961</ele>
        <time>2009-05-22T16:49:09Z</time>
      </trkpt>
      <trkpt lat="45.68898" lon="2.88571">
        <ele>962</ele>
        <time>2009-05-22T16:49:15Z</time>
      </trkpt>
      <trkpt lat="45.68897" lon="2.88548">
        <ele>963</ele>
        <time>2009-05-22T16:49:22Z</time>
      </trkpt>
      <trkpt lat="45.68893" lon="2.88524">
        <ele>963</ele>
        <time>2009-05-22T16:49:30Z</time>
      </trkpt>
      <trkpt lat="45.68889" lon="2.88514">
        <ele>963</ele>
        <time>2009-05-22T16:49:36Z</time>
      </trkpt>
      <trkpt lat="45.68887" lon="2.88511">
        <ele>963</ele>
        <time>2009-05-22T16:49:42Z</time>
      </trkpt>
      <trkpt lat="45.68887" lon="2.8851">
        <ele>963</ele>
        <time>2009-05-22T16:49:49Z</time>
      </trkpt>
      <trkpt lat="45.68888" lon="2.88509">
        <ele>963</ele>
        <time>2009-05-22T16:49:57Z</time>
      </trkpt>
      <trkpt lat="45.68889" lon="2.88508">
        <ele>963</ele>
        <time>2009-05-22T16:50:07Z</time>
      </trkpt>
      <trkpt lat="45.68886" lon="2.88503">
        <ele>963</ele>
        <time>2009-05-22T16:50:14Z</time>
      </trkpt>
      <trkpt lat="45.68884" lon="2.88503">
        <ele>963</ele>
        <time>2009-05-22T16:50:22Z</time>
      </trkpt>
      <trkpt lat="45.68883" lon="2.88505">
        <ele>963</ele>
        <time>2009-05-22T16:50:56Z</time>
      </trkpt>
      <trkpt lat="45.68883" lon="2.88505">
        <ele>963</ele>
        <time>2009-05-22T16:50:57Z</time>
      </trkpt>
      <trkpt lat="45.68885" lon="2.88505">
        <ele>963</ele>
        <time>2009-05-22T16:51:23Z</time>
      </trkpt>
      <trkpt lat="45.68881" lon="2.88507">
        <ele>963</ele>
        <time>2009-05-22T16:52:14Z</time>
      </trkpt>
      <trkpt lat="45.68879" lon="2.88506">
        <ele>963</ele>
        <time>2009-05-22T16:53:58Z</time>
      </trkpt>
      <trkpt lat="45.68879" lon="2.88506">
        <ele>963</ele>
        <time>2009-05-22T16:53:59Z</time>
      </trkpt>
      <trkpt lat="45.68883" lon="2.88506">
        <ele>963</ele>
        <time>2009-05-22T16:56:31Z</time>
      </trkpt>
      <trkpt lat="45.68884" lon="2.88505">
        <ele>963</ele>
        <time>2009-05-22T16:56:43Z</time>
      </trkpt>
      <trkpt lat="45.68883" lon="2.88506">
        <ele>963</ele>
        <time>2009-05-22T16:57:02Z</time>
      </trkpt>
      <trkpt lat="45.68883" lon="2.88506">
        <ele>963</ele>
        <time>2009-05-22T16:57:18Z</time>
      </trkpt>
      <trkpt lat="45.68883" lon="2.88506">
        <ele>963</ele>
        <time>2009-05-22T16:57:19Z</time>
      </trkpt>
      <trkpt lat="45.68888" lon="2.88505">
        <ele>963</ele>
        <time>2009-05-22T16:59:39Z</time>
      </trkpt>
      <trkpt lat="45.68888" lon="2.88502">
        <ele>963</ele>
        <time>2009-05-22T16:59:49Z</time>
      </trkpt>
      <trkpt lat="45.68889" lon="2.885">
        <ele>963</ele>
        <time>2009-05-22T16:59:51Z</time>
      </trkpt>
      <trkpt lat="45.68891" lon="2.88496">
        <ele>963</ele>
        <time>2009-05-22T16:59:54Z</time>
      </trkpt>
      <trkpt lat="45.68897" lon="2.88487">
        <ele>963</ele>
        <time>2009-05-22T16:59:58Z</time>
      </trkpt>
      <trkpt lat="45.68902" lon="2.88471">
        <ele>962</ele>
        <time>2009-05-22T17:00:02Z</time>
      </trkpt>
      <trkpt lat="45.68907" lon="2.88449">
        <ele>961</ele>
        <time>2009-05-22T17:00:06Z</time>
      </trkpt>
      <trkpt lat="45.68916" lon="2.88396">
        <ele>959</ele>
        <time>2009-05-22T17:00:13Z</time>
      </trkpt>
      <trkpt lat="45.68922" lon="2.88327">
        <ele>960</ele>
        <time>2009-05-22T17:00:21Z</time>
      </trkpt>
      <trkpt lat="45.68926" lon="2.88274">
        <ele>961</ele>
        <time>2009-05-22T17:00:28Z</time>
      </trkpt>
      <trkpt lat="45.68931" lon="2.88249">
        <ele>962</ele>
        <time>2009-05-22T17:00:32Z</time>
      </trkpt>
      <trkpt lat="45.68932" lon="2.8823">
        <ele>962</ele>
        <time>2009-05-22T17:00:35Z</time>
      </trkpt>
      <trkpt lat="45.68934" lon="2.882">
        <ele>963</ele>
        <time>2009-05-22T17:00:41Z</time>
      </trkpt>
      <trkpt lat="45.68937" lon="2.88164">
        <ele>964</ele>
        <time>2009-05-22T17:00:49Z</time>
      </trkpt>
      <trkpt lat="45.6894" lon="2.8813">
        <ele>963</ele>
        <time>2009-05-22T17:00:56Z</time>
      </trkpt>
      <trkpt lat="45.68946" lon="2.88106">
        <ele>961</ele>
        <time>2009-05-22T17:01:01Z</time>
      </trkpt>
      <trkpt lat="45.68946" lon="2.881">
        <ele>961</ele>
        <time>2009-05-22T17:01:02Z</time>
      </trkpt>
      <trkpt lat="45.68941" lon="2.88082">
        <ele>959</ele>
        <time>2009-05-22T17:01:05Z</time>
      </trkpt>
      <trkpt lat="45.68928" lon="2.88045">
        <ele>957</ele>
        <time>2009-05-22T17:01:09Z</time>
      </trkpt>
      <trkpt lat="45.68919" lon="2.88007">
        <ele>952</ele>
        <time>2009-05-22T17:01:12Z</time>
      </trkpt>
      <trkpt lat="45.68916" lon="2.87966">
        <ele>947</ele>
        <time>2009-05-22T17:01:15Z</time>
      </trkpt>
      <trkpt lat="45.68915" lon="2.87951">
        <ele>945</ele>
        <time>2009-05-22T17:01:16Z</time>
      </trkpt>
      <trkpt lat="45.6892" lon="2.87886">
        <ele>936</ele>
        <time>2009-05-22T17:01:20Z</time>
      </trkpt>
      <trkpt lat="45.68923" lon="2.87836">
        <ele>930</ele>
        <time>2009-05-22T17:01:23Z</time>
      </trkpt>
      <trkpt lat="45.68923" lon="2.87805">
        <ele>929</ele>
        <time>2009-05-22T17:01:25Z</time>
      </trkpt>
      <trkpt lat="45.68919" lon="2.87747">
        <ele>927</ele>
        <time>2009-05-22T17:01:29Z</time>
      </trkpt>
      <trkpt lat="45.68915" lon="2.87718">
        <ele>927</ele>
        <time>2009-05-22T17:01:31Z</time>
      </trkpt>
      <trkpt lat="45.68913" lon="2.8769">
        <ele>925</ele>
        <time>2009-05-22T17:01:33Z</time>
      </trkpt>
      <trkpt lat="45.68913" lon="2.87629">
        <ele>919</ele>
        <time>2009-05-22T17:01:38Z</time>
      </trkpt>
      <trkpt lat="45.68911" lon="2.87595">
        <ele>916</ele>
        <time>2009-05-22T17:01:41Z</time>
      </trkpt>
      <trkpt lat="45.68909" lon="2.87575">
        <ele>914</ele>
        <time>2009-05-22T17:01:43Z</time>
      </trkpt>
      <trkpt lat="45.68909" lon="2.87559">
        <ele>912</ele>
        <time>2009-05-22T17:01:45Z</time>
      </trkpt>
      <trkpt lat="45.68908" lon="2.87543">
        <ele>911</ele>
        <time>2009-05-22T17:01:47Z</time>
      </trkpt>
      <trkpt lat="45.68908" lon="2.87525">
        <ele>909</ele>
        <time>2009-05-22T17:01:50Z</time>
      </trkpt>
      <trkpt lat="45.68909" lon="2.87508">
        <ele>907</ele>
        <time>2009-05-22T17:01:53Z</time>
      </trkpt>
      <trkpt lat="45.68915" lon="2.87489">
        <ele>905</ele>
        <time>2009-05-22T17:01:57Z</time>
      </trkpt>
      <trkpt lat="45.68916" lon="2.87485">
        <ele>904</ele>
        <time>2009-05-22T17:01:58Z</time>
      </trkpt>
      <trkpt lat="45.6892" lon="2.87466">
        <ele>902</ele>
        <time>2009-05-22T17:02:03Z</time>
      </trkpt>
      <trkpt lat="45.68924" lon="2.87453">
        <ele>900</ele>
        <time>2009-05-22T17:02:07Z</time>
      </trkpt>
      <trkpt lat="45.6893" lon="2.87433">
        <ele>898</ele>
        <time>2009-05-22T17:02:12Z</time>
      </trkpt>
      <trkpt lat="45.68933" lon="2.87417">
        <ele>896</ele>
        <time>2009-05-22T17:02:17Z</time>
      </trkpt>
      <trkpt lat="45.68936" lon="2.87402">
        <ele>894</ele>
        <time>2009-05-22T17:02:23Z</time>
      </trkpt>
      <trkpt lat="45.68939" lon="2.87394">
        <ele>893</ele>
        <time>2009-05-22T17:02:26Z</time>
      </trkpt>
      <trkpt lat="45.68942" lon="2.87383">
        <ele>891</ele>
        <time>2009-05-22T17:02:30Z</time>
      </trkpt>
      <trkpt lat="45.68952" lon="2.87349">
        <ele>885</ele>
        <time>2009-05-22T17:02:37Z</time>
      </trkpt>
      <trkpt lat="45.68953" lon="2.87344">
        <ele>884</ele>
        <time>2009-05-22T17:02:38Z</time>
      </trkpt>
      <trkpt lat="45.6896" lon="2.87318">
        <ele>880</ele>
        <time>2009-05-22T17:02:42Z</time>
      </trkpt>
      <trkpt lat="45.68962" lon="2.87311">
        <ele>879</ele>
        <time>2009-05-22T17:02:43Z</time>
      </trkpt>
      <trkpt lat="45.68967" lon="2.87299">
        <ele>877</ele>
        <time>2009-05-22T17:02:45Z</time>
      </trkpt>
      <trkpt lat="45.68973" lon="2.87272">
        <ele>874</ele>
        <time>2009-05-22T17:02:49Z</time>
      </trkpt>
      <trkpt lat="45.68974" lon="2.87246">
        <ele>872</ele>
        <time>2009-05-22T17:02:52Z</time>
      </trkpt>
      <trkpt lat="45.68972" lon="2.87211">
        <ele>870</ele>
        <time>2009-05-22T17:02:56Z</time>
      </trkpt>
      <trkpt lat="45.68968" lon="2.8718">
        <ele>868</ele>
        <time>2009-05-22T17:03:00Z</time>
      </trkpt>
      <trkpt lat="45.68963" lon="2.87146">
        <ele>865</ele>
        <time>2009-05-22T17:03:05Z</time>
      </trkpt>
      <trkpt lat="45.68956" lon="2.87127">
        <ele>863</ele>
        <time>2009-05-22T17:03:10Z</time>
      </trkpt>
      <trkpt lat="45.68955" lon="2.87124">
        <ele>863</ele>
        <time>2009-05-22T17:03:11Z</time>
      </trkpt>
      <trkpt lat="45.68945" lon="2.87113">
        <ele>861</ele>
        <time>2009-05-22T17:03:15Z</time>
      </trkpt>
      <trkpt lat="45.68939" lon="2.87103">
        <ele>860</ele>
        <time>2009-05-22T17:03:17Z</time>
      </trkpt>
      <trkpt lat="45.68933" lon="2.87079">
        <ele>857</ele>
        <time>2009-05-22T17:03:21Z</time>
      </trkpt>
      <trkpt lat="45.68939" lon="2.87053">
        <ele>855</ele>
        <time>2009-05-22T17:03:24Z</time>
      </trkpt>
      <trkpt lat="45.68937" lon="2.87027">
        <ele>852</ele>
        <time>2009-05-22T17:03:27Z</time>
      </trkpt>
      <trkpt lat="45.68934" lon="2.87018">
        <ele>851</ele>
        <time>2009-05-22T17:03:28Z</time>
      </trkpt>
      <trkpt lat="45.68932" lon="2.86982">
        <ele>848</ele>
        <time>2009-05-22T17:03:32Z</time>
      </trkpt>
      <trkpt lat="45.68934" lon="2.86974">
        <ele>848</ele>
        <time>2009-05-22T17:03:33Z</time>
      </trkpt>
      <trkpt lat="45.68945" lon="2.86928">
        <ele>846</ele>
        <time>2009-05-22T17:03:39Z</time>
      </trkpt>
      <trkpt lat="45.6896" lon="2.86893">
        <ele>845</ele>
        <time>2009-05-22T17:03:45Z</time>
      </trkpt>
      <trkpt lat="45.68963" lon="2.86887">
        <ele>845</ele>
        <time>2009-05-22T17:03:46Z</time>
      </trkpt>
      <trkpt lat="45.68983" lon="2.86865">
        <ele>845</ele>
        <time>2009-05-22T17:03:51Z</time>
      </trkpt>
      <trkpt lat="45.68994" lon="2.86863">
        <ele>844</ele>
        <time>2009-05-22T17:03:53Z</time>
      </trkpt>
      <trkpt lat="45.69013" lon="2.86866">
        <ele>843</ele>
        <time>2009-05-22T17:03:56Z</time>
      </trkpt>
      <trkpt lat="45.69064" lon="2.8686">
        <ele>841</ele>
        <time>2009-05-22T17:04:04Z</time>
      </trkpt>
      <trkpt lat="45.69105" lon="2.86854">
        <ele>839</ele>
        <time>2009-05-22T17:04:10Z</time>
      </trkpt>
      <trkpt lat="45.69134" lon="2.8685">
        <ele>839</ele>
        <time>2009-05-22T17:04:14Z</time>
      </trkpt>
      <trkpt lat="45.69187" lon="2.86824">
        <ele>839</ele>
        <time>2009-05-22T17:04:22Z</time>
      </trkpt>
      <trkpt lat="45.69209" lon="2.86807">
        <ele>839</ele>
        <time>2009-05-22T17:04:26Z</time>
      </trkpt>
      <trkpt lat="45.69219" lon="2.86783">
        <ele>838</ele>
        <time>2009-05-22T17:04:30Z</time>
      </trkpt>
      <trkpt lat="45.69213" lon="2.86767">
        <ele>838</ele>
        <time>2009-05-22T17:04:33Z</time>
      </trkpt>
      <trkpt lat="45.69207" lon="2.86742">
        <ele>839</ele>
        <time>2009-05-22T17:04:40Z</time>
      </trkpt>
      <trkpt lat="45.69215" lon="2.86728">
        <ele>839</ele>
        <time>2009-05-22T17:04:45Z</time>
      </trkpt>
      <trkpt lat="45.6923" lon="2.86706">
        <ele>839</ele>
        <time>2009-05-22T17:04:52Z</time>
      </trkpt>
      <trkpt lat="45.69231" lon="2.86681">
        <ele>840</ele>
        <time>2009-05-22T17:04:58Z</time>
      </trkpt>
      <trkpt lat="45.69235" lon="2.86663">
        <ele>840</ele>
        <time>2009-05-22T17:05:03Z</time>
      </trkpt>
      <trkpt lat="45.69239" lon="2.86643">
        <ele>841</ele>
        <time>2009-05-22T17:05:08Z</time>
      </trkpt>
      <trkpt lat="45.69237" lon="2.8663">
        <ele>841</ele>
        <time>2009-05-22T17:05:12Z</time>
      </trkpt>
      <trkpt lat="45.69229" lon="2.86604">
        <ele>842</ele>
        <time>2009-05-22T17:05:17Z</time>
      </trkpt>
      <trkpt lat="45.69224" lon="2.86592">
        <ele>842</ele>
        <time>2009-05-22T17:05:19Z</time>
      </trkpt>
      <trkpt lat="45.69214" lon="2.86558">
        <ele>843</ele>
        <time>2009-05-22T17:05:24Z</time>
      </trkpt>
      <trkpt lat="45.69207" lon="2.86526">
        <ele>843</ele>
        <time>2009-05-22T17:05:28Z</time>
      </trkpt>
      <trkpt lat="45.69204" lon="2.86494">
        <ele>842</ele>
        <time>2009-05-22T17:05:31Z</time>
      </trkpt>
      <trkpt lat="45.69189" lon="2.86437">
        <ele>840</ele>
        <time>2009-05-22T17:05:36Z</time>
      </trkpt>
      <trkpt lat="45.69171" lon="2.86392">
        <ele>839</ele>
        <time>2009-05-22T17:05:41Z</time>
      </trkpt>
      <trkpt lat="45.69165" lon="2.8638">
        <ele>839</ele>
        <time>2009-05-22T17:05:43Z</time>
      </trkpt>
      <trkpt lat="45.69157" lon="2.86358">
        <ele>840</ele>
        <time>2009-05-22T17:05:48Z</time>
      </trkpt>
      <trkpt lat="45.69155" lon="2.86346">
        <ele>840</ele>
        <time>2009-05-22T17:05:51Z</time>
      </trkpt>
      <trkpt lat="45.69153" lon="2.86335">
        <ele>841</ele>
        <time>2009-05-22T17:05:54Z</time>
      </trkpt>
      <trkpt lat="45.69152" lon="2.86328">
        <ele>841</ele>
        <time>2009-05-22T17:05:56Z</time>
      </trkpt>
      <trkpt lat="45.69152" lon="2.86325">
        <ele>841</ele>
        <time>2009-05-22T17:05:57Z</time>
      </trkpt>
      <trkpt lat="45.69151" lon="2.86318">
        <ele>842</ele>
        <time>2009-05-22T17:05:59Z</time>
      </trkpt>
      <trkpt lat="45.6915" lon="2.86314">
        <ele>842</ele>
        <time>2009-05-22T17:06:00Z</time>
      </trkpt>
      <trkpt lat="45.69147" lon="2.86301">
        <ele>843</ele>
        <time>2009-05-22T17:06:04Z</time>
      </trkpt>
      <trkpt lat="45.69142" lon="2.86281">
        <ele>844</ele>
        <time>2009-05-22T17:06:10Z</time>
      </trkpt>
      <trkpt lat="45.69134" lon="2.86258">
        <ele>845</ele>
        <time>2009-05-22T17:06:17Z</time>
      </trkpt>
      <trkpt lat="45.69131" lon="2.86252">
        <ele>846</ele>
        <time>2009-05-22T17:06:19Z</time>
      </trkpt>
      <trkpt lat="45.69118" lon="2.86241">
        <ele>847</ele>
        <time>2009-05-22T17:06:25Z</time>
      </trkpt>
      <trkpt lat="45.69102" lon="2.86233">
        <ele>848</ele>
        <time>2009-05-22T17:06:31Z</time>
      </trkpt>
      <trkpt lat="45.69087" lon="2.86225">
        <ele>849</ele>
        <time>2009-05-22T17:06:38Z</time>
      </trkpt>
      <trkpt lat="45.69068" lon="2.86217">
        <ele>850</ele>
        <time>2009-05-22T17:06:46Z</time>
      </trkpt>
      <trkpt lat="45.69043" lon="2.86208">
        <ele>852</ele>
        <time>2009-05-22T17:06:56Z</time>
      </trkpt>
      <trkpt lat="45.69031" lon="2.86191">
        <ele>853</ele>
        <time>2009-05-22T17:07:03Z</time>
      </trkpt>
      <trkpt lat="45.69028" lon="2.86168">
        <ele>854</ele>
        <time>2009-05-22T17:07:11Z</time>
      </trkpt>
      <trkpt lat="45.6902" lon="2.8615">
        <ele>856</ele>
        <time>2009-05-22T17:07:18Z</time>
      </trkpt>
      <trkpt lat="45.69008" lon="2.8614">
        <ele>856</ele>
        <time>2009-05-22T17:07:24Z</time>
      </trkpt>
      <trkpt lat="45.68992" lon="2.86129">
        <ele>858</ele>
        <time>2009-05-22T17:07:32Z</time>
      </trkpt>
      <trkpt lat="45.68975" lon="2.86112">
        <ele>860</ele>
        <time>2009-05-22T17:07:41Z</time>
      </trkpt>
      <trkpt lat="45.68973" lon="2.86094">
        <ele>861</ele>
        <time>2009-05-22T17:07:47Z</time>
      </trkpt>
      <trkpt lat="45.68975" lon="2.86072">
        <ele>862</ele>
        <time>2009-05-22T17:07:54Z</time>
      </trkpt>
      <trkpt lat="45.68982" lon="2.86048">
        <ele>864</ele>
        <time>2009-05-22T17:08:03Z</time>
      </trkpt>
      <trkpt lat="45.68989" lon="2.86025">
        <ele>866</ele>
        <time>2009-05-22T17:08:12Z</time>
      </trkpt>
      <trkpt lat="45.68996" lon="2.86008">
        <ele>867</ele>
        <time>2009-05-22T17:08:19Z</time>
      </trkpt>
      <trkpt lat="45.69005" lon="2.8599">
        <ele>869</ele>
        <time>2009-05-22T17:08:27Z</time>
      </trkpt>
      <trkpt lat="45.69017" lon="2.85969">
        <ele>870</ele>
        <time>2009-05-22T17:08:36Z</time>
      </trkpt>
      <trkpt lat="45.69028" lon="2.85949">
        <ele>871</ele>
        <time>2009-05-22T17:08:45Z</time>
      </trkpt>
      <trkpt lat="45.69036" lon="2.85934">
        <ele>872</ele>
        <time>2009-05-22T17:08:52Z</time>
      </trkpt>
      <trkpt lat="45.69047" lon="2.85914">
        <ele>875</ele>
        <time>2009-05-22T17:09:01Z</time>
      </trkpt>
      <trkpt lat="45.69059" lon="2.85894">
        <ele>876</ele>
        <time>2009-05-22T17:09:10Z</time>
      </trkpt>
      <trkpt lat="45.69069" lon="2.85878">
        <ele>877</ele>
        <time>2009-05-22T17:09:19Z</time>
      </trkpt>
      <trkpt lat="45.6908" lon="2.85869">
        <ele>878</ele>
        <time>2009-05-22T17:09:26Z</time>
      </trkpt>
      <trkpt lat="45.691" lon="2.85853">
        <ele>879</ele>
        <time>2009-05-22T17:09:36Z</time>
      </trkpt>
      <trkpt lat="45.69113" lon="2.85835">
        <ele>880</ele>
        <time>2009-05-22T17:09:45Z</time>
      </trkpt>
      <trkpt lat="45.69124" lon="2.85817">
        <ele>882</ele>
        <time>2009-05-22T17:09:53Z</time>
      </trkpt>
      <trkpt lat="45.69135" lon="2.85797">
        <ele>883</ele>
        <time>2009-05-22T17:10:02Z</time>
      </trkpt>
      <trkpt lat="45.69145" lon="2.85777">
        <ele>886</ele>
        <time>2009-05-22T17:10:11Z</time>
      </trkpt>
      <trkpt lat="45.69149" lon="2.85767">
        <ele>887</ele>
        <time>2009-05-22T17:10:15Z</time>
      </trkpt>
      <trkpt lat="45.69144" lon="2.85757">
        <ele>889</ele>
        <time>2009-05-22T17:10:20Z</time>
      </trkpt>
      <trkpt lat="45.69134" lon="2.85746">
        <ele>892</ele>
        <time>2009-05-22T17:10:27Z</time>
      </trkpt>
      <trkpt lat="45.69124" lon="2.85739">
        <ele>894</ele>
        <time>2009-05-22T17:10:33Z</time>
      </trkpt>
      <trkpt lat="45.69115" lon="2.85734">
        <ele>896</ele>
        <time>2009-05-22T17:10:40Z</time>
      </trkpt>
      <trkpt lat="45.69108" lon="2.85735">
        <ele>897</ele>
        <time>2009-05-22T17:10:46Z</time>
      </trkpt>
      <trkpt lat="45.69099" lon="2.85734">
        <ele>898</ele>
        <time>2009-05-22T17:10:53Z</time>
      </trkpt>
      <trkpt lat="45.6909" lon="2.85736">
        <ele>899</ele>
        <time>2009-05-22T17:10:58Z</time>
      </trkpt>
      <trkpt lat="45.69076" lon="2.85735">
        <ele>901</ele>
        <time>2009-05-22T17:11:08Z</time>
      </trkpt>
      <trkpt lat="45.69064" lon="2.85733">
        <ele>903</ele>
        <time>2009-05-22T17:11:16Z</time>
      </trkpt>
      <trkpt lat="45.69058" lon="2.85732">
        <ele>904</ele>
        <time>2009-05-22T17:11:20Z</time>
      </trkpt>
      <trkpt lat="45.69046" lon="2.85729">
        <ele>906</ele>
        <time>2009-05-22T17:11:28Z</time>
      </trkpt>
      <trkpt lat="45.69029" lon="2.85725">
        <ele>909</ele>
        <time>2009-05-22T17:11:40Z</time>
      </trkpt>
      <trkpt lat="45.6902" lon="2.85723">
        <ele>910</ele>
        <time>2009-05-22T17:11:48Z</time>
      </trkpt>
      <trkpt lat="45.6901" lon="2.85722">
        <ele>912</ele>
        <time>2009-05-22T17:11:55Z</time>
      </trkpt>
      <trkpt lat="45.68996" lon="2.8572">
        <ele>914</ele>
        <time>2009-05-22T17:12:03Z</time>
      </trkpt>
      <trkpt lat="45.68981" lon="2.85718">
        <ele>916</ele>
        <time>2009-05-22T17:12:11Z</time>
      </trkpt>
      <trkpt lat="45.6898" lon="2.85717">
        <ele>917</ele>
        <time>2009-05-22T17:12:12Z</time>
      </trkpt>
      <trkpt lat="45.68979" lon="2.8571">
        <ele>918</ele>
        <time>2009-05-22T17:12:15Z</time>
      </trkpt>
      <trkpt lat="45.68983" lon="2.85704">
        <ele>919</ele>
        <time>2009-05-22T17:12:19Z</time>
      </trkpt>
      <trkpt lat="45.68989" lon="2.857">
        <ele>919</ele>
        <time>2009-05-22T17:12:22Z</time>
      </trkpt>
      <trkpt lat="45.68997" lon="2.85692">
        <ele>920</ele>
        <time>2009-05-22T17:12:28Z</time>
      </trkpt>
      <trkpt lat="45.69004" lon="2.85685">
        <ele>920</ele>
        <time>2009-05-22T17:12:34Z</time>
      </trkpt>
      <trkpt lat="45.69018" lon="2.85673">
        <ele>921</ele>
        <time>2009-05-22T17:12:42Z</time>
      </trkpt>
      <trkpt lat="45.69032" lon="2.85666">
        <ele>921</ele>
        <time>2009-05-22T17:12:49Z</time>
      </trkpt>
      <trkpt lat="45.69047" lon="2.85661">
        <ele>920</ele>
        <time>2009-05-22T17:12:54Z</time>
      </trkpt>
      <trkpt lat="45.69064" lon="2.85652">
        <ele>920</ele>
        <time>2009-05-22T17:13:00Z</time>
      </trkpt>
      <trkpt lat="45.69075" lon="2.85646">
        <ele>920</ele>
        <time>2009-05-22T17:13:04Z</time>
      </trkpt>
      <trkpt lat="45.69089" lon="2.85636">
        <ele>920</ele>
        <time>2009-05-22T17:13:10Z</time>
      </trkpt>
      <trkpt lat="45.69102" lon="2.85627">
        <ele>921</ele>
        <time>2009-05-22T17:13:15Z</time>
      </trkpt>
      <trkpt lat="45.69114" lon="2.85614">
        <ele>922</ele>
        <time>2009-05-22T17:13:20Z</time>
      </trkpt>
      <trkpt lat="45.69128" lon="2.85601">
        <ele>923</ele>
        <time>2009-05-22T17:13:26Z</time>
      </trkpt>
      <trkpt lat="45.69137" lon="2.85594">
        <ele>923</ele>
        <time>2009-05-22T17:13:30Z</time>
      </trkpt>
      <trkpt lat="45.69148" lon="2.85578">
        <ele>925</ele>
        <time>2009-05-22T17:13:35Z</time>
      </trkpt>
      <trkpt lat="45.69158" lon="2.85565">
        <ele>926</ele>
        <time>2009-05-22T17:13:40Z</time>
      </trkpt>
      <trkpt lat="45.69167" lon="2.85553">
        <ele>927</ele>
        <time>2009-05-22T17:13:44Z</time>
      </trkpt>
      <trkpt lat="45.69175" lon="2.85544">
        <ele>927</ele>
        <time>2009-05-22T17:13:49Z</time>
      </trkpt>
      <trkpt lat="45.69186" lon="2.85535">
        <ele>928</ele>
        <time>2009-05-22T17:13:54Z</time>
      </trkpt>
      <trkpt lat="45.69196" lon="2.85525">
        <ele>928</ele>
        <time>2009-05-22T17:13:59Z</time>
      </trkpt>
      <trkpt lat="45.69209" lon="2.85516">
        <ele>928</ele>
        <time>2009-05-22T17:14:05Z</time>
      </trkpt>
      <trkpt lat="45.6922" lon="2.85505">
        <ele>929</ele>
        <time>2009-05-22T17:14:12Z</time>
      </trkpt>
      <trkpt lat="45.69231" lon="2.85497">
        <ele>929</ele>
        <time>2009-05-22T17:14:18Z</time>
      </trkpt>
      <trkpt lat="45.69245" lon="2.85483">
        <ele>929</ele>
        <time>2009-05-22T17:14:26Z</time>
      </trkpt>
      <trkpt lat="45.69258" lon="2.85471">
        <ele>930</ele>
        <time>2009-05-22T17:14:33Z</time>
      </trkpt>
      <trkpt lat="45.69267" lon="2.8546">
        <ele>931</ele>
        <time>2009-05-22T17:14:38Z</time>
      </trkpt>
      <trkpt lat="45.69273" lon="2.85451">
        <ele>932</ele>
        <time>2009-05-22T17:14:42Z</time>
      </trkpt>
      <trkpt lat="45.69287" lon="2.85432">
        <ele>934</ele>
        <time>2009-05-22T17:14:50Z</time>
      </trkpt>
      <trkpt lat="45.69288" lon="2.8543">
        <ele>934</ele>
        <time>2009-05-22T17:14:51Z</time>
      </trkpt>
      <trkpt lat="45.69291" lon="2.85426">
        <ele>934</ele>
        <time>2009-05-22T17:14:53Z</time>
      </trkpt>
      <trkpt lat="45.69303" lon="2.85416">
        <ele>934</ele>
        <time>2009-05-22T17:15:00Z</time>
      </trkpt>
      <trkpt lat="45.69317" lon="2.85404">
        <ele>934</ele>
        <time>2009-05-22T17:15:07Z</time>
      </trkpt>
      <trkpt lat="45.69324" lon="2.85393">
        <ele>936</ele>
        <time>2009-05-22T17:15:12Z</time>
      </trkpt>
      <trkpt lat="45.69336" lon="2.85375">
        <ele>938</ele>
        <time>2009-05-22T17:15:19Z</time>
      </trkpt>
      <trkpt lat="45.69344" lon="2.85357">
        <ele>942</ele>
        <time>2009-05-22T17:15:26Z</time>
      </trkpt>
      <trkpt lat="45.69347" lon="2.85341">
        <ele>946</ele>
        <time>2009-05-22T17:15:31Z</time>
      </trkpt>
      <trkpt lat="45.6935" lon="2.85318">
        <ele>951</ele>
        <time>2009-05-22T17:15:38Z</time>
      </trkpt>
      <trkpt lat="45.69352" lon="2.85303">
        <ele>955</ele>
        <time>2009-05-22T17:15:43Z</time>
      </trkpt>
      <trkpt lat="45.69355" lon="2.85284">
        <ele>958</ele>
        <time>2009-05-22T17:15:49Z</time>
      </trkpt>
      <trkpt lat="45.69357" lon="2.85261">
        <ele>961</ele>
        <time>2009-05-22T17:15:56Z</time>
      </trkpt>
      <trkpt lat="45.6936" lon="2.85243">
        <ele>963</ele>
        <time>2009-05-22T17:16:02Z</time>
      </trkpt>
      <trkpt lat="45.69362" lon="2.85227">
        <ele>964</ele>
        <time>2009-05-22T17:16:07Z</time>
      </trkpt>
      <trkpt lat="45.69365" lon="2.85213">
        <ele>965</ele>
        <time>2009-05-22T17:16:12Z</time>
      </trkpt>
      <trkpt lat="45.6937" lon="2.85198">
        <ele>965</ele>
        <time>2009-05-22T17:16:17Z</time>
      </trkpt>
      <trkpt lat="45.69376" lon="2.85177">
        <ele>965</ele>
        <time>2009-05-22T17:16:22Z</time>
      </trkpt>
      <trkpt lat="45.69381" lon="2.85146">
        <ele>965</ele>
        <time>2009-05-22T17:16:28Z</time>
      </trkpt>
      <trkpt lat="45.69383" lon="2.85112">
        <ele>965</ele>
        <time>2009-05-22T17:16:34Z</time>
      </trkpt>
      <trkpt lat="45.69381" lon="2.85089">
        <ele>964</ele>
        <time>2009-05-22T17:16:39Z</time>
      </trkpt>
      <trkpt lat="45.69376" lon="2.85071">
        <ele>964</ele>
        <time>2009-05-22T17:16:46Z</time>
      </trkpt>
      <trkpt lat="45.69369" lon="2.8505">
        <ele>964</ele>
        <time>2009-05-22T17:16:53Z</time>
      </trkpt>
      <trkpt lat="45.69364" lon="2.85039">
        <ele>964</ele>
        <time>2009-05-22T17:16:57Z</time>
      </trkpt>
      <trkpt lat="45.6935" lon="2.85004">
        <ele>964</ele>
        <time>2009-05-22T17:17:03Z</time>
      </trkpt>
      <trkpt lat="45.69347" lon="2.84997">
        <ele>963</ele>
        <time>2009-05-22T17:17:06Z</time>
      </trkpt>
      <trkpt lat="45.69347" lon="2.84997">
        <ele>963</ele>
        <time>2009-05-22T17:17:22Z</time>
      </trkpt>
      <trkpt lat="45.69347" lon="2.84997">
        <ele>963</ele>
        <time>2009-05-22T17:17:57Z</time>
      </trkpt>
      <trkpt lat="45.69348" lon="2.84997">
        <ele>963</ele>
        <time>2009-05-22T17:18:15Z</time>
      </trkpt>
      <trkpt lat="45.69348" lon="2.84997">
        <ele>963</ele>
        <time>2009-05-22T17:18:27Z</time>
      </trkpt>
      <trkpt lat="45.69348" lon="2.84998">
        <ele>963</ele>
        <time>2009-05-22T17:19:04Z</time>
      </trkpt>
      <trkpt lat="45.69348" lon="2.84997">
        <ele>963</ele>
        <time>2009-05-22T17:19:31Z</time>
      </trkpt>
      <trkpt lat="45.69348" lon="2.84998">
        <ele>963</ele>
        <time>2009-05-22T17:21:29Z</time>
      </trkpt>
      <trkpt lat="45.69345" lon="2.8499">
        <ele>963</ele>
        <time>2009-05-22T17:22:18Z</time>
      </trkpt>
      <trkpt lat="45.69337" lon="2.84965">
        <ele>962</ele>
        <time>2009-05-22T17:22:22Z</time>
      </trkpt>
      <trkpt lat="45.69331" lon="2.84949">
        <ele>961</ele>
        <time>2009-05-22T17:22:24Z</time>
      </trkpt>
      <trkpt lat="45.69316" lon="2.84903">
        <ele>957</ele>
        <time>2009-05-22T17:22:29Z</time>
      </trkpt>
      <trkpt lat="45.69313" lon="2.84894">
        <ele>956</ele>
        <time>2009-05-22T17:22:30Z</time>
      </trkpt>
      <trkpt lat="45.69291" lon="2.84862">
        <ele>954</ele>
        <time>2009-05-22T17:22:34Z</time>
      </trkpt>
      <trkpt lat="45.69267" lon="2.84843">
        <ele>953</ele>
        <time>2009-05-22T17:22:37Z</time>
      </trkpt>
      <trkpt lat="45.69203" lon="2.84801">
        <ele>949</ele>
        <time>2009-05-22T17:22:45Z</time>
      </trkpt>
      <trkpt lat="45.69164" lon="2.84752">
        <ele>947</ele>
        <time>2009-05-22T17:22:52Z</time>
      </trkpt>
      <trkpt lat="45.69138" lon="2.84721">
        <ele>947</ele>
        <time>2009-05-22T17:22:57Z</time>
      </trkpt>
      <trkpt lat="45.69111" lon="2.84706">
        <ele>948</ele>
        <time>2009-05-22T17:23:02Z</time>
      </trkpt>
      <trkpt lat="45.69094" lon="2.84699">
        <ele>948</ele>
        <time>2009-05-22T17:23:06Z</time>
      </trkpt>
      <trkpt lat="45.69084" lon="2.84694">
        <ele>949</ele>
        <time>2009-05-22T17:23:09Z</time>
      </trkpt>
      <trkpt lat="45.69064" lon="2.84681">
        <ele>949</ele>
        <time>2009-05-22T17:23:16Z</time>
      </trkpt>
      <trkpt lat="45.69044" lon="2.84662">
        <ele>949</ele>
        <time>2009-05-22T17:23:23Z</time>
      </trkpt>
      <trkpt lat="45.69022" lon="2.84639">
        <ele>948</ele>
        <time>2009-05-22T17:23:29Z</time>
      </trkpt>
      <trkpt lat="45.69008" lon="2.84623">
        <ele>947</ele>
        <time>2009-05-22T17:23:33Z</time>
      </trkpt>
      <trkpt lat="45.6899" lon="2.84604">
        <ele>946</ele>
        <time>2009-05-22T17:23:37Z</time>
      </trkpt>
      <trkpt lat="45.68973" lon="2.84586">
        <ele>944</ele>
        <time>2009-05-22T17:23:40Z</time>
      </trkpt>
      <trkpt lat="45.68935" lon="2.84544">
        <ele>941</ele>
        <time>2009-05-22T17:23:46Z</time>
      </trkpt>
      <trkpt lat="45.68904" lon="2.84515">
        <ele>940</ele>
        <time>2009-05-22T17:23:50Z</time>
      </trkpt>
      <trkpt lat="45.68896" lon="2.84507">
        <ele>939</ele>
        <time>2009-05-22T17:23:51Z</time>
      </trkpt>
      <trkpt lat="45.68869" lon="2.8449">
        <ele>938</ele>
        <time>2009-05-22T17:23:54Z</time>
      </trkpt>
      <trkpt lat="45.68859" lon="2.84487">
        <ele>938</ele>
        <time>2009-05-22T17:23:55Z</time>
      </trkpt>
      <trkpt lat="45.68829" lon="2.84481">
        <ele>938</ele>
        <time>2009-05-22T17:23:58Z</time>
      </trkpt>
      <trkpt lat="45.68806" lon="2.84476">
        <ele>937</ele>
        <time>2009-05-22T17:24:01Z</time>
      </trkpt>
      <trkpt lat="45.68799" lon="2.84473">
        <ele>937</ele>
        <time>2009-05-22T17:24:02Z</time>
      </trkpt>
      <trkpt lat="45.68765" lon="2.84466">
        <ele>935</ele>
        <time>2009-05-22T17:24:06Z</time>
      </trkpt>
      <trkpt lat="45.68746" lon="2.84463">
        <ele>934</ele>
        <time>2009-05-22T17:24:08Z</time>
      </trkpt>
      <trkpt lat="45.68736" lon="2.84461">
        <ele>932</ele>
        <time>2009-05-22T17:24:09Z</time>
      </trkpt>
      <trkpt lat="45.68725" lon="2.84459">
        <ele>931</ele>
        <time>2009-05-22T17:24:10Z</time>
      </trkpt>
      <trkpt lat="45.68687" lon="2.84447">
        <ele>924</ele>
        <time>2009-05-22T17:24:13Z</time>
      </trkpt>
      <trkpt lat="45.6866" lon="2.84444">
        <ele>920</ele>
        <time>2009-05-22T17:24:15Z</time>
      </trkpt>
      <trkpt lat="45.68631" lon="2.84446">
        <ele>918</ele>
        <time>2009-05-22T17:24:17Z</time>
      </trkpt>
      <trkpt lat="45.68617" lon="2.84445">
        <ele>916</ele>
        <time>2009-05-22T17:24:18Z</time>
      </trkpt>
      <trkpt lat="45.68546" lon="2.84422">
        <ele>902</ele>
        <time>2009-05-22T17:24:23Z</time>
      </trkpt>
      <trkpt lat="45.68515" lon="2.84414">
        <ele>899</ele>
        <time>2009-05-22T17:24:26Z</time>
      </trkpt>
      <trkpt lat="45.68506" lon="2.84412">
        <ele>898</ele>
        <time>2009-05-22T17:24:27Z</time>
      </trkpt>
      <trkpt lat="45.68486" lon="2.84399">
        <ele>896</ele>
        <time>2009-05-22T17:24:30Z</time>
      </trkpt>
      <trkpt lat="45.68472" lon="2.84394">
        <ele>895</ele>
        <time>2009-05-22T17:24:32Z</time>
      </trkpt>
      <trkpt lat="45.68457" lon="2.8438">
        <ele>893</ele>
        <time>2009-05-22T17:24:35Z</time>
      </trkpt>
      <trkpt lat="45.68422" lon="2.84336">
        <ele>888</ele>
        <time>2009-05-22T17:24:41Z</time>
      </trkpt>
      <trkpt lat="45.68414" lon="2.84329">
        <ele>887</ele>
        <time>2009-05-22T17:24:42Z</time>
      </trkpt>
      <trkpt lat="45.68391" lon="2.84307">
        <ele>886</ele>
        <time>2009-05-22T17:24:45Z</time>
      </trkpt>
      <trkpt lat="45.68359" lon="2.84281">
        <ele>884</ele>
        <time>2009-05-22T17:24:49Z</time>
      </trkpt>
      <trkpt lat="45.68356" lon="2.84268">
        <ele>883</ele>
        <time>2009-05-22T17:24:50Z</time>
      </trkpt>
      <trkpt lat="45.68332" lon="2.84204">
        <ele>873</ele>
        <time>2009-05-22T17:24:56Z</time>
      </trkpt>
      <trkpt lat="45.68312" lon="2.84189">
        <ele>873</ele>
        <time>2009-05-22T17:25:00Z</time>
      </trkpt>
      <trkpt lat="45.68296" lon="2.84182">
        <ele>874</ele>
        <time>2009-05-22T17:25:04Z</time>
      </trkpt>
      <trkpt lat="45.68289" lon="2.84184">
        <ele>875</ele>
        <time>2009-05-22T17:25:08Z</time>
      </trkpt>
      <trkpt lat="45.68284" lon="2.84188">
        <ele>875</ele>
        <time>2009-05-22T17:25:15Z</time>
      </trkpt>
      <trkpt lat="45.68285" lon="2.84203">
        <ele>876</ele>
        <time>2009-05-22T17:25:21Z</time>
      </trkpt>
      <trkpt lat="45.68293" lon="2.84204">
        <ele>876</ele>
        <time>2009-05-22T17:25:25Z</time>
      </trkpt>
      <trkpt lat="45.68296" lon="2.84204">
        <ele>876</ele>
        <time>2009-05-22T17:25:31Z</time>
      </trkpt>
      <trkpt lat="45.683" lon="2.84204">
        <ele>876</ele>
        <time>2009-05-22T17:25:44Z</time>
      </trkpt>
      <trkpt lat="45.68299" lon="2.84206">
        <ele>876</ele>
        <time>2009-05-22T17:25:58Z</time>
      </trkpt>
      <trkpt lat="45.68301" lon="2.84207">
        <ele>876</ele>
        <time>2009-05-22T17:26:23Z</time>
      </trkpt>
      <trkpt lat="45.68307" lon="2.84206">
        <ele>875</ele>
        <time>2009-05-22T17:26:32Z</time>
      </trkpt>
      <trkpt lat="45.68308" lon="2.84208">
        <ele>875</ele>
        <time>2009-05-22T17:26:35Z</time>
      </trkpt>
      <trkpt lat="45.6831" lon="2.84207">
        <ele>875</ele>
        <time>2009-05-22T17:26:40Z</time>
      </trkpt>
      <trkpt lat="45.68309" lon="2.84207">
        <ele>875</ele>
        <time>2009-05-22T17:26:48Z</time>
      </trkpt>
      <trkpt lat="45.68308" lon="2.84203">
        <ele>875</ele>
        <time>2009-05-22T17:29:41Z</time>
      </trkpt>
      <trkpt lat="45.68309" lon="2.84205">
        <ele>875</ele>
        <time>2009-05-22T17:31:24Z</time>
      </trkpt>
      <trkpt lat="45.68309" lon="2.84208">
        <ele>875</ele>
        <time>2009-05-22T17:33:08Z</time>
      </trkpt>
      <trkpt lat="45.68309" lon="2.8421">
        <ele>876</ele>
        <time>2009-05-22T17:43:02Z</time>
      </trkpt>
      <trkpt lat="45.6831" lon="2.84209">
        <ele>876</ele>
        <time>2009-05-22T17:43:25Z</time>
      </trkpt>
      <trkpt lat="45.68308" lon="2.8421">
        <ele>876</ele>
        <time>2009-05-22T17:47:03Z</time>
      </trkpt>
      <trkpt lat="45.68308" lon="2.8421">
        <ele>876</ele>
        <time>2009-05-22T17:47:04Z</time>
      </trkpt>
      <trkpt lat="45.68307" lon="2.8421">
        <ele>876</ele>
        <time>2009-05-22T17:47:32Z</time>
      </trkpt>
      <trkpt lat="45.68307" lon="2.8421">
        <ele>876</ele>
        <time>2009-05-22T17:47:33Z</time>
      </trkpt>
      <trkpt lat="45.68308" lon="2.8421">
        <ele>876</ele>
        <time>2009-05-22T17:47:40Z</time>
      </trkpt>
      <trkpt lat="45.68308" lon="2.84207">
        <ele>875</ele>
        <time>2009-05-22T17:48:47Z</time>
      </trkpt>
      <trkpt lat="45.68308" lon="2.84203">
        <ele>875</ele>
        <time>2009-05-22T17:48:51Z</time>
      </trkpt>
      <trkpt lat="45.68307" lon="2.842">
        <ele>874</ele>
        <time>2009-05-22T17:48:53Z</time>
      </trkpt>
      <trkpt lat="45.68301" lon="2.84188">
        <ele>874</ele>
        <time>2009-05-22T17:48:59Z</time>
      </trkpt>
      <trkpt lat="45.68296" lon="2.84189">
        <ele>874</ele>
        <time>2009-05-22T17:49:01Z</time>
      </trkpt>
      <trkpt lat="45.68282" lon="2.84189">
        <ele>875</ele>
        <time>2009-05-22T17:49:07Z</time>
      </trkpt>
      <trkpt lat="45.68273" lon="2.84178">
        <ele>876</ele>
        <time>2009-05-22T17:49:12Z</time>
      </trkpt>
      <trkpt lat="45.68263" lon="2.84167">
        <ele>876</ele>
        <time>2009-05-22T17:49:17Z</time>
      </trkpt>
      <trkpt lat="45.68252" lon="2.84162">
        <ele>877</ele>
        <time>2009-05-22T17:49:22Z</time>
      </trkpt>
      <trkpt lat="45.6824" lon="2.84157">
        <ele>878</ele>
        <time>2009-05-22T17:49:27Z</time>
      </trkpt>
      <trkpt lat="45.68224" lon="2.84154">
        <ele>878</ele>
        <time>2009-05-22T17:49:33Z</time>
      </trkpt>
      <trkpt lat="45.68214" lon="2.84147">
        <ele>878</ele>
        <time>2009-05-22T17:49:38Z</time>
      </trkpt>
      <trkpt lat="45.68202" lon="2.84139">
        <ele>878</ele>
        <time>2009-05-22T17:49:44Z</time>
      </trkpt>
      <trkpt lat="45.68183" lon="2.8413">
        <ele>878</ele>
        <time>2009-05-22T17:49:52Z</time>
      </trkpt>
      <trkpt lat="45.68165" lon="2.84125">
        <ele>878</ele>
        <time>2009-05-22T17:50:00Z</time>
      </trkpt>
      <trkpt lat="45.68148" lon="2.84125">
        <ele>879</ele>
        <time>2009-05-22T17:50:07Z</time>
      </trkpt>
      <trkpt lat="45.68138" lon="2.8413">
        <ele>879</ele>
        <time>2009-05-22T17:50:13Z</time>
      </trkpt>
      <trkpt lat="45.68128" lon="2.84141">
        <ele>880</ele>
        <time>2009-05-22T17:50:20Z</time>
      </trkpt>
      <trkpt lat="45.68126" lon="2.84158">
        <ele>881</ele>
        <time>2009-05-22T17:50:27Z</time>
      </trkpt>
      <trkpt lat="45.68123" lon="2.8417">
        <ele>882</ele>
        <time>2009-05-22T17:50:33Z</time>
      </trkpt>
      <trkpt lat="45.68115" lon="2.84185">
        <ele>883</ele>
        <time>2009-05-22T17:50:41Z</time>
      </trkpt>
      <trkpt lat="45.68099" lon="2.84193">
        <ele>884</ele>
        <time>2009-05-22T17:50:49Z</time>
      </trkpt>
      <trkpt lat="45.68091" lon="2.84197">
        <ele>885</ele>
        <time>2009-05-22T17:50:56Z</time>
      </trkpt>
      <trkpt lat="45.68089" lon="2.842">
        <ele>886</ele>
        <time>2009-05-22T17:51:00Z</time>
      </trkpt>
      <trkpt lat="45.68088" lon="2.84208">
        <ele>887</ele>
        <time>2009-05-22T17:51:04Z</time>
      </trkpt>
      <trkpt lat="45.68092" lon="2.84233">
        <ele>890</ele>
        <time>2009-05-22T17:51:12Z</time>
      </trkpt>
      <trkpt lat="45.68104" lon="2.84259">
        <ele>893</ele>
        <time>2009-05-22T17:51:19Z</time>
      </trkpt>
      <trkpt lat="45.68112" lon="2.84274">
        <ele>895</ele>
        <time>2009-05-22T17:51:24Z</time>
      </trkpt>
      <trkpt lat="45.68106" lon="2.84285">
        <ele>898</ele>
        <time>2009-05-22T17:51:29Z</time>
      </trkpt>
      <trkpt lat="45.68088" lon="2.84279">
        <ele>898</ele>
        <time>2009-05-22T17:51:37Z</time>
      </trkpt>
      <trkpt lat="45.68069" lon="2.84274">
        <ele>898</ele>
        <time>2009-05-22T17:51:45Z</time>
      </trkpt>
      <trkpt lat="45.68053" lon="2.84268">
        <ele>899</ele>
        <time>2009-05-22T17:51:53Z</time>
      </trkpt>
      <trkpt lat="45.68035" lon="2.84261">
        <ele>899</ele>
        <time>2009-05-22T17:52:02Z</time>
      </trkpt>
      <trkpt lat="45.6802" lon="2.84254">
        <ele>900</ele>
        <time>2009-05-22T17:52:09Z</time>
      </trkpt>
      <trkpt lat="45.68007" lon="2.84246">
        <ele>902</ele>
        <time>2009-05-22T17:52:16Z</time>
      </trkpt>
      <trkpt lat="45.67986" lon="2.84234">
        <ele>904</ele>
        <time>2009-05-22T17:52:26Z</time>
      </trkpt>
      <trkpt lat="45.67964" lon="2.8422">
        <ele>905</ele>
        <time>2009-05-22T17:52:36Z</time>
      </trkpt>
      <trkpt lat="45.67945" lon="2.84209">
        <ele>905</ele>
        <time>2009-05-22T17:52:45Z</time>
      </trkpt>
      <trkpt lat="45.67924" lon="2.84204">
        <ele>905</ele>
        <time>2009-05-22T17:52:53Z</time>
      </trkpt>
      <trkpt lat="45.67915" lon="2.84204">
        <ele>905</ele>
        <time>2009-05-22T17:52:56Z</time>
      </trkpt>
      <trkpt lat="45.67903" lon="2.84201">
        <ele>904</ele>
        <time>2009-05-22T17:53:00Z</time>
      </trkpt>
      <trkpt lat="45.67882" lon="2.84201">
        <ele>904</ele>
        <time>2009-05-22T17:53:07Z</time>
      </trkpt>
      <trkpt lat="45.67867" lon="2.84202">
        <ele>904</ele>
        <time>2009-05-22T17:53:12Z</time>
      </trkpt>
      <trkpt lat="45.67851" lon="2.84205">
        <ele>905</ele>
        <time>2009-05-22T17:53:19Z</time>
      </trkpt>
      <trkpt lat="45.67843" lon="2.84206">
        <ele>906</ele>
        <time>2009-05-22T17:53:24Z</time>
      </trkpt>
      <trkpt lat="45.67836" lon="2.84206">
        <ele>906</ele>
        <time>2009-05-22T17:53:29Z</time>
      </trkpt>
      <trkpt lat="45.67834" lon="2.84205">
        <ele>907</ele>
        <time>2009-05-22T17:53:30Z</time>
      </trkpt>
      <trkpt lat="45.67827" lon="2.84205">
        <ele>907</ele>
        <time>2009-05-22T17:53:35Z</time>
      </trkpt>
      <trkpt lat="45.67815" lon="2.84205">
        <ele>908</ele>
        <time>2009-05-22T17:53:43Z</time>
      </trkpt>
      <trkpt lat="45.67803" lon="2.84205">
        <ele>910</ele>
        <time>2009-05-22T17:53:51Z</time>
      </trkpt>
      <trkpt lat="45.6779" lon="2.84206">
        <ele>911</ele>
        <time>2009-05-22T17:54:00Z</time>
      </trkpt>
      <trkpt lat="45.67778" lon="2.84207">
        <ele>913</ele>
        <time>2009-05-22T17:54:09Z</time>
      </trkpt>
      <trkpt lat="45.67765" lon="2.84209">
        <ele>915</ele>
        <time>2009-05-22T17:54:19Z</time>
      </trkpt>
      <trkpt lat="45.67755" lon="2.8421">
        <ele>917</ele>
        <time>2009-05-22T17:54:26Z</time>
      </trkpt>
      <trkpt lat="45.67742" lon="2.84212">
        <ele>918</ele>
        <time>2009-05-22T17:54:35Z</time>
      </trkpt>
      <trkpt lat="45.67737" lon="2.84213">
        <ele>919</ele>
        <time>2009-05-22T17:54:38Z</time>
      </trkpt>
      <trkpt lat="45.67727" lon="2.84214">
        <ele>921</ele>
        <time>2009-05-22T17:54:46Z</time>
      </trkpt>
      <trkpt lat="45.67718" lon="2.84215">
        <ele>922</ele>
        <time>2009-05-22T17:54:54Z</time>
      </trkpt>
      <trkpt lat="45.67712" lon="2.84217">
        <ele>923</ele>
        <time>2009-05-22T17:55:01Z</time>
      </trkpt>
      <trkpt lat="45.67709" lon="2.84218">
        <ele>923</ele>
        <time>2009-05-22T17:55:04Z</time>
      </trkpt>
      <trkpt lat="45.67697" lon="2.84227">
        <ele>926</ele>
        <time>2009-05-22T17:55:15Z</time>
      </trkpt>
      <trkpt lat="45.67696" lon="2.84227">
        <ele>926</ele>
        <time>2009-05-22T17:55:16Z</time>
      </trkpt>
      <trkpt lat="45.67687" lon="2.84236">
        <ele>929</ele>
        <time>2009-05-22T17:55:25Z</time>
      </trkpt>
      <trkpt lat="45.67686" lon="2.84237">
        <ele>929</ele>
        <time>2009-05-22T17:55:26Z</time>
      </trkpt>
      <trkpt lat="45.67676" lon="2.84247">
        <ele>932</ele>
        <time>2009-05-22T17:55:36Z</time>
      </trkpt>
      <trkpt lat="45.67668" lon="2.84253">
        <ele>934</ele>
        <time>2009-05-22T17:55:44Z</time>
      </trkpt>
      <trkpt lat="45.67661" lon="2.84261">
        <ele>935</ele>
        <time>2009-05-22T17:55:52Z</time>
      </trkpt>
      <trkpt lat="45.67654" lon="2.84269">
        <ele>936</ele>
        <time>2009-05-22T17:55:59Z</time>
      </trkpt>
      <trkpt lat="45.67646" lon="2.84279">
        <ele>938</ele>
        <time>2009-05-22T17:56:08Z</time>
      </trkpt>
      <trkpt lat="45.67642" lon="2.84287">
        <ele>939</ele>
        <time>2009-05-22T17:56:15Z</time>
      </trkpt>
      <trkpt lat="45.67636" lon="2.84296">
        <ele>940</ele>
        <time>2009-05-22T17:56:24Z</time>
      </trkpt>
      <trkpt lat="45.67633" lon="2.84298">
        <ele>941</ele>
        <time>2009-05-22T17:56:27Z</time>
      </trkpt>
      <trkpt lat="45.67625" lon="2.84307">
        <ele>942</ele>
        <time>2009-05-22T17:56:36Z</time>
      </trkpt>
      <trkpt lat="45.67621" lon="2.84313">
        <ele>943</ele>
        <time>2009-05-22T17:56:41Z</time>
      </trkpt>
      <trkpt lat="45.67615" lon="2.84321">
        <ele>944</ele>
        <time>2009-05-22T17:56:48Z</time>
      </trkpt>
      <trkpt lat="45.67609" lon="2.84331">
        <ele>945</ele>
        <time>2009-05-22T17:56:57Z</time>
      </trkpt>
      <trkpt lat="45.676" lon="2.84345">
        <ele>947</ele>
        <time>2009-05-22T17:57:08Z</time>
      </trkpt>
      <trkpt lat="45.67592" lon="2.84359">
        <ele>949</ele>
        <time>2009-05-22T17:57:18Z</time>
      </trkpt>
      <trkpt lat="45.67588" lon="2.84369">
        <ele>950</ele>
        <time>2009-05-22T17:57:25Z</time>
      </trkpt>
      <trkpt lat="45.6758" lon="2.84381">
        <ele>951</ele>
        <time>2009-05-22T17:57:35Z</time>
      </trkpt>
      <trkpt lat="45.67572" lon="2.84397">
        <ele>953</ele>
        <time>2009-05-22T17:57:47Z</time>
      </trkpt>
      <trkpt lat="45.67564" lon="2.84411">
        <ele>954</ele>
        <time>2009-05-22T17:57:58Z</time>
      </trkpt>
      <trkpt lat="45.67555" lon="2.84429">
        <ele>955</ele>
        <time>2009-05-22T17:58:11Z</time>
      </trkpt>
      <trkpt lat="45.67551" lon="2.84442">
        <ele>957</ele>
        <time>2009-05-22T17:58:19Z</time>
      </trkpt>
      <trkpt lat="45.67545" lon="2.8446">
        <ele>959</ele>
        <time>2009-05-22T17:58:31Z</time>
      </trkpt>
      <trkpt lat="45.6754" lon="2.84476">
        <ele>961</ele>
        <time>2009-05-22T17:58:42Z</time>
      </trkpt>
      <trkpt lat="45.67534" lon="2.8449">
        <ele>963</ele>
        <time>2009-05-22T17:58:53Z</time>
      </trkpt>
      <trkpt lat="45.67529" lon="2.845">
        <ele>964</ele>
        <time>2009-05-22T17:59:02Z</time>
      </trkpt>
      <trkpt lat="45.67524" lon="2.84511">
        <ele>965</ele>
        <time>2009-05-22T17:59:12Z</time>
      </trkpt>
      <trkpt lat="45.67519" lon="2.84524">
        <ele>968</ele>
        <time>2009-05-22T17:59:22Z</time>
      </trkpt>
      <trkpt lat="45.67517" lon="2.84532">
        <ele>970</ele>
        <time>2009-05-22T17:59:28Z</time>
      </trkpt>
      <trkpt lat="45.67512" lon="2.84544">
        <ele>972</ele>
        <time>2009-05-22T17:59:38Z</time>
      </trkpt>
      <trkpt lat="45.67507" lon="2.84554">
        <ele>974</ele>
        <time>2009-05-22T17:59:47Z</time>
      </trkpt>
      <trkpt lat="45.67501" lon="2.84563">
        <ele>976</ele>
        <time>2009-05-22T17:59:56Z</time>
      </trkpt>
      <trkpt lat="45.675" lon="2.84566">
        <ele>976</ele>
        <time>2009-05-22T17:59:58Z</time>
      </trkpt>
      <trkpt lat="45.67495" lon="2.84574">
        <ele>978</ele>
        <time>2009-05-22T18:00:06Z</time>
      </trkpt>
      <trkpt lat="45.67492" lon="2.84584">
        <ele>982</ele>
        <time>2009-05-22T18:00:13Z</time>
      </trkpt>
      <trkpt lat="45.67488" lon="2.8459">
        <ele>984</ele>
        <time>2009-05-22T18:00:18Z</time>
      </trkpt>
      <trkpt lat="45.67483" lon="2.84601">
        <ele>989</ele>
        <time>2009-05-22T18:00:27Z</time>
      </trkpt>
      <trkpt lat="45.67481" lon="2.84604">
        <ele>990</ele>
        <time>2009-05-22T18:00:30Z</time>
      </trkpt>
      <trkpt lat="45.67475" lon="2.84608">
        <ele>991</ele>
        <time>2009-05-22T18:00:37Z</time>
      </trkpt>
      <trkpt lat="45.67471" lon="2.84612">
        <ele>992</ele>
        <time>2009-05-22T18:00:43Z</time>
      </trkpt>
      <trkpt lat="45.67466" lon="2.84617">
        <ele>992</ele>
        <time>2009-05-22T18:00:49Z</time>
      </trkpt>
      <trkpt lat="45.67462" lon="2.84622">
        <ele>994</ele>
        <time>2009-05-22T18:00:55Z</time>
      </trkpt>
      <trkpt lat="45.67458" lon="2.84628">
        <ele>995</ele>
        <time>2009-05-22T18:01:02Z</time>
      </trkpt>
      <trkpt lat="45.67454" lon="2.84634">
        <ele>996</ele>
        <time>2009-05-22T18:01:09Z</time>
      </trkpt>
      <trkpt lat="45.67452" lon="2.84634">
        <ele>996</ele>
        <time>2009-05-22T18:01:10Z</time>
      </trkpt>
      <trkpt lat="45.67449" lon="2.84641">
        <ele>998</ele>
        <time>2009-05-22T18:01:16Z</time>
      </trkpt>
      <trkpt lat="45.67447" lon="2.84646">
        <ele>1000</ele>
        <time>2009-05-22T18:01:20Z</time>
      </trkpt>
      <trkpt lat="45.67444" lon="2.84651">
        <ele>1001</ele>
        <time>2009-05-22T18:01:26Z</time>
      </trkpt>
      <trkpt lat="45.67441" lon="2.84652">
        <ele>1001</ele>
        <time>2009-05-22T18:01:32Z</time>
      </trkpt>
      <trkpt lat="45.67435" lon="2.84653">
        <ele>1001</ele>
        <time>2009-05-22T18:01:39Z</time>
      </trkpt>
      <trkpt lat="45.67432" lon="2.84653">
        <ele>1001</ele>
        <time>2009-05-22T18:01:41Z</time>
      </trkpt>
      <trkpt lat="45.6742" lon="2.84657">
        <ele>1001</ele>
        <time>2009-05-22T18:01:49Z</time>
      </trkpt>
      <trkpt lat="45.67409" lon="2.84658">
        <ele>1000</ele>
        <time>2009-05-22T18:01:57Z</time>
      </trkpt>
      <trkpt lat="45.67402" lon="2.84657">
        <ele>1000</ele>
        <time>2009-05-22T18:02:04Z</time>
      </trkpt>
      <trkpt lat="45.67392" lon="2.84656">
        <ele>999</ele>
        <time>2009-05-22T18:02:13Z</time>
      </trkpt>
      <trkpt lat="45.67383" lon="2.84654">
        <ele>1000</ele>
        <time>2009-05-22T18:02:21Z</time>
      </trkpt>
      <trkpt lat="45.67374" lon="2.84648">
        <ele>1000</ele>
        <time>2009-05-22T18:02:30Z</time>
      </trkpt>
      <trkpt lat="45.67362" lon="2.84641">
        <ele>1001</ele>
        <time>2009-05-22T18:02:38Z</time>
      </trkpt>
      <trkpt lat="45.67355" lon="2.84631">
        <ele>1000</ele>
        <time>2009-05-22T18:02:46Z</time>
      </trkpt>
      <trkpt lat="45.67354" lon="2.84628">
        <ele>1000</ele>
        <time>2009-05-22T18:02:48Z</time>
      </trkpt>
      <trkpt lat="45.67345" lon="2.84617">
        <ele>1000</ele>
        <time>2009-05-22T18:02:57Z</time>
      </trkpt>
      <trkpt lat="45.6734" lon="2.84611">
        <ele>1000</ele>
        <time>2009-05-22T18:03:03Z</time>
      </trkpt>
      <trkpt lat="45.67339" lon="2.8461">
        <ele>1000</ele>
        <time>2009-05-22T18:03:04Z</time>
      </trkpt>
      <trkpt lat="45.6733" lon="2.84606">
        <ele>1001</ele>
        <time>2009-05-22T18:03:12Z</time>
      </trkpt>
      <trkpt lat="45.67322" lon="2.84602">
        <ele>1002</ele>
        <time>2009-05-22T18:03:19Z</time>
      </trkpt>
      <trkpt lat="45.67312" lon="2.84604">
        <ele>1005</ele>
        <time>2009-05-22T18:03:28Z</time>
      </trkpt>
      <trkpt lat="45.67306" lon="2.84612">
        <ele>1007</ele>
        <time>2009-05-22T18:03:35Z</time>
      </trkpt>
      <trkpt lat="45.67304" lon="2.84625">
        <ele>1009</ele>
        <time>2009-05-22T18:03:44Z</time>
      </trkpt>
      <trkpt lat="45.67308" lon="2.84636">
        <ele>1010</ele>
        <time>2009-05-22T18:03:51Z</time>
      </trkpt>
      <trkpt lat="45.67312" lon="2.84651">
        <ele>1011</ele>
        <time>2009-05-22T18:04:00Z</time>
      </trkpt>
      <trkpt lat="45.67313" lon="2.84664">
        <ele>1013</ele>
        <time>2009-05-22T18:04:08Z</time>
      </trkpt>
      <trkpt lat="45.67315" lon="2.84676">
        <ele>1014</ele>
        <time>2009-05-22T18:04:16Z</time>
      </trkpt>
      <trkpt lat="45.67313" lon="2.84689">
        <ele>1016</ele>
        <time>2009-05-22T18:04:24Z</time>
      </trkpt>
      <trkpt lat="45.67311" lon="2.84699">
        <ele>1018</ele>
        <time>2009-05-22T18:04:30Z</time>
      </trkpt>
      <trkpt lat="45.67308" lon="2.84713">
        <ele>1019</ele>
        <time>2009-05-22T18:04:39Z</time>
      </trkpt>
      <trkpt lat="45.67304" lon="2.84728">
        <ele>1021</ele>
        <time>2009-05-22T18:04:48Z</time>
      </trkpt>
      <trkpt lat="45.67302" lon="2.84739">
        <ele>1022</ele>
        <time>2009-05-22T18:04:56Z</time>
      </trkpt>
      <trkpt lat="45.67301" lon="2.84748">
        <ele>1023</ele>
        <time>2009-05-22T18:05:02Z</time>
      </trkpt>
      <trkpt lat="45.67298" lon="2.84761">
        <ele>1024</ele>
        <time>2009-05-22T18:05:10Z</time>
      </trkpt>
      <trkpt lat="45.67295" lon="2.84774">
        <ele>1025</ele>
        <time>2009-05-22T18:05:18Z</time>
      </trkpt>
      <trkpt lat="45.6729" lon="2.84787">
        <ele>1025</ele>
        <time>2009-05-22T18:05:27Z</time>
      </trkpt>
      <trkpt lat="45.67287" lon="2.84796">
        <ele>1025</ele>
        <time>2009-05-22T18:05:34Z</time>
      </trkpt>
      <trkpt lat="45.67283" lon="2.84807">
        <ele>1025</ele>
        <time>2009-05-22T18:05:41Z</time>
      </trkpt>
      <trkpt lat="45.6728" lon="2.84821">
        <ele>1025</ele>
        <time>2009-05-22T18:05:49Z</time>
      </trkpt>
      <trkpt lat="45.67276" lon="2.8483">
        <ele>1026</ele>
        <time>2009-05-22T18:05:56Z</time>
      </trkpt>
      <trkpt lat="45.67271" lon="2.84847">
        <ele>1026</ele>
        <time>2009-05-22T18:06:04Z</time>
      </trkpt>
      <trkpt lat="45.67265" lon="2.84865">
        <ele>1027</ele>
        <time>2009-05-22T18:06:11Z</time>
      </trkpt>
      <trkpt lat="45.6726" lon="2.84878">
        <ele>1027</ele>
        <time>2009-05-22T18:06:17Z</time>
      </trkpt>
      <trkpt lat="45.67254" lon="2.84892">
        <ele>1027</ele>
        <time>2009-05-22T18:06:25Z</time>
      </trkpt>
      <trkpt lat="45.67251" lon="2.84903">
        <ele>1028</ele>
        <time>2009-05-22T18:06:32Z</time>
      </trkpt>
      <trkpt lat="45.67251" lon="2.84904">
        <ele>1028</ele>
        <time>2009-05-22T18:06:40Z</time>
      </trkpt>
      <trkpt lat="45.67251" lon="2.84904">
        <ele>1028</ele>
        <time>2009-05-22T18:06:56Z</time>
      </trkpt>
      <trkpt lat="45.6725" lon="2.84906">
        <ele>1028</ele>
        <time>2009-05-22T18:07:11Z</time>
      </trkpt>
      <trkpt lat="45.67251" lon="2.84906">
        <ele>1028</ele>
        <time>2009-05-22T18:07:23Z</time>
      </trkpt>
      <trkpt lat="45.67252" lon="2.84906">
        <ele>1028</ele>
        <time>2009-05-22T18:07:36Z</time>
      </trkpt>
      <trkpt lat="45.67252" lon="2.84905">
        <ele>1028</ele>
        <time>2009-05-22T18:07:47Z</time>
      </trkpt>
      <trkpt lat="45.67254" lon="2.84908">
        <ele>1028</ele>
        <time>2009-05-22T18:08:19Z</time>
      </trkpt>
      <trkpt lat="45.67253" lon="2.8491">
        <ele>1028</ele>
        <time>2009-05-22T18:08:45Z</time>
      </trkpt>
      <trkpt lat="45.67251" lon="2.84918">
        <ele>1029</ele>
        <time>2009-05-22T18:08:51Z</time>
      </trkpt>
      <trkpt lat="45.67244" lon="2.84937">
        <ele>1029</ele>
        <time>2009-05-22T18:08:59Z</time>
      </trkpt>
      <trkpt lat="45.67234" lon="2.84957">
        <ele>1030</ele>
        <time>2009-05-22T18:09:07Z</time>
      </trkpt>
      <trkpt lat="45.67225" lon="2.84971">
        <ele>1030</ele>
        <time>2009-05-22T18:09:12Z</time>
      </trkpt>
      <trkpt lat="45.67209" lon="2.84988">
        <ele>1032</ele>
        <time>2009-05-22T18:09:19Z</time>
      </trkpt>
      <trkpt lat="45.67194" lon="2.84994">
        <ele>1032</ele>
        <time>2009-05-22T18:09:25Z</time>
      </trkpt>
      <trkpt lat="45.67176" lon="2.84993">
        <ele>1032</ele>
        <time>2009-05-22T18:09:32Z</time>
      </trkpt>
      <trkpt lat="45.67159" lon="2.84994">
        <ele>1032</ele>
        <time>2009-05-22T18:09:39Z</time>
      </trkpt>
      <trkpt lat="45.67145" lon="2.84994">
        <ele>1032</ele>
        <time>2009-05-22T18:09:47Z</time>
      </trkpt>
      <trkpt lat="45.67131" lon="2.84993">
        <ele>1032</ele>
        <time>2009-05-22T18:09:55Z</time>
      </trkpt>
      <trkpt lat="45.67123" lon="2.84995">
        <ele>1033</ele>
        <time>2009-05-22T18:10:00Z</time>
      </trkpt>
      <trkpt lat="45.67126" lon="2.85006">
        <ele>1034</ele>
        <time>2009-05-22T18:10:05Z</time>
      </trkpt>
      <trkpt lat="45.67127" lon="2.85008">
        <ele>1034</ele>
        <time>2009-05-22T18:10:06Z</time>
      </trkpt>
      <trkpt lat="45.67141" lon="2.85026">
        <ele>1036</ele>
        <time>2009-05-22T18:10:15Z</time>
      </trkpt>
      <trkpt lat="45.67152" lon="2.85043">
        <ele>1037</ele>
        <time>2009-05-22T18:10:23Z</time>
      </trkpt>
      <trkpt lat="45.67165" lon="2.85065">
        <ele>1039</ele>
        <time>2009-05-22T18:10:33Z</time>
      </trkpt>
      <trkpt lat="45.67179" lon="2.85088">
        <ele>1040</ele>
        <time>2009-05-22T18:10:42Z</time>
      </trkpt>
      <trkpt lat="45.67191" lon="2.85115">
        <ele>1041</ele>
        <time>2009-05-22T18:10:52Z</time>
      </trkpt>
      <trkpt lat="45.6719" lon="2.8512">
        <ele>1041</ele>
        <time>2009-05-22T18:10:54Z</time>
      </trkpt>
      <trkpt lat="45.67188" lon="2.85123">
        <ele>1041</ele>
        <time>2009-05-22T18:11:01Z</time>
      </trkpt>
      <trkpt lat="45.67187" lon="2.85123">
        <ele>1041</ele>
        <time>2009-05-22T18:11:07Z</time>
      </trkpt>
      <trkpt lat="45.67187" lon="2.85123">
        <ele>1041</ele>
        <time>2009-05-22T18:11:12Z</time>
      </trkpt>
      <trkpt lat="45.67187" lon="2.85122">
        <ele>1041</ele>
        <time>2009-05-22T18:11:29Z</time>
      </trkpt>
      <trkpt lat="45.67187" lon="2.85122">
        <ele>1041</ele>
        <time>2009-05-22T18:11:41Z</time>
      </trkpt>
      <trkpt lat="45.67187" lon="2.85121">
        <ele>1041</ele>
        <time>2009-05-22T18:11:53Z</time>
      </trkpt>
      <trkpt lat="45.67186" lon="2.85121">
        <ele>1041</ele>
        <time>2009-05-22T18:12:15Z</time>
      </trkpt>
      <trkpt lat="45.67186" lon="2.85121">
        <ele>1041</ele>
        <time>2009-05-22T18:12:58Z</time>
      </trkpt>
      <trkpt lat="45.67167" lon="2.85117">
        <ele>1040</ele>
        <time>2009-05-22T18:13:06Z</time>
      </trkpt>
      <trkpt lat="45.67159" lon="2.85114">
        <ele>1040</ele>
        <time>2009-05-22T18:13:09Z</time>
      </trkpt>
      <trkpt lat="45.67131" lon="2.85105">
        <ele>1040</ele>
        <time>2009-05-22T18:13:18Z</time>
      </trkpt>
      <trkpt lat="45.67097" lon="2.85094">
        <ele>1041</ele>
        <time>2009-05-22T18:13:29Z</time>
      </trkpt>
      <trkpt lat="45.67069" lon="2.85086">
        <ele>1041</ele>
        <time>2009-05-22T18:13:38Z</time>
      </trkpt>
      <trkpt lat="45.67045" lon="2.85077">
        <ele>1042</ele>
        <time>2009-05-22T18:13:47Z</time>
      </trkpt>
      <trkpt lat="45.67025" lon="2.8507">
        <ele>1042</ele>
        <time>2009-05-22T18:13:55Z</time>
      </trkpt>
      <trkpt lat="45.66999" lon="2.8506">
        <ele>1043</ele>
        <time>2009-05-22T18:14:06Z</time>
      </trkpt>
      <trkpt lat="45.66983" lon="2.85054">
        <ele>1044</ele>
        <time>2009-05-22T18:14:12Z</time>
      </trkpt>
      <trkpt lat="45.6697" lon="2.85049">
        <ele>1045</ele>
        <time>2009-05-22T18:14:18Z</time>
      </trkpt>
      <trkpt lat="45.66967" lon="2.85048">
        <ele>1045</ele>
        <time>2009-05-22T18:14:19Z</time>
      </trkpt>
      <trkpt lat="45.6695" lon="2.85042">
        <ele>1046</ele>
        <time>2009-05-22T18:14:27Z</time>
      </trkpt>
      <trkpt lat="45.66929" lon="2.85031">
        <ele>1048</ele>
        <time>2009-05-22T18:14:37Z</time>
      </trkpt>
      <trkpt lat="45.66911" lon="2.85022">
        <ele>1050</ele>
        <time>2009-05-22T18:14:46Z</time>
      </trkpt>
      <trkpt lat="45.66899" lon="2.85016">
        <ele>1051</ele>
        <time>2009-05-22T18:14:53Z</time>
      </trkpt>
      <trkpt lat="45.66887" lon="2.8501">
        <ele>1052</ele>
        <time>2009-05-22T18:15:01Z</time>
      </trkpt>
      <trkpt lat="45.66876" lon="2.85005">
        <ele>1053</ele>
        <time>2009-05-22T18:15:08Z</time>
      </trkpt>
      <trkpt lat="45.66862" lon="2.84999">
        <ele>1054</ele>
        <time>2009-05-22T18:15:17Z</time>
      </trkpt>
      <trkpt lat="45.66852" lon="2.84995">
        <ele>1054</ele>
        <time>2009-05-22T18:15:23Z</time>
      </trkpt>
      <trkpt lat="45.66837" lon="2.84988">
        <ele>1056</ele>
        <time>2009-05-22T18:15:31Z</time>
      </trkpt>
      <trkpt lat="45.66816" lon="2.8498">
        <ele>1058</ele>
        <time>2009-05-22T18:15:42Z</time>
      </trkpt>
      <trkpt lat="45.66797" lon="2.84972">
        <ele>1060</ele>
        <time>2009-05-22T18:15:52Z</time>
      </trkpt>
      <trkpt lat="45.6678" lon="2.84966">
        <ele>1062</ele>
        <time>2009-05-22T18:16:01Z</time>
      </trkpt>
      <trkpt lat="45.66763" lon="2.8496">
        <ele>1064</ele>
        <time>2009-05-22T18:16:11Z</time>
      </trkpt>
      <trkpt lat="45.66748" lon="2.84955">
        <ele>1066</ele>
        <time>2009-05-22T18:16:20Z</time>
      </trkpt>
      <trkpt lat="45.66732" lon="2.84949">
        <ele>1067</ele>
        <time>2009-05-22T18:16:28Z</time>
      </trkpt>
      <trkpt lat="45.66716" lon="2.84942">
        <ele>1069</ele>
        <time>2009-05-22T18:16:35Z</time>
      </trkpt>
      <trkpt lat="45.667" lon="2.84936">
        <ele>1071</ele>
        <time>2009-05-22T18:16:43Z</time>
      </trkpt>
      <trkpt lat="45.66686" lon="2.84932">
        <ele>1072</ele>
        <time>2009-05-22T18:16:50Z</time>
      </trkpt>
      <trkpt lat="45.66666" lon="2.84923">
        <ele>1074</ele>
        <time>2009-05-22T18:17:00Z</time>
      </trkpt>
      <trkpt lat="45.66652" lon="2.84918">
        <ele>1075</ele>
        <time>2009-05-22T18:17:07Z</time>
      </trkpt>
      <trkpt lat="45.6664" lon="2.84915">
        <ele>1076</ele>
        <time>2009-05-22T18:17:13Z</time>
      </trkpt>
      <trkpt lat="45.66628" lon="2.84914">
        <ele>1076</ele>
        <time>2009-05-22T18:17:18Z</time>
      </trkpt>
      <trkpt lat="45.66609" lon="2.84907">
        <ele>1077</ele>
        <time>2009-05-22T18:17:26Z</time>
      </trkpt>
      <trkpt lat="45.66589" lon="2.84898">
        <ele>1079</ele>
        <time>2009-05-22T18:17:35Z</time>
      </trkpt>
      <trkpt lat="45.66569" lon="2.84887">
        <ele>1080</ele>
        <time>2009-05-22T18:17:44Z</time>
      </trkpt>
      <trkpt lat="45.66545" lon="2.84873">
        <ele>1082</ele>
        <time>2009-05-22T18:17:55Z</time>
      </trkpt>
      <trkpt lat="45.66529" lon="2.84865">
        <ele>1083</ele>
        <time>2009-05-22T18:18:02Z</time>
      </trkpt>
      <trkpt lat="45.66505" lon="2.84853">
        <ele>1085</ele>
        <time>2009-05-22T18:18:12Z</time>
      </trkpt>
      <trkpt lat="45.66484" lon="2.84841">
        <ele>1087</ele>
        <time>2009-05-22T18:18:21Z</time>
      </trkpt>
      <trkpt lat="45.66468" lon="2.84829">
        <ele>1088</ele>
        <time>2009-05-22T18:18:28Z</time>
      </trkpt>
      <trkpt lat="45.66452" lon="2.84818">
        <ele>1090</ele>
        <time>2009-05-22T18:18:35Z</time>
      </trkpt>
      <trkpt lat="45.66433" lon="2.84805">
        <ele>1091</ele>
        <time>2009-05-22T18:18:43Z</time>
      </trkpt>
      <trkpt lat="45.66415" lon="2.84791">
        <ele>1091</ele>
        <time>2009-05-22T18:18:51Z</time>
      </trkpt>
      <trkpt lat="45.66397" lon="2.84779">
        <ele>1092</ele>
        <time>2009-05-22T18:18:59Z</time>
      </trkpt>
      <trkpt lat="45.66375" lon="2.84767">
        <ele>1092</ele>
        <time>2009-05-22T18:19:08Z</time>
      </trkpt>
      <trkpt lat="45.66349" lon="2.84751">
        <ele>1092</ele>
        <time>2009-05-22T18:19:19Z</time>
      </trkpt>
      <trkpt lat="45.66331" lon="2.84734">
        <ele>1092</ele>
        <time>2009-05-22T18:19:25Z</time>
      </trkpt>
      <trkpt lat="45.66327" lon="2.8473">
        <ele>1092</ele>
        <time>2009-05-22T18:19:26Z</time>
      </trkpt>
      <trkpt lat="45.66303" lon="2.84726">
        <ele>1092</ele>
        <time>2009-05-22T18:19:30Z</time>
      </trkpt>
      <trkpt lat="45.66299" lon="2.8473">
        <ele>1092</ele>
        <time>2009-05-22T18:19:31Z</time>
      </trkpt>
      <trkpt lat="45.66275" lon="2.84751">
        <ele>1094</ele>
        <time>2009-05-22T18:19:38Z</time>
      </trkpt>
      <trkpt lat="45.66254" lon="2.84764">
        <ele>1095</ele>
        <time>2009-05-22T18:19:45Z</time>
      </trkpt>
      <trkpt lat="45.66231" lon="2.8477">
        <ele>1095</ele>
        <time>2009-05-22T18:19:53Z</time>
      </trkpt>
      <trkpt lat="45.66214" lon="2.84775">
        <ele>1096</ele>
        <time>2009-05-22T18:20:00Z</time>
      </trkpt>
      <trkpt lat="45.66203" lon="2.84788">
        <ele>1097</ele>
        <time>2009-05-22T18:20:07Z</time>
      </trkpt>
      <trkpt lat="45.66202" lon="2.84805">
        <ele>1098</ele>
        <time>2009-05-22T18:20:13Z</time>
      </trkpt>
      <trkpt lat="45.66202" lon="2.84837">
        <ele>1098</ele>
        <time>2009-05-22T18:20:23Z</time>
      </trkpt>
      <trkpt lat="45.66201" lon="2.84867">
        <ele>1097</ele>
        <time>2009-05-22T18:20:32Z</time>
      </trkpt>
      <trkpt lat="45.66199" lon="2.84884">
        <ele>1097</ele>
        <time>2009-05-22T18:20:37Z</time>
      </trkpt>
      <trkpt lat="45.66191" lon="2.8489">
        <ele>1098</ele>
        <time>2009-05-22T18:20:41Z</time>
      </trkpt>
      <trkpt lat="45.66172" lon="2.849">
        <ele>1099</ele>
        <time>2009-05-22T18:20:50Z</time>
      </trkpt>
      <trkpt lat="45.66164" lon="2.84909">
        <ele>1099</ele>
        <time>2009-05-22T18:20:55Z</time>
      </trkpt>
      <trkpt lat="45.66153" lon="2.84915">
        <ele>1100</ele>
        <time>2009-05-22T18:21:01Z</time>
      </trkpt>
      <trkpt lat="45.66144" lon="2.8492">
        <ele>1101</ele>
        <time>2009-05-22T18:21:08Z</time>
      </trkpt>
      <trkpt lat="45.6613" lon="2.84928">
        <ele>1102</ele>
        <time>2009-05-22T18:21:16Z</time>
      </trkpt>
      <trkpt lat="45.66112" lon="2.84934">
        <ele>1103</ele>
        <time>2009-05-22T18:21:24Z</time>
      </trkpt>
      <trkpt lat="45.661" lon="2.84938">
        <ele>1104</ele>
        <time>2009-05-22T18:21:30Z</time>
      </trkpt>
      <trkpt lat="45.66094" lon="2.8494">
        <ele>1105</ele>
        <time>2009-05-22T18:21:33Z</time>
      </trkpt>
      <trkpt lat="45.66088" lon="2.84943">
        <ele>1105</ele>
        <time>2009-05-22T18:21:37Z</time>
      </trkpt>
      <trkpt lat="45.66077" lon="2.8495">
        <ele>1106</ele>
        <time>2009-05-22T18:21:44Z</time>
      </trkpt>
      <trkpt lat="45.66067" lon="2.84957">
        <ele>1106</ele>
        <time>2009-05-22T18:21:49Z</time>
      </trkpt>
      <trkpt lat="45.66057" lon="2.84958">
        <ele>1106</ele>
        <time>2009-05-22T18:21:56Z</time>
      </trkpt>
      <trkpt lat="45.66049" lon="2.8496">
        <ele>1107</ele>
        <time>2009-05-22T18:22:02Z</time>
      </trkpt>
      <trkpt lat="45.66039" lon="2.84963">
        <ele>1107</ele>
        <time>2009-05-22T18:22:09Z</time>
      </trkpt>
      <trkpt lat="45.66035" lon="2.84965">
        <ele>1108</ele>
        <time>2009-05-22T18:22:14Z</time>
      </trkpt>
      <trkpt lat="45.66025" lon="2.84968">
        <ele>1108</ele>
        <time>2009-05-22T18:22:21Z</time>
      </trkpt>
      <trkpt lat="45.66019" lon="2.84971">
        <ele>1108</ele>
        <time>2009-05-22T18:22:26Z</time>
      </trkpt>
      <trkpt lat="45.66013" lon="2.84976">
        <ele>1108</ele>
        <time>2009-05-22T18:22:32Z</time>
      </trkpt>
      <trkpt lat="45.66008" lon="2.84977">
        <ele>1108</ele>
        <time>2009-05-22T18:22:36Z</time>
      </trkpt>
      <trkpt lat="45.66" lon="2.8498">
        <ele>1109</ele>
        <time>2009-05-22T18:22:43Z</time>
      </trkpt>
      <trkpt lat="45.65991" lon="2.84984">
        <ele>1109</ele>
        <time>2009-05-22T18:22:49Z</time>
      </trkpt>
      <trkpt lat="45.65985" lon="2.84986">
        <ele>1110</ele>
        <time>2009-05-22T18:22:55Z</time>
      </trkpt>
      <trkpt lat="45.65977" lon="2.84988">
        <ele>1110</ele>
        <time>2009-05-22T18:23:00Z</time>
      </trkpt>
      <trkpt lat="45.65965" lon="2.8499">
        <ele>1111</ele>
        <time>2009-05-22T18:23:06Z</time>
      </trkpt>
      <trkpt lat="45.65955" lon="2.84991">
        <ele>1112</ele>
        <time>2009-05-22T18:23:11Z</time>
      </trkpt>
      <trkpt lat="45.65945" lon="2.84993">
        <ele>1113</ele>
        <time>2009-05-22T18:23:17Z</time>
      </trkpt>
      <trkpt lat="45.65934" lon="2.84996">
        <ele>1114</ele>
        <time>2009-05-22T18:23:25Z</time>
      </trkpt>
      <trkpt lat="45.65926" lon="2.84998">
        <ele>1115</ele>
        <time>2009-05-22T18:23:31Z</time>
      </trkpt>
      <trkpt lat="45.65918" lon="2.84999">
        <ele>1115</ele>
        <time>2009-05-22T18:23:38Z</time>
      </trkpt>
      <trkpt lat="45.65911" lon="2.85002">
        <ele>1116</ele>
        <time>2009-05-22T18:23:43Z</time>
      </trkpt>
      <trkpt lat="45.65903" lon="2.85007">
        <ele>1117</ele>
        <time>2009-05-22T18:23:50Z</time>
      </trkpt>
      <trkpt lat="45.65893" lon="2.85011">
        <ele>1117</ele>
        <time>2009-05-22T18:23:56Z</time>
      </trkpt>
      <trkpt lat="45.65884" lon="2.85014">
        <ele>1118</ele>
        <time>2009-05-22T18:24:03Z</time>
      </trkpt>
      <trkpt lat="45.65879" lon="2.85017">
        <ele>1119</ele>
        <time>2009-05-22T18:24:08Z</time>
      </trkpt>
      <trkpt lat="45.65868" lon="2.85022">
        <ele>1120</ele>
        <time>2009-05-22T18:24:16Z</time>
      </trkpt>
      <trkpt lat="45.65861" lon="2.85024">
        <ele>1120</ele>
        <time>2009-05-22T18:24:21Z</time>
      </trkpt>
      <trkpt lat="45.65855" lon="2.85027">
        <ele>1121</ele>
        <time>2009-05-22T18:24:26Z</time>
      </trkpt>
      <trkpt lat="45.65846" lon="2.85032">
        <ele>1122</ele>
        <time>2009-05-22T18:24:33Z</time>
      </trkpt>
      <trkpt lat="45.6584" lon="2.85035">
        <ele>1123</ele>
        <time>2009-05-22T18:24:39Z</time>
      </trkpt>
      <trkpt lat="45.65834" lon="2.85038">
        <ele>1124</ele>
        <time>2009-05-22T18:24:44Z</time>
      </trkpt>
      <trkpt lat="45.65827" lon="2.85047">
        <ele>1124</ele>
        <time>2009-05-22T18:24:51Z</time>
      </trkpt>
      <trkpt lat="45.65816" lon="2.85054">
        <ele>1125</ele>
        <time>2009-05-22T18:24:58Z</time>
      </trkpt>
      <trkpt lat="45.65807" lon="2.85061">
        <ele>1127</ele>
        <time>2009-05-22T18:25:05Z</time>
      </trkpt>
      <trkpt lat="45.65802" lon="2.85063">
        <ele>1127</ele>
        <time>2009-05-22T18:25:11Z</time>
      </trkpt>
      <trkpt lat="45.65797" lon="2.85065">
        <ele>1128</ele>
        <time>2009-05-22T18:25:18Z</time>
      </trkpt>
      <trkpt lat="45.65793" lon="2.85066">
        <ele>1128</ele>
        <time>2009-05-22T18:25:24Z</time>
      </trkpt>
      <trkpt lat="45.65789" lon="2.8507">
        <ele>1128</ele>
        <time>2009-05-22T18:25:30Z</time>
      </trkpt>
      <trkpt lat="45.65783" lon="2.85073">
        <ele>1129</ele>
        <time>2009-05-22T18:25:37Z</time>
      </trkpt>
      <trkpt lat="45.65782" lon="2.85074">
        <ele>1129</ele>
        <time>2009-05-22T18:25:44Z</time>
      </trkpt>
      <trkpt lat="45.6578" lon="2.85075">
        <ele>1129</ele>
        <time>2009-05-22T18:25:49Z</time>
      </trkpt>
      <trkpt lat="45.65771" lon="2.85077">
        <ele>1130</ele>
        <time>2009-05-22T18:25:57Z</time>
      </trkpt>
      <trkpt lat="45.65771" lon="2.8508">
        <ele>1130</ele>
        <time>2009-05-22T18:26:02Z</time>
      </trkpt>
      <trkpt lat="45.65769" lon="2.85081">
        <ele>1131</ele>
        <time>2009-05-22T18:26:09Z</time>
      </trkpt>
      <trkpt lat="45.65764" lon="2.85081">
        <ele>1131</ele>
        <time>2009-05-22T18:26:16Z</time>
      </trkpt>
      <trkpt lat="45.65761" lon="2.85082">
        <ele>1132</ele>
        <time>2009-05-22T18:26:21Z</time>
      </trkpt>
      <trkpt lat="45.65756" lon="2.85086">
        <ele>1132</ele>
        <time>2009-05-22T18:26:26Z</time>
      </trkpt>
      <trkpt lat="45.65746" lon="2.85091">
        <ele>1134</ele>
        <time>2009-05-22T18:26:33Z</time>
      </trkpt>
      <trkpt lat="45.65745" lon="2.85093">
        <ele>1134</ele>
        <time>2009-05-22T18:26:34Z</time>
      </trkpt>
      <trkpt lat="45.65739" lon="2.851">
        <ele>1134</ele>
        <time>2009-05-22T18:26:40Z</time>
      </trkpt>
      <trkpt lat="45.65731" lon="2.85109">
        <ele>1135</ele>
        <time>2009-05-22T18:26:48Z</time>
      </trkpt>
      <trkpt lat="45.65725" lon="2.85115">
        <ele>1136</ele>
        <time>2009-05-22T18:26:55Z</time>
      </trkpt>
      <trkpt lat="45.6572" lon="2.85125">
        <ele>1136</ele>
        <time>2009-05-22T18:27:02Z</time>
      </trkpt>
      <trkpt lat="45.65716" lon="2.85127">
        <ele>1137</ele>
        <time>2009-05-22T18:27:05Z</time>
      </trkpt>
      <trkpt lat="45.65705" lon="2.85135">
        <ele>1138</ele>
        <time>2009-05-22T18:27:12Z</time>
      </trkpt>
      <trkpt lat="45.65695" lon="2.85148">
        <ele>1139</ele>
        <time>2009-05-22T18:27:20Z</time>
      </trkpt>
      <trkpt lat="45.65688" lon="2.85157">
        <ele>1139</ele>
        <time>2009-05-22T18:27:26Z</time>
      </trkpt>
      <trkpt lat="45.65683" lon="2.85165">
        <ele>1140</ele>
        <time>2009-05-22T18:27:31Z</time>
      </trkpt>
      <trkpt lat="45.65683" lon="2.85167">
        <ele>1140</ele>
        <time>2009-05-22T18:27:32Z</time>
      </trkpt>
      <trkpt lat="45.65677" lon="2.85178">
        <ele>1140</ele>
        <time>2009-05-22T18:27:39Z</time>
      </trkpt>
      <trkpt lat="45.65673" lon="2.85187">
        <ele>1140</ele>
        <time>2009-05-22T18:27:45Z</time>
      </trkpt>
      <trkpt lat="45.65664" lon="2.85199">
        <ele>1141</ele>
        <time>2009-05-22T18:27:51Z</time>
      </trkpt>
      <trkpt lat="45.65658" lon="2.85211">
        <ele>1141</ele>
        <time>2009-05-22T18:27:56Z</time>
      </trkpt>
      <trkpt lat="45.65657" lon="2.85213">
        <ele>1141</ele>
        <time>2009-05-22T18:27:57Z</time>
      </trkpt>
      <trkpt lat="45.65645" lon="2.85226">
        <ele>1142</ele>
        <time>2009-05-22T18:28:04Z</time>
      </trkpt>
      <trkpt lat="45.65642" lon="2.85229">
        <ele>1143</ele>
        <time>2009-05-22T18:28:06Z</time>
      </trkpt>
      <trkpt lat="45.65634" lon="2.85238">
        <ele>1143</ele>
        <time>2009-05-22T18:28:12Z</time>
      </trkpt>
      <trkpt lat="45.65631" lon="2.85246">
        <ele>1144</ele>
        <time>2009-05-22T18:28:18Z</time>
      </trkpt>
      <trkpt lat="45.65626" lon="2.85253">
        <ele>1144</ele>
        <time>2009-05-22T18:28:23Z</time>
      </trkpt>
      <trkpt lat="45.65619" lon="2.85263">
        <ele>1145</ele>
        <time>2009-05-22T18:28:30Z</time>
      </trkpt>
      <trkpt lat="45.65609" lon="2.85275">
        <ele>1146</ele>
        <time>2009-05-22T18:28:39Z</time>
      </trkpt>
      <trkpt lat="45.65601" lon="2.85285">
        <ele>1147</ele>
        <time>2009-05-22T18:28:46Z</time>
      </trkpt>
      <trkpt lat="45.65593" lon="2.85293">
        <ele>1148</ele>
        <time>2009-05-22T18:28:53Z</time>
      </trkpt>
      <trkpt lat="45.65588" lon="2.85297">
        <ele>1148</ele>
        <time>2009-05-22T18:28:57Z</time>
      </trkpt>
      <trkpt lat="45.6558" lon="2.85304">
        <ele>1149</ele>
        <time>2009-05-22T18:29:05Z</time>
      </trkpt>
      <trkpt lat="45.65577" lon="2.8531">
        <ele>1149</ele>
        <time>2009-05-22T18:29:10Z</time>
      </trkpt>
      <trkpt lat="45.65567" lon="2.85319">
        <ele>1150</ele>
        <time>2009-05-22T18:29:17Z</time>
      </trkpt>
      <trkpt lat="45.65561" lon="2.85327">
        <ele>1151</ele>
        <time>2009-05-22T18:29:24Z</time>
      </trkpt>
      <trkpt lat="45.65558" lon="2.85334">
        <ele>1151</ele>
        <time>2009-05-22T18:29:30Z</time>
      </trkpt>
      <trkpt lat="45.65553" lon="2.85341">
        <ele>1152</ele>
        <time>2009-05-22T18:29:37Z</time>
      </trkpt>
      <trkpt lat="45.65546" lon="2.85347">
        <ele>1153</ele>
        <time>2009-05-22T18:29:45Z</time>
      </trkpt>
      <trkpt lat="45.6554" lon="2.85352">
        <ele>1153</ele>
        <time>2009-05-22T18:29:51Z</time>
      </trkpt>
      <trkpt lat="45.65537" lon="2.85357">
        <ele>1154</ele>
        <time>2009-05-22T18:29:57Z</time>
      </trkpt>
      <trkpt lat="45.6553" lon="2.85364">
        <ele>1155</ele>
        <time>2009-05-22T18:30:04Z</time>
      </trkpt>
      <trkpt lat="45.65526" lon="2.85373">
        <ele>1155</ele>
        <time>2009-05-22T18:30:11Z</time>
      </trkpt>
      <trkpt lat="45.65521" lon="2.85379">
        <ele>1156</ele>
        <time>2009-05-22T18:30:17Z</time>
      </trkpt>
      <trkpt lat="45.65514" lon="2.85383">
        <ele>1156</ele>
        <time>2009-05-22T18:30:24Z</time>
      </trkpt>
      <trkpt lat="45.65511" lon="2.85387">
        <ele>1157</ele>
        <time>2009-05-22T18:30:29Z</time>
      </trkpt>
      <trkpt lat="45.65507" lon="2.85389">
        <ele>1157</ele>
        <time>2009-05-22T18:30:35Z</time>
      </trkpt>
      <trkpt lat="45.65502" lon="2.85393">
        <ele>1158</ele>
        <time>2009-05-22T18:30:41Z</time>
      </trkpt>
      <trkpt lat="45.65495" lon="2.85397">
        <ele>1159</ele>
        <time>2009-05-22T18:30:46Z</time>
      </trkpt>
      <trkpt lat="45.65488" lon="2.85399">
        <ele>1160</ele>
        <time>2009-05-22T18:30:53Z</time>
      </trkpt>
      <trkpt lat="45.65478" lon="2.85402">
        <ele>1161</ele>
        <time>2009-05-22T18:31:00Z</time>
      </trkpt>
      <trkpt lat="45.65477" lon="2.85403">
        <ele>1161</ele>
        <time>2009-05-22T18:31:01Z</time>
      </trkpt>
      <trkpt lat="45.65468" lon="2.85405">
        <ele>1162</ele>
        <time>2009-05-22T18:31:08Z</time>
      </trkpt>
      <trkpt lat="45.6546" lon="2.85411">
        <ele>1163</ele>
        <time>2009-05-22T18:31:14Z</time>
      </trkpt>
      <trkpt lat="45.6545" lon="2.85415">
        <ele>1164</ele>
        <time>2009-05-22T18:31:21Z</time>
      </trkpt>
      <trkpt lat="45.65437" lon="2.85414">
        <ele>1166</ele>
        <time>2009-05-22T18:31:31Z</time>
      </trkpt>
      <trkpt lat="45.65436" lon="2.85413">
        <ele>1166</ele>
        <time>2009-05-22T18:31:32Z</time>
      </trkpt>
      <trkpt lat="45.65433" lon="2.85411">
        <ele>1166</ele>
        <time>2009-05-22T18:31:35Z</time>
      </trkpt>
      <trkpt lat="45.65426" lon="2.85401">
        <ele>1167</ele>
        <time>2009-05-22T18:31:44Z</time>
      </trkpt>
      <trkpt lat="45.65417" lon="2.85398">
        <ele>1168</ele>
        <time>2009-05-22T18:31:53Z</time>
      </trkpt>
      <trkpt lat="45.65416" lon="2.85398">
        <ele>1168</ele>
        <time>2009-05-22T18:31:54Z</time>
      </trkpt>
      <trkpt lat="45.65411" lon="2.85398">
        <ele>1169</ele>
        <time>2009-05-22T18:31:58Z</time>
      </trkpt>
      <trkpt lat="45.65398" lon="2.85401">
        <ele>1170</ele>
        <time>2009-05-22T18:32:07Z</time>
      </trkpt>
      <trkpt lat="45.65388" lon="2.85403">
        <ele>1172</ele>
        <time>2009-05-22T18:32:15Z</time>
      </trkpt>
      <trkpt lat="45.65381" lon="2.854">
        <ele>1172</ele>
        <time>2009-05-22T18:32:22Z</time>
      </trkpt>
      <trkpt lat="45.6537" lon="2.85396">
        <ele>1174</ele>
        <time>2009-05-22T18:32:32Z</time>
      </trkpt>
      <trkpt lat="45.6536" lon="2.85395">
        <ele>1175</ele>
        <time>2009-05-22T18:32:40Z</time>
      </trkpt>
      <trkpt lat="45.65348" lon="2.85395">
        <ele>1176</ele>
        <time>2009-05-22T18:32:50Z</time>
      </trkpt>
      <trkpt lat="45.65336" lon="2.85394">
        <ele>1178</ele>
        <time>2009-05-22T18:33:01Z</time>
      </trkpt>
      <trkpt lat="45.65326" lon="2.85394">
        <ele>1179</ele>
        <time>2009-05-22T18:33:10Z</time>
      </trkpt>
      <trkpt lat="45.6532" lon="2.85393">
        <ele>1179</ele>
        <time>2009-05-22T18:33:16Z</time>
      </trkpt>
      <trkpt lat="45.65316" lon="2.85385">
        <ele>1180</ele>
        <time>2009-05-22T18:33:21Z</time>
      </trkpt>
      <trkpt lat="45.65311" lon="2.85368">
        <ele>1180</ele>
        <time>2009-05-22T18:33:28Z</time>
      </trkpt>
      <trkpt lat="45.65305" lon="2.85353">
        <ele>1181</ele>
        <time>2009-05-22T18:33:35Z</time>
      </trkpt>
      <trkpt lat="45.65297" lon="2.85338">
        <ele>1181</ele>
        <time>2009-05-22T18:33:42Z</time>
      </trkpt>
      <trkpt lat="45.6529" lon="2.85321">
        <ele>1182</ele>
        <time>2009-05-22T18:33:49Z</time>
      </trkpt>
      <trkpt lat="45.65281" lon="2.85303">
        <ele>1183</ele>
        <time>2009-05-22T18:33:57Z</time>
      </trkpt>
      <trkpt lat="45.65272" lon="2.85287">
        <ele>1184</ele>
        <time>2009-05-22T18:34:04Z</time>
      </trkpt>
      <trkpt lat="45.65259" lon="2.85272">
        <ele>1184</ele>
        <time>2009-05-22T18:34:12Z</time>
      </trkpt>
      <trkpt lat="45.65246" lon="2.85262">
        <ele>1185</ele>
        <time>2009-05-22T18:34:19Z</time>
      </trkpt>
      <trkpt lat="45.65235" lon="2.85253">
        <ele>1186</ele>
        <time>2009-05-22T18:34:26Z</time>
      </trkpt>
      <trkpt lat="45.65233" lon="2.85251">
        <ele>1186</ele>
        <time>2009-05-22T18:34:27Z</time>
      </trkpt>
      <trkpt lat="45.65215" lon="2.85245">
        <ele>1186</ele>
        <time>2009-05-22T18:34:35Z</time>
      </trkpt>
      <trkpt lat="45.65199" lon="2.85239">
        <ele>1186</ele>
        <time>2009-05-22T18:34:43Z</time>
      </trkpt>
      <trkpt lat="45.65184" lon="2.85236">
        <ele>1186</ele>
        <time>2009-05-22T18:34:50Z</time>
      </trkpt>
      <trkpt lat="45.65165" lon="2.85233">
        <ele>1186</ele>
        <time>2009-05-22T18:34:58Z</time>
      </trkpt>
      <trkpt lat="45.65151" lon="2.85231">
        <ele>1187</ele>
        <time>2009-05-22T18:35:05Z</time>
      </trkpt>
      <trkpt lat="45.65137" lon="2.85229">
        <ele>1187</ele>
        <time>2009-05-22T18:35:12Z</time>
      </trkpt>
      <trkpt lat="45.65119" lon="2.85225">
        <ele>1187</ele>
        <time>2009-05-22T18:35:19Z</time>
      </trkpt>
      <trkpt lat="45.65098" lon="2.85223">
        <ele>1187</ele>
        <time>2009-05-22T18:35:26Z</time>
      </trkpt>
      <trkpt lat="45.6507" lon="2.85218">
        <ele>1187</ele>
        <time>2009-05-22T18:35:35Z</time>
      </trkpt>
      <trkpt lat="45.65045" lon="2.85215">
        <ele>1188</ele>
        <time>2009-05-22T18:35:41Z</time>
      </trkpt>
      <trkpt lat="45.65008" lon="2.85211">
        <ele>1188</ele>
        <time>2009-05-22T18:35:50Z</time>
      </trkpt>
      <trkpt lat="45.64984" lon="2.85209">
        <ele>1188</ele>
        <time>2009-05-22T18:35:57Z</time>
      </trkpt>
      <trkpt lat="45.64969" lon="2.85208">
        <ele>1188</ele>
        <time>2009-05-22T18:36:03Z</time>
      </trkpt>
      <trkpt lat="45.64965" lon="2.85207">
        <ele>1188</ele>
        <time>2009-05-22T18:36:05Z</time>
      </trkpt>
      <trkpt lat="45.64946" lon="2.85203">
        <ele>1188</ele>
        <time>2009-05-22T18:36:12Z</time>
      </trkpt>
      <trkpt lat="45.64924" lon="2.852">
        <ele>1187</ele>
        <time>2009-05-22T18:36:19Z</time>
      </trkpt>
      <trkpt lat="45.64898" lon="2.85196">
        <ele>1187</ele>
        <time>2009-05-22T18:36:27Z</time>
      </trkpt>
      <trkpt lat="45.64873" lon="2.85194">
        <ele>1187</ele>
        <time>2009-05-22T18:36:35Z</time>
      </trkpt>
      <trkpt lat="45.64859" lon="2.85192">
        <ele>1187</ele>
        <time>2009-05-22T18:36:40Z</time>
      </trkpt>
      <trkpt lat="45.64835" lon="2.8519">
        <ele>1187</ele>
        <time>2009-05-22T18:36:48Z</time>
      </trkpt>
      <trkpt lat="45.64819" lon="2.85188">
        <ele>1187</ele>
        <time>2009-05-22T18:36:54Z</time>
      </trkpt>
      <trkpt lat="45.6481" lon="2.85186">
        <ele>1187</ele>
        <time>2009-05-22T18:36:58Z</time>
      </trkpt>
      <trkpt lat="45.64799" lon="2.85183">
        <ele>1187</ele>
        <time>2009-05-22T18:37:05Z</time>
      </trkpt>
      <trkpt lat="45.64792" lon="2.8518">
        <ele>1187</ele>
        <time>2009-05-22T18:37:12Z</time>
      </trkpt>
      <trkpt lat="45.64792" lon="2.8518">
        <ele>1187</ele>
        <time>2009-05-22T18:37:15Z</time>
      </trkpt>
    </trkseg>
  </trk>
</gpx>